<?xml version="1.0" encoding="utf-8"?>
<gpx xmlns:xsi="http://www.w3.org/2001/XMLSchema-instance" xmlns:xsd="http://www.w3.org/2001/XMLSchema" version="1.1" creator="Shapelink.com" xmlns="http://www.topografix.com/GPX/1/1" xmlns:gpxtpx="http://www.garmin.com/xmlschemas/TrackPointExtension/v1">
  <metadata>
    <name>Löpning 400.13 km, 2011-04-24</name>
    <desc></desc>
    <author><name>Jojje Borssén</name></author> 
    <time>2011-04-24T11:07:35Z</time>
  </metadata>
  <trk>
    <name>Löpning 400.13 km, 2011-04-24</name>
    <trkseg>
      <trkpt lat="59.993951" lon="13.163052">
        <ele>125.06</ele>
        <time>2011-04-24T11:07:35Z</time>
      </trkpt>
      <trkpt lat="59.9939" lon="13.163093">
        <ele>125.07</ele>
        <time>2011-04-24T11:07:41Z</time>
      </trkpt>
      <trkpt lat="59.99388" lon="13.163112">
        <ele>125.336</ele>
        <time>2011-04-24T11:08:22Z</time>
      </trkpt>
      <trkpt lat="59.993851" lon="13.163155">
        <ele>125.507</ele>
        <time>2011-04-24T11:08:28Z</time>
      </trkpt>
      <trkpt lat="59.993812" lon="13.163199">
        <ele>125.555</ele>
        <time>2011-04-24T11:08:37Z</time>
      </trkpt>
      <trkpt lat="59.993707" lon="13.163301">
        <ele>125.913</ele>
        <time>2011-04-24T11:08:43Z</time>
      </trkpt>
      <trkpt lat="59.993531" lon="13.163406">
        <ele>126.227</ele>
        <time>2011-04-24T11:08:50Z</time>
      </trkpt>
      <trkpt lat="59.993219" lon="13.16358">
        <ele>126.861</ele>
        <time>2011-04-24T11:08:58Z</time>
      </trkpt>
      <trkpt lat="59.9928" lon="13.163844">
        <ele>128.048</ele>
        <time>2011-04-24T11:09:07Z</time>
      </trkpt>
      <trkpt lat="59.992435" lon="13.164087">
        <ele>129.127</ele>
        <time>2011-04-24T11:09:15Z</time>
      </trkpt>
      <trkpt lat="59.992071" lon="13.164367">
        <ele>129.342</ele>
        <time>2011-04-24T11:09:22Z</time>
      </trkpt>
      <trkpt lat="59.991607" lon="13.164807">
        <ele>129.705</ele>
        <time>2011-04-24T11:09:30Z</time>
      </trkpt>
      <trkpt lat="59.991155" lon="13.165293">
        <ele>130.677</ele>
        <time>2011-04-24T11:09:38Z</time>
      </trkpt>
      <trkpt lat="59.990726" lon="13.165778">
        <ele>131.672</ele>
        <time>2011-04-24T11:09:46Z</time>
      </trkpt>
      <trkpt lat="59.990284" lon="13.166345">
        <ele>133.072</ele>
        <time>2011-04-24T11:09:55Z</time>
      </trkpt>
      <trkpt lat="59.989865" lon="13.16704">
        <ele>134.024</ele>
        <time>2011-04-24T11:10:04Z</time>
      </trkpt>
      <trkpt lat="59.989501" lon="13.167715">
        <ele>134.43</ele>
        <time>2011-04-24T11:10:12Z</time>
      </trkpt>
      <trkpt lat="59.98908" lon="13.16848">
        <ele>135.356</ele>
        <time>2011-04-24T11:10:21Z</time>
      </trkpt>
      <trkpt lat="59.988653" lon="13.169221">
        <ele>136.531</ele>
        <time>2011-04-24T11:10:30Z</time>
      </trkpt>
      <trkpt lat="59.988187" lon="13.169976">
        <ele>137.947</ele>
        <time>2011-04-24T11:10:40Z</time>
      </trkpt>
      <trkpt lat="59.9878" lon="13.170589">
        <ele>140.195</ele>
        <time>2011-04-24T11:10:49Z</time>
      </trkpt>
      <trkpt lat="59.987409" lon="13.171183">
        <ele>141.808</ele>
        <time>2011-04-24T11:10:58Z</time>
      </trkpt>
      <trkpt lat="59.986896" lon="13.171917">
        <ele>143.146</ele>
        <time>2011-04-24T11:11:09Z</time>
      </trkpt>
      <trkpt lat="59.986461" lon="13.172497">
        <ele>143.798</ele>
        <time>2011-04-24T11:11:18Z</time>
      </trkpt>
      <trkpt lat="59.985964" lon="13.173141">
        <ele>144.965</ele>
        <time>2011-04-24T11:11:28Z</time>
      </trkpt>
      <trkpt lat="59.98559" lon="13.173623">
        <ele>146.687</ele>
        <time>2011-04-24T11:11:36Z</time>
      </trkpt>
      <trkpt lat="59.985267" lon="13.174053">
        <ele>148.692</ele>
        <time>2011-04-24T11:11:44Z</time>
      </trkpt>
      <trkpt lat="59.985178" lon="13.174194">
        <ele>149.872</ele>
        <time>2011-04-24T11:11:48Z</time>
      </trkpt>
      <trkpt lat="59.985063" lon="13.174327">
        <ele>150.55</ele>
        <time>2011-04-24T11:11:54Z</time>
      </trkpt>
      <trkpt lat="59.984968" lon="13.174448">
        <ele>151.439</ele>
        <time>2011-04-24T11:12:00Z</time>
      </trkpt>
      <trkpt lat="59.984875" lon="13.17455">
        <ele>151.888</ele>
        <time>2011-04-24T11:12:06Z</time>
      </trkpt>
      <trkpt lat="59.984779" lon="13.174676">
        <ele>152.255</ele>
        <time>2011-04-24T11:12:13Z</time>
      </trkpt>
      <trkpt lat="59.984709" lon="13.174783">
        <ele>152.594</ele>
        <time>2011-04-24T11:12:20Z</time>
      </trkpt>
      <trkpt lat="59.984709" lon="13.174784">
        <ele>152.649</ele>
        <time>2011-04-24T11:12:21Z</time>
      </trkpt>
      <trkpt lat="59.984637" lon="13.174866">
        <ele>152.831</ele>
        <time>2011-04-24T11:12:29Z</time>
      </trkpt>
      <trkpt lat="59.984486" lon="13.175077">
        <ele>152.943</ele>
        <time>2011-04-24T11:12:34Z</time>
      </trkpt>
      <trkpt lat="59.984223" lon="13.175504">
        <ele>153.001</ele>
        <time>2011-04-24T11:12:41Z</time>
      </trkpt>
      <trkpt lat="59.983929" lon="13.176085">
        <ele>153.953</ele>
        <time>2011-04-24T11:12:48Z</time>
      </trkpt>
      <trkpt lat="59.9837" lon="13.176638">
        <ele>155.151</ele>
        <time>2011-04-24T11:12:54Z</time>
      </trkpt>
      <trkpt lat="59.983438" lon="13.177561">
        <ele>156.745</ele>
        <time>2011-04-24T11:13:03Z</time>
      </trkpt>
      <trkpt lat="59.983297" lon="13.178436">
        <ele>158.739</ele>
        <time>2011-04-24T11:13:11Z</time>
      </trkpt>
      <trkpt lat="59.983266" lon="13.179376">
        <ele>159.792</ele>
        <time>2011-04-24T11:13:19Z</time>
      </trkpt>
      <trkpt lat="59.983356" lon="13.180326">
        <ele>160.718</ele>
        <time>2011-04-24T11:13:27Z</time>
      </trkpt>
      <trkpt lat="59.983537" lon="13.181126">
        <ele>161.039</ele>
        <time>2011-04-24T11:13:34Z</time>
      </trkpt>
      <trkpt lat="59.983766" lon="13.181578">
        <ele>161.22</ele>
        <time>2011-04-24T11:13:39Z</time>
      </trkpt>
      <trkpt lat="59.984077" lon="13.181875">
        <ele>161.071</ele>
        <time>2011-04-24T11:13:44Z</time>
      </trkpt>
      <trkpt lat="59.98453" lon="13.182054">
        <ele>160.201</ele>
        <time>2011-04-24T11:13:50Z</time>
      </trkpt>
      <trkpt lat="59.985381" lon="13.182311">
        <ele>160.72</ele>
        <time>2011-04-24T11:14:01Z</time>
      </trkpt>
      <trkpt lat="59.985737" lon="13.182619">
        <ele>160.941</ele>
        <time>2011-04-24T11:14:06Z</time>
      </trkpt>
      <trkpt lat="59.986122" lon="13.183186">
        <ele>160.866</ele>
        <time>2011-04-24T11:14:12Z</time>
      </trkpt>
      <trkpt lat="59.986525" lon="13.184048">
        <ele>160.01</ele>
        <time>2011-04-24T11:14:19Z</time>
      </trkpt>
      <trkpt lat="59.986799" lon="13.184892">
        <ele>158.024</ele>
        <time>2011-04-24T11:14:24Z</time>
      </trkpt>
      <trkpt lat="59.987026" lon="13.185956">
        <ele>154.904</ele>
        <time>2011-04-24T11:14:29Z</time>
      </trkpt>
      <trkpt lat="59.98742" lon="13.188266">
        <ele>147.885</ele>
        <time>2011-04-24T11:14:39Z</time>
      </trkpt>
      <trkpt lat="59.987866" lon="13.190854">
        <ele>141.222</ele>
        <time>2011-04-24T11:14:50Z</time>
      </trkpt>
      <trkpt lat="59.98825" lon="13.193069">
        <ele>134.34</ele>
        <time>2011-04-24T11:14:59Z</time>
      </trkpt>
      <trkpt lat="59.988332" lon="13.193552">
        <ele>133.618</ele>
        <time>2011-04-24T11:15:01Z</time>
      </trkpt>
      <trkpt lat="59.988519" lon="13.194946">
        <ele>132.629</ele>
        <time>2011-04-24T11:15:07Z</time>
      </trkpt>
      <trkpt lat="59.988651" lon="13.196463">
        <ele>132.992</ele>
        <time>2011-04-24T11:15:14Z</time>
      </trkpt>
      <trkpt lat="59.988787" lon="13.197207">
        <ele>132.787</ele>
        <time>2011-04-24T11:15:18Z</time>
      </trkpt>
      <trkpt lat="59.989004" lon="13.197837">
        <ele>132.422</ele>
        <time>2011-04-24T11:15:22Z</time>
      </trkpt>
      <trkpt lat="59.989395" lon="13.198782">
        <ele>133.957</ele>
        <time>2011-04-24T11:15:29Z</time>
      </trkpt>
      <trkpt lat="59.989674" lon="13.199438">
        <ele>136.388</ele>
        <time>2011-04-24T11:15:35Z</time>
      </trkpt>
      <trkpt lat="59.989864" lon="13.199921">
        <ele>137.683</ele>
        <time>2011-04-24T11:15:40Z</time>
      </trkpt>
      <trkpt lat="59.990052" lon="13.200511">
        <ele>139.125</ele>
        <time>2011-04-24T11:15:46Z</time>
      </trkpt>
      <trkpt lat="59.99018" lon="13.201162">
        <ele>140.768</ele>
        <time>2011-04-24T11:15:52Z</time>
      </trkpt>
      <trkpt lat="59.990185" lon="13.201806">
        <ele>140.567</ele>
        <time>2011-04-24T11:15:57Z</time>
      </trkpt>
      <trkpt lat="59.990107" lon="13.202555">
        <ele>138.786</ele>
        <time>2011-04-24T11:16:02Z</time>
      </trkpt>
      <trkpt lat="59.989945" lon="13.204038">
        <ele>137.537</ele>
        <time>2011-04-24T11:16:11Z</time>
      </trkpt>
      <trkpt lat="59.989783" lon="13.205281">
        <ele>134.804</ele>
        <time>2011-04-24T11:16:18Z</time>
      </trkpt>
      <trkpt lat="59.98958" lon="13.206712">
        <ele>134.244</ele>
        <time>2011-04-24T11:16:26Z</time>
      </trkpt>
      <trkpt lat="59.989427" lon="13.207785">
        <ele>133.692</ele>
        <time>2011-04-24T11:16:33Z</time>
      </trkpt>
      <trkpt lat="59.989291" lon="13.208713">
        <ele>131.931</ele>
        <time>2011-04-24T11:16:39Z</time>
      </trkpt>
      <trkpt lat="59.989191" lon="13.20943">
        <ele>129.898</ele>
        <time>2011-04-24T11:16:43Z</time>
      </trkpt>
      <trkpt lat="59.989062" lon="13.210398">
        <ele>126.847</ele>
        <time>2011-04-24T11:16:48Z</time>
      </trkpt>
      <trkpt lat="59.988872" lon="13.211754">
        <ele>124.451</ele>
        <time>2011-04-24T11:16:55Z</time>
      </trkpt>
      <trkpt lat="59.988728" lon="13.212812">
        <ele>123.564</ele>
        <time>2011-04-24T11:17:01Z</time>
      </trkpt>
      <trkpt lat="59.988558" lon="13.214069">
        <ele>122.196</ele>
        <time>2011-04-24T11:17:09Z</time>
      </trkpt>
      <trkpt lat="59.988337" lon="13.215524">
        <ele>120.38</ele>
        <time>2011-04-24T11:17:19Z</time>
      </trkpt>
      <trkpt lat="59.988069" lon="13.216966">
        <ele>118.624</ele>
        <time>2011-04-24T11:17:29Z</time>
      </trkpt>
      <trkpt lat="59.987895" lon="13.217927">
        <ele>116.253</ele>
        <time>2011-04-24T11:17:36Z</time>
      </trkpt>
      <trkpt lat="59.987863" lon="13.218167">
        <ele>115.633</ele>
        <time>2011-04-24T11:17:40Z</time>
      </trkpt>
      <trkpt lat="59.987872" lon="13.218485">
        <ele>115.285</ele>
        <time>2011-04-24T11:17:45Z</time>
      </trkpt>
      <trkpt lat="59.987918" lon="13.219008">
        <ele>115.109</ele>
        <time>2011-04-24T11:17:50Z</time>
      </trkpt>
      <trkpt lat="59.988035" lon="13.219794">
        <ele>115.359</ele>
        <time>2011-04-24T11:17:56Z</time>
      </trkpt>
      <trkpt lat="59.988184" lon="13.220697">
        <ele>115.111</ele>
        <time>2011-04-24T11:18:02Z</time>
      </trkpt>
      <trkpt lat="59.988301" lon="13.221373">
        <ele>114.057</ele>
        <time>2011-04-24T11:18:06Z</time>
      </trkpt>
      <trkpt lat="59.988346" lon="13.222342">
        <ele>111.752</ele>
        <time>2011-04-24T11:18:11Z</time>
      </trkpt>
      <trkpt lat="59.988262" lon="13.223081">
        <ele>112.27</ele>
        <time>2011-04-24T11:18:15Z</time>
      </trkpt>
      <trkpt lat="59.988229" lon="13.223244">
        <ele>112.574</ele>
        <time>2011-04-24T11:18:16Z</time>
      </trkpt>
      <trkpt lat="59.987949" lon="13.22407">
        <ele>114.863</ele>
        <time>2011-04-24T11:18:22Z</time>
      </trkpt>
      <trkpt lat="59.987567" lon="13.224655">
        <ele>115.841</ele>
        <time>2011-04-24T11:18:28Z</time>
      </trkpt>
      <trkpt lat="59.987056" lon="13.2253">
        <ele>116.815</ele>
        <time>2011-04-24T11:18:36Z</time>
      </trkpt>
      <trkpt lat="59.986763" lon="13.225764">
        <ele>119.179</ele>
        <time>2011-04-24T11:18:42Z</time>
      </trkpt>
      <trkpt lat="59.986442" lon="13.226442">
        <ele>121.732</ele>
        <time>2011-04-24T11:18:50Z</time>
      </trkpt>
      <trkpt lat="59.986131" lon="13.22724">
        <ele>124.987</ele>
        <time>2011-04-24T11:18:59Z</time>
      </trkpt>
      <trkpt lat="59.985803" lon="13.228185">
        <ele>127.303</ele>
        <time>2011-04-24T11:19:09Z</time>
      </trkpt>
      <trkpt lat="59.98556" lon="13.229006">
        <ele>129.876</ele>
        <time>2011-04-24T11:19:18Z</time>
      </trkpt>
      <trkpt lat="59.985385" lon="13.229887">
        <ele>130.638</ele>
        <time>2011-04-24T11:19:26Z</time>
      </trkpt>
      <trkpt lat="59.985199" lon="13.231092">
        <ele>132.889</ele>
        <time>2011-04-24T11:19:36Z</time>
      </trkpt>
      <trkpt lat="59.985038" lon="13.232152">
        <ele>135.601</ele>
        <time>2011-04-24T11:19:46Z</time>
      </trkpt>
      <trkpt lat="59.984914" lon="13.232985">
        <ele>137.655</ele>
        <time>2011-04-24T11:19:54Z</time>
      </trkpt>
      <trkpt lat="59.984772" lon="13.233863">
        <ele>139.136</ele>
        <time>2011-04-24T11:20:02Z</time>
      </trkpt>
      <trkpt lat="59.984601" lon="13.234923">
        <ele>141.698</ele>
        <time>2011-04-24T11:20:12Z</time>
      </trkpt>
      <trkpt lat="59.984434" lon="13.235726">
        <ele>142.209</ele>
        <time>2011-04-24T11:20:19Z</time>
      </trkpt>
      <trkpt lat="59.98422" lon="13.236715">
        <ele>143.371</ele>
        <time>2011-04-24T11:20:28Z</time>
      </trkpt>
      <trkpt lat="59.984041" lon="13.237597">
        <ele>146.252</ele>
        <time>2011-04-24T11:20:37Z</time>
      </trkpt>
      <trkpt lat="59.983891" lon="13.238319">
        <ele>147.104</ele>
        <time>2011-04-24T11:20:44Z</time>
      </trkpt>
      <trkpt lat="59.983656" lon="13.239507">
        <ele>147.3</ele>
        <time>2011-04-24T11:20:54Z</time>
      </trkpt>
      <trkpt lat="59.983416" lon="13.240769">
        <ele>149.053</ele>
        <time>2011-04-24T11:21:05Z</time>
      </trkpt>
      <trkpt lat="59.98319" lon="13.241783">
        <ele>150.504</ele>
        <time>2011-04-24T11:21:14Z</time>
      </trkpt>
      <trkpt lat="59.982988" lon="13.242462">
        <ele>152.621</ele>
        <time>2011-04-24T11:21:21Z</time>
      </trkpt>
      <trkpt lat="59.982692" lon="13.24333">
        <ele>154.363</ele>
        <time>2011-04-24T11:21:30Z</time>
      </trkpt>
      <trkpt lat="59.982414" lon="13.244103">
        <ele>156.17</ele>
        <time>2011-04-24T11:21:38Z</time>
      </trkpt>
      <trkpt lat="59.982095" lon="13.245036">
        <ele>158.733</ele>
        <time>2011-04-24T11:21:48Z</time>
      </trkpt>
      <trkpt lat="59.981821" lon="13.245821">
        <ele>161.783</ele>
        <time>2011-04-24T11:21:57Z</time>
      </trkpt>
      <trkpt lat="59.981516" lon="13.246689">
        <ele>164.855</ele>
        <time>2011-04-24T11:22:07Z</time>
      </trkpt>
      <trkpt lat="59.98125" lon="13.247424">
        <ele>166.61</ele>
        <time>2011-04-24T11:22:15Z</time>
      </trkpt>
      <trkpt lat="59.980926" lon="13.248392">
        <ele>167.014</ele>
        <time>2011-04-24T11:22:24Z</time>
      </trkpt>
      <trkpt lat="59.980677" lon="13.249345">
        <ele>168.067</ele>
        <time>2011-04-24T11:22:32Z</time>
      </trkpt>
      <trkpt lat="59.980387" lon="13.250573">
        <ele>168.531</ele>
        <time>2011-04-24T11:22:42Z</time>
      </trkpt>
      <trkpt lat="59.980093" lon="13.251917">
        <ele>168.927</ele>
        <time>2011-04-24T11:22:53Z</time>
      </trkpt>
      <trkpt lat="59.979894" lon="13.252826">
        <ele>168.258</ele>
        <time>2011-04-24T11:23:01Z</time>
      </trkpt>
      <trkpt lat="59.97985" lon="13.253022">
        <ele>168.107</ele>
        <time>2011-04-24T11:23:03Z</time>
      </trkpt>
      <trkpt lat="59.9797" lon="13.2532">
        <ele>168.049</ele>
        <time>2011-04-24T11:23:07Z</time>
      </trkpt>
      <trkpt lat="59.979609" lon="13.253082">
        <ele>168.169</ele>
        <time>2011-04-24T11:23:09Z</time>
      </trkpt>
      <trkpt lat="59.979199" lon="13.252277">
        <ele>167.861</ele>
        <time>2011-04-24T11:23:17Z</time>
      </trkpt>
      <trkpt lat="59.978826" lon="13.251626">
        <ele>166.457</ele>
        <time>2011-04-24T11:23:23Z</time>
      </trkpt>
      <trkpt lat="59.978423" lon="13.2511">
        <ele>165.529</ele>
        <time>2011-04-24T11:23:29Z</time>
      </trkpt>
      <trkpt lat="59.977948" lon="13.250786">
        <ele>164.666</ele>
        <time>2011-04-24T11:23:35Z</time>
      </trkpt>
      <trkpt lat="59.977513" lon="13.250641">
        <ele>163.632</ele>
        <time>2011-04-24T11:23:40Z</time>
      </trkpt>
      <trkpt lat="59.976751" lon="13.250411">
        <ele>163.133</ele>
        <time>2011-04-24T11:23:49Z</time>
      </trkpt>
      <trkpt lat="59.976071" lon="13.250276">
        <ele>163.705</ele>
        <time>2011-04-24T11:23:57Z</time>
      </trkpt>
      <trkpt lat="59.975467" lon="13.250127">
        <ele>164.353</ele>
        <time>2011-04-24T11:24:05Z</time>
      </trkpt>
      <trkpt lat="59.974867" lon="13.250061">
        <ele>164.86</ele>
        <time>2011-04-24T11:24:13Z</time>
      </trkpt>
      <trkpt lat="59.974489" lon="13.25024">
        <ele>164.828</ele>
        <time>2011-04-24T11:24:18Z</time>
      </trkpt>
      <trkpt lat="59.973839" lon="13.250636">
        <ele>163.435</ele>
        <time>2011-04-24T11:24:26Z</time>
      </trkpt>
      <trkpt lat="59.97342" lon="13.250774">
        <ele>162.89</ele>
        <time>2011-04-24T11:24:31Z</time>
      </trkpt>
      <trkpt lat="59.972991" lon="13.25066">
        <ele>162.015</ele>
        <time>2011-04-24T11:24:36Z</time>
      </trkpt>
      <trkpt lat="59.972589" lon="13.250344">
        <ele>161.019</ele>
        <time>2011-04-24T11:24:41Z</time>
      </trkpt>
      <trkpt lat="59.972062" lon="13.249727">
        <ele>160.198</ele>
        <time>2011-04-24T11:24:48Z</time>
      </trkpt>
      <trkpt lat="59.971747" lon="13.249461">
        <ele>159.739</ele>
        <time>2011-04-24T11:24:52Z</time>
      </trkpt>
      <trkpt lat="59.971318" lon="13.24942">
        <ele>159.465</ele>
        <time>2011-04-24T11:24:57Z</time>
      </trkpt>
      <trkpt lat="59.970902" lon="13.249595">
        <ele>159.8</ele>
        <time>2011-04-24T11:25:02Z</time>
      </trkpt>
      <trkpt lat="59.970478" lon="13.249673">
        <ele>160.096</ele>
        <time>2011-04-24T11:25:07Z</time>
      </trkpt>
      <trkpt lat="59.96988" lon="13.249725">
        <ele>160.768</ele>
        <time>2011-04-24T11:25:14Z</time>
      </trkpt>
      <trkpt lat="59.969246" lon="13.249898">
        <ele>161.655</ele>
        <time>2011-04-24T11:25:22Z</time>
      </trkpt>
      <trkpt lat="59.96842" lon="13.249947">
        <ele>161.644</ele>
        <time>2011-04-24T11:25:32Z</time>
      </trkpt>
      <trkpt lat="59.96791" lon="13.249797">
        <ele>161.665</ele>
        <time>2011-04-24T11:25:38Z</time>
      </trkpt>
      <trkpt lat="59.967395" lon="13.249558">
        <ele>161.52</ele>
        <time>2011-04-24T11:25:44Z</time>
      </trkpt>
      <trkpt lat="59.967046" lon="13.249639">
        <ele>161.21</ele>
        <time>2011-04-24T11:25:48Z</time>
      </trkpt>
      <trkpt lat="59.966895" lon="13.2498">
        <ele>161.142</ele>
        <time>2011-04-24T11:25:50Z</time>
      </trkpt>
      <trkpt lat="59.966351" lon="13.250473">
        <ele>159.244</ele>
        <time>2011-04-24T11:25:57Z</time>
      </trkpt>
      <trkpt lat="59.965657" lon="13.251232">
        <ele>156.958</ele>
        <time>2011-04-24T11:26:05Z</time>
      </trkpt>
      <trkpt lat="59.965133" lon="13.251815">
        <ele>156.561</ele>
        <time>2011-04-24T11:26:11Z</time>
      </trkpt>
      <trkpt lat="59.964642" lon="13.252036">
        <ele>155.235</ele>
        <time>2011-04-24T11:26:16Z</time>
      </trkpt>
      <trkpt lat="59.964119" lon="13.252073">
        <ele>153.441</ele>
        <time>2011-04-24T11:26:21Z</time>
      </trkpt>
      <trkpt lat="59.963902" lon="13.252076">
        <ele>152.697</ele>
        <time>2011-04-24T11:26:23Z</time>
      </trkpt>
      <trkpt lat="59.963355" lon="13.252189">
        <ele>150.612</ele>
        <time>2011-04-24T11:26:28Z</time>
      </trkpt>
      <trkpt lat="59.962962" lon="13.252526">
        <ele>149.476</ele>
        <time>2011-04-24T11:26:32Z</time>
      </trkpt>
      <trkpt lat="59.96246" lon="13.253204">
        <ele>148.821</ele>
        <time>2011-04-24T11:26:38Z</time>
      </trkpt>
      <trkpt lat="59.962057" lon="13.253362">
        <ele>147.869</ele>
        <time>2011-04-24T11:26:42Z</time>
      </trkpt>
      <trkpt lat="59.961627" lon="13.253213">
        <ele>146.149</ele>
        <time>2011-04-24T11:26:46Z</time>
      </trkpt>
      <trkpt lat="59.960911" lon="13.252977">
        <ele>145.566</ele>
        <time>2011-04-24T11:26:53Z</time>
      </trkpt>
      <trkpt lat="59.960185" lon="13.252836">
        <ele>144.985</ele>
        <time>2011-04-24T11:27:01Z</time>
      </trkpt>
      <trkpt lat="59.959415" lon="13.252711">
        <ele>143.983</ele>
        <time>2011-04-24T11:27:10Z</time>
      </trkpt>
      <trkpt lat="59.95899" lon="13.252828">
        <ele>143.33</ele>
        <time>2011-04-24T11:27:15Z</time>
      </trkpt>
      <trkpt lat="59.95838" lon="13.25322">
        <ele>141.854</ele>
        <time>2011-04-24T11:27:22Z</time>
      </trkpt>
      <trkpt lat="59.95792" lon="13.253236">
        <ele>140.533</ele>
        <time>2011-04-24T11:27:27Z</time>
      </trkpt>
      <trkpt lat="59.957588" lon="13.252943">
        <ele>139.597</ele>
        <time>2011-04-24T11:27:31Z</time>
      </trkpt>
      <trkpt lat="59.957025" lon="13.252376">
        <ele>137.75</ele>
        <time>2011-04-24T11:27:38Z</time>
      </trkpt>
      <trkpt lat="59.956581" lon="13.252265">
        <ele>137.376</ele>
        <time>2011-04-24T11:27:43Z</time>
      </trkpt>
      <trkpt lat="59.956061" lon="13.252396">
        <ele>137.688</ele>
        <time>2011-04-24T11:27:49Z</time>
      </trkpt>
      <trkpt lat="59.955557" lon="13.252455">
        <ele>137.745</ele>
        <time>2011-04-24T11:27:55Z</time>
      </trkpt>
      <trkpt lat="59.955193" lon="13.252292">
        <ele>139.577</ele>
        <time>2011-04-24T11:28:00Z</time>
      </trkpt>
      <trkpt lat="59.954705" lon="13.251984">
        <ele>142.522</ele>
        <time>2011-04-24T11:28:08Z</time>
      </trkpt>
      <trkpt lat="59.954425" lon="13.251597">
        <ele>142.561</ele>
        <time>2011-04-24T11:28:13Z</time>
      </trkpt>
      <trkpt lat="59.954076" lon="13.250856">
        <ele>142.174</ele>
        <time>2011-04-24T11:28:20Z</time>
      </trkpt>
      <trkpt lat="59.953771" lon="13.250384">
        <ele>141.505</ele>
        <time>2011-04-24T11:28:25Z</time>
      </trkpt>
      <trkpt lat="59.953419" lon="13.25011">
        <ele>141.948</ele>
        <time>2011-04-24T11:28:30Z</time>
      </trkpt>
      <trkpt lat="59.953072" lon="13.25008">
        <ele>143.261</ele>
        <time>2011-04-24T11:28:35Z</time>
      </trkpt>
      <trkpt lat="59.952525" lon="13.250058">
        <ele>144.762</ele>
        <time>2011-04-24T11:28:43Z</time>
      </trkpt>
      <trkpt lat="59.952018" lon="13.249958">
        <ele>144.194</ele>
        <time>2011-04-24T11:28:50Z</time>
      </trkpt>
      <trkpt lat="59.951498" lon="13.249837">
        <ele>141.203</ele>
        <time>2011-04-24T11:28:56Z</time>
      </trkpt>
      <trkpt lat="59.950868" lon="13.249778">
        <ele>140.213</ele>
        <time>2011-04-24T11:29:03Z</time>
      </trkpt>
      <trkpt lat="59.950269" lon="13.249958">
        <ele>139.1</ele>
        <time>2011-04-24T11:29:10Z</time>
      </trkpt>
      <trkpt lat="59.949548" lon="13.250185">
        <ele>139.786</ele>
        <time>2011-04-24T11:29:19Z</time>
      </trkpt>
      <trkpt lat="59.949164" lon="13.250427">
        <ele>139.444</ele>
        <time>2011-04-24T11:29:24Z</time>
      </trkpt>
      <trkpt lat="59.948621" lon="13.250902">
        <ele>137.809</ele>
        <time>2011-04-24T11:29:31Z</time>
      </trkpt>
      <trkpt lat="59.948179" lon="13.251052">
        <ele>136.744</ele>
        <time>2011-04-24T11:29:36Z</time>
      </trkpt>
      <trkpt lat="59.947757" lon="13.25091">
        <ele>136.411</ele>
        <time>2011-04-24T11:29:41Z</time>
      </trkpt>
      <trkpt lat="59.94712" lon="13.250496">
        <ele>135.997</ele>
        <time>2011-04-24T11:29:49Z</time>
      </trkpt>
      <trkpt lat="59.946662" lon="13.250013">
        <ele>134.93</ele>
        <time>2011-04-24T11:29:55Z</time>
      </trkpt>
      <trkpt lat="59.946356" lon="13.249403">
        <ele>134.086</ele>
        <time>2011-04-24T11:30:00Z</time>
      </trkpt>
      <trkpt lat="59.945931" lon="13.248438">
        <ele>134.493</ele>
        <time>2011-04-24T11:30:08Z</time>
      </trkpt>
      <trkpt lat="59.945557" lon="13.247798">
        <ele>136.184</ele>
        <time>2011-04-24T11:30:15Z</time>
      </trkpt>
      <trkpt lat="59.945041" lon="13.247128">
        <ele>138.882</ele>
        <time>2011-04-24T11:30:25Z</time>
      </trkpt>
      <trkpt lat="59.944582" lon="13.246612">
        <ele>140.453</ele>
        <time>2011-04-24T11:30:34Z</time>
      </trkpt>
      <trkpt lat="59.944173" lon="13.246323">
        <ele>140.594</ele>
        <time>2011-04-24T11:30:41Z</time>
      </trkpt>
      <trkpt lat="59.943646" lon="13.24618">
        <ele>139.905</ele>
        <time>2011-04-24T11:30:49Z</time>
      </trkpt>
      <trkpt lat="59.942973" lon="13.246062">
        <ele>140.006</ele>
        <time>2011-04-24T11:30:59Z</time>
      </trkpt>
      <trkpt lat="59.942457" lon="13.246062">
        <ele>138.827</ele>
        <time>2011-04-24T11:31:06Z</time>
      </trkpt>
      <trkpt lat="59.941918" lon="13.246117">
        <ele>135.85</ele>
        <time>2011-04-24T11:31:12Z</time>
      </trkpt>
      <trkpt lat="59.941525" lon="13.24624">
        <ele>133.706</ele>
        <time>2011-04-24T11:31:16Z</time>
      </trkpt>
      <trkpt lat="59.941243" lon="13.246385">
        <ele>132.409</ele>
        <time>2011-04-24T11:31:19Z</time>
      </trkpt>
      <trkpt lat="59.940558" lon="13.246724">
        <ele>132.985</ele>
        <time>2011-04-24T11:31:27Z</time>
      </trkpt>
      <trkpt lat="59.940072" lon="13.246813">
        <ele>132.505</ele>
        <time>2011-04-24T11:31:33Z</time>
      </trkpt>
      <trkpt lat="59.939591" lon="13.24668">
        <ele>131.727</ele>
        <time>2011-04-24T11:31:39Z</time>
      </trkpt>
      <trkpt lat="59.938891" lon="13.246388">
        <ele>131.461</ele>
        <time>2011-04-24T11:31:48Z</time>
      </trkpt>
      <trkpt lat="59.938238" lon="13.246196">
        <ele>129.816</ele>
        <time>2011-04-24T11:31:56Z</time>
      </trkpt>
      <trkpt lat="59.937847" lon="13.246354">
        <ele>129.932</ele>
        <time>2011-04-24T11:32:01Z</time>
      </trkpt>
      <trkpt lat="59.937524" lon="13.2467">
        <ele>131.381</ele>
        <time>2011-04-24T11:32:06Z</time>
      </trkpt>
      <trkpt lat="59.937295" lon="13.247007">
        <ele>132.916</ele>
        <time>2011-04-24T11:32:10Z</time>
      </trkpt>
      <trkpt lat="59.937172" lon="13.247118">
        <ele>133.346</ele>
        <time>2011-04-24T11:32:12Z</time>
      </trkpt>
      <trkpt lat="59.936708" lon="13.247289">
        <ele>133.626</ele>
        <time>2011-04-24T11:32:19Z</time>
      </trkpt>
      <trkpt lat="59.93632" lon="13.247199">
        <ele>134.67</ele>
        <time>2011-04-24T11:32:25Z</time>
      </trkpt>
      <trkpt lat="59.935747" lon="13.246936">
        <ele>136.444</ele>
        <time>2011-04-24T11:32:34Z</time>
      </trkpt>
      <trkpt lat="59.935075" lon="13.246602">
        <ele>136.743</ele>
        <time>2011-04-24T11:32:44Z</time>
      </trkpt>
      <trkpt lat="59.934645" lon="13.246514">
        <ele>136.322</ele>
        <time>2011-04-24T11:32:50Z</time>
      </trkpt>
      <trkpt lat="59.934153" lon="13.246579">
        <ele>137.015</ele>
        <time>2011-04-24T11:32:57Z</time>
      </trkpt>
      <trkpt lat="59.933535" lon="13.246723">
        <ele>140.129</ele>
        <time>2011-04-24T11:33:07Z</time>
      </trkpt>
      <trkpt lat="59.933002" lon="13.246898">
        <ele>141.922</ele>
        <time>2011-04-24T11:33:16Z</time>
      </trkpt>
      <trkpt lat="59.932503" lon="13.247031">
        <ele>142.565</ele>
        <time>2011-04-24T11:33:24Z</time>
      </trkpt>
      <trkpt lat="59.931953" lon="13.247013">
        <ele>142.246</ele>
        <time>2011-04-24T11:33:32Z</time>
      </trkpt>
      <trkpt lat="59.931339" lon="13.246838">
        <ele>141.152</ele>
        <time>2011-04-24T11:33:40Z</time>
      </trkpt>
      <trkpt lat="59.930892" lon="13.246854">
        <ele>141.913</ele>
        <time>2011-04-24T11:33:46Z</time>
      </trkpt>
      <trkpt lat="59.930548" lon="13.247063">
        <ele>143.011</ele>
        <time>2011-04-24T11:33:51Z</time>
      </trkpt>
      <trkpt lat="59.930072" lon="13.247414">
        <ele>143.66</ele>
        <time>2011-04-24T11:33:58Z</time>
      </trkpt>
      <trkpt lat="59.929602" lon="13.247573">
        <ele>142.53</ele>
        <time>2011-04-24T11:34:04Z</time>
      </trkpt>
      <trkpt lat="59.928924" lon="13.24782">
        <ele>141.096</ele>
        <time>2011-04-24T11:34:12Z</time>
      </trkpt>
      <trkpt lat="59.928402" lon="13.248066">
        <ele>142.82</ele>
        <time>2011-04-24T11:34:19Z</time>
      </trkpt>
      <trkpt lat="59.927799" lon="13.248298">
        <ele>145.458</ele>
        <time>2011-04-24T11:34:28Z</time>
      </trkpt>
      <trkpt lat="59.927328" lon="13.248319">
        <ele>146.468</ele>
        <time>2011-04-24T11:34:35Z</time>
      </trkpt>
      <trkpt lat="59.926679" lon="13.24831">
        <ele>146.051</ele>
        <time>2011-04-24T11:34:44Z</time>
      </trkpt>
      <trkpt lat="59.926253" lon="13.248369">
        <ele>145.836</ele>
        <time>2011-04-24T11:34:50Z</time>
      </trkpt>
      <trkpt lat="59.925566" lon="13.248614">
        <ele>145.809</ele>
        <time>2011-04-24T11:34:59Z</time>
      </trkpt>
      <trkpt lat="59.924993" lon="13.248832">
        <ele>144.018</ele>
        <time>2011-04-24T11:35:06Z</time>
      </trkpt>
      <trkpt lat="59.924831" lon="13.24886">
        <ele>143.972</ele>
        <time>2011-04-24T11:35:08Z</time>
      </trkpt>
      <trkpt lat="59.924418" lon="13.248732">
        <ele>143.059</ele>
        <time>2011-04-24T11:35:13Z</time>
      </trkpt>
      <trkpt lat="59.92391" lon="13.248278">
        <ele>140.322</ele>
        <time>2011-04-24T11:35:19Z</time>
      </trkpt>
      <trkpt lat="59.923269" lon="13.247708">
        <ele>136.456</ele>
        <time>2011-04-24T11:35:26Z</time>
      </trkpt>
      <trkpt lat="59.922849" lon="13.247547">
        <ele>134.582</ele>
        <time>2011-04-24T11:35:30Z</time>
      </trkpt>
      <trkpt lat="59.9224" lon="13.24762">
        <ele>133.36</ele>
        <time>2011-04-24T11:35:34Z</time>
      </trkpt>
      <trkpt lat="59.921721" lon="13.247871">
        <ele>131.923</ele>
        <time>2011-04-24T11:35:41Z</time>
      </trkpt>
      <trkpt lat="59.921247" lon="13.247898">
        <ele>131.148</ele>
        <time>2011-04-24T11:35:46Z</time>
      </trkpt>
      <trkpt lat="59.920759" lon="13.247752">
        <ele>129.478</ele>
        <time>2011-04-24T11:35:51Z</time>
      </trkpt>
      <trkpt lat="59.920156" lon="13.247518">
        <ele>126.764</ele>
        <time>2011-04-24T11:35:57Z</time>
      </trkpt>
      <trkpt lat="59.919249" lon="13.24718">
        <ele>123.308</ele>
        <time>2011-04-24T11:36:06Z</time>
      </trkpt>
      <trkpt lat="59.918143" lon="13.24678">
        <ele>120.367</ele>
        <time>2011-04-24T11:36:17Z</time>
      </trkpt>
      <trkpt lat="59.917162" lon="13.246438">
        <ele>117.688</ele>
        <time>2011-04-24T11:36:27Z</time>
      </trkpt>
      <trkpt lat="59.916432" lon="13.246062">
        <ele>118.045</ele>
        <time>2011-04-24T11:36:35Z</time>
      </trkpt>
      <trkpt lat="59.915913" lon="13.245508">
        <ele>116.705</ele>
        <time>2011-04-24T11:36:41Z</time>
      </trkpt>
      <trkpt lat="59.915216" lon="13.244574">
        <ele>114.342</ele>
        <time>2011-04-24T11:36:49Z</time>
      </trkpt>
      <trkpt lat="59.914536" lon="13.243781">
        <ele>109.942</ele>
        <time>2011-04-24T11:36:56Z</time>
      </trkpt>
      <trkpt lat="59.913789" lon="13.243147">
        <ele>106.56</ele>
        <time>2011-04-24T11:37:03Z</time>
      </trkpt>
      <trkpt lat="59.913475" lon="13.24291">
        <ele>105.054</ele>
        <time>2011-04-24T11:37:06Z</time>
      </trkpt>
      <trkpt lat="59.913051" lon="13.242732">
        <ele>103.815</ele>
        <time>2011-04-24T11:37:10Z</time>
      </trkpt>
      <trkpt lat="59.912633" lon="13.24278">
        <ele>103.515</ele>
        <time>2011-04-24T11:37:14Z</time>
      </trkpt>
      <trkpt lat="59.91163" lon="13.242988">
        <ele>100.801</ele>
        <time>2011-04-24T11:37:24Z</time>
      </trkpt>
      <trkpt lat="59.911107" lon="13.243096">
        <ele>101.475</ele>
        <time>2011-04-24T11:37:30Z</time>
      </trkpt>
      <trkpt lat="59.910607" lon="13.243107">
        <ele>100.933</ele>
        <time>2011-04-24T11:37:36Z</time>
      </trkpt>
      <trkpt lat="59.91027" lon="13.242883">
        <ele>99.625</ele>
        <time>2011-04-24T11:37:40Z</time>
      </trkpt>
      <trkpt lat="59.909876" lon="13.242382">
        <ele>98.246</ele>
        <time>2011-04-24T11:37:45Z</time>
      </trkpt>
      <trkpt lat="59.909127" lon="13.241363">
        <ele>94.318</ele>
        <time>2011-04-24T11:37:54Z</time>
      </trkpt>
      <trkpt lat="59.908466" lon="13.240478">
        <ele>92.832</ele>
        <time>2011-04-24T11:38:02Z</time>
      </trkpt>
      <trkpt lat="59.907949" lon="13.23983">
        <ele>93.445</ele>
        <time>2011-04-24T11:38:09Z</time>
      </trkpt>
      <trkpt lat="59.90729" lon="13.239252">
        <ele>92.427</ele>
        <time>2011-04-24T11:38:17Z</time>
      </trkpt>
      <trkpt lat="59.90622" lon="13.238351">
        <ele>91.464</ele>
        <time>2011-04-24T11:38:30Z</time>
      </trkpt>
      <trkpt lat="59.905633" lon="13.237973">
        <ele>90.541</ele>
        <time>2011-04-24T11:38:37Z</time>
      </trkpt>
      <trkpt lat="59.904848" lon="13.237709">
        <ele>89.379</ele>
        <time>2011-04-24T11:38:46Z</time>
      </trkpt>
      <trkpt lat="59.904198" lon="13.237498">
        <ele>87.039</ele>
        <time>2011-04-24T11:38:53Z</time>
      </trkpt>
      <trkpt lat="59.903598" lon="13.237409">
        <ele>84.636</ele>
        <time>2011-04-24T11:38:59Z</time>
      </trkpt>
      <trkpt lat="59.90301" lon="13.237526">
        <ele>84.613</ele>
        <time>2011-04-24T11:39:05Z</time>
      </trkpt>
      <trkpt lat="59.902472" lon="13.237677">
        <ele>85.765</ele>
        <time>2011-04-24T11:39:11Z</time>
      </trkpt>
      <trkpt lat="59.901946" lon="13.23763">
        <ele>87.533</ele>
        <time>2011-04-24T11:39:17Z</time>
      </trkpt>
      <trkpt lat="59.90137" lon="13.237392">
        <ele>88.797</ele>
        <time>2011-04-24T11:39:24Z</time>
      </trkpt>
      <trkpt lat="59.900877" lon="13.237255">
        <ele>89.222</ele>
        <time>2011-04-24T11:39:30Z</time>
      </trkpt>
      <trkpt lat="59.900398" lon="13.237335">
        <ele>89.788</ele>
        <time>2011-04-24T11:39:36Z</time>
      </trkpt>
      <trkpt lat="59.899916" lon="13.237295">
        <ele>90.614</ele>
        <time>2011-04-24T11:39:42Z</time>
      </trkpt>
      <trkpt lat="59.899479" lon="13.237047">
        <ele>91.252</ele>
        <time>2011-04-24T11:39:48Z</time>
      </trkpt>
      <trkpt lat="59.898648" lon="13.236396">
        <ele>92.933</ele>
        <time>2011-04-24T11:40:00Z</time>
      </trkpt>
      <trkpt lat="59.898028" lon="13.235968">
        <ele>94.703</ele>
        <time>2011-04-24T11:40:09Z</time>
      </trkpt>
      <trkpt lat="59.897571" lon="13.235848">
        <ele>95.078</ele>
        <time>2011-04-24T11:40:15Z</time>
      </trkpt>
      <trkpt lat="59.897111" lon="13.235919">
        <ele>94.972</ele>
        <time>2011-04-24T11:40:21Z</time>
      </trkpt>
      <trkpt lat="59.896665" lon="13.236179">
        <ele>95.623</ele>
        <time>2011-04-24T11:40:27Z</time>
      </trkpt>
      <trkpt lat="59.896172" lon="13.236679">
        <ele>97.012</ele>
        <time>2011-04-24T11:40:34Z</time>
      </trkpt>
      <trkpt lat="59.895629" lon="13.237289">
        <ele>97.867</ele>
        <time>2011-04-24T11:40:42Z</time>
      </trkpt>
      <trkpt lat="59.895112" lon="13.237765">
        <ele>97.533</ele>
        <time>2011-04-24T11:40:49Z</time>
      </trkpt>
      <trkpt lat="59.894678" lon="13.237909">
        <ele>96.145</ele>
        <time>2011-04-24T11:40:54Z</time>
      </trkpt>
      <trkpt lat="59.893784" lon="13.23811">
        <ele>94.452</ele>
        <time>2011-04-24T11:41:04Z</time>
      </trkpt>
      <trkpt lat="59.893301" lon="13.238127">
        <ele>95.11</ele>
        <time>2011-04-24T11:41:10Z</time>
      </trkpt>
      <trkpt lat="59.89275" lon="13.237985">
        <ele>95.713</ele>
        <time>2011-04-24T11:41:17Z</time>
      </trkpt>
      <trkpt lat="59.892223" lon="13.23768">
        <ele>96.774</ele>
        <time>2011-04-24T11:41:24Z</time>
      </trkpt>
      <trkpt lat="59.891676" lon="13.237192">
        <ele>95.837</ele>
        <time>2011-04-24T11:41:31Z</time>
      </trkpt>
      <trkpt lat="59.890971" lon="13.23663">
        <ele>93.492</ele>
        <time>2011-04-24T11:41:39Z</time>
      </trkpt>
      <trkpt lat="59.890337" lon="13.236338">
        <ele>92.625</ele>
        <time>2011-04-24T11:41:46Z</time>
      </trkpt>
      <trkpt lat="59.889672" lon="13.236137">
        <ele>91.819</ele>
        <time>2011-04-24T11:41:54Z</time>
      </trkpt>
      <trkpt lat="59.889074" lon="13.236024">
        <ele>91.577</ele>
        <time>2011-04-24T11:42:02Z</time>
      </trkpt>
      <trkpt lat="59.888744" lon="13.235909">
        <ele>91.363</ele>
        <time>2011-04-24T11:42:07Z</time>
      </trkpt>
      <trkpt lat="59.88828" lon="13.235789">
        <ele>91.182</ele>
        <time>2011-04-24T11:42:13Z</time>
      </trkpt>
      <trkpt lat="59.887611" lon="13.23561">
        <ele>89.945</ele>
        <time>2011-04-24T11:42:21Z</time>
      </trkpt>
      <trkpt lat="59.886893" lon="13.235301">
        <ele>90.186</ele>
        <time>2011-04-24T11:42:30Z</time>
      </trkpt>
      <trkpt lat="59.88632" lon="13.234874">
        <ele>89.396</ele>
        <time>2011-04-24T11:42:37Z</time>
      </trkpt>
      <trkpt lat="59.885858" lon="13.234363">
        <ele>89.927</ele>
        <time>2011-04-24T11:42:43Z</time>
      </trkpt>
      <trkpt lat="59.885231" lon="13.233497">
        <ele>91.57</ele>
        <time>2011-04-24T11:42:52Z</time>
      </trkpt>
      <trkpt lat="59.884783" lon="13.233035">
        <ele>92.205</ele>
        <time>2011-04-24T11:42:58Z</time>
      </trkpt>
      <trkpt lat="59.884312" lon="13.232795">
        <ele>91.958</ele>
        <time>2011-04-24T11:43:04Z</time>
      </trkpt>
      <trkpt lat="59.883595" lon="13.232653">
        <ele>93.053</ele>
        <time>2011-04-24T11:43:13Z</time>
      </trkpt>
      <trkpt lat="59.882926" lon="13.232544">
        <ele>94.564</ele>
        <time>2011-04-24T11:43:22Z</time>
      </trkpt>
      <trkpt lat="59.882383" lon="13.232299">
        <ele>94.411</ele>
        <time>2011-04-24T11:43:29Z</time>
      </trkpt>
      <trkpt lat="59.881797" lon="13.231793">
        <ele>94.923</ele>
        <time>2011-04-24T11:43:37Z</time>
      </trkpt>
      <trkpt lat="59.881276" lon="13.231419">
        <ele>95.874</ele>
        <time>2011-04-24T11:43:44Z</time>
      </trkpt>
      <trkpt lat="59.880442" lon="13.23089">
        <ele>96.79</ele>
        <time>2011-04-24T11:43:55Z</time>
      </trkpt>
      <trkpt lat="59.880074" lon="13.230545">
        <ele>96.529</ele>
        <time>2011-04-24T11:44:00Z</time>
      </trkpt>
      <trkpt lat="59.879687" lon="13.229985">
        <ele>96.659</ele>
        <time>2011-04-24T11:44:06Z</time>
      </trkpt>
      <trkpt lat="59.879316" lon="13.229723">
        <ele>96.887</ele>
        <time>2011-04-24T11:44:11Z</time>
      </trkpt>
      <trkpt lat="59.879236" lon="13.229704">
        <ele>96.978</ele>
        <time>2011-04-24T11:44:12Z</time>
      </trkpt>
      <trkpt lat="59.878394" lon="13.229631">
        <ele>96.45</ele>
        <time>2011-04-24T11:44:22Z</time>
      </trkpt>
      <trkpt lat="59.877672" lon="13.229572">
        <ele>97.359</ele>
        <time>2011-04-24T11:44:31Z</time>
      </trkpt>
      <trkpt lat="59.877035" lon="13.229485">
        <ele>97.096</ele>
        <time>2011-04-24T11:44:39Z</time>
      </trkpt>
      <trkpt lat="59.876623" lon="13.229274">
        <ele>96.58</ele>
        <time>2011-04-24T11:44:44Z</time>
      </trkpt>
      <trkpt lat="59.876235" lon="13.228875">
        <ele>95.614</ele>
        <time>2011-04-24T11:44:49Z</time>
      </trkpt>
      <trkpt lat="59.875892" lon="13.22828">
        <ele>95.123</ele>
        <time>2011-04-24T11:44:54Z</time>
      </trkpt>
      <trkpt lat="59.875621" lon="13.227498">
        <ele>92.997</ele>
        <time>2011-04-24T11:44:59Z</time>
      </trkpt>
      <trkpt lat="59.87539" lon="13.226382">
        <ele>91.145</ele>
        <time>2011-04-24T11:45:05Z</time>
      </trkpt>
      <trkpt lat="59.875054" lon="13.224897">
        <ele>89.463</ele>
        <time>2011-04-24T11:45:13Z</time>
      </trkpt>
      <trkpt lat="59.874721" lon="13.223951">
        <ele>88.731</ele>
        <time>2011-04-24T11:45:19Z</time>
      </trkpt>
      <trkpt lat="59.874306" lon="13.22313">
        <ele>88.074</ele>
        <time>2011-04-24T11:45:25Z</time>
      </trkpt>
      <trkpt lat="59.873747" lon="13.222337">
        <ele>87.999</ele>
        <time>2011-04-24T11:45:32Z</time>
      </trkpt>
      <trkpt lat="59.873215" lon="13.221842">
        <ele>87.422</ele>
        <time>2011-04-24T11:45:38Z</time>
      </trkpt>
      <trkpt lat="59.87266" lon="13.221536">
        <ele>87.643</ele>
        <time>2011-04-24T11:45:44Z</time>
      </trkpt>
      <trkpt lat="59.872025" lon="13.221386">
        <ele>88.491</ele>
        <time>2011-04-24T11:45:51Z</time>
      </trkpt>
      <trkpt lat="59.871317" lon="13.221143">
        <ele>87.878</ele>
        <time>2011-04-24T11:45:59Z</time>
      </trkpt>
      <trkpt lat="59.870536" lon="13.220734">
        <ele>86.153</ele>
        <time>2011-04-24T11:46:08Z</time>
      </trkpt>
      <trkpt lat="59.869691" lon="13.220428">
        <ele>87.165</ele>
        <time>2011-04-24T11:46:18Z</time>
      </trkpt>
      <trkpt lat="59.869238" lon="13.220073">
        <ele>86.464</ele>
        <time>2011-04-24T11:46:24Z</time>
      </trkpt>
      <trkpt lat="59.868604" lon="13.219397">
        <ele>86.932</ele>
        <time>2011-04-24T11:46:33Z</time>
      </trkpt>
      <trkpt lat="59.868066" lon="13.219072">
        <ele>87.269</ele>
        <time>2011-04-24T11:46:40Z</time>
      </trkpt>
      <trkpt lat="59.867642" lon="13.218894">
        <ele>88.185</ele>
        <time>2011-04-24T11:46:46Z</time>
      </trkpt>
      <trkpt lat="59.86733" lon="13.218766">
        <ele>88.674</ele>
        <time>2011-04-24T11:46:52Z</time>
      </trkpt>
      <trkpt lat="59.867141" lon="13.218668">
        <ele>89.3</ele>
        <time>2011-04-24T11:46:57Z</time>
      </trkpt>
      <trkpt lat="59.867073" lon="13.218327">
        <ele>89.403</ele>
        <time>2011-04-24T11:47:01Z</time>
      </trkpt>
      <trkpt lat="59.867055" lon="13.217455">
        <ele>89.62</ele>
        <time>2011-04-24T11:47:07Z</time>
      </trkpt>
      <trkpt lat="59.867007" lon="13.216033">
        <ele>90.326</ele>
        <time>2011-04-24T11:47:16Z</time>
      </trkpt>
      <trkpt lat="59.866972" lon="13.215554">
        <ele>89.923</ele>
        <time>2011-04-24T11:47:19Z</time>
      </trkpt>
      <trkpt lat="59.866829" lon="13.214961">
        <ele>89.04</ele>
        <time>2011-04-24T11:47:23Z</time>
      </trkpt>
      <trkpt lat="59.86638" lon="13.213932">
        <ele>87.752</ele>
        <time>2011-04-24T11:47:31Z</time>
      </trkpt>
      <trkpt lat="59.865864" lon="13.212782">
        <ele>86.989</ele>
        <time>2011-04-24T11:47:40Z</time>
      </trkpt>
      <trkpt lat="59.865444" lon="13.21206">
        <ele>86.983</ele>
        <time>2011-04-24T11:47:47Z</time>
      </trkpt>
      <trkpt lat="59.864991" lon="13.211461">
        <ele>87.87</ele>
        <time>2011-04-24T11:47:54Z</time>
      </trkpt>
      <trkpt lat="59.864567" lon="13.211026">
        <ele>87.767</ele>
        <time>2011-04-24T11:48:00Z</time>
      </trkpt>
      <trkpt lat="59.863927" lon="13.210616">
        <ele>88.135</ele>
        <time>2011-04-24T11:48:08Z</time>
      </trkpt>
      <trkpt lat="59.863185" lon="13.210145">
        <ele>87.465</ele>
        <time>2011-04-24T11:48:17Z</time>
      </trkpt>
      <trkpt lat="59.86267" lon="13.209603">
        <ele>87.545</ele>
        <time>2011-04-24T11:48:24Z</time>
      </trkpt>
      <trkpt lat="59.862189" lon="13.208886">
        <ele>86.131</ele>
        <time>2011-04-24T11:48:31Z</time>
      </trkpt>
      <trkpt lat="59.861478" lon="13.207744">
        <ele>84.777</ele>
        <time>2011-04-24T11:48:41Z</time>
      </trkpt>
      <trkpt lat="59.860878" lon="13.206796">
        <ele>85.019</ele>
        <time>2011-04-24T11:48:50Z</time>
      </trkpt>
      <trkpt lat="59.860221" lon="13.205752">
        <ele>85.631</ele>
        <time>2011-04-24T11:49:00Z</time>
      </trkpt>
      <trkpt lat="59.859544" lon="13.20465">
        <ele>85.94</ele>
        <time>2011-04-24T11:49:11Z</time>
      </trkpt>
      <trkpt lat="59.859197" lon="13.204191">
        <ele>87.362</ele>
        <time>2011-04-24T11:49:17Z</time>
      </trkpt>
      <trkpt lat="59.85886" lon="13.203953">
        <ele>88.287</ele>
        <time>2011-04-24T11:49:22Z</time>
      </trkpt>
      <trkpt lat="59.858302" lon="13.203765">
        <ele>89.754</ele>
        <time>2011-04-24T11:49:30Z</time>
      </trkpt>
      <trkpt lat="59.857536" lon="13.203531">
        <ele>92.268</ele>
        <time>2011-04-24T11:49:41Z</time>
      </trkpt>
      <trkpt lat="59.856922" lon="13.203341">
        <ele>91.984</ele>
        <time>2011-04-24T11:49:50Z</time>
      </trkpt>
      <trkpt lat="59.856371" lon="13.203114">
        <ele>93.167</ele>
        <time>2011-04-24T11:49:58Z</time>
      </trkpt>
      <trkpt lat="59.855922" lon="13.202684">
        <ele>93.384</ele>
        <time>2011-04-24T11:50:05Z</time>
      </trkpt>
      <trkpt lat="59.855535" lon="13.202111">
        <ele>94.653</ele>
        <time>2011-04-24T11:50:12Z</time>
      </trkpt>
      <trkpt lat="59.855125" lon="13.201435">
        <ele>96.377</ele>
        <time>2011-04-24T11:50:20Z</time>
      </trkpt>
      <trkpt lat="59.854682" lon="13.20075">
        <ele>96.927</ele>
        <time>2011-04-24T11:50:28Z</time>
      </trkpt>
      <trkpt lat="59.854175" lon="13.200087">
        <ele>96.25</ele>
        <time>2011-04-24T11:50:36Z</time>
      </trkpt>
      <trkpt lat="59.853632" lon="13.199537">
        <ele>96.26</ele>
        <time>2011-04-24T11:50:44Z</time>
      </trkpt>
      <trkpt lat="59.852907" lon="13.198838">
        <ele>95.741</ele>
        <time>2011-04-24T11:50:54Z</time>
      </trkpt>
      <trkpt lat="59.852286" lon="13.198236">
        <ele>93.948</ele>
        <time>2011-04-24T11:51:02Z</time>
      </trkpt>
      <trkpt lat="59.851592" lon="13.197568">
        <ele>90.949</ele>
        <time>2011-04-24T11:51:10Z</time>
      </trkpt>
      <trkpt lat="59.850673" lon="13.196688">
        <ele>87.791</ele>
        <time>2011-04-24T11:51:20Z</time>
      </trkpt>
      <trkpt lat="59.849908" lon="13.19595">
        <ele>87.072</ele>
        <time>2011-04-24T11:51:29Z</time>
      </trkpt>
      <trkpt lat="59.849266" lon="13.195216">
        <ele>88.264</ele>
        <time>2011-04-24T11:51:37Z</time>
      </trkpt>
      <trkpt lat="59.848782" lon="13.194415">
        <ele>88.108</ele>
        <time>2011-04-24T11:51:44Z</time>
      </trkpt>
      <trkpt lat="59.848201" lon="13.193331">
        <ele>86.328</ele>
        <time>2011-04-24T11:51:53Z</time>
      </trkpt>
      <trkpt lat="59.847523" lon="13.192078">
        <ele>85.748</ele>
        <time>2011-04-24T11:52:03Z</time>
      </trkpt>
      <trkpt lat="59.847047" lon="13.191269">
        <ele>85.79</ele>
        <time>2011-04-24T11:52:10Z</time>
      </trkpt>
      <trkpt lat="59.846608" lon="13.190735">
        <ele>86.097</ele>
        <time>2011-04-24T11:52:16Z</time>
      </trkpt>
      <trkpt lat="59.846091" lon="13.190368">
        <ele>85.263</ele>
        <time>2011-04-24T11:52:22Z</time>
      </trkpt>
      <trkpt lat="59.84556" lon="13.190214">
        <ele>84.776</ele>
        <time>2011-04-24T11:52:28Z</time>
      </trkpt>
      <trkpt lat="59.844869" lon="13.190158">
        <ele>84.383</ele>
        <time>2011-04-24T11:52:36Z</time>
      </trkpt>
      <trkpt lat="59.843998" lon="13.190097">
        <ele>85.393</ele>
        <time>2011-04-24T11:52:47Z</time>
      </trkpt>
      <trkpt lat="59.843163" lon="13.190074">
        <ele>84.516</ele>
        <time>2011-04-24T11:52:57Z</time>
      </trkpt>
      <trkpt lat="59.842279" lon="13.190059">
        <ele>83.356</ele>
        <time>2011-04-24T11:53:07Z</time>
      </trkpt>
      <trkpt lat="59.84154" lon="13.189928">
        <ele>82.773</ele>
        <time>2011-04-24T11:53:15Z</time>
      </trkpt>
      <trkpt lat="59.840856" lon="13.189767">
        <ele>82.616</ele>
        <time>2011-04-24T11:53:23Z</time>
      </trkpt>
      <trkpt lat="59.840298" lon="13.189648">
        <ele>83.692</ele>
        <time>2011-04-24T11:53:30Z</time>
      </trkpt>
      <trkpt lat="59.840044" lon="13.189341">
        <ele>83.959</ele>
        <time>2011-04-24T11:53:34Z</time>
      </trkpt>
      <trkpt lat="59.83998" lon="13.189036">
        <ele>83.533</ele>
        <time>2011-04-24T11:53:36Z</time>
      </trkpt>
      <trkpt lat="59.839684" lon="13.186711">
        <ele>82.986</ele>
        <time>2011-04-24T11:53:50Z</time>
      </trkpt>
      <trkpt lat="59.839496" lon="13.185256">
        <ele>82.08</ele>
        <time>2011-04-24T11:53:58Z</time>
      </trkpt>
      <trkpt lat="59.83925" lon="13.183392">
        <ele>80.728</ele>
        <time>2011-04-24T11:54:08Z</time>
      </trkpt>
      <trkpt lat="59.83908" lon="13.182069">
        <ele>81.581</ele>
        <time>2011-04-24T11:54:16Z</time>
      </trkpt>
      <trkpt lat="59.838886" lon="13.180524">
        <ele>82.122</ele>
        <time>2011-04-24T11:54:26Z</time>
      </trkpt>
      <trkpt lat="59.838719" lon="13.178856">
        <ele>81.875</ele>
        <time>2011-04-24T11:54:36Z</time>
      </trkpt>
      <trkpt lat="59.838603" lon="13.177276">
        <ele>80.855</ele>
        <time>2011-04-24T11:54:45Z</time>
      </trkpt>
      <trkpt lat="59.838526" lon="13.175314">
        <ele>79.915</ele>
        <time>2011-04-24T11:54:56Z</time>
      </trkpt>
      <trkpt lat="59.838498" lon="13.173526">
        <ele>79.444</ele>
        <time>2011-04-24T11:55:06Z</time>
      </trkpt>
      <trkpt lat="59.83847" lon="13.171804">
        <ele>78.958</ele>
        <time>2011-04-24T11:55:16Z</time>
      </trkpt>
      <trkpt lat="59.838451" lon="13.170116">
        <ele>78.992</ele>
        <time>2011-04-24T11:55:26Z</time>
      </trkpt>
      <trkpt lat="59.838466" lon="13.168322">
        <ele>79.833</ele>
        <time>2011-04-24T11:55:37Z</time>
      </trkpt>
      <trkpt lat="59.838509" lon="13.166738">
        <ele>79.781</ele>
        <time>2011-04-24T11:55:47Z</time>
      </trkpt>
      <trkpt lat="59.838591" lon="13.165162">
        <ele>80.519</ele>
        <time>2011-04-24T11:55:57Z</time>
      </trkpt>
      <trkpt lat="59.838736" lon="13.163634">
        <ele>80.76</ele>
        <time>2011-04-24T11:56:07Z</time>
      </trkpt>
      <trkpt lat="59.838922" lon="13.16228">
        <ele>81.219</ele>
        <time>2011-04-24T11:56:16Z</time>
      </trkpt>
      <trkpt lat="59.839151" lon="13.161017">
        <ele>81.811</ele>
        <time>2011-04-24T11:56:25Z</time>
      </trkpt>
      <trkpt lat="59.839386" lon="13.15996">
        <ele>82.087</ele>
        <time>2011-04-24T11:56:34Z</time>
      </trkpt>
      <trkpt lat="59.83947" lon="13.159614">
        <ele>82.018</ele>
        <time>2011-04-24T11:56:39Z</time>
      </trkpt>
      <trkpt lat="59.839507" lon="13.159361">
        <ele>81.903</ele>
        <time>2011-04-24T11:56:43Z</time>
      </trkpt>
      <trkpt lat="59.839401" lon="13.159104">
        <ele>82.111</ele>
        <time>2011-04-24T11:56:47Z</time>
      </trkpt>
      <trkpt lat="59.839166" lon="13.159069">
        <ele>82.248</ele>
        <time>2011-04-24T11:56:51Z</time>
      </trkpt>
      <trkpt lat="59.838956" lon="13.159174">
        <ele>82.56</ele>
        <time>2011-04-24T11:56:54Z</time>
      </trkpt>
      <trkpt lat="59.83818" lon="13.159818">
        <ele>83.134</ele>
        <time>2011-04-24T11:57:05Z</time>
      </trkpt>
      <trkpt lat="59.837541" lon="13.160341">
        <ele>83.22</ele>
        <time>2011-04-24T11:57:14Z</time>
      </trkpt>
      <trkpt lat="59.837161" lon="13.160642">
        <ele>83.938</ele>
        <time>2011-04-24T11:57:20Z</time>
      </trkpt>
      <trkpt lat="59.836852" lon="13.160831">
        <ele>84.096</ele>
        <time>2011-04-24T11:57:25Z</time>
      </trkpt>
      <trkpt lat="59.836353" lon="13.161129">
        <ele>84.335</ele>
        <time>2011-04-24T11:57:32Z</time>
      </trkpt>
      <trkpt lat="59.835534" lon="13.161545">
        <ele>84.415</ele>
        <time>2011-04-24T11:57:42Z</time>
      </trkpt>
      <trkpt lat="59.834789" lon="13.161917">
        <ele>84.217</ele>
        <time>2011-04-24T11:57:51Z</time>
      </trkpt>
      <trkpt lat="59.833794" lon="13.16239">
        <ele>83.541</ele>
        <time>2011-04-24T11:58:03Z</time>
      </trkpt>
      <trkpt lat="59.833235" lon="13.162535">
        <ele>84.135</ele>
        <time>2011-04-24T11:58:10Z</time>
      </trkpt>
      <trkpt lat="59.832608" lon="13.162507">
        <ele>84.398</ele>
        <time>2011-04-24T11:58:18Z</time>
      </trkpt>
      <trkpt lat="59.831943" lon="13.162405">
        <ele>85.188</ele>
        <time>2011-04-24T11:58:27Z</time>
      </trkpt>
      <trkpt lat="59.831127" lon="13.162288">
        <ele>86.156</ele>
        <time>2011-04-24T11:58:38Z</time>
      </trkpt>
      <trkpt lat="59.830466" lon="13.162191">
        <ele>86.925</ele>
        <time>2011-04-24T11:58:47Z</time>
      </trkpt>
      <trkpt lat="59.829798" lon="13.16213">
        <ele>87.798</ele>
        <time>2011-04-24T11:58:56Z</time>
      </trkpt>
      <trkpt lat="59.829362" lon="13.162254">
        <ele>88.7</ele>
        <time>2011-04-24T11:59:02Z</time>
      </trkpt>
      <trkpt lat="59.828966" lon="13.162589">
        <ele>89.633</ele>
        <time>2011-04-24T11:59:08Z</time>
      </trkpt>
      <trkpt lat="59.828622" lon="13.163084">
        <ele>90.564</ele>
        <time>2011-04-24T11:59:14Z</time>
      </trkpt>
      <trkpt lat="59.82809" lon="13.163996">
        <ele>92.702</ele>
        <time>2011-04-24T11:59:24Z</time>
      </trkpt>
      <trkpt lat="59.82751" lon="13.165014">
        <ele>94.324</ele>
        <time>2011-04-24T11:59:35Z</time>
      </trkpt>
      <trkpt lat="59.82702" lon="13.16587">
        <ele>95.559</ele>
        <time>2011-04-24T11:59:44Z</time>
      </trkpt>
      <trkpt lat="59.826507" lon="13.166773">
        <ele>95.774</ele>
        <time>2011-04-24T11:59:53Z</time>
      </trkpt>
      <trkpt lat="59.825966" lon="13.167694">
        <ele>96.278</ele>
        <time>2011-04-24T12:00:02Z</time>
      </trkpt>
      <trkpt lat="59.825485" lon="13.168355">
        <ele>98.085</ele>
        <time>2011-04-24T12:00:10Z</time>
      </trkpt>
      <trkpt lat="59.825067" lon="13.168755">
        <ele>100.073</ele>
        <time>2011-04-24T12:00:17Z</time>
      </trkpt>
      <trkpt lat="59.824626" lon="13.169088">
        <ele>101.638</ele>
        <time>2011-04-24T12:00:24Z</time>
      </trkpt>
      <trkpt lat="59.82398" lon="13.169552">
        <ele>103.565</ele>
        <time>2011-04-24T12:00:34Z</time>
      </trkpt>
      <trkpt lat="59.823427" lon="13.169895">
        <ele>105.04</ele>
        <time>2011-04-24T12:00:42Z</time>
      </trkpt>
      <trkpt lat="59.822793" lon="13.170171">
        <ele>106.933</ele>
        <time>2011-04-24T12:00:51Z</time>
      </trkpt>
      <trkpt lat="59.822062" lon="13.170426">
        <ele>108.451</ele>
        <time>2011-04-24T12:01:01Z</time>
      </trkpt>
      <trkpt lat="59.82142" lon="13.170643">
        <ele>111.275</ele>
        <time>2011-04-24T12:01:10Z</time>
      </trkpt>
      <trkpt lat="59.821291" lon="13.170716">
        <ele>112.054</ele>
        <time>2011-04-24T12:01:12Z</time>
      </trkpt>
      <trkpt lat="59.820851" lon="13.171016">
        <ele>114.186</ele>
        <time>2011-04-24T12:01:19Z</time>
      </trkpt>
      <trkpt lat="59.820534" lon="13.171406">
        <ele>116.441</ele>
        <time>2011-04-24T12:01:25Z</time>
      </trkpt>
      <trkpt lat="59.82031" lon="13.171834">
        <ele>118.018</ele>
        <time>2011-04-24T12:01:30Z</time>
      </trkpt>
      <trkpt lat="59.820001" lon="13.172484">
        <ele>120.264</ele>
        <time>2011-04-24T12:01:37Z</time>
      </trkpt>
      <trkpt lat="59.819637" lon="13.17331">
        <ele>122.048</ele>
        <time>2011-04-24T12:01:45Z</time>
      </trkpt>
      <trkpt lat="59.819134" lon="13.174485">
        <ele>124.564</ele>
        <time>2011-04-24T12:01:56Z</time>
      </trkpt>
      <trkpt lat="59.81884" lon="13.175393">
        <ele>126.434</ele>
        <time>2011-04-24T12:02:04Z</time>
      </trkpt>
      <trkpt lat="59.818672" lon="13.176189">
        <ele>127.716</ele>
        <time>2011-04-24T12:02:10Z</time>
      </trkpt>
      <trkpt lat="59.81846" lon="13.177485">
        <ele>127.991</ele>
        <time>2011-04-24T12:02:19Z</time>
      </trkpt>
      <trkpt lat="59.818235" lon="13.179001">
        <ele>129.628</ele>
        <time>2011-04-24T12:02:29Z</time>
      </trkpt>
      <trkpt lat="59.817997" lon="13.180465">
        <ele>128.198</ele>
        <time>2011-04-24T12:02:39Z</time>
      </trkpt>
      <trkpt lat="59.817794" lon="13.181568">
        <ele>128.487</ele>
        <time>2011-04-24T12:02:47Z</time>
      </trkpt>
      <trkpt lat="59.81758" lon="13.182262">
        <ele>128.212</ele>
        <time>2011-04-24T12:02:53Z</time>
      </trkpt>
      <trkpt lat="59.81731" lon="13.182826">
        <ele>128.381</ele>
        <time>2011-04-24T12:02:59Z</time>
      </trkpt>
      <trkpt lat="59.817036" lon="13.183214">
        <ele>128.793</ele>
        <time>2011-04-24T12:03:04Z</time>
      </trkpt>
      <trkpt lat="59.816776" lon="13.183446">
        <ele>129.165</ele>
        <time>2011-04-24T12:03:08Z</time>
      </trkpt>
      <trkpt lat="59.816214" lon="13.183772">
        <ele>129.47</ele>
        <time>2011-04-24T12:03:17Z</time>
      </trkpt>
      <trkpt lat="59.815653" lon="13.184016">
        <ele>130.164</ele>
        <time>2011-04-24T12:03:26Z</time>
      </trkpt>
      <trkpt lat="59.81511" lon="13.184255">
        <ele>130.66</ele>
        <time>2011-04-24T12:03:35Z</time>
      </trkpt>
      <trkpt lat="59.814596" lon="13.184487">
        <ele>130.754</ele>
        <time>2011-04-24T12:03:44Z</time>
      </trkpt>
      <trkpt lat="59.814273" lon="13.184676">
        <ele>131.084</ele>
        <time>2011-04-24T12:03:51Z</time>
      </trkpt>
      <trkpt lat="59.814033" lon="13.184909">
        <ele>130.85</ele>
        <time>2011-04-24T12:03:57Z</time>
      </trkpt>
      <trkpt lat="59.813773" lon="13.185275">
        <ele>130.573</ele>
        <time>2011-04-24T12:04:03Z</time>
      </trkpt>
      <trkpt lat="59.813489" lon="13.185739">
        <ele>130.13</ele>
        <time>2011-04-24T12:04:09Z</time>
      </trkpt>
      <trkpt lat="59.813294" lon="13.186063">
        <ele>129.71</ele>
        <time>2011-04-24T12:04:13Z</time>
      </trkpt>
      <trkpt lat="59.812998" lon="13.186566">
        <ele>128.788</ele>
        <time>2011-04-24T12:04:19Z</time>
      </trkpt>
      <trkpt lat="59.812451" lon="13.187302">
        <ele>126.638</ele>
        <time>2011-04-24T12:04:28Z</time>
      </trkpt>
      <trkpt lat="59.811876" lon="13.187869">
        <ele>124.045</ele>
        <time>2011-04-24T12:04:36Z</time>
      </trkpt>
      <trkpt lat="59.811156" lon="13.188426">
        <ele>121.167</ele>
        <time>2011-04-24T12:04:45Z</time>
      </trkpt>
      <trkpt lat="59.810566" lon="13.188779">
        <ele>119.872</ele>
        <time>2011-04-24T12:04:52Z</time>
      </trkpt>
      <trkpt lat="59.810067" lon="13.188963">
        <ele>120.287</ele>
        <time>2011-04-24T12:04:58Z</time>
      </trkpt>
      <trkpt lat="59.809525" lon="13.189125">
        <ele>123.249</ele>
        <time>2011-04-24T12:05:06Z</time>
      </trkpt>
      <trkpt lat="59.809128" lon="13.189215">
        <ele>125.152</ele>
        <time>2011-04-24T12:05:12Z</time>
      </trkpt>
      <trkpt lat="59.808701" lon="13.18913">
        <ele>124.924</ele>
        <time>2011-04-24T12:05:18Z</time>
      </trkpt>
      <trkpt lat="59.808263" lon="13.188844">
        <ele>123.827</ele>
        <time>2011-04-24T12:05:24Z</time>
      </trkpt>
      <trkpt lat="59.807631" lon="13.188291">
        <ele>123.813</ele>
        <time>2011-04-24T12:05:33Z</time>
      </trkpt>
      <trkpt lat="59.807151" lon="13.188028">
        <ele>124.864</ele>
        <time>2011-04-24T12:05:40Z</time>
      </trkpt>
      <trkpt lat="59.806734" lon="13.188034">
        <ele>125.701</ele>
        <time>2011-04-24T12:05:46Z</time>
      </trkpt>
      <trkpt lat="59.80626" lon="13.188258">
        <ele>126.796</ele>
        <time>2011-04-24T12:05:53Z</time>
      </trkpt>
      <trkpt lat="59.805451" lon="13.188753">
        <ele>127.884</ele>
        <time>2011-04-24T12:06:05Z</time>
      </trkpt>
      <trkpt lat="59.804849" lon="13.189078">
        <ele>127.207</ele>
        <time>2011-04-24T12:06:13Z</time>
      </trkpt>
      <trkpt lat="59.804144" lon="13.189313">
        <ele>125.717</ele>
        <time>2011-04-24T12:06:21Z</time>
      </trkpt>
      <trkpt lat="59.803447" lon="13.189543">
        <ele>122.009</ele>
        <time>2011-04-24T12:06:28Z</time>
      </trkpt>
      <trkpt lat="59.802474" lon="13.189914">
        <ele>118.535</ele>
        <time>2011-04-24T12:06:37Z</time>
      </trkpt>
      <trkpt lat="59.80164" lon="13.190344">
        <ele>117.471</ele>
        <time>2011-04-24T12:06:45Z</time>
      </trkpt>
      <trkpt lat="59.801093" lon="13.190659">
        <ele>117.995</ele>
        <time>2011-04-24T12:06:51Z</time>
      </trkpt>
      <trkpt lat="59.800379" lon="13.191066">
        <ele>119.007</ele>
        <time>2011-04-24T12:07:00Z</time>
      </trkpt>
      <trkpt lat="59.799674" lon="13.191457">
        <ele>119.324</ele>
        <time>2011-04-24T12:07:10Z</time>
      </trkpt>
      <trkpt lat="59.799025" lon="13.19182">
        <ele>122.481</ele>
        <time>2011-04-24T12:07:20Z</time>
      </trkpt>
      <trkpt lat="59.798471" lon="13.192137">
        <ele>122.971</ele>
        <time>2011-04-24T12:07:28Z</time>
      </trkpt>
      <trkpt lat="59.797933" lon="13.192545">
        <ele>123.532</ele>
        <time>2011-04-24T12:07:36Z</time>
      </trkpt>
      <trkpt lat="59.797313" lon="13.193114">
        <ele>123.911</ele>
        <time>2011-04-24T12:07:45Z</time>
      </trkpt>
      <trkpt lat="59.796833" lon="13.193391">
        <ele>122.879</ele>
        <time>2011-04-24T12:07:51Z</time>
      </trkpt>
      <trkpt lat="59.796462" lon="13.193396">
        <ele>121.081</ele>
        <time>2011-04-24T12:07:55Z</time>
      </trkpt>
      <trkpt lat="59.795664" lon="13.193246">
        <ele>117.685</ele>
        <time>2011-04-24T12:08:03Z</time>
      </trkpt>
      <trkpt lat="59.795112" lon="13.193178">
        <ele>115.06</ele>
        <time>2011-04-24T12:08:08Z</time>
      </trkpt>
      <trkpt lat="59.794625" lon="13.193287">
        <ele>112.446</ele>
        <time>2011-04-24T12:08:12Z</time>
      </trkpt>
      <trkpt lat="59.794026" lon="13.193612">
        <ele>109.763</ele>
        <time>2011-04-24T12:08:17Z</time>
      </trkpt>
      <trkpt lat="59.793394" lon="13.194142">
        <ele>109.508</ele>
        <time>2011-04-24T12:08:23Z</time>
      </trkpt>
      <trkpt lat="59.79283" lon="13.19455">
        <ele>109.928</ele>
        <time>2011-04-24T12:08:29Z</time>
      </trkpt>
      <trkpt lat="59.792329" lon="13.194817">
        <ele>110.791</ele>
        <time>2011-04-24T12:08:35Z</time>
      </trkpt>
      <trkpt lat="59.791394" lon="13.195273">
        <ele>112.969</ele>
        <time>2011-04-24T12:08:47Z</time>
      </trkpt>
      <trkpt lat="59.790993" lon="13.195386">
        <ele>115.049</ele>
        <time>2011-04-24T12:08:53Z</time>
      </trkpt>
      <trkpt lat="59.790527" lon="13.19533">
        <ele>116.985</ele>
        <time>2011-04-24T12:09:00Z</time>
      </trkpt>
      <trkpt lat="59.790068" lon="13.195207">
        <ele>117.123</ele>
        <time>2011-04-24T12:09:06Z</time>
      </trkpt>
      <trkpt lat="59.789328" lon="13.195006">
        <ele>117.456</ele>
        <time>2011-04-24T12:09:15Z</time>
      </trkpt>
      <trkpt lat="59.788536" lon="13.194787">
        <ele>117.022</ele>
        <time>2011-04-24T12:09:24Z</time>
      </trkpt>
      <trkpt lat="59.78772" lon="13.194567">
        <ele>117.271</ele>
        <time>2011-04-24T12:09:34Z</time>
      </trkpt>
      <trkpt lat="59.786975" lon="13.194352">
        <ele>115.702</ele>
        <time>2011-04-24T12:09:43Z</time>
      </trkpt>
      <trkpt lat="59.78642" lon="13.194375">
        <ele>113.791</ele>
        <time>2011-04-24T12:09:49Z</time>
      </trkpt>
      <trkpt lat="59.785692" lon="13.194624">
        <ele>111.811</ele>
        <time>2011-04-24T12:09:57Z</time>
      </trkpt>
      <trkpt lat="59.785508" lon="13.194632">
        <ele>111.685</ele>
        <time>2011-04-24T12:09:59Z</time>
      </trkpt>
      <trkpt lat="59.785067" lon="13.19439">
        <ele>110.883</ele>
        <time>2011-04-24T12:10:04Z</time>
      </trkpt>
      <trkpt lat="59.78441" lon="13.193794">
        <ele>109.807</ele>
        <time>2011-04-24T12:10:12Z</time>
      </trkpt>
      <trkpt lat="59.783911" lon="13.193442">
        <ele>109.405</ele>
        <time>2011-04-24T12:10:18Z</time>
      </trkpt>
      <trkpt lat="59.783415" lon="13.193238">
        <ele>110.553</ele>
        <time>2011-04-24T12:10:24Z</time>
      </trkpt>
      <trkpt lat="59.782878" lon="13.193159">
        <ele>111.523</ele>
        <time>2011-04-24T12:10:31Z</time>
      </trkpt>
      <trkpt lat="59.782281" lon="13.193183">
        <ele>109.453</ele>
        <time>2011-04-24T12:10:38Z</time>
      </trkpt>
      <trkpt lat="59.781656" lon="13.193456">
        <ele>107.236</ele>
        <time>2011-04-24T12:10:45Z</time>
      </trkpt>
      <trkpt lat="59.780762" lon="13.193935">
        <ele>105.04</ele>
        <time>2011-04-24T12:10:55Z</time>
      </trkpt>
      <trkpt lat="59.779964" lon="13.194302">
        <ele>104.307</ele>
        <time>2011-04-24T12:11:04Z</time>
      </trkpt>
      <trkpt lat="59.779398" lon="13.194488">
        <ele>104.842</ele>
        <time>2011-04-24T12:11:11Z</time>
      </trkpt>
      <trkpt lat="59.778809" lon="13.194645">
        <ele>106.561</ele>
        <time>2011-04-24T12:11:19Z</time>
      </trkpt>
      <trkpt lat="59.778057" lon="13.194855">
        <ele>107.687</ele>
        <time>2011-04-24T12:11:30Z</time>
      </trkpt>
      <trkpt lat="59.77729" lon="13.195171">
        <ele>108.331</ele>
        <time>2011-04-24T12:11:41Z</time>
      </trkpt>
      <trkpt lat="59.776584" lon="13.195325">
        <ele>109.473</ele>
        <time>2011-04-24T12:11:51Z</time>
      </trkpt>
      <trkpt lat="59.775964" lon="13.195391">
        <ele>110.186</ele>
        <time>2011-04-24T12:12:00Z</time>
      </trkpt>
      <trkpt lat="59.775485" lon="13.195412">
        <ele>110.357</ele>
        <time>2011-04-24T12:12:07Z</time>
      </trkpt>
      <trkpt lat="59.775036" lon="13.195415">
        <ele>110.561</ele>
        <time>2011-04-24T12:12:13Z</time>
      </trkpt>
      <trkpt lat="59.774333" lon="13.195407">
        <ele>108.507</ele>
        <time>2011-04-24T12:12:21Z</time>
      </trkpt>
      <trkpt lat="59.773804" lon="13.195507">
        <ele>106.059</ele>
        <time>2011-04-24T12:12:26Z</time>
      </trkpt>
      <trkpt lat="59.773282" lon="13.195746">
        <ele>103.631</ele>
        <time>2011-04-24T12:12:31Z</time>
      </trkpt>
      <trkpt lat="59.772394" lon="13.196226">
        <ele>101.598</ele>
        <time>2011-04-24T12:12:40Z</time>
      </trkpt>
      <trkpt lat="59.771761" lon="13.196743">
        <ele>100.585</ele>
        <time>2011-04-24T12:12:47Z</time>
      </trkpt>
      <trkpt lat="59.771201" lon="13.197407">
        <ele>100.759</ele>
        <time>2011-04-24T12:12:54Z</time>
      </trkpt>
      <trkpt lat="59.770683" lon="13.198192">
        <ele>100.911</ele>
        <time>2011-04-24T12:13:01Z</time>
      </trkpt>
      <trkpt lat="59.770316" lon="13.198976">
        <ele>102.146</ele>
        <time>2011-04-24T12:13:07Z</time>
      </trkpt>
      <trkpt lat="59.770016" lon="13.199523">
        <ele>103.345</ele>
        <time>2011-04-24T12:13:12Z</time>
      </trkpt>
      <trkpt lat="59.76974" lon="13.199796">
        <ele>105.127</ele>
        <time>2011-04-24T12:13:16Z</time>
      </trkpt>
      <trkpt lat="59.769356" lon="13.199939">
        <ele>105.439</ele>
        <time>2011-04-24T12:13:21Z</time>
      </trkpt>
      <trkpt lat="59.768749" lon="13.200103">
        <ele>104.343</ele>
        <time>2011-04-24T12:13:28Z</time>
      </trkpt>
      <trkpt lat="59.768323" lon="13.200404">
        <ele>102.281</ele>
        <time>2011-04-24T12:13:33Z</time>
      </trkpt>
      <trkpt lat="59.768241" lon="13.200479">
        <ele>102.083</ele>
        <time>2011-04-24T12:13:34Z</time>
      </trkpt>
      <trkpt lat="59.767616" lon="13.201129">
        <ele>101.461</ele>
        <time>2011-04-24T12:13:42Z</time>
      </trkpt>
      <trkpt lat="59.767179" lon="13.201734">
        <ele>100.709</ele>
        <time>2011-04-24T12:13:48Z</time>
      </trkpt>
      <trkpt lat="59.766609" lon="13.202418">
        <ele>99.268</ele>
        <time>2011-04-24T12:13:55Z</time>
      </trkpt>
      <trkpt lat="59.765895" lon="13.203313">
        <ele>98.084</ele>
        <time>2011-04-24T12:14:04Z</time>
      </trkpt>
      <trkpt lat="59.765065" lon="13.204441">
        <ele>97.469</ele>
        <time>2011-04-24T12:14:15Z</time>
      </trkpt>
      <trkpt lat="59.764456" lon="13.205315">
        <ele>97.968</ele>
        <time>2011-04-24T12:14:24Z</time>
      </trkpt>
      <trkpt lat="59.763782" lon="13.206269">
        <ele>98.927</ele>
        <time>2011-04-24T12:14:34Z</time>
      </trkpt>
      <trkpt lat="59.763278" lon="13.206971">
        <ele>99.864</ele>
        <time>2011-04-24T12:14:42Z</time>
      </trkpt>
      <trkpt lat="59.762875" lon="13.207604">
        <ele>100.99</ele>
        <time>2011-04-24T12:14:49Z</time>
      </trkpt>
      <trkpt lat="59.762661" lon="13.208191">
        <ele>101.873</ele>
        <time>2011-04-24T12:14:54Z</time>
      </trkpt>
      <trkpt lat="59.762506" lon="13.209128">
        <ele>101.183</ele>
        <time>2011-04-24T12:15:00Z</time>
      </trkpt>
      <trkpt lat="59.762355" lon="13.21007">
        <ele>99.488</ele>
        <time>2011-04-24T12:15:05Z</time>
      </trkpt>
      <trkpt lat="59.762313" lon="13.210256">
        <ele>99.082</ele>
        <time>2011-04-24T12:15:06Z</time>
      </trkpt>
      <trkpt lat="59.762001" lon="13.211035">
        <ele>98.252</ele>
        <time>2011-04-24T12:15:11Z</time>
      </trkpt>
      <trkpt lat="59.761517" lon="13.211548">
        <ele>98.299</ele>
        <time>2011-04-24T12:15:17Z</time>
      </trkpt>
      <trkpt lat="59.761428" lon="13.211589">
        <ele>98.293</ele>
        <time>2011-04-24T12:15:18Z</time>
      </trkpt>
      <trkpt lat="59.760709" lon="13.211958">
        <ele>96.659</ele>
        <time>2011-04-24T12:15:26Z</time>
      </trkpt>
      <trkpt lat="59.760386" lon="13.212356">
        <ele>95.604</ele>
        <time>2011-04-24T12:15:30Z</time>
      </trkpt>
      <trkpt lat="59.759997" lon="13.213096">
        <ele>95.352</ele>
        <time>2011-04-24T12:15:36Z</time>
      </trkpt>
      <trkpt lat="59.759536" lon="13.213869">
        <ele>95.205</ele>
        <time>2011-04-24T12:15:43Z</time>
      </trkpt>
      <trkpt lat="59.759152" lon="13.214313">
        <ele>93.916</ele>
        <time>2011-04-24T12:15:48Z</time>
      </trkpt>
      <trkpt lat="59.758628" lon="13.21472">
        <ele>91.704</ele>
        <time>2011-04-24T12:15:54Z</time>
      </trkpt>
      <trkpt lat="59.758124" lon="13.214942">
        <ele>90.022</ele>
        <time>2011-04-24T12:15:59Z</time>
      </trkpt>
      <trkpt lat="59.757615" lon="13.214903">
        <ele>87.762</ele>
        <time>2011-04-24T12:16:04Z</time>
      </trkpt>
      <trkpt lat="59.757514" lon="13.214887">
        <ele>87.517</ele>
        <time>2011-04-24T12:16:05Z</time>
      </trkpt>
      <trkpt lat="59.75687" lon="13.214833">
        <ele>84.919</ele>
        <time>2011-04-24T12:16:11Z</time>
      </trkpt>
      <trkpt lat="59.756157" lon="13.214814">
        <ele>80.436</ele>
        <time>2011-04-24T12:16:18Z</time>
      </trkpt>
      <trkpt lat="59.755851" lon="13.214818">
        <ele>77.979</ele>
        <time>2011-04-24T12:16:22Z</time>
      </trkpt>
      <trkpt lat="59.755785" lon="13.214821">
        <ele>77.262</ele>
        <time>2011-04-24T12:16:23Z</time>
      </trkpt>
      <trkpt lat="59.755574" lon="13.214969">
        <ele>74.938</ele>
        <time>2011-04-24T12:16:27Z</time>
      </trkpt>
      <trkpt lat="59.755544" lon="13.215066">
        <ele>74.677</ele>
        <time>2011-04-24T12:16:28Z</time>
      </trkpt>
      <trkpt lat="59.755528" lon="13.215453">
        <ele>74.071</ele>
        <time>2011-04-24T12:16:31Z</time>
      </trkpt>
      <trkpt lat="59.755619" lon="13.21643">
        <ele>73.292</ele>
        <time>2011-04-24T12:16:37Z</time>
      </trkpt>
      <trkpt lat="59.755813" lon="13.218462">
        <ele>70.349</ele>
        <time>2011-04-24T12:16:48Z</time>
      </trkpt>
      <trkpt lat="59.755979" lon="13.220243">
        <ele>70.085</ele>
        <time>2011-04-24T12:16:58Z</time>
      </trkpt>
      <trkpt lat="59.756184" lon="13.222516">
        <ele>70.445</ele>
        <time>2011-04-24T12:17:11Z</time>
      </trkpt>
      <trkpt lat="59.756341" lon="13.224181">
        <ele>70.954</ele>
        <time>2011-04-24T12:17:21Z</time>
      </trkpt>
      <trkpt lat="59.756558" lon="13.226486">
        <ele>70.864</ele>
        <time>2011-04-24T12:17:35Z</time>
      </trkpt>
      <trkpt lat="59.756706" lon="13.228066">
        <ele>71.318</ele>
        <time>2011-04-24T12:17:45Z</time>
      </trkpt>
      <trkpt lat="59.756831" lon="13.229434">
        <ele>71.638</ele>
        <time>2011-04-24T12:17:54Z</time>
      </trkpt>
      <trkpt lat="59.756979" lon="13.231021">
        <ele>73.54</ele>
        <time>2011-04-24T12:18:05Z</time>
      </trkpt>
      <trkpt lat="59.757117" lon="13.232458">
        <ele>75.262</ele>
        <time>2011-04-24T12:18:16Z</time>
      </trkpt>
      <trkpt lat="59.757237" lon="13.233786">
        <ele>77.759</ele>
        <time>2011-04-24T12:18:27Z</time>
      </trkpt>
      <trkpt lat="59.75735" lon="13.235041">
        <ele>79.973</ele>
        <time>2011-04-24T12:18:38Z</time>
      </trkpt>
      <trkpt lat="59.757491" lon="13.236633">
        <ele>83.638</ele>
        <time>2011-04-24T12:18:52Z</time>
      </trkpt>
      <trkpt lat="59.757627" lon="13.238085">
        <ele>87.31</ele>
        <time>2011-04-24T12:19:05Z</time>
      </trkpt>
      <trkpt lat="59.757721" lon="13.239183">
        <ele>89.388</ele>
        <time>2011-04-24T12:19:15Z</time>
      </trkpt>
      <trkpt lat="59.757781" lon="13.239936">
        <ele>90.891</ele>
        <time>2011-04-24T12:19:22Z</time>
      </trkpt>
      <trkpt lat="59.757906" lon="13.24023">
        <ele>91.245</ele>
        <time>2011-04-24T12:19:26Z</time>
      </trkpt>
      <trkpt lat="59.758018" lon="13.240268">
        <ele>91.259</ele>
        <time>2011-04-24T12:19:28Z</time>
      </trkpt>
      <trkpt lat="59.758556" lon="13.240298">
        <ele>90.554</ele>
        <time>2011-04-24T12:19:36Z</time>
      </trkpt>
      <trkpt lat="59.759191" lon="13.2403">
        <ele>90.314</ele>
        <time>2011-04-24T12:19:44Z</time>
      </trkpt>
      <trkpt lat="59.759962" lon="13.240276">
        <ele>90.009</ele>
        <time>2011-04-24T12:19:53Z</time>
      </trkpt>
      <trkpt lat="59.760784" lon="13.240198">
        <ele>88.889</ele>
        <time>2011-04-24T12:20:02Z</time>
      </trkpt>
      <trkpt lat="59.76164" lon="13.240033">
        <ele>88.059</ele>
        <time>2011-04-24T12:20:11Z</time>
      </trkpt>
      <trkpt lat="59.762261" lon="13.239898">
        <ele>87.311</ele>
        <time>2011-04-24T12:20:17Z</time>
      </trkpt>
      <trkpt lat="59.76325" lon="13.239672">
        <ele>87.458</ele>
        <time>2011-04-24T12:20:26Z</time>
      </trkpt>
      <trkpt lat="59.764207" lon="13.239469">
        <ele>85.652</ele>
        <time>2011-04-24T12:20:34Z</time>
      </trkpt>
      <trkpt lat="59.765215" lon="13.239238">
        <ele>84.453</ele>
        <time>2011-04-24T12:20:42Z</time>
      </trkpt>
      <trkpt lat="59.76604" lon="13.238954">
        <ele>84.421</ele>
        <time>2011-04-24T12:20:49Z</time>
      </trkpt>
      <trkpt lat="59.766669" lon="13.23841">
        <ele>83.79</ele>
        <time>2011-04-24T12:20:55Z</time>
      </trkpt>
      <trkpt lat="59.767169" lon="13.237973">
        <ele>84.041</ele>
        <time>2011-04-24T12:21:00Z</time>
      </trkpt>
      <trkpt lat="59.767576" lon="13.237903">
        <ele>84.888</ele>
        <time>2011-04-24T12:21:04Z</time>
      </trkpt>
      <trkpt lat="59.768159" lon="13.238119">
        <ele>86.128</ele>
        <time>2011-04-24T12:21:10Z</time>
      </trkpt>
      <trkpt lat="59.768881" lon="13.238359">
        <ele>85.395</ele>
        <time>2011-04-24T12:21:17Z</time>
      </trkpt>
      <trkpt lat="59.769679" lon="13.238579">
        <ele>86.523</ele>
        <time>2011-04-24T12:21:25Z</time>
      </trkpt>
      <trkpt lat="59.770544" lon="13.238757">
        <ele>89.313</ele>
        <time>2011-04-24T12:21:34Z</time>
      </trkpt>
      <trkpt lat="59.771408" lon="13.238878">
        <ele>91.654</ele>
        <time>2011-04-24T12:21:43Z</time>
      </trkpt>
      <trkpt lat="59.771875" lon="13.238686">
        <ele>92.037</ele>
        <time>2011-04-24T12:21:48Z</time>
      </trkpt>
      <trkpt lat="59.772685" lon="13.238219">
        <ele>90.758</ele>
        <time>2011-04-24T12:21:56Z</time>
      </trkpt>
      <trkpt lat="59.773639" lon="13.23767">
        <ele>89.29</ele>
        <time>2011-04-24T12:22:05Z</time>
      </trkpt>
      <trkpt lat="59.774431" lon="13.237213">
        <ele>87.693</ele>
        <time>2011-04-24T12:22:12Z</time>
      </trkpt>
      <trkpt lat="59.775727" lon="13.236489">
        <ele>85.216</ele>
        <time>2011-04-24T12:22:23Z</time>
      </trkpt>
      <trkpt lat="59.776582" lon="13.236005">
        <ele>83.818</ele>
        <time>2011-04-24T12:22:30Z</time>
      </trkpt>
      <trkpt lat="59.777603" lon="13.235473">
        <ele>80.598</ele>
        <time>2011-04-24T12:22:38Z</time>
      </trkpt>
      <trkpt lat="59.778196" lon="13.235412">
        <ele>81.853</ele>
        <time>2011-04-24T12:22:43Z</time>
      </trkpt>
      <trkpt lat="59.778705" lon="13.235408">
        <ele>83.08</ele>
        <time>2011-04-24T12:22:48Z</time>
      </trkpt>
      <trkpt lat="59.779142" lon="13.235482">
        <ele>84.056</ele>
        <time>2011-04-24T12:22:53Z</time>
      </trkpt>
      <trkpt lat="59.779624" lon="13.235588">
        <ele>85.465</ele>
        <time>2011-04-24T12:22:59Z</time>
      </trkpt>
      <trkpt lat="59.779991" lon="13.235745">
        <ele>86.689</ele>
        <time>2011-04-24T12:23:04Z</time>
      </trkpt>
      <trkpt lat="59.780409" lon="13.236008">
        <ele>88.862</ele>
        <time>2011-04-24T12:23:10Z</time>
      </trkpt>
      <trkpt lat="59.780649" lon="13.236201">
        <ele>89.738</ele>
        <time>2011-04-24T12:23:14Z</time>
      </trkpt>
      <trkpt lat="59.781028" lon="13.236384">
        <ele>91.004</ele>
        <time>2011-04-24T12:23:20Z</time>
      </trkpt>
      <trkpt lat="59.781093" lon="13.236388">
        <ele>91.165</ele>
        <time>2011-04-24T12:23:21Z</time>
      </trkpt>
      <trkpt lat="59.781656" lon="13.236191">
        <ele>91.058</ele>
        <time>2011-04-24T12:23:29Z</time>
      </trkpt>
      <trkpt lat="59.782213" lon="13.236009">
        <ele>91.078</ele>
        <time>2011-04-24T12:23:37Z</time>
      </trkpt>
      <trkpt lat="59.782952" lon="13.235888">
        <ele>91.503</ele>
        <time>2011-04-24T12:23:47Z</time>
      </trkpt>
      <trkpt lat="59.783645" lon="13.235732">
        <ele>91.234</ele>
        <time>2011-04-24T12:23:56Z</time>
      </trkpt>
      <trkpt lat="59.784038" lon="13.235479">
        <ele>89.651</ele>
        <time>2011-04-24T12:24:01Z</time>
      </trkpt>
      <trkpt lat="59.784291" lon="13.23526">
        <ele>88.343</ele>
        <time>2011-04-24T12:24:04Z</time>
      </trkpt>
      <trkpt lat="59.784741" lon="13.234828">
        <ele>84.825</ele>
        <time>2011-04-24T12:24:09Z</time>
      </trkpt>
      <trkpt lat="59.785532" lon="13.234106">
        <ele>80.003</ele>
        <time>2011-04-24T12:24:17Z</time>
      </trkpt>
      <trkpt lat="59.786371" lon="13.233326">
        <ele>77.23</ele>
        <time>2011-04-24T12:24:25Z</time>
      </trkpt>
      <trkpt lat="59.787087" lon="13.232706">
        <ele>75.295</ele>
        <time>2011-04-24T12:24:32Z</time>
      </trkpt>
      <trkpt lat="59.787676" lon="13.232397">
        <ele>74.601</ele>
        <time>2011-04-24T12:24:38Z</time>
      </trkpt>
      <trkpt lat="59.788308" lon="13.232172">
        <ele>74.646</ele>
        <time>2011-04-24T12:24:45Z</time>
      </trkpt>
      <trkpt lat="59.788906" lon="13.231951">
        <ele>74.974</ele>
        <time>2011-04-24T12:24:52Z</time>
      </trkpt>
      <trkpt lat="59.789504" lon="13.231759">
        <ele>75.766</ele>
        <time>2011-04-24T12:25:00Z</time>
      </trkpt>
      <trkpt lat="59.789998" lon="13.231477">
        <ele>76.466</ele>
        <time>2011-04-24T12:25:07Z</time>
      </trkpt>
      <trkpt lat="59.790395" lon="13.231001">
        <ele>76.306</ele>
        <time>2011-04-24T12:25:13Z</time>
      </trkpt>
      <trkpt lat="59.790963" lon="13.23007">
        <ele>75.919</ele>
        <time>2011-04-24T12:25:22Z</time>
      </trkpt>
      <trkpt lat="59.791552" lon="13.229205">
        <ele>76.108</ele>
        <time>2011-04-24T12:25:31Z</time>
      </trkpt>
      <trkpt lat="59.791864" lon="13.229026">
        <ele>76.528</ele>
        <time>2011-04-24T12:25:35Z</time>
      </trkpt>
      <trkpt lat="59.792489" lon="13.228887">
        <ele>77.411</ele>
        <time>2011-04-24T12:25:43Z</time>
      </trkpt>
      <trkpt lat="59.793073" lon="13.22879">
        <ele>78.553</ele>
        <time>2011-04-24T12:25:51Z</time>
      </trkpt>
      <trkpt lat="59.793751" lon="13.228652">
        <ele>78.685</ele>
        <time>2011-04-24T12:26:00Z</time>
      </trkpt>
      <trkpt lat="59.794603" lon="13.228538">
        <ele>78.277</ele>
        <time>2011-04-24T12:26:11Z</time>
      </trkpt>
      <trkpt lat="59.795319" lon="13.228545">
        <ele>79.269</ele>
        <time>2011-04-24T12:26:21Z</time>
      </trkpt>
      <trkpt lat="59.795993" lon="13.228574">
        <ele>80.984</ele>
        <time>2011-04-24T12:26:31Z</time>
      </trkpt>
      <trkpt lat="59.796552" lon="13.228616">
        <ele>83.27</ele>
        <time>2011-04-24T12:26:40Z</time>
      </trkpt>
      <trkpt lat="59.797009" lon="13.228664">
        <ele>85.911</ele>
        <time>2011-04-24T12:26:48Z</time>
      </trkpt>
      <trkpt lat="59.797453" lon="13.228772">
        <ele>89.059</ele>
        <time>2011-04-24T12:26:56Z</time>
      </trkpt>
      <trkpt lat="59.797924" lon="13.22891">
        <ele>91.172</ele>
        <time>2011-04-24T12:27:04Z</time>
      </trkpt>
      <trkpt lat="59.798322" lon="13.228832">
        <ele>92.089</ele>
        <time>2011-04-24T12:27:10Z</time>
      </trkpt>
      <trkpt lat="59.7987" lon="13.228594">
        <ele>90.984</ele>
        <time>2011-04-24T12:27:15Z</time>
      </trkpt>
      <trkpt lat="59.799318" lon="13.228245">
        <ele>89.954</ele>
        <time>2011-04-24T12:27:22Z</time>
      </trkpt>
      <trkpt lat="59.80022" lon="13.227855">
        <ele>90.204</ele>
        <time>2011-04-24T12:27:32Z</time>
      </trkpt>
      <trkpt lat="59.800758" lon="13.227551">
        <ele>89.48</ele>
        <time>2011-04-24T12:27:38Z</time>
      </trkpt>
      <trkpt lat="59.801399" lon="13.22722">
        <ele>85.575</ele>
        <time>2011-04-24T12:27:44Z</time>
      </trkpt>
      <trkpt lat="59.801867" lon="13.227188">
        <ele>83.677</ele>
        <time>2011-04-24T12:27:48Z</time>
      </trkpt>
      <trkpt lat="59.802895" lon="13.227226">
        <ele>83.515</ele>
        <time>2011-04-24T12:27:57Z</time>
      </trkpt>
      <trkpt lat="59.803311" lon="13.227238">
        <ele>85.217</ele>
        <time>2011-04-24T12:28:01Z</time>
      </trkpt>
      <trkpt lat="59.803989" lon="13.227299">
        <ele>87.838</ele>
        <time>2011-04-24T12:28:08Z</time>
      </trkpt>
      <trkpt lat="59.804525" lon="13.227503">
        <ele>86.876</ele>
        <time>2011-04-24T12:28:13Z</time>
      </trkpt>
      <trkpt lat="59.805497" lon="13.227908">
        <ele>87.035</ele>
        <time>2011-04-24T12:28:22Z</time>
      </trkpt>
      <trkpt lat="59.805989" lon="13.228003">
        <ele>88.944</ele>
        <time>2011-04-24T12:28:27Z</time>
      </trkpt>
      <trkpt lat="59.806684" lon="13.227979">
        <ele>90.138</ele>
        <time>2011-04-24T12:28:34Z</time>
      </trkpt>
      <trkpt lat="59.807445" lon="13.22793">
        <ele>89.041</ele>
        <time>2011-04-24T12:28:41Z</time>
      </trkpt>
      <trkpt lat="59.808246" lon="13.227893">
        <ele>87.88</ele>
        <time>2011-04-24T12:28:48Z</time>
      </trkpt>
      <trkpt lat="59.808616" lon="13.227829">
        <ele>89.351</ele>
        <time>2011-04-24T12:28:52Z</time>
      </trkpt>
      <trkpt lat="59.809335" lon="13.227596">
        <ele>90.37</ele>
        <time>2011-04-24T12:29:00Z</time>
      </trkpt>
      <trkpt lat="59.810088" lon="13.22734">
        <ele>90.359</ele>
        <time>2011-04-24T12:29:08Z</time>
      </trkpt>
      <trkpt lat="59.810652" lon="13.2272">
        <ele>88.684</ele>
        <time>2011-04-24T12:29:13Z</time>
      </trkpt>
      <trkpt lat="59.811449" lon="13.226969">
        <ele>87.042</ele>
        <time>2011-04-24T12:29:20Z</time>
      </trkpt>
      <trkpt lat="59.811831" lon="13.226546">
        <ele>87.053</ele>
        <time>2011-04-24T12:29:24Z</time>
      </trkpt>
      <trkpt lat="59.812046" lon="13.22598">
        <ele>86.886</ele>
        <time>2011-04-24T12:29:27Z</time>
      </trkpt>
      <trkpt lat="59.812105" lon="13.225764">
        <ele>86.886</ele>
        <time>2011-04-24T12:29:28Z</time>
      </trkpt>
      <trkpt lat="59.812524" lon="13.224059">
        <ele>85.185</ele>
        <time>2011-04-24T12:29:36Z</time>
      </trkpt>
      <trkpt lat="59.812876" lon="13.222901">
        <ele>84.918</ele>
        <time>2011-04-24T12:29:42Z</time>
      </trkpt>
      <trkpt lat="59.813232" lon="13.221984">
        <ele>84.9</ele>
        <time>2011-04-24T12:29:47Z</time>
      </trkpt>
      <trkpt lat="59.813593" lon="13.221435">
        <ele>85.057</ele>
        <time>2011-04-24T12:29:51Z</time>
      </trkpt>
      <trkpt lat="59.814018" lon="13.22108">
        <ele>85.257</ele>
        <time>2011-04-24T12:29:55Z</time>
      </trkpt>
      <trkpt lat="59.814917" lon="13.220596">
        <ele>85.169</ele>
        <time>2011-04-24T12:30:03Z</time>
      </trkpt>
      <trkpt lat="59.815576" lon="13.220142">
        <ele>85.295</ele>
        <time>2011-04-24T12:30:09Z</time>
      </trkpt>
      <trkpt lat="59.816272" lon="13.219478">
        <ele>85.249</ele>
        <time>2011-04-24T12:30:16Z</time>
      </trkpt>
      <trkpt lat="59.816608" lon="13.218911">
        <ele>85.063</ele>
        <time>2011-04-24T12:30:20Z</time>
      </trkpt>
      <trkpt lat="59.816849" lon="13.218167">
        <ele>84.775</ele>
        <time>2011-04-24T12:30:24Z</time>
      </trkpt>
      <trkpt lat="59.817221" lon="13.216793">
        <ele>85.446</ele>
        <time>2011-04-24T12:30:31Z</time>
      </trkpt>
      <trkpt lat="59.817563" lon="13.215948">
        <ele>86.08</ele>
        <time>2011-04-24T12:30:36Z</time>
      </trkpt>
      <trkpt lat="59.818089" lon="13.214906">
        <ele>86.593</ele>
        <time>2011-04-24T12:30:43Z</time>
      </trkpt>
      <trkpt lat="59.81851" lon="13.214">
        <ele>87.305</ele>
        <time>2011-04-24T12:30:49Z</time>
      </trkpt>
      <trkpt lat="59.818915" lon="13.212962">
        <ele>86.925</ele>
        <time>2011-04-24T12:30:55Z</time>
      </trkpt>
      <trkpt lat="59.819335" lon="13.211803">
        <ele>87.13</ele>
        <time>2011-04-24T12:31:02Z</time>
      </trkpt>
      <trkpt lat="59.819739" lon="13.210597">
        <ele>88.6</ele>
        <time>2011-04-24T12:31:10Z</time>
      </trkpt>
      <trkpt lat="59.820258" lon="13.208997">
        <ele>90.503</ele>
        <time>2011-04-24T12:31:21Z</time>
      </trkpt>
      <trkpt lat="59.820559" lon="13.207929">
        <ele>91.373</ele>
        <time>2011-04-24T12:31:28Z</time>
      </trkpt>
      <trkpt lat="59.820818" lon="13.206934">
        <ele>92.606</ele>
        <time>2011-04-24T12:31:35Z</time>
      </trkpt>
      <trkpt lat="59.821084" lon="13.205968">
        <ele>94.336</ele>
        <time>2011-04-24T12:31:42Z</time>
      </trkpt>
      <trkpt lat="59.821405" lon="13.20499">
        <ele>96.633</ele>
        <time>2011-04-24T12:31:49Z</time>
      </trkpt>
      <trkpt lat="59.821784" lon="13.203958">
        <ele>97.749</ele>
        <time>2011-04-24T12:31:56Z</time>
      </trkpt>
      <trkpt lat="59.822262" lon="13.202934">
        <ele>97.187</ele>
        <time>2011-04-24T12:32:03Z</time>
      </trkpt>
      <trkpt lat="59.82292" lon="13.201671">
        <ele>96.269</ele>
        <time>2011-04-24T12:32:12Z</time>
      </trkpt>
      <trkpt lat="59.823468" lon="13.200651">
        <ele>94.669</ele>
        <time>2011-04-24T12:32:19Z</time>
      </trkpt>
      <trkpt lat="59.824132" lon="13.199236">
        <ele>93.242</ele>
        <time>2011-04-24T12:32:28Z</time>
      </trkpt>
      <trkpt lat="59.824544" lon="13.198125">
        <ele>92.931</ele>
        <time>2011-04-24T12:32:34Z</time>
      </trkpt>
      <trkpt lat="59.825135" lon="13.196302">
        <ele>91.929</ele>
        <time>2011-04-24T12:32:43Z</time>
      </trkpt>
      <trkpt lat="59.825711" lon="13.194488">
        <ele>92.865</ele>
        <time>2011-04-24T12:32:52Z</time>
      </trkpt>
      <trkpt lat="59.826211" lon="13.192914">
        <ele>92.657</ele>
        <time>2011-04-24T12:33:00Z</time>
      </trkpt>
      <trkpt lat="59.826582" lon="13.191738">
        <ele>91.647</ele>
        <time>2011-04-24T12:33:06Z</time>
      </trkpt>
      <trkpt lat="59.826983" lon="13.190473">
        <ele>89.711</ele>
        <time>2011-04-24T12:33:12Z</time>
      </trkpt>
      <trkpt lat="59.827448" lon="13.189029">
        <ele>87.085</ele>
        <time>2011-04-24T12:33:19Z</time>
      </trkpt>
      <trkpt lat="59.828017" lon="13.187263">
        <ele>84.692</ele>
        <time>2011-04-24T12:33:28Z</time>
      </trkpt>
      <trkpt lat="59.828567" lon="13.185559">
        <ele>83.925</ele>
        <time>2011-04-24T12:33:37Z</time>
      </trkpt>
      <trkpt lat="59.829076" lon="13.184117">
        <ele>82.98</ele>
        <time>2011-04-24T12:33:45Z</time>
      </trkpt>
      <trkpt lat="59.829638" lon="13.182815">
        <ele>82.065</ele>
        <time>2011-04-24T12:33:53Z</time>
      </trkpt>
      <trkpt lat="59.830364" lon="13.181475">
        <ele>80.854</ele>
        <time>2011-04-24T12:34:02Z</time>
      </trkpt>
      <trkpt lat="59.831012" lon="13.180499">
        <ele>80.263</ele>
        <time>2011-04-24T12:34:09Z</time>
      </trkpt>
      <trkpt lat="59.831693" lon="13.179653">
        <ele>79.865</ele>
        <time>2011-04-24T12:34:16Z</time>
      </trkpt>
      <trkpt lat="59.832383" lon="13.178934">
        <ele>79.275</ele>
        <time>2011-04-24T12:34:23Z</time>
      </trkpt>
      <trkpt lat="59.833323" lon="13.178182">
        <ele>78.983</ele>
        <time>2011-04-24T12:34:32Z</time>
      </trkpt>
      <trkpt lat="59.834356" lon="13.177376">
        <ele>78.456</ele>
        <time>2011-04-24T12:34:42Z</time>
      </trkpt>
      <trkpt lat="59.835382" lon="13.176566">
        <ele>77.386</ele>
        <time>2011-04-24T12:34:52Z</time>
      </trkpt>
      <trkpt lat="59.836175" lon="13.175842">
        <ele>77.121</ele>
        <time>2011-04-24T12:35:00Z</time>
      </trkpt>
      <trkpt lat="59.83704" lon="13.174903">
        <ele>76.547</ele>
        <time>2011-04-24T12:35:09Z</time>
      </trkpt>
      <trkpt lat="59.837539" lon="13.174372">
        <ele>76.496</ele>
        <time>2011-04-24T12:35:15Z</time>
      </trkpt>
      <trkpt lat="59.838051" lon="13.17384">
        <ele>76.096</ele>
        <time>2011-04-24T12:35:22Z</time>
      </trkpt>
      <trkpt lat="59.838319" lon="13.173564">
        <ele>75.87</ele>
        <time>2011-04-24T12:35:27Z</time>
      </trkpt>
      <trkpt lat="59.838396" lon="13.173477">
        <ele>75.694</ele>
        <time>2011-04-24T12:35:29Z</time>
      </trkpt>
      <trkpt lat="59.838488" lon="13.173188">
        <ele>75.567</ele>
        <time>2011-04-24T12:35:33Z</time>
      </trkpt>
      <trkpt lat="59.83851" lon="13.172555">
        <ele>75.068</ele>
        <time>2011-04-24T12:35:39Z</time>
      </trkpt>
      <trkpt lat="59.838487" lon="13.17151">
        <ele>74.766</ele>
        <time>2011-04-24T12:35:47Z</time>
      </trkpt>
      <trkpt lat="59.838467" lon="13.170404">
        <ele>75.38</ele>
        <time>2011-04-24T12:35:55Z</time>
      </trkpt>
      <trkpt lat="59.838481" lon="13.16901">
        <ele>75.744</ele>
        <time>2011-04-24T12:36:05Z</time>
      </trkpt>
      <trkpt lat="59.8385" lon="13.167716">
        <ele>75.726</ele>
        <time>2011-04-24T12:36:14Z</time>
      </trkpt>
      <trkpt lat="59.838559" lon="13.165961">
        <ele>76.237</ele>
        <time>2011-04-24T12:36:26Z</time>
      </trkpt>
      <trkpt lat="59.838678" lon="13.164305">
        <ele>76.465</ele>
        <time>2011-04-24T12:36:37Z</time>
      </trkpt>
      <trkpt lat="59.838882" lon="13.162617">
        <ele>76.985</ele>
        <time>2011-04-24T12:36:48Z</time>
      </trkpt>
      <trkpt lat="59.839112" lon="13.161284">
        <ele>77.375</ele>
        <time>2011-04-24T12:36:57Z</time>
      </trkpt>
      <trkpt lat="59.839448" lon="13.159737">
        <ele>77.93</ele>
        <time>2011-04-24T12:37:08Z</time>
      </trkpt>
      <trkpt lat="59.839843" lon="13.157987">
        <ele>77.659</ele>
        <time>2011-04-24T12:37:20Z</time>
      </trkpt>
      <trkpt lat="59.840152" lon="13.156467">
        <ele>77.628</ele>
        <time>2011-04-24T12:37:30Z</time>
      </trkpt>
      <trkpt lat="59.840195" lon="13.155631">
        <ele>76.952</ele>
        <time>2011-04-24T12:37:35Z</time>
      </trkpt>
      <trkpt lat="59.840145" lon="13.154594">
        <ele>76.462</ele>
        <time>2011-04-24T12:37:42Z</time>
      </trkpt>
      <trkpt lat="59.840079" lon="13.15339">
        <ele>75.638</ele>
        <time>2011-04-24T12:37:51Z</time>
      </trkpt>
      <trkpt lat="59.839985" lon="13.15274">
        <ele>75.277</ele>
        <time>2011-04-24T12:37:56Z</time>
      </trkpt>
      <trkpt lat="59.839752" lon="13.152187">
        <ele>74.643</ele>
        <time>2011-04-24T12:38:01Z</time>
      </trkpt>
      <trkpt lat="59.839263" lon="13.151507">
        <ele>72.011</ele>
        <time>2011-04-24T12:38:09Z</time>
      </trkpt>
      <trkpt lat="59.839131" lon="13.151316">
        <ele>71.323</ele>
        <time>2011-04-24T12:38:11Z</time>
      </trkpt>
      <trkpt lat="59.838916" lon="13.150782">
        <ele>69.63</ele>
        <time>2011-04-24T12:38:15Z</time>
      </trkpt>
      <trkpt lat="59.838863" lon="13.150458">
        <ele>69.157</ele>
        <time>2011-04-24T12:38:17Z</time>
      </trkpt>
      <trkpt lat="59.838832" lon="13.150151">
        <ele>68.955</ele>
        <time>2011-04-24T12:38:19Z</time>
      </trkpt>
      <trkpt lat="59.838688" lon="13.14955">
        <ele>69.503</ele>
        <time>2011-04-24T12:38:24Z</time>
      </trkpt>
      <trkpt lat="59.838589" lon="13.149374">
        <ele>69.753</ele>
        <time>2011-04-24T12:38:26Z</time>
      </trkpt>
      <trkpt lat="59.838081" lon="13.148623">
        <ele>70.557</ele>
        <time>2011-04-24T12:38:36Z</time>
      </trkpt>
      <trkpt lat="59.837682" lon="13.147998">
        <ele>69.781</ele>
        <time>2011-04-24T12:38:44Z</time>
      </trkpt>
      <trkpt lat="59.837563" lon="13.147568">
        <ele>69.878</ele>
        <time>2011-04-24T12:38:48Z</time>
      </trkpt>
      <trkpt lat="59.837448" lon="13.146243">
        <ele>70.137</ele>
        <time>2011-04-24T12:38:58Z</time>
      </trkpt>
      <trkpt lat="59.837438" lon="13.145411">
        <ele>69.797</ele>
        <time>2011-04-24T12:39:05Z</time>
      </trkpt>
      <trkpt lat="59.83752" lon="13.144413">
        <ele>69.38</ele>
        <time>2011-04-24T12:39:14Z</time>
      </trkpt>
      <trkpt lat="59.837581" lon="13.143486">
        <ele>68.169</ele>
        <time>2011-04-24T12:39:21Z</time>
      </trkpt>
      <trkpt lat="59.837669" lon="13.142444">
        <ele>67.031</ele>
        <time>2011-04-24T12:39:29Z</time>
      </trkpt>
      <trkpt lat="59.837717" lon="13.141894">
        <ele>67.609</ele>
        <time>2011-04-24T12:39:34Z</time>
      </trkpt>
      <trkpt lat="59.837622" lon="13.141591">
        <ele>67.419</ele>
        <time>2011-04-24T12:39:38Z</time>
      </trkpt>
      <trkpt lat="59.83757" lon="13.141568">
        <ele>67.419</ele>
        <time>2011-04-24T12:39:39Z</time>
      </trkpt>
      <trkpt lat="59.836855" lon="13.141321">
        <ele>68.656</ele>
        <time>2011-04-24T12:39:52Z</time>
      </trkpt>
      <trkpt lat="59.836496" lon="13.141206">
        <ele>70.167</ele>
        <time>2011-04-24T12:39:59Z</time>
      </trkpt>
      <trkpt lat="59.836158" lon="13.141201">
        <ele>71.56</ele>
        <time>2011-04-24T12:40:06Z</time>
      </trkpt>
      <trkpt lat="59.835766" lon="13.141275">
        <ele>71.137</ele>
        <time>2011-04-24T12:40:13Z</time>
      </trkpt>
      <trkpt lat="59.83533" lon="13.141188">
        <ele>70.175</ele>
        <time>2011-04-24T12:40:20Z</time>
      </trkpt>
      <trkpt lat="59.834958" lon="13.140937">
        <ele>69.469</ele>
        <time>2011-04-24T12:40:26Z</time>
      </trkpt>
      <trkpt lat="59.834584" lon="13.14052">
        <ele>70.662</ele>
        <time>2011-04-24T12:40:33Z</time>
      </trkpt>
      <trkpt lat="59.834055" lon="13.139834">
        <ele>71.893</ele>
        <time>2011-04-24T12:40:44Z</time>
      </trkpt>
      <trkpt lat="59.83347" lon="13.139136">
        <ele>72.849</ele>
        <time>2011-04-24T12:40:56Z</time>
      </trkpt>
      <trkpt lat="59.833081" lon="13.138876">
        <ele>72.505</ele>
        <time>2011-04-24T12:41:03Z</time>
      </trkpt>
      <trkpt lat="59.83249" lon="13.138683">
        <ele>72.166</ele>
        <time>2011-04-24T12:41:13Z</time>
      </trkpt>
      <trkpt lat="59.832216" lon="13.13861">
        <ele>72.432</ele>
        <time>2011-04-24T12:41:18Z</time>
      </trkpt>
      <trkpt lat="59.8321" lon="13.138399">
        <ele>72.657</ele>
        <time>2011-04-24T12:41:22Z</time>
      </trkpt>
      <trkpt lat="59.832125" lon="13.137797">
        <ele>74.455</ele>
        <time>2011-04-24T12:41:30Z</time>
      </trkpt>
      <trkpt lat="59.832145" lon="13.137224">
        <ele>76.562</ele>
        <time>2011-04-24T12:41:37Z</time>
      </trkpt>
      <trkpt lat="59.832176" lon="13.136508">
        <ele>78.098</ele>
        <time>2011-04-24T12:41:45Z</time>
      </trkpt>
      <trkpt lat="59.832221" lon="13.135621">
        <ele>79.32</ele>
        <time>2011-04-24T12:41:54Z</time>
      </trkpt>
      <trkpt lat="59.832233" lon="13.134505">
        <ele>80.209</ele>
        <time>2011-04-24T12:42:05Z</time>
      </trkpt>
      <trkpt lat="59.832167" lon="13.133579">
        <ele>80.724</ele>
        <time>2011-04-24T12:42:14Z</time>
      </trkpt>
      <trkpt lat="59.832089" lon="13.132538">
        <ele>81.576</ele>
        <time>2011-04-24T12:42:24Z</time>
      </trkpt>
      <trkpt lat="59.832035" lon="13.131937">
        <ele>81.576</ele>
        <time>2011-04-24T12:42:30Z</time>
      </trkpt>
      <trkpt lat="59.831916" lon="13.131661">
        <ele>81.576</ele>
        <time>2011-04-24T12:42:34Z</time>
      </trkpt>
      <trkpt lat="59.83178" lon="13.131681">
        <ele>81.576</ele>
        <time>2011-04-24T12:42:37Z</time>
      </trkpt>
      <trkpt lat="59.831292" lon="13.132037">
        <ele>83.477</ele>
        <time>2011-04-24T12:42:47Z</time>
      </trkpt>
      <trkpt lat="59.83087" lon="13.13229">
        <ele>84.494</ele>
        <time>2011-04-24T12:42:56Z</time>
      </trkpt>
      <trkpt lat="59.830493" lon="13.132615">
        <ele>85.335</ele>
        <time>2011-04-24T12:43:05Z</time>
      </trkpt>
      <trkpt lat="59.830198" lon="13.132783">
        <ele>84.996</ele>
        <time>2011-04-24T12:43:11Z</time>
      </trkpt>
      <trkpt lat="59.829945" lon="13.132931">
        <ele>85.273</ele>
        <time>2011-04-24T12:43:16Z</time>
      </trkpt>
      <trkpt lat="59.829758" lon="13.132866">
        <ele>85.819</ele>
        <time>2011-04-24T12:43:20Z</time>
      </trkpt>
      <trkpt lat="59.829698" lon="13.132643">
        <ele>86.131</ele>
        <time>2011-04-24T12:43:23Z</time>
      </trkpt>
      <trkpt lat="59.829747" lon="13.13241">
        <ele>87.181</ele>
        <time>2011-04-24T12:43:26Z</time>
      </trkpt>
      <trkpt lat="59.829858" lon="13.132304">
        <ele>88.28</ele>
        <time>2011-04-24T12:43:29Z</time>
      </trkpt>
      <trkpt lat="59.830004" lon="13.132383">
        <ele>89.408</ele>
        <time>2011-04-24T12:43:33Z</time>
      </trkpt>
      <trkpt lat="59.829986" lon="13.132599">
        <ele>89.869</ele>
        <time>2011-04-24T12:43:36Z</time>
      </trkpt>
      <trkpt lat="59.829875" lon="13.132582">
        <ele>90.737</ele>
        <time>2011-04-24T12:43:39Z</time>
      </trkpt>
      <trkpt lat="59.829839" lon="13.132382">
        <ele>91.392</ele>
        <time>2011-04-24T12:43:42Z</time>
      </trkpt>
      <trkpt lat="59.829835" lon="13.132313">
        <ele>91.72</ele>
        <time>2011-04-24T12:43:43Z</time>
      </trkpt>
      <trkpt lat="59.829785" lon="13.131691">
        <ele>92.527</ele>
        <time>2011-04-24T12:43:51Z</time>
      </trkpt>
      <trkpt lat="59.829693" lon="13.131374">
        <ele>92.609</ele>
        <time>2011-04-24T12:43:56Z</time>
      </trkpt>
      <trkpt lat="59.829464" lon="13.130978">
        <ele>93.402</ele>
        <time>2011-04-24T12:44:03Z</time>
      </trkpt>
      <trkpt lat="59.829075" lon="13.13009">
        <ele>94.8</ele>
        <time>2011-04-24T12:44:16Z</time>
      </trkpt>
      <trkpt lat="59.828982" lon="13.129802">
        <ele>95.195</ele>
        <time>2011-04-24T12:44:20Z</time>
      </trkpt>
      <trkpt lat="59.828863" lon="13.129261">
        <ele>95.932</ele>
        <time>2011-04-24T12:44:27Z</time>
      </trkpt>
      <trkpt lat="59.828705" lon="13.128789">
        <ele>96.584</ele>
        <time>2011-04-24T12:44:34Z</time>
      </trkpt>
      <trkpt lat="59.828511" lon="13.128498">
        <ele>97.675</ele>
        <time>2011-04-24T12:44:41Z</time>
      </trkpt>
      <trkpt lat="59.82838" lon="13.128529">
        <ele>97.798</ele>
        <time>2011-04-24T12:44:47Z</time>
      </trkpt>
      <trkpt lat="59.828363" lon="13.128554">
        <ele>97.678</ele>
        <time>2011-04-24T12:44:50Z</time>
      </trkpt>
      <trkpt lat="59.82835" lon="13.128599">
        <ele>97.468</ele>
        <time>2011-04-24T12:45:30Z</time>
      </trkpt>
      <trkpt lat="59.82835" lon="13.1286">
        <ele>97.499</ele>
        <time>2011-04-24T12:45:31Z</time>
      </trkpt>
      <trkpt lat="59.828311" lon="13.128639">
        <ele>97.412</ele>
        <time>2011-04-24T12:45:51Z</time>
      </trkpt>
      <trkpt lat="59.828289" lon="13.128628">
        <ele>97.634</ele>
        <time>2011-04-24T12:45:57Z</time>
      </trkpt>
      <trkpt lat="59.828371" lon="13.128549">
        <ele>92.67</ele>
        <time>2011-04-24T13:43:38Z</time>
      </trkpt>
      <trkpt lat="59.828398" lon="13.128532">
        <ele>92.542</ele>
        <time>2011-04-24T13:43:41Z</time>
      </trkpt>
      <trkpt lat="59.828519" lon="13.128406">
        <ele>92.693</ele>
        <time>2011-04-24T13:43:54Z</time>
      </trkpt>
      <trkpt lat="59.828528" lon="13.128403">
        <ele>92.822</ele>
        <time>2011-04-24T13:43:58Z</time>
      </trkpt>
      <trkpt lat="59.828525" lon="13.12845">
        <ele>93.2</ele>
        <time>2011-04-24T13:44:04Z</time>
      </trkpt>
      <trkpt lat="59.82845" lon="13.128558">
        <ele>98.569</ele>
        <time>2011-04-24T14:26:55Z</time>
      </trkpt>
      <trkpt lat="59.8284" lon="13.128711">
        <ele>98.629</ele>
        <time>2011-04-24T14:27:02Z</time>
      </trkpt>
      <trkpt lat="59.828402" lon="13.128848">
        <ele>98.304</ele>
        <time>2011-04-24T14:27:09Z</time>
      </trkpt>
      <trkpt lat="59.828404" lon="13.128864">
        <ele>98.298</ele>
        <time>2011-04-24T14:27:11Z</time>
      </trkpt>
      <trkpt lat="59.828498" lon="13.129033">
        <ele>98.346</ele>
        <time>2011-04-24T14:27:20Z</time>
      </trkpt>
      <trkpt lat="59.828581" lon="13.129035">
        <ele>98.349</ele>
        <time>2011-04-24T14:27:22Z</time>
      </trkpt>
      <trkpt lat="59.828778" lon="13.129071">
        <ele>97.844</ele>
        <time>2011-04-24T14:27:28Z</time>
      </trkpt>
      <trkpt lat="59.828909" lon="13.129532">
        <ele>97.212</ele>
        <time>2011-04-24T14:27:34Z</time>
      </trkpt>
      <trkpt lat="59.829032" lon="13.130046">
        <ele>96.444</ele>
        <time>2011-04-24T14:27:42Z</time>
      </trkpt>
      <trkpt lat="59.829053" lon="13.130098">
        <ele>96.124</ele>
        <time>2011-04-24T14:27:45Z</time>
      </trkpt>
      <trkpt lat="59.829056" lon="13.130098">
        <ele>96.125</ele>
        <time>2011-04-24T14:27:46Z</time>
      </trkpt>
      <trkpt lat="59.829111" lon="13.130204">
        <ele>96.372</ele>
        <time>2011-04-24T14:28:45Z</time>
      </trkpt>
      <trkpt lat="59.829233" lon="13.130501">
        <ele>96.061</ele>
        <time>2011-04-24T14:28:50Z</time>
      </trkpt>
      <trkpt lat="59.829439" lon="13.130958">
        <ele>95.489</ele>
        <time>2011-04-24T14:28:55Z</time>
      </trkpt>
      <trkpt lat="59.829666" lon="13.131303">
        <ele>95.135</ele>
        <time>2011-04-24T14:28:59Z</time>
      </trkpt>
      <trkpt lat="59.830026" lon="13.131466">
        <ele>94.396</ele>
        <time>2011-04-24T14:29:04Z</time>
      </trkpt>
      <trkpt lat="59.830103" lon="13.131449">
        <ele>94.164</ele>
        <time>2011-04-24T14:29:05Z</time>
      </trkpt>
      <trkpt lat="59.830783" lon="13.131264">
        <ele>91.489</ele>
        <time>2011-04-24T14:29:13Z</time>
      </trkpt>
      <trkpt lat="59.830878" lon="13.13122">
        <ele>91.222</ele>
        <time>2011-04-24T14:29:14Z</time>
      </trkpt>
      <trkpt lat="59.831353" lon="13.130919">
        <ele>88.655</ele>
        <time>2011-04-24T14:29:19Z</time>
      </trkpt>
      <trkpt lat="59.831654" lon="13.130644">
        <ele>86.538</ele>
        <time>2011-04-24T14:29:23Z</time>
      </trkpt>
      <trkpt lat="59.831851" lon="13.130649">
        <ele>85.771</ele>
        <time>2011-04-24T14:29:27Z</time>
      </trkpt>
      <trkpt lat="59.831898" lon="13.130835">
        <ele>85.513</ele>
        <time>2011-04-24T14:29:30Z</time>
      </trkpt>
      <trkpt lat="59.831897" lon="13.130866">
        <ele>85.195</ele>
        <time>2011-04-24T14:29:33Z</time>
      </trkpt>
      <trkpt lat="59.831809" lon="13.131075">
        <ele>85.358</ele>
        <time>2011-04-24T14:30:11Z</time>
      </trkpt>
      <trkpt lat="59.831705" lon="13.131158">
        <ele>85.882</ele>
        <time>2011-04-24T14:30:13Z</time>
      </trkpt>
      <trkpt lat="59.831294" lon="13.13137">
        <ele>87.456</ele>
        <time>2011-04-24T14:30:18Z</time>
      </trkpt>
      <trkpt lat="59.830856" lon="13.131581">
        <ele>89.742</ele>
        <time>2011-04-24T14:30:22Z</time>
      </trkpt>
      <trkpt lat="59.830193" lon="13.131865">
        <ele>92.049</ele>
        <time>2011-04-24T14:30:27Z</time>
      </trkpt>
      <trkpt lat="59.829157" lon="13.132192">
        <ele>93.153</ele>
        <time>2011-04-24T14:30:34Z</time>
      </trkpt>
      <trkpt lat="59.828277" lon="13.132367">
        <ele>92.603</ele>
        <time>2011-04-24T14:30:40Z</time>
      </trkpt>
      <trkpt lat="59.827339" lon="13.132448">
        <ele>91.98</ele>
        <time>2011-04-24T14:30:46Z</time>
      </trkpt>
      <trkpt lat="59.826173" lon="13.13242">
        <ele>90.491</ele>
        <time>2011-04-24T14:30:53Z</time>
      </trkpt>
      <trkpt lat="59.824944" lon="13.132257">
        <ele>87.524</ele>
        <time>2011-04-24T14:31:00Z</time>
      </trkpt>
      <trkpt lat="59.823675" lon="13.13193">
        <ele>83.891</ele>
        <time>2011-04-24T14:31:07Z</time>
      </trkpt>
      <trkpt lat="59.822754" lon="13.131643">
        <ele>81.567</ele>
        <time>2011-04-24T14:31:12Z</time>
      </trkpt>
      <trkpt lat="59.821068" lon="13.131102">
        <ele>79.368</ele>
        <time>2011-04-24T14:31:21Z</time>
      </trkpt>
      <trkpt lat="59.818991" lon="13.130435">
        <ele>76.314</ele>
        <time>2011-04-24T14:31:32Z</time>
      </trkpt>
      <trkpt lat="59.817184" lon="13.129853">
        <ele>77.315</ele>
        <time>2011-04-24T14:31:42Z</time>
      </trkpt>
      <trkpt lat="59.815949" lon="13.129332">
        <ele>79.406</ele>
        <time>2011-04-24T14:31:49Z</time>
      </trkpt>
      <trkpt lat="59.814971" lon="13.128667">
        <ele>83.503</ele>
        <time>2011-04-24T14:31:55Z</time>
      </trkpt>
      <trkpt lat="59.813846" lon="13.127702">
        <ele>89.476</ele>
        <time>2011-04-24T14:32:02Z</time>
      </trkpt>
      <trkpt lat="59.812357" lon="13.126418">
        <ele>96.407</ele>
        <time>2011-04-24T14:32:11Z</time>
      </trkpt>
      <trkpt lat="59.811661" lon="13.12607">
        <ele>100.943</ele>
        <time>2011-04-24T14:32:15Z</time>
      </trkpt>
      <trkpt lat="59.810947" lon="13.125926">
        <ele>104.831</ele>
        <time>2011-04-24T14:32:19Z</time>
      </trkpt>
      <trkpt lat="59.810232" lon="13.125883">
        <ele>107.15</ele>
        <time>2011-04-24T14:32:23Z</time>
      </trkpt>
      <trkpt lat="59.809339" lon="13.125706">
        <ele>107.43</ele>
        <time>2011-04-24T14:32:28Z</time>
      </trkpt>
      <trkpt lat="59.808296" lon="13.125278">
        <ele>108.351</ele>
        <time>2011-04-24T14:32:34Z</time>
      </trkpt>
      <trkpt lat="59.806231" lon="13.1243">
        <ele>110.08</ele>
        <time>2011-04-24T14:32:46Z</time>
      </trkpt>
      <trkpt lat="59.804816" lon="13.123622">
        <ele>107.585</ele>
        <time>2011-04-24T14:32:54Z</time>
      </trkpt>
      <trkpt lat="59.803782" lon="13.122981">
        <ele>106.922</ele>
        <time>2011-04-24T14:33:00Z</time>
      </trkpt>
      <trkpt lat="59.802843" lon="13.122157">
        <ele>103.806</ele>
        <time>2011-04-24T14:33:06Z</time>
      </trkpt>
      <trkpt lat="59.802089" lon="13.121308">
        <ele>101.138</ele>
        <time>2011-04-24T14:33:11Z</time>
      </trkpt>
      <trkpt lat="59.801519" lon="13.120461">
        <ele>99.641</ele>
        <time>2011-04-24T14:33:15Z</time>
      </trkpt>
      <trkpt lat="59.801008" lon="13.119429">
        <ele>98.319</ele>
        <time>2011-04-24T14:33:19Z</time>
      </trkpt>
      <trkpt lat="59.800437" lon="13.117953">
        <ele>97.098</ele>
        <time>2011-04-24T14:33:24Z</time>
      </trkpt>
      <trkpt lat="59.800085" lon="13.116702">
        <ele>96.44</ele>
        <time>2011-04-24T14:33:28Z</time>
      </trkpt>
      <trkpt lat="59.799766" lon="13.115122">
        <ele>98.783</ele>
        <time>2011-04-24T14:33:33Z</time>
      </trkpt>
      <trkpt lat="59.799409" lon="13.113661">
        <ele>101.273</ele>
        <time>2011-04-24T14:33:38Z</time>
      </trkpt>
      <trkpt lat="59.79904" lon="13.112652">
        <ele>102.331</ele>
        <time>2011-04-24T14:33:42Z</time>
      </trkpt>
      <trkpt lat="59.798583" lon="13.11178">
        <ele>103.84</ele>
        <time>2011-04-24T14:33:46Z</time>
      </trkpt>
      <trkpt lat="59.797582" lon="13.110269">
        <ele>108.592</ele>
        <time>2011-04-24T14:33:54Z</time>
      </trkpt>
      <trkpt lat="59.7969" lon="13.109153">
        <ele>112.041</ele>
        <time>2011-04-24T14:34:00Z</time>
      </trkpt>
      <trkpt lat="59.796797" lon="13.108948">
        <ele>112.342</ele>
        <time>2011-04-24T14:34:01Z</time>
      </trkpt>
      <trkpt lat="59.796186" lon="13.107663">
        <ele>115.082</ele>
        <time>2011-04-24T14:34:07Z</time>
      </trkpt>
      <trkpt lat="59.795341" lon="13.105798">
        <ele>115.491</ele>
        <time>2011-04-24T14:34:15Z</time>
      </trkpt>
      <trkpt lat="59.794517" lon="13.103991">
        <ele>110.737</ele>
        <time>2011-04-24T14:34:22Z</time>
      </trkpt>
      <trkpt lat="59.794399" lon="13.103732">
        <ele>110.464</ele>
        <time>2011-04-24T14:34:23Z</time>
      </trkpt>
      <trkpt lat="59.793598" lon="13.101981">
        <ele>111.833</ele>
        <time>2011-04-24T14:34:30Z</time>
      </trkpt>
      <trkpt lat="59.792492" lon="13.099523">
        <ele>117.785</ele>
        <time>2011-04-24T14:34:40Z</time>
      </trkpt>
      <trkpt lat="59.791834" lon="13.098156">
        <ele>122.079</ele>
        <time>2011-04-24T14:34:46Z</time>
      </trkpt>
      <trkpt lat="59.791309" lon="13.097433">
        <ele>122.883</ele>
        <time>2011-04-24T14:34:50Z</time>
      </trkpt>
      <trkpt lat="59.790711" lon="13.096861">
        <ele>121.853</ele>
        <time>2011-04-24T14:34:54Z</time>
      </trkpt>
      <trkpt lat="59.790066" lon="13.096496">
        <ele>122.5</ele>
        <time>2011-04-24T14:34:58Z</time>
      </trkpt>
      <trkpt lat="59.789228" lon="13.09623">
        <ele>124.017</ele>
        <time>2011-04-24T14:35:03Z</time>
      </trkpt>
      <trkpt lat="59.788516" lon="13.096194">
        <ele>124.141</ele>
        <time>2011-04-24T14:35:07Z</time>
      </trkpt>
      <trkpt lat="59.787776" lon="13.096398">
        <ele>124.257</ele>
        <time>2011-04-24T14:35:11Z</time>
      </trkpt>
      <trkpt lat="59.786485" lon="13.096981">
        <ele>122.648</ele>
        <time>2011-04-24T14:35:18Z</time>
      </trkpt>
      <trkpt lat="59.786108" lon="13.097153">
        <ele>121.737</ele>
        <time>2011-04-24T14:35:20Z</time>
      </trkpt>
      <trkpt lat="59.783844" lon="13.098153">
        <ele>116.443</ele>
        <time>2011-04-24T14:35:32Z</time>
      </trkpt>
      <trkpt lat="59.782885" lon="13.098383">
        <ele>113.66</ele>
        <time>2011-04-24T14:35:37Z</time>
      </trkpt>
      <trkpt lat="59.782114" lon="13.098324">
        <ele>111.304</ele>
        <time>2011-04-24T14:35:41Z</time>
      </trkpt>
      <trkpt lat="59.781924" lon="13.098276">
        <ele>111.03</ele>
        <time>2011-04-24T14:35:42Z</time>
      </trkpt>
      <trkpt lat="59.78081" lon="13.09786">
        <ele>109.048</ele>
        <time>2011-04-24T14:35:48Z</time>
      </trkpt>
      <trkpt lat="59.779315" lon="13.097344">
        <ele>110.686</ele>
        <time>2011-04-24T14:35:56Z</time>
      </trkpt>
      <trkpt lat="59.778005" lon="13.097032">
        <ele>116.505</ele>
        <time>2011-04-24T14:36:03Z</time>
      </trkpt>
      <trkpt lat="59.775885" lon="13.096534">
        <ele>118.955</ele>
        <time>2011-04-24T14:36:14Z</time>
      </trkpt>
      <trkpt lat="59.774352" lon="13.096111">
        <ele>114.823</ele>
        <time>2011-04-24T14:36:22Z</time>
      </trkpt>
      <trkpt lat="59.773615" lon="13.096096">
        <ele>114.251</ele>
        <time>2011-04-24T14:36:26Z</time>
      </trkpt>
      <trkpt lat="59.772886" lon="13.096332">
        <ele>117.125</ele>
        <time>2011-04-24T14:36:30Z</time>
      </trkpt>
      <trkpt lat="59.772152" lon="13.096843">
        <ele>120.393</ele>
        <time>2011-04-24T14:36:34Z</time>
      </trkpt>
      <trkpt lat="59.771464" lon="13.097577">
        <ele>120.173</ele>
        <time>2011-04-24T14:36:38Z</time>
      </trkpt>
      <trkpt lat="59.770002" lon="13.099308">
        <ele>122.383</ele>
        <time>2011-04-24T14:36:47Z</time>
      </trkpt>
      <trkpt lat="59.769414" lon="13.100302">
        <ele>122.284</ele>
        <time>2011-04-24T14:36:51Z</time>
      </trkpt>
      <trkpt lat="59.768184" lon="13.102729">
        <ele>121.349</ele>
        <time>2011-04-24T14:37:00Z</time>
      </trkpt>
      <trkpt lat="59.766677" lon="13.105717">
        <ele>121.321</ele>
        <time>2011-04-24T14:37:11Z</time>
      </trkpt>
      <trkpt lat="59.765186" lon="13.108686">
        <ele>123.254</ele>
        <time>2011-04-24T14:37:22Z</time>
      </trkpt>
      <trkpt lat="59.764911" lon="13.109226">
        <ele>122.386</ele>
        <time>2011-04-24T14:37:24Z</time>
      </trkpt>
      <trkpt lat="59.76406" lon="13.110777">
        <ele>120.985</ele>
        <time>2011-04-24T14:37:30Z</time>
      </trkpt>
      <trkpt lat="59.76342" lon="13.111604">
        <ele>121.041</ele>
        <time>2011-04-24T14:37:34Z</time>
      </trkpt>
      <trkpt lat="59.762712" lon="13.1122">
        <ele>121.961</ele>
        <time>2011-04-24T14:37:38Z</time>
      </trkpt>
      <trkpt lat="59.761066" lon="13.113314">
        <ele>121.887</ele>
        <time>2011-04-24T14:37:47Z</time>
      </trkpt>
      <trkpt lat="59.758883" lon="13.11481">
        <ele>122.537</ele>
        <time>2011-04-24T14:37:59Z</time>
      </trkpt>
      <trkpt lat="59.757056" lon="13.116065">
        <ele>123.217</ele>
        <time>2011-04-24T14:38:09Z</time>
      </trkpt>
      <trkpt lat="59.754882" lon="13.117566">
        <ele>126.36</ele>
        <time>2011-04-24T14:38:21Z</time>
      </trkpt>
      <trkpt lat="59.752519" lon="13.119221">
        <ele>127.992</ele>
        <time>2011-04-24T14:38:34Z</time>
      </trkpt>
      <trkpt lat="59.751275" lon="13.120236">
        <ele>127.427</ele>
        <time>2011-04-24T14:38:41Z</time>
      </trkpt>
      <trkpt lat="59.749179" lon="13.122152">
        <ele>127.787</ele>
        <time>2011-04-24T14:38:53Z</time>
      </trkpt>
      <trkpt lat="59.747431" lon="13.123773">
        <ele>126.894</ele>
        <time>2011-04-24T14:39:03Z</time>
      </trkpt>
      <trkpt lat="59.745895" lon="13.125364">
        <ele>125.138</ele>
        <time>2011-04-24T14:39:12Z</time>
      </trkpt>
      <trkpt lat="59.744195" lon="13.127144">
        <ele>124.125</ele>
        <time>2011-04-24T14:39:22Z</time>
      </trkpt>
      <trkpt lat="59.743477" lon="13.127668">
        <ele>124.475</ele>
        <time>2011-04-24T14:39:26Z</time>
      </trkpt>
      <trkpt lat="59.742003" lon="13.128569">
        <ele>124.573</ele>
        <time>2011-04-24T14:39:34Z</time>
      </trkpt>
      <trkpt lat="59.739794" lon="13.129862">
        <ele>126.513</ele>
        <time>2011-04-24T14:39:46Z</time>
      </trkpt>
      <trkpt lat="59.738099" lon="13.130706">
        <ele>128.134</ele>
        <time>2011-04-24T14:39:55Z</time>
      </trkpt>
      <trkpt lat="59.736205" lon="13.131515">
        <ele>127.527</ele>
        <time>2011-04-24T14:40:05Z</time>
      </trkpt>
      <trkpt lat="59.734099" lon="13.132159">
        <ele>126.69</ele>
        <time>2011-04-24T14:40:16Z</time>
      </trkpt>
      <trkpt lat="59.73275" lon="13.132462">
        <ele>123.483</ele>
        <time>2011-04-24T14:40:23Z</time>
      </trkpt>
      <trkpt lat="59.730646" lon="13.13287">
        <ele>121.416</ele>
        <time>2011-04-24T14:40:34Z</time>
      </trkpt>
      <trkpt lat="59.728705" lon="13.133217">
        <ele>117.804</ele>
        <time>2011-04-24T14:40:44Z</time>
      </trkpt>
      <trkpt lat="59.72812" lon="13.133319">
        <ele>116.426</ele>
        <time>2011-04-24T14:40:47Z</time>
      </trkpt>
      <trkpt lat="59.726197" lon="13.133669">
        <ele>109.359</ele>
        <time>2011-04-24T14:40:57Z</time>
      </trkpt>
      <trkpt lat="59.724682" lon="13.134045">
        <ele>105.997</ele>
        <time>2011-04-24T14:41:05Z</time>
      </trkpt>
      <trkpt lat="59.723218" lon="13.134582">
        <ele>110.854</ele>
        <time>2011-04-24T14:41:13Z</time>
      </trkpt>
      <trkpt lat="59.72172" lon="13.135314">
        <ele>116.089</ele>
        <time>2011-04-24T14:41:21Z</time>
      </trkpt>
      <trkpt lat="59.720249" lon="13.136209">
        <ele>119.161</ele>
        <time>2011-04-24T14:41:29Z</time>
      </trkpt>
      <trkpt lat="59.718801" lon="13.137264">
        <ele>121.417</ele>
        <time>2011-04-24T14:41:37Z</time>
      </trkpt>
      <trkpt lat="59.717742" lon="13.138162">
        <ele>124.483</ele>
        <time>2011-04-24T14:41:43Z</time>
      </trkpt>
      <trkpt lat="59.716354" lon="13.139499">
        <ele>126.591</ele>
        <time>2011-04-24T14:41:51Z</time>
      </trkpt>
      <trkpt lat="59.716017" lon="13.139858">
        <ele>127.479</ele>
        <time>2011-04-24T14:41:53Z</time>
      </trkpt>
      <trkpt lat="59.714843" lon="13.14119">
        <ele>129.073</ele>
        <time>2011-04-24T14:42:00Z</time>
      </trkpt>
      <trkpt lat="59.712885" lon="13.143629">
        <ele>131.983</ele>
        <time>2011-04-24T14:42:12Z</time>
      </trkpt>
      <trkpt lat="59.711076" lon="13.145838">
        <ele>133.418</ele>
        <time>2011-04-24T14:42:23Z</time>
      </trkpt>
      <trkpt lat="59.709877" lon="13.147051">
        <ele>132.468</ele>
        <time>2011-04-24T14:42:30Z</time>
      </trkpt>
      <trkpt lat="59.708802" lon="13.147885">
        <ele>133.003</ele>
        <time>2011-04-24T14:42:36Z</time>
      </trkpt>
      <trkpt lat="59.707508" lon="13.14864">
        <ele>133.471</ele>
        <time>2011-04-24T14:42:43Z</time>
      </trkpt>
      <trkpt lat="59.706185" lon="13.149111">
        <ele>134.479</ele>
        <time>2011-04-24T14:42:50Z</time>
      </trkpt>
      <trkpt lat="59.705038" lon="13.149317">
        <ele>135.743</ele>
        <time>2011-04-24T14:42:56Z</time>
      </trkpt>
      <trkpt lat="59.703882" lon="13.149308">
        <ele>135.531</ele>
        <time>2011-04-24T14:43:02Z</time>
      </trkpt>
      <trkpt lat="59.702737" lon="13.149129">
        <ele>136.369</ele>
        <time>2011-04-24T14:43:08Z</time>
      </trkpt>
      <trkpt lat="59.701602" lon="13.14874">
        <ele>137.895</ele>
        <time>2011-04-24T14:43:14Z</time>
      </trkpt>
      <trkpt lat="59.700305" lon="13.148023">
        <ele>138.686</ele>
        <time>2011-04-24T14:43:21Z</time>
      </trkpt>
      <trkpt lat="59.699212" lon="13.147232">
        <ele>139.371</ele>
        <time>2011-04-24T14:43:27Z</time>
      </trkpt>
      <trkpt lat="59.697393" lon="13.145867">
        <ele>133.722</ele>
        <time>2011-04-24T14:43:37Z</time>
      </trkpt>
      <trkpt lat="59.695225" lon="13.144227">
        <ele>123.086</ele>
        <time>2011-04-24T14:43:49Z</time>
      </trkpt>
      <trkpt lat="59.694517" lon="13.143659">
        <ele>120.218</ele>
        <time>2011-04-24T14:43:53Z</time>
      </trkpt>
      <trkpt lat="59.692757" lon="13.14213">
        <ele>116.468</ele>
        <time>2011-04-24T14:44:03Z</time>
      </trkpt>
      <trkpt lat="59.690824" lon="13.140331">
        <ele>113.264</ele>
        <time>2011-04-24T14:44:14Z</time>
      </trkpt>
      <trkpt lat="59.689597" lon="13.139239">
        <ele>113.536</ele>
        <time>2011-04-24T14:44:21Z</time>
      </trkpt>
      <trkpt lat="59.68886" lon="13.13882">
        <ele>113.082</ele>
        <time>2011-04-24T14:44:25Z</time>
      </trkpt>
      <trkpt lat="59.688092" lon="13.138637">
        <ele>112.262</ele>
        <time>2011-04-24T14:44:29Z</time>
      </trkpt>
      <trkpt lat="59.687313" lon="13.138693">
        <ele>110.972</ele>
        <time>2011-04-24T14:44:33Z</time>
      </trkpt>
      <trkpt lat="59.686928" lon="13.138786">
        <ele>110.174</ele>
        <time>2011-04-24T14:44:35Z</time>
      </trkpt>
      <trkpt lat="59.685032" lon="13.139265">
        <ele>110.896</ele>
        <time>2011-04-24T14:44:45Z</time>
      </trkpt>
      <trkpt lat="59.682733" lon="13.139837">
        <ele>110.883</ele>
        <time>2011-04-24T14:44:57Z</time>
      </trkpt>
      <trkpt lat="59.681023" lon="13.140264">
        <ele>111.508</ele>
        <time>2011-04-24T14:45:06Z</time>
      </trkpt>
      <trkpt lat="59.678736" lon="13.140843">
        <ele>112.148</ele>
        <time>2011-04-24T14:45:18Z</time>
      </trkpt>
      <trkpt lat="59.67741" lon="13.141171">
        <ele>116.184</ele>
        <time>2011-04-24T14:45:25Z</time>
      </trkpt>
      <trkpt lat="59.677214" lon="13.141238">
        <ele>116.38</ele>
        <time>2011-04-24T14:45:26Z</time>
      </trkpt>
      <trkpt lat="59.676466" lon="13.141663">
        <ele>115.823</ele>
        <time>2011-04-24T14:45:30Z</time>
      </trkpt>
      <trkpt lat="59.675956" lon="13.142143">
        <ele>114.167</ele>
        <time>2011-04-24T14:45:33Z</time>
      </trkpt>
      <trkpt lat="59.675795" lon="13.142334">
        <ele>113.871</ele>
        <time>2011-04-24T14:45:34Z</time>
      </trkpt>
      <trkpt lat="59.675013" lon="13.143431">
        <ele>112.712</ele>
        <time>2011-04-24T14:45:39Z</time>
      </trkpt>
      <trkpt lat="59.674121" lon="13.144747">
        <ele>108.133</ele>
        <time>2011-04-24T14:45:45Z</time>
      </trkpt>
      <trkpt lat="59.673981" lon="13.144955">
        <ele>107.89</ele>
        <time>2011-04-24T14:45:46Z</time>
      </trkpt>
      <trkpt lat="59.672614" lon="13.147006">
        <ele>104.786</ele>
        <time>2011-04-24T14:45:56Z</time>
      </trkpt>
      <trkpt lat="59.671327" lon="13.148871">
        <ele>102.289</ele>
        <time>2011-04-24T14:46:05Z</time>
      </trkpt>
      <trkpt lat="59.670116" lon="13.1504">
        <ele>100.979</ele>
        <time>2011-04-24T14:46:13Z</time>
      </trkpt>
      <trkpt lat="59.669288" lon="13.151106">
        <ele>100.358</ele>
        <time>2011-04-24T14:46:18Z</time>
      </trkpt>
      <trkpt lat="59.668595" lon="13.151508">
        <ele>100.554</ele>
        <time>2011-04-24T14:46:22Z</time>
      </trkpt>
      <trkpt lat="59.66667" lon="13.152461">
        <ele>101.879</ele>
        <time>2011-04-24T14:46:33Z</time>
      </trkpt>
      <trkpt lat="59.66613" lon="13.152736">
        <ele>103.247</ele>
        <time>2011-04-24T14:46:36Z</time>
      </trkpt>
      <trkpt lat="59.664664" lon="13.153463">
        <ele>105.246</ele>
        <time>2011-04-24T14:46:44Z</time>
      </trkpt>
      <trkpt lat="59.6633" lon="13.15412">
        <ele>104.628</ele>
        <time>2011-04-24T14:46:52Z</time>
      </trkpt>
      <trkpt lat="59.661748" lon="13.154884">
        <ele>102.297</ele>
        <time>2011-04-24T14:47:01Z</time>
      </trkpt>
      <trkpt lat="59.661047" lon="13.15509">
        <ele>100.659</ele>
        <time>2011-04-24T14:47:05Z</time>
      </trkpt>
      <trkpt lat="59.660325" lon="13.155069">
        <ele>98.743</ele>
        <time>2011-04-24T14:47:09Z</time>
      </trkpt>
      <trkpt lat="59.659406" lon="13.154802">
        <ele>97.693</ele>
        <time>2011-04-24T14:47:14Z</time>
      </trkpt>
      <trkpt lat="59.657778" lon="13.154238">
        <ele>96.786</ele>
        <time>2011-04-24T14:47:23Z</time>
      </trkpt>
      <trkpt lat="59.656207" lon="13.153692">
        <ele>96.588</ele>
        <time>2011-04-24T14:47:32Z</time>
      </trkpt>
      <trkpt lat="59.654478" lon="13.153099">
        <ele>98.572</ele>
        <time>2011-04-24T14:47:42Z</time>
      </trkpt>
      <trkpt lat="59.65328" lon="13.152863">
        <ele>99.582</ele>
        <time>2011-04-24T14:47:49Z</time>
      </trkpt>
      <trkpt lat="59.652565" lon="13.15294">
        <ele>99.297</ele>
        <time>2011-04-24T14:47:53Z</time>
      </trkpt>
      <trkpt lat="59.651854" lon="13.153261">
        <ele>99.481</ele>
        <time>2011-04-24T14:47:57Z</time>
      </trkpt>
      <trkpt lat="59.650248" lon="13.154277">
        <ele>99.381</ele>
        <time>2011-04-24T14:48:06Z</time>
      </trkpt>
      <trkpt lat="59.647889" lon="13.155757">
        <ele>102.025</ele>
        <time>2011-04-24T14:48:19Z</time>
      </trkpt>
      <trkpt lat="59.647149" lon="13.155973">
        <ele>102.448</ele>
        <time>2011-04-24T14:48:23Z</time>
      </trkpt>
      <trkpt lat="59.646379" lon="13.155945">
        <ele>103.287</ele>
        <time>2011-04-24T14:48:27Z</time>
      </trkpt>
      <trkpt lat="59.644815" lon="13.155597">
        <ele>103.863</ele>
        <time>2011-04-24T14:48:35Z</time>
      </trkpt>
      <trkpt lat="59.643079" lon="13.155213">
        <ele>99.755</ele>
        <time>2011-04-24T14:48:44Z</time>
      </trkpt>
      <trkpt lat="59.642707" lon="13.155129">
        <ele>98.802</ele>
        <time>2011-04-24T14:48:46Z</time>
      </trkpt>
      <trkpt lat="59.640841" lon="13.154706">
        <ele>97.563</ele>
        <time>2011-04-24T14:48:56Z</time>
      </trkpt>
      <trkpt lat="59.639961" lon="13.154621">
        <ele>101.201</ele>
        <time>2011-04-24T14:49:01Z</time>
      </trkpt>
      <trkpt lat="59.639254" lon="13.154765">
        <ele>103.179</ele>
        <time>2011-04-24T14:49:05Z</time>
      </trkpt>
      <trkpt lat="59.638545" lon="13.155155">
        <ele>103.268</ele>
        <time>2011-04-24T14:49:09Z</time>
      </trkpt>
      <trkpt lat="59.636968" lon="13.156274">
        <ele>100.074</ele>
        <time>2011-04-24T14:49:18Z</time>
      </trkpt>
      <trkpt lat="59.635085" lon="13.157608">
        <ele>103.901</ele>
        <time>2011-04-24T14:49:29Z</time>
      </trkpt>
      <trkpt lat="59.633842" lon="13.158501">
        <ele>101.458</ele>
        <time>2011-04-24T14:49:36Z</time>
      </trkpt>
      <trkpt lat="59.632426" lon="13.159398">
        <ele>102.205</ele>
        <time>2011-04-24T14:49:44Z</time>
      </trkpt>
      <trkpt lat="59.630446" lon="13.160484">
        <ele>98.326</ele>
        <time>2011-04-24T14:49:55Z</time>
      </trkpt>
      <trkpt lat="59.629891" lon="13.1608">
        <ele>96.828</ele>
        <time>2011-04-24T14:49:58Z</time>
      </trkpt>
      <trkpt lat="59.62856" lon="13.161456">
        <ele>96.996</ele>
        <time>2011-04-24T14:50:05Z</time>
      </trkpt>
      <trkpt lat="59.627815" lon="13.161581">
        <ele>99.003</ele>
        <time>2011-04-24T14:50:09Z</time>
      </trkpt>
      <trkpt lat="59.627631" lon="13.16157">
        <ele>99.168</ele>
        <time>2011-04-24T14:50:10Z</time>
      </trkpt>
      <trkpt lat="59.626905" lon="13.161359">
        <ele>100.23</ele>
        <time>2011-04-24T14:50:14Z</time>
      </trkpt>
      <trkpt lat="59.625831" lon="13.160794">
        <ele>99.268</ele>
        <time>2011-04-24T14:50:20Z</time>
      </trkpt>
      <trkpt lat="59.62417" lon="13.159862">
        <ele>98.825</ele>
        <time>2011-04-24T14:50:29Z</time>
      </trkpt>
      <trkpt lat="59.622375" lon="13.158848">
        <ele>102.361</ele>
        <time>2011-04-24T14:50:39Z</time>
      </trkpt>
      <trkpt lat="59.620793" lon="13.157973">
        <ele>106.537</ele>
        <time>2011-04-24T14:50:48Z</time>
      </trkpt>
      <trkpt lat="59.619202" lon="13.157084">
        <ele>102.302</ele>
        <time>2011-04-24T14:50:57Z</time>
      </trkpt>
      <trkpt lat="59.617429" lon="13.156106">
        <ele>96.149</ele>
        <time>2011-04-24T14:51:07Z</time>
      </trkpt>
      <trkpt lat="59.616114" lon="13.155389">
        <ele>94.246</ele>
        <time>2011-04-24T14:51:14Z</time>
      </trkpt>
      <trkpt lat="59.615009" lon="13.154772">
        <ele>93.302</ele>
        <time>2011-04-24T14:51:20Z</time>
      </trkpt>
      <trkpt lat="59.613744" lon="13.154153">
        <ele>93.272</ele>
        <time>2011-04-24T14:51:27Z</time>
      </trkpt>
      <trkpt lat="59.612801" lon="13.153917">
        <ele>95.092</ele>
        <time>2011-04-24T14:51:32Z</time>
      </trkpt>
      <trkpt lat="59.611849" lon="13.153892">
        <ele>95.994</ele>
        <time>2011-04-24T14:51:37Z</time>
      </trkpt>
      <trkpt lat="59.610915" lon="13.154079">
        <ele>99.604</ele>
        <time>2011-04-24T14:51:42Z</time>
      </trkpt>
      <trkpt lat="59.610022" lon="13.154445">
        <ele>103.097</ele>
        <time>2011-04-24T14:51:47Z</time>
      </trkpt>
      <trkpt lat="59.608856" lon="13.155087">
        <ele>107.437</ele>
        <time>2011-04-24T14:51:54Z</time>
      </trkpt>
      <trkpt lat="59.608219" lon="13.155465">
        <ele>109.809</ele>
        <time>2011-04-24T14:51:58Z</time>
      </trkpt>
      <trkpt lat="59.607548" lon="13.155869">
        <ele>109.486</ele>
        <time>2011-04-24T14:52:02Z</time>
      </trkpt>
      <trkpt lat="59.606474" lon="13.156516">
        <ele>107.089</ele>
        <time>2011-04-24T14:52:08Z</time>
      </trkpt>
      <trkpt lat="59.605592" lon="13.157199">
        <ele>105.009</ele>
        <time>2011-04-24T14:52:13Z</time>
      </trkpt>
      <trkpt lat="59.605416" lon="13.157353">
        <ele>104.821</ele>
        <time>2011-04-24T14:52:14Z</time>
      </trkpt>
      <trkpt lat="59.603827" lon="13.158735">
        <ele>100.732</ele>
        <time>2011-04-24T14:52:23Z</time>
      </trkpt>
      <trkpt lat="59.603298" lon="13.159192">
        <ele>98.801</ele>
        <time>2011-04-24T14:52:26Z</time>
      </trkpt>
      <trkpt lat="59.601184" lon="13.160996">
        <ele>96.233</ele>
        <time>2011-04-24T14:52:38Z</time>
      </trkpt>
      <trkpt lat="59.599415" lon="13.162528">
        <ele>93.825</ele>
        <time>2011-04-24T14:52:48Z</time>
      </trkpt>
      <trkpt lat="59.597299" lon="13.164348">
        <ele>93.468</ele>
        <time>2011-04-24T14:53:00Z</time>
      </trkpt>
      <trkpt lat="59.595894" lon="13.165486">
        <ele>95.284</ele>
        <time>2011-04-24T14:53:08Z</time>
      </trkpt>
      <trkpt lat="59.595159" lon="13.165809">
        <ele>97.408</ele>
        <time>2011-04-24T14:53:12Z</time>
      </trkpt>
      <trkpt lat="59.594398" lon="13.165912">
        <ele>99.741</ele>
        <time>2011-04-24T14:53:16Z</time>
      </trkpt>
      <trkpt lat="59.592471" lon="13.165963">
        <ele>108.914</ele>
        <time>2011-04-24T14:53:26Z</time>
      </trkpt>
      <trkpt lat="59.592079" lon="13.165977">
        <ele>110.02</ele>
        <time>2011-04-24T14:53:28Z</time>
      </trkpt>
      <trkpt lat="59.59074" lon="13.166">
        <ele>109.283</ele>
        <time>2011-04-24T14:53:35Z</time>
      </trkpt>
      <trkpt lat="59.590009" lon="13.166127">
        <ele>111.988</ele>
        <time>2011-04-24T14:53:39Z</time>
      </trkpt>
      <trkpt lat="59.589275" lon="13.166477">
        <ele>116.936</ele>
        <time>2011-04-24T14:53:43Z</time>
      </trkpt>
      <trkpt lat="59.587409" lon="13.167537">
        <ele>125.395</ele>
        <time>2011-04-24T14:53:53Z</time>
      </trkpt>
      <trkpt lat="59.586253" lon="13.1682">
        <ele>125.791</ele>
        <time>2011-04-24T14:53:59Z</time>
      </trkpt>
      <trkpt lat="59.584387" lon="13.169266">
        <ele>116.485</ele>
        <time>2011-04-24T14:54:09Z</time>
      </trkpt>
      <trkpt lat="59.584205" lon="13.169371">
        <ele>116.485</ele>
        <time>2011-04-24T14:54:10Z</time>
      </trkpt>
      <trkpt lat="59.582569" lon="13.170324">
        <ele>109.998</ele>
        <time>2011-04-24T14:54:19Z</time>
      </trkpt>
      <trkpt lat="59.580343" lon="13.171606">
        <ele>106.051</ele>
        <time>2011-04-24T14:54:31Z</time>
      </trkpt>
      <trkpt lat="59.57943" lon="13.172188">
        <ele>103.57</ele>
        <time>2011-04-24T14:54:36Z</time>
      </trkpt>
      <trkpt lat="59.578183" lon="13.173191">
        <ele>103.607</ele>
        <time>2011-04-24T14:54:43Z</time>
      </trkpt>
      <trkpt lat="59.576407" lon="13.174701">
        <ele>104.129</ele>
        <time>2011-04-24T14:54:53Z</time>
      </trkpt>
      <trkpt lat="59.574811" lon="13.176049">
        <ele>100.199</ele>
        <time>2011-04-24T14:55:02Z</time>
      </trkpt>
      <trkpt lat="59.572166" lon="13.178269">
        <ele>98.969</ele>
        <time>2011-04-24T14:55:17Z</time>
      </trkpt>
      <trkpt lat="59.570038" lon="13.180061">
        <ele>97.07</ele>
        <time>2011-04-24T14:55:29Z</time>
      </trkpt>
      <trkpt lat="59.567739" lon="13.18199">
        <ele>96.239</ele>
        <time>2011-04-24T14:55:42Z</time>
      </trkpt>
      <trkpt lat="59.565607" lon="13.183788">
        <ele>95.43</ele>
        <time>2011-04-24T14:55:54Z</time>
      </trkpt>
      <trkpt lat="59.56365" lon="13.18538">
        <ele>94.189</ele>
        <time>2011-04-24T14:56:05Z</time>
      </trkpt>
      <trkpt lat="59.562543" lon="13.186051">
        <ele>93.607</ele>
        <time>2011-04-24T14:56:11Z</time>
      </trkpt>
      <trkpt lat="59.561415" lon="13.186501">
        <ele>93.324</ele>
        <time>2011-04-24T14:56:17Z</time>
      </trkpt>
      <trkpt lat="59.559359" lon="13.187207">
        <ele>98.571</ele>
        <time>2011-04-24T14:56:28Z</time>
      </trkpt>
      <trkpt lat="59.557841" lon="13.187766">
        <ele>104.882</ele>
        <time>2011-04-24T14:56:36Z</time>
      </trkpt>
      <trkpt lat="59.556709" lon="13.188351">
        <ele>104.876</ele>
        <time>2011-04-24T14:56:42Z</time>
      </trkpt>
      <trkpt lat="59.555611" lon="13.189105">
        <ele>103.308</ele>
        <time>2011-04-24T14:56:48Z</time>
      </trkpt>
      <trkpt lat="59.553831" lon="13.190572">
        <ele>100.459</ele>
        <time>2011-04-24T14:56:58Z</time>
      </trkpt>
      <trkpt lat="59.552219" lon="13.191928">
        <ele>97.55</ele>
        <time>2011-04-24T14:57:07Z</time>
      </trkpt>
      <trkpt lat="59.551167" lon="13.192811">
        <ele>93.181</ele>
        <time>2011-04-24T14:57:13Z</time>
      </trkpt>
      <trkpt lat="59.549288" lon="13.194384">
        <ele>94.835</ele>
        <time>2011-04-24T14:57:24Z</time>
      </trkpt>
      <trkpt lat="59.548048" lon="13.195456">
        <ele>99.1</ele>
        <time>2011-04-24T14:57:31Z</time>
      </trkpt>
      <trkpt lat="59.546852" lon="13.196709">
        <ele>97.357</ele>
        <time>2011-04-24T14:57:38Z</time>
      </trkpt>
      <trkpt lat="59.545383" lon="13.198326">
        <ele>100.81</ele>
        <time>2011-04-24T14:57:47Z</time>
      </trkpt>
      <trkpt lat="59.544179" lon="13.199546">
        <ele>108.932</ele>
        <time>2011-04-24T14:57:54Z</time>
      </trkpt>
      <trkpt lat="59.543105" lon="13.200416">
        <ele>113.194</ele>
        <time>2011-04-24T14:58:00Z</time>
      </trkpt>
      <trkpt lat="59.542922" lon="13.200542">
        <ele>113.312</ele>
        <time>2011-04-24T14:58:01Z</time>
      </trkpt>
      <trkpt lat="59.541445" lon="13.20147">
        <ele>110.975</ele>
        <time>2011-04-24T14:58:09Z</time>
      </trkpt>
      <trkpt lat="59.540185" lon="13.202358">
        <ele>110.623</ele>
        <time>2011-04-24T14:58:16Z</time>
      </trkpt>
      <trkpt lat="59.53914" lon="13.203357">
        <ele>110.505</ele>
        <time>2011-04-24T14:58:22Z</time>
      </trkpt>
      <trkpt lat="59.538315" lon="13.204361">
        <ele>110.683</ele>
        <time>2011-04-24T14:58:27Z</time>
      </trkpt>
      <trkpt lat="59.536716" lon="13.206499">
        <ele>109.384</ele>
        <time>2011-04-24T14:58:37Z</time>
      </trkpt>
      <trkpt lat="59.535548" lon="13.207829">
        <ele>107.599</ele>
        <time>2011-04-24T14:58:44Z</time>
      </trkpt>
      <trkpt lat="59.534335" lon="13.208985">
        <ele>107.347</ele>
        <time>2011-04-24T14:58:51Z</time>
      </trkpt>
      <trkpt lat="59.533077" lon="13.209979">
        <ele>105.781</ele>
        <time>2011-04-24T14:58:58Z</time>
      </trkpt>
      <trkpt lat="59.532711" lon="13.21024">
        <ele>104.978</ele>
        <time>2011-04-24T14:59:00Z</time>
      </trkpt>
      <trkpt lat="59.530159" lon="13.212018">
        <ele>99.583</ele>
        <time>2011-04-24T14:59:14Z</time>
      </trkpt>
      <trkpt lat="59.529432" lon="13.212532">
        <ele>97.579</ele>
        <time>2011-04-24T14:59:18Z</time>
      </trkpt>
      <trkpt lat="59.527609" lon="13.213811">
        <ele>91.521</ele>
        <time>2011-04-24T14:59:28Z</time>
      </trkpt>
      <trkpt lat="59.526317" lon="13.214569">
        <ele>88.532</ele>
        <time>2011-04-24T14:59:35Z</time>
      </trkpt>
      <trkpt lat="59.525373" lon="13.214922">
        <ele>86.649</ele>
        <time>2011-04-24T14:59:40Z</time>
      </trkpt>
      <trkpt lat="59.524413" lon="13.215106">
        <ele>83.74</ele>
        <time>2011-04-24T14:59:45Z</time>
      </trkpt>
      <trkpt lat="59.523253" lon="13.2151">
        <ele>79.572</ele>
        <time>2011-04-24T14:59:51Z</time>
      </trkpt>
      <trkpt lat="59.522295" lon="13.21491">
        <ele>77.069</ele>
        <time>2011-04-24T14:59:56Z</time>
      </trkpt>
      <trkpt lat="59.521152" lon="13.214627">
        <ele>73.615</ele>
        <time>2011-04-24T15:00:02Z</time>
      </trkpt>
      <trkpt lat="59.520009" lon="13.214495">
        <ele>73.169</ele>
        <time>2011-04-24T15:00:08Z</time>
      </trkpt>
      <trkpt lat="59.518864" lon="13.214574">
        <ele>75.04</ele>
        <time>2011-04-24T15:00:14Z</time>
      </trkpt>
      <trkpt lat="59.517543" lon="13.214854">
        <ele>79.298</ele>
        <time>2011-04-24T15:00:21Z</time>
      </trkpt>
      <trkpt lat="59.516974" lon="13.214978">
        <ele>80.953</ele>
        <time>2011-04-24T15:00:24Z</time>
      </trkpt>
      <trkpt lat="59.515438" lon="13.215198">
        <ele>86.309</ele>
        <time>2011-04-24T15:00:32Z</time>
      </trkpt>
      <trkpt lat="59.514107" lon="13.215169">
        <ele>90.974</ele>
        <time>2011-04-24T15:00:39Z</time>
      </trkpt>
      <trkpt lat="59.513725" lon="13.215117">
        <ele>91.959</ele>
        <time>2011-04-24T15:00:41Z</time>
      </trkpt>
      <trkpt lat="59.512382" lon="13.214813">
        <ele>95.663</ele>
        <time>2011-04-24T15:00:48Z</time>
      </trkpt>
      <trkpt lat="59.511619" lon="13.214577">
        <ele>98.168</ele>
        <time>2011-04-24T15:00:52Z</time>
      </trkpt>
      <trkpt lat="59.510285" lon="13.214036">
        <ele>101.152</ele>
        <time>2011-04-24T15:00:59Z</time>
      </trkpt>
      <trkpt lat="59.509332" lon="13.213686">
        <ele>103.698</ele>
        <time>2011-04-24T15:01:04Z</time>
      </trkpt>
      <trkpt lat="59.508176" lon="13.213424">
        <ele>104.911</ele>
        <time>2011-04-24T15:01:10Z</time>
      </trkpt>
      <trkpt lat="59.506638" lon="13.213259">
        <ele>106.581</ele>
        <time>2011-04-24T15:01:18Z</time>
      </trkpt>
      <trkpt lat="59.505295" lon="13.213289">
        <ele>107.145</ele>
        <time>2011-04-24T15:01:25Z</time>
      </trkpt>
      <trkpt lat="59.503953" lon="13.213506">
        <ele>108.796</ele>
        <time>2011-04-24T15:01:32Z</time>
      </trkpt>
      <trkpt lat="59.502426" lon="13.21398">
        <ele>109.463</ele>
        <time>2011-04-24T15:01:40Z</time>
      </trkpt>
      <trkpt lat="59.501108" lon="13.214591">
        <ele>109.548</ele>
        <time>2011-04-24T15:01:47Z</time>
      </trkpt>
      <trkpt lat="59.499988" lon="13.21521">
        <ele>108.182</ele>
        <time>2011-04-24T15:01:53Z</time>
      </trkpt>
      <trkpt lat="59.49775" lon="13.21647">
        <ele>105.59</ele>
        <time>2011-04-24T15:02:05Z</time>
      </trkpt>
      <trkpt lat="59.496245" lon="13.217164">
        <ele>104.196</ele>
        <time>2011-04-24T15:02:13Z</time>
      </trkpt>
      <trkpt lat="59.494535" lon="13.217753">
        <ele>103.919</ele>
        <time>2011-04-24T15:02:22Z</time>
      </trkpt>
      <trkpt lat="59.492808" lon="13.218135">
        <ele>102.788</ele>
        <time>2011-04-24T15:02:31Z</time>
      </trkpt>
      <trkpt lat="59.492423" lon="13.218196">
        <ele>101.938</ele>
        <time>2011-04-24T15:02:33Z</time>
      </trkpt>
      <trkpt lat="59.490887" lon="13.218305">
        <ele>102.506</ele>
        <time>2011-04-24T15:02:41Z</time>
      </trkpt>
      <trkpt lat="59.489347" lon="13.218263">
        <ele>102.367</ele>
        <time>2011-04-24T15:02:49Z</time>
      </trkpt>
      <trkpt lat="59.487614" lon="13.218021">
        <ele>102.566</ele>
        <time>2011-04-24T15:02:58Z</time>
      </trkpt>
      <trkpt lat="59.485893" lon="13.217571">
        <ele>102.455</ele>
        <time>2011-04-24T15:03:07Z</time>
      </trkpt>
      <trkpt lat="59.483601" lon="13.21691">
        <ele>100.746</ele>
        <time>2011-04-24T15:03:19Z</time>
      </trkpt>
      <trkpt lat="59.48168" lon="13.216494">
        <ele>98.551</ele>
        <time>2011-04-24T15:03:29Z</time>
      </trkpt>
      <trkpt lat="59.479751" lon="13.216245">
        <ele>94.832</ele>
        <time>2011-04-24T15:03:39Z</time>
      </trkpt>
      <trkpt lat="59.478215" lon="13.216131">
        <ele>92.337</ele>
        <time>2011-04-24T15:03:47Z</time>
      </trkpt>
      <trkpt lat="59.475515" lon="13.215968">
        <ele>90.914</ele>
        <time>2011-04-24T15:04:01Z</time>
      </trkpt>
      <trkpt lat="59.473004" lon="13.215811">
        <ele>89.083</ele>
        <time>2011-04-24T15:04:14Z</time>
      </trkpt>
      <trkpt lat="59.470112" lon="13.215633">
        <ele>89.451</ele>
        <time>2011-04-24T15:04:29Z</time>
      </trkpt>
      <trkpt lat="59.467796" lon="13.215463">
        <ele>87.305</ele>
        <time>2011-04-24T15:04:41Z</time>
      </trkpt>
      <trkpt lat="59.466067" lon="13.215197">
        <ele>86.098</ele>
        <time>2011-04-24T15:04:50Z</time>
      </trkpt>
      <trkpt lat="59.464167" lon="13.214732">
        <ele>85.034</ele>
        <time>2011-04-24T15:05:00Z</time>
      </trkpt>
      <trkpt lat="59.462262" lon="13.214088">
        <ele>83.831</ele>
        <time>2011-04-24T15:05:10Z</time>
      </trkpt>
      <trkpt lat="59.460562" lon="13.213362">
        <ele>82.761</ele>
        <time>2011-04-24T15:05:19Z</time>
      </trkpt>
      <trkpt lat="59.45888" lon="13.212498">
        <ele>80.852</ele>
        <time>2011-04-24T15:05:28Z</time>
      </trkpt>
      <trkpt lat="59.457583" lon="13.21172">
        <ele>78.244</ele>
        <time>2011-04-24T15:05:35Z</time>
      </trkpt>
      <trkpt lat="59.455761" lon="13.210467">
        <ele>76.311</ele>
        <time>2011-04-24T15:05:45Z</time>
      </trkpt>
      <trkpt lat="59.453975" lon="13.209038">
        <ele>76.385</ele>
        <time>2011-04-24T15:05:55Z</time>
      </trkpt>
      <trkpt lat="59.45222" lon="13.207436">
        <ele>74.793</ele>
        <time>2011-04-24T15:06:05Z</time>
      </trkpt>
      <trkpt lat="59.45118" lon="13.206425">
        <ele>72.591</ele>
        <time>2011-04-24T15:06:11Z</time>
      </trkpt>
      <trkpt lat="59.449801" lon="13.205073">
        <ele>71.507</ele>
        <time>2011-04-24T15:06:19Z</time>
      </trkpt>
      <trkpt lat="59.448238" lon="13.203563">
        <ele>70.096</ele>
        <time>2011-04-24T15:06:28Z</time>
      </trkpt>
      <trkpt lat="59.447333" lon="13.202919">
        <ele>69.796</ele>
        <time>2011-04-24T15:06:33Z</time>
      </trkpt>
      <trkpt lat="59.446402" lon="13.202477">
        <ele>71.55</ele>
        <time>2011-04-24T15:06:38Z</time>
      </trkpt>
      <trkpt lat="59.44545" lon="13.202242">
        <ele>73.572</ele>
        <time>2011-04-24T15:06:43Z</time>
      </trkpt>
      <trkpt lat="59.444286" lon="13.202141">
        <ele>75.309</ele>
        <time>2011-04-24T15:06:49Z</time>
      </trkpt>
      <trkpt lat="59.443132" lon="13.202264">
        <ele>76.496</ele>
        <time>2011-04-24T15:06:55Z</time>
      </trkpt>
      <trkpt lat="59.441602" lon="13.202489">
        <ele>78.416</ele>
        <time>2011-04-24T15:07:03Z</time>
      </trkpt>
      <trkpt lat="59.440449" lon="13.202434">
        <ele>80.562</ele>
        <time>2011-04-24T15:07:09Z</time>
      </trkpt>
      <trkpt lat="59.438917" lon="13.20218">
        <ele>83.191</ele>
        <time>2011-04-24T15:07:17Z</time>
      </trkpt>
      <trkpt lat="59.437374" lon="13.201808">
        <ele>85.15</ele>
        <time>2011-04-24T15:07:25Z</time>
      </trkpt>
      <trkpt lat="59.435661" lon="13.201235">
        <ele>87.979</ele>
        <time>2011-04-24T15:07:34Z</time>
      </trkpt>
      <trkpt lat="59.43377" lon="13.200433">
        <ele>88.037</ele>
        <time>2011-04-24T15:07:44Z</time>
      </trkpt>
      <trkpt lat="59.43209" lon="13.199553">
        <ele>86.231</ele>
        <time>2011-04-24T15:07:53Z</time>
      </trkpt>
      <trkpt lat="59.429884" lon="13.198183">
        <ele>83.99</ele>
        <time>2011-04-24T15:08:05Z</time>
      </trkpt>
      <trkpt lat="59.428076" lon="13.196834">
        <ele>82.674</ele>
        <time>2011-04-24T15:08:15Z</time>
      </trkpt>
      <trkpt lat="59.426486" lon="13.195486">
        <ele>81.964</ele>
        <time>2011-04-24T15:08:24Z</time>
      </trkpt>
      <trkpt lat="59.424932" lon="13.194039">
        <ele>84.191</ele>
        <time>2011-04-24T15:08:33Z</time>
      </trkpt>
      <trkpt lat="59.424589" lon="13.193713">
        <ele>85.03</ele>
        <time>2011-04-24T15:08:35Z</time>
      </trkpt>
      <trkpt lat="59.42269" lon="13.19189">
        <ele>90.366</ele>
        <time>2011-04-24T15:08:46Z</time>
      </trkpt>
      <trkpt lat="59.419918" lon="13.189258">
        <ele>99.268</ele>
        <time>2011-04-24T15:09:02Z</time>
      </trkpt>
      <trkpt lat="59.417983" lon="13.187524">
        <ele>101.795</ele>
        <time>2011-04-24T15:09:13Z</time>
      </trkpt>
      <trkpt lat="59.417627" lon="13.187232">
        <ele>102.652</ele>
        <time>2011-04-24T15:09:15Z</time>
      </trkpt>
      <trkpt lat="59.416001" lon="13.186004">
        <ele>102.111</ele>
        <time>2011-04-24T15:09:24Z</time>
      </trkpt>
      <trkpt lat="59.414528" lon="13.185057">
        <ele>100.384</ele>
        <time>2011-04-24T15:09:32Z</time>
      </trkpt>
      <trkpt lat="59.41397" lon="13.184741">
        <ele>99.159</ele>
        <time>2011-04-24T15:09:35Z</time>
      </trkpt>
      <trkpt lat="59.412292" lon="13.183853">
        <ele>95.964</ele>
        <time>2011-04-24T15:09:44Z</time>
      </trkpt>
      <trkpt lat="59.411008" lon="13.183293">
        <ele>92.075</ele>
        <time>2011-04-24T15:09:51Z</time>
      </trkpt>
      <trkpt lat="59.41049" lon="13.183094">
        <ele>90.337</ele>
        <time>2011-04-24T15:09:54Z</time>
      </trkpt>
      <trkpt lat="59.40894" lon="13.182612">
        <ele>86.555</ele>
        <time>2011-04-24T15:10:03Z</time>
      </trkpt>
      <trkpt lat="59.408589" lon="13.182524">
        <ele>85.746</ele>
        <time>2011-04-24T15:10:05Z</time>
      </trkpt>
      <trkpt lat="59.406818" lon="13.182165">
        <ele>81.433</ele>
        <time>2011-04-24T15:10:15Z</time>
      </trkpt>
      <trkpt lat="59.405573" lon="13.181938">
        <ele>78.326</ele>
        <time>2011-04-24T15:10:22Z</time>
      </trkpt>
      <trkpt lat="59.403927" lon="13.181657">
        <ele>75.503</ele>
        <time>2011-04-24T15:10:31Z</time>
      </trkpt>
      <trkpt lat="59.402781" lon="13.181455">
        <ele>72.515</ele>
        <time>2011-04-24T15:10:37Z</time>
      </trkpt>
      <trkpt lat="59.401672" lon="13.181265">
        <ele>71.061</ele>
        <time>2011-04-24T15:10:43Z</time>
      </trkpt>
      <trkpt lat="59.40003" lon="13.180979">
        <ele>73.206</ele>
        <time>2011-04-24T15:10:52Z</time>
      </trkpt>
      <trkpt lat="59.398362" lon="13.180692">
        <ele>79.207</ele>
        <time>2011-04-24T15:11:01Z</time>
      </trkpt>
      <trkpt lat="59.396827" lon="13.180407">
        <ele>82.384</ele>
        <time>2011-04-24T15:11:09Z</time>
      </trkpt>
      <trkpt lat="59.395448" lon="13.180034">
        <ele>81.928</ele>
        <time>2011-04-24T15:11:16Z</time>
      </trkpt>
      <trkpt lat="59.394302" lon="13.17954">
        <ele>81.241</ele>
        <time>2011-04-24T15:11:22Z</time>
      </trkpt>
      <trkpt lat="59.392988" lon="13.178791">
        <ele>79.841</ele>
        <time>2011-04-24T15:11:29Z</time>
      </trkpt>
      <trkpt lat="59.391891" lon="13.177995">
        <ele>77.418</ele>
        <time>2011-04-24T15:11:35Z</time>
      </trkpt>
      <trkpt lat="59.391349" lon="13.177554">
        <ele>76.126</ele>
        <time>2011-04-24T15:11:38Z</time>
      </trkpt>
      <trkpt lat="59.390814" lon="13.177097">
        <ele>74.8</ele>
        <time>2011-04-24T15:11:41Z</time>
      </trkpt>
      <trkpt lat="59.389039" lon="13.175562">
        <ele>69.152</ele>
        <time>2011-04-24T15:11:51Z</time>
      </trkpt>
      <trkpt lat="59.388056" lon="13.17475">
        <ele>66.154</ele>
        <time>2011-04-24T15:11:57Z</time>
      </trkpt>
      <trkpt lat="59.387409" lon="13.174409">
        <ele>65.554</ele>
        <time>2011-04-24T15:12:01Z</time>
      </trkpt>
      <trkpt lat="59.386244" lon="13.17398">
        <ele>65.528</ele>
        <time>2011-04-24T15:12:08Z</time>
      </trkpt>
      <trkpt lat="59.385226" lon="13.17345">
        <ele>65.197</ele>
        <time>2011-04-24T15:12:14Z</time>
      </trkpt>
      <trkpt lat="59.384588" lon="13.172885">
        <ele>67.287</ele>
        <time>2011-04-24T15:12:18Z</time>
      </trkpt>
      <trkpt lat="59.384144" lon="13.172322">
        <ele>68.759</ele>
        <time>2011-04-24T15:12:21Z</time>
      </trkpt>
      <trkpt lat="59.383429" lon="13.1712">
        <ele>71.32</ele>
        <time>2011-04-24T15:12:26Z</time>
      </trkpt>
      <trkpt lat="59.383282" lon="13.170971">
        <ele>71.577</ele>
        <time>2011-04-24T15:12:27Z</time>
      </trkpt>
      <trkpt lat="59.382217" lon="13.169438">
        <ele>74.8</ele>
        <time>2011-04-24T15:12:34Z</time>
      </trkpt>
      <trkpt lat="59.381503" lon="13.168447">
        <ele>75.639</ele>
        <time>2011-04-24T15:12:39Z</time>
      </trkpt>
      <trkpt lat="59.380985" lon="13.16753">
        <ele>76.082</ele>
        <time>2011-04-24T15:12:43Z</time>
      </trkpt>
      <trkpt lat="59.380524" lon="13.166439">
        <ele>75.879</ele>
        <time>2011-04-24T15:12:47Z</time>
      </trkpt>
      <trkpt lat="59.379976" lon="13.164899">
        <ele>75.016</ele>
        <time>2011-04-24T15:12:52Z</time>
      </trkpt>
      <trkpt lat="59.379114" lon="13.162438">
        <ele>75.986</ele>
        <time>2011-04-24T15:13:00Z</time>
      </trkpt>
      <trkpt lat="59.377951" lon="13.159129">
        <ele>73.381</ele>
        <time>2011-04-24T15:13:11Z</time>
      </trkpt>
      <trkpt lat="59.377249" lon="13.157165">
        <ele>72.88</ele>
        <time>2011-04-24T15:13:18Z</time>
      </trkpt>
      <trkpt lat="59.37648" lon="13.155135">
        <ele>74.3</ele>
        <time>2011-04-24T15:13:26Z</time>
      </trkpt>
      <trkpt lat="59.375817" lon="13.153642">
        <ele>75.489</ele>
        <time>2011-04-24T15:13:32Z</time>
      </trkpt>
      <trkpt lat="59.374598" lon="13.151133">
        <ele>75.475</ele>
        <time>2011-04-24T15:13:42Z</time>
      </trkpt>
      <trkpt lat="59.373898" lon="13.14949">
        <ele>74.052</ele>
        <time>2011-04-24T15:13:48Z</time>
      </trkpt>
      <trkpt lat="59.373587" lon="13.148586">
        <ele>72.611</ele>
        <time>2011-04-24T15:13:51Z</time>
      </trkpt>
      <trkpt lat="59.373149" lon="13.14696">
        <ele>71.887</ele>
        <time>2011-04-24T15:13:56Z</time>
      </trkpt>
      <trkpt lat="59.372892" lon="13.145645">
        <ele>71.328</ele>
        <time>2011-04-24T15:14:00Z</time>
      </trkpt>
      <trkpt lat="59.372684" lon="13.144002">
        <ele>69.915</ele>
        <time>2011-04-24T15:14:05Z</time>
      </trkpt>
      <trkpt lat="59.372565" lon="13.1424">
        <ele>69.311</ele>
        <time>2011-04-24T15:14:10Z</time>
      </trkpt>
      <trkpt lat="59.37254" lon="13.140918">
        <ele>69.035</ele>
        <time>2011-04-24T15:14:15Z</time>
      </trkpt>
      <trkpt lat="59.372524" lon="13.140162">
        <ele>69.172</ele>
        <time>2011-04-24T15:14:18Z</time>
      </trkpt>
      <trkpt lat="59.372395" lon="13.139524">
        <ele>68.497</ele>
        <time>2011-04-24T15:14:22Z</time>
      </trkpt>
      <trkpt lat="59.372352" lon="13.139425">
        <ele>68.285</ele>
        <time>2011-04-24T15:14:23Z</time>
      </trkpt>
      <trkpt lat="59.372239" lon="13.139193">
        <ele>68.062</ele>
        <time>2011-04-24T15:14:27Z</time>
      </trkpt>
      <trkpt lat="59.372219" lon="13.139161">
        <ele>67.963</ele>
        <time>2011-04-24T15:14:31Z</time>
      </trkpt>
      <trkpt lat="59.372162" lon="13.139115">
        <ele>68.108</ele>
        <time>2011-04-24T15:14:49Z</time>
      </trkpt>
      <trkpt lat="59.371983" lon="13.139219">
        <ele>68.556</ele>
        <time>2011-04-24T15:14:53Z</time>
      </trkpt>
      <trkpt lat="59.371938" lon="13.139309">
        <ele>68.662</ele>
        <time>2011-04-24T15:14:54Z</time>
      </trkpt>
      <trkpt lat="59.371681" lon="13.139932">
        <ele>69.336</ele>
        <time>2011-04-24T15:14:59Z</time>
      </trkpt>
      <trkpt lat="59.371264" lon="13.140824">
        <ele>71.16</ele>
        <time>2011-04-24T15:15:05Z</time>
      </trkpt>
      <trkpt lat="59.370739" lon="13.141794">
        <ele>71.272</ele>
        <time>2011-04-24T15:15:12Z</time>
      </trkpt>
      <trkpt lat="59.370165" lon="13.142673">
        <ele>72.182</ele>
        <time>2011-04-24T15:15:18Z</time>
      </trkpt>
      <trkpt lat="59.369496" lon="13.1435">
        <ele>71.431</ele>
        <time>2011-04-24T15:15:24Z</time>
      </trkpt>
      <trkpt lat="59.368739" lon="13.144285">
        <ele>69.057</ele>
        <time>2011-04-24T15:15:31Z</time>
      </trkpt>
      <trkpt lat="59.367914" lon="13.145005">
        <ele>66.48</ele>
        <time>2011-04-24T15:15:39Z</time>
      </trkpt>
      <trkpt lat="59.367575" lon="13.145399">
        <ele>65.685</ele>
        <time>2011-04-24T15:15:43Z</time>
      </trkpt>
      <trkpt lat="59.367319" lon="13.145572">
        <ele>65.196</ele>
        <time>2011-04-24T15:15:47Z</time>
      </trkpt>
      <trkpt lat="59.367131" lon="13.145439">
        <ele>65.085</ele>
        <time>2011-04-24T15:15:50Z</time>
      </trkpt>
      <trkpt lat="59.366929" lon="13.145452">
        <ele>64.688</ele>
        <time>2011-04-24T15:15:53Z</time>
      </trkpt>
      <trkpt lat="59.366787" lon="13.145768">
        <ele>64.319</ele>
        <time>2011-04-24T15:15:56Z</time>
      </trkpt>
      <trkpt lat="59.366779" lon="13.146235">
        <ele>64.325</ele>
        <time>2011-04-24T15:15:59Z</time>
      </trkpt>
      <trkpt lat="59.366914" lon="13.14669">
        <ele>65.159</ele>
        <time>2011-04-24T15:16:02Z</time>
      </trkpt>
      <trkpt lat="59.366984" lon="13.146829">
        <ele>65.411</ele>
        <time>2011-04-24T15:16:03Z</time>
      </trkpt>
      <trkpt lat="59.367227" lon="13.147253">
        <ele>66.034</ele>
        <time>2011-04-24T15:16:06Z</time>
      </trkpt>
      <trkpt lat="59.367498" lon="13.148025">
        <ele>68.069</ele>
        <time>2011-04-24T15:16:10Z</time>
      </trkpt>
      <trkpt lat="59.367756" lon="13.149284">
        <ele>70.547</ele>
        <time>2011-04-24T15:16:15Z</time>
      </trkpt>
      <trkpt lat="59.368157" lon="13.150923">
        <ele>74.523</ele>
        <time>2011-04-24T15:16:21Z</time>
      </trkpt>
      <trkpt lat="59.36865" lon="13.15262">
        <ele>75.581</ele>
        <time>2011-04-24T15:16:27Z</time>
      </trkpt>
      <trkpt lat="59.369241" lon="13.154383">
        <ele>78.878</ele>
        <time>2011-04-24T15:16:33Z</time>
      </trkpt>
      <trkpt lat="59.369936" lon="13.156597">
        <ele>83.525</ele>
        <time>2011-04-24T15:16:40Z</time>
      </trkpt>
      <trkpt lat="59.370427" lon="13.15866">
        <ele>85.975</ele>
        <time>2011-04-24T15:16:46Z</time>
      </trkpt>
      <trkpt lat="59.370736" lon="13.160465">
        <ele>89.01</ele>
        <time>2011-04-24T15:16:51Z</time>
      </trkpt>
      <trkpt lat="59.370829" lon="13.161202">
        <ele>89.685</ele>
        <time>2011-04-24T15:16:53Z</time>
      </trkpt>
      <trkpt lat="59.370988" lon="13.163075">
        <ele>91.64</ele>
        <time>2011-04-24T15:16:58Z</time>
      </trkpt>
      <trkpt lat="59.371053" lon="13.165353">
        <ele>93.17</ele>
        <time>2011-04-24T15:17:04Z</time>
      </trkpt>
      <trkpt lat="59.371065" lon="13.168784">
        <ele>92.127</ele>
        <time>2011-04-24T15:17:13Z</time>
      </trkpt>
      <trkpt lat="59.371165" lon="13.170676">
        <ele>91.515</ele>
        <time>2011-04-24T15:17:18Z</time>
      </trkpt>
      <trkpt lat="59.371406" lon="13.172914">
        <ele>89.413</ele>
        <time>2011-04-24T15:17:24Z</time>
      </trkpt>
      <trkpt lat="59.37177" lon="13.175082">
        <ele>87.029</ele>
        <time>2011-04-24T15:17:30Z</time>
      </trkpt>
      <trkpt lat="59.372147" lon="13.176827">
        <ele>84.477</ele>
        <time>2011-04-24T15:17:35Z</time>
      </trkpt>
      <trkpt lat="59.37305" lon="13.180617">
        <ele>77.931</ele>
        <time>2011-04-24T15:17:46Z</time>
      </trkpt>
      <trkpt lat="59.373787" lon="13.183718">
        <ele>70.379</ele>
        <time>2011-04-24T15:17:55Z</time>
      </trkpt>
      <trkpt lat="59.374692" lon="13.187501">
        <ele>60.102</ele>
        <time>2011-04-24T15:18:06Z</time>
      </trkpt>
      <trkpt lat="59.375681" lon="13.191593">
        <ele>50.277</ele>
        <time>2011-04-24T15:18:18Z</time>
      </trkpt>
      <trkpt lat="59.376491" lon="13.194507">
        <ele>49.325</ele>
        <time>2011-04-24T15:18:27Z</time>
      </trkpt>
      <trkpt lat="59.377308" lon="13.197061">
        <ele>52.717</ele>
        <time>2011-04-24T15:18:35Z</time>
      </trkpt>
      <trkpt lat="59.378317" lon="13.199854">
        <ele>54.253</ele>
        <time>2011-04-24T15:18:44Z</time>
      </trkpt>
      <trkpt lat="59.379501" lon="13.202823">
        <ele>55.771</ele>
        <time>2011-04-24T15:18:54Z</time>
      </trkpt>
      <trkpt lat="59.380209" lon="13.204568">
        <ele>58.243</ele>
        <time>2011-04-24T15:19:00Z</time>
      </trkpt>
      <trkpt lat="59.381136" lon="13.20699">
        <ele>63.498</ele>
        <time>2011-04-24T15:19:08Z</time>
      </trkpt>
      <trkpt lat="59.381995" lon="13.209511">
        <ele>65.682</ele>
        <time>2011-04-24T15:19:16Z</time>
      </trkpt>
      <trkpt lat="59.382303" lon="13.210476">
        <ele>66.966</ele>
        <time>2011-04-24T15:19:19Z</time>
      </trkpt>
      <trkpt lat="59.383167" lon="13.213438">
        <ele>67.881</ele>
        <time>2011-04-24T15:19:28Z</time>
      </trkpt>
      <trkpt lat="59.384034" lon="13.216816">
        <ele>66.954</ele>
        <time>2011-04-24T15:19:38Z</time>
      </trkpt>
      <trkpt lat="59.384906" lon="13.220612">
        <ele>65.93</ele>
        <time>2011-04-24T15:19:49Z</time>
      </trkpt>
      <trkpt lat="59.385548" lon="13.223771">
        <ele>65.366</ele>
        <time>2011-04-24T15:19:58Z</time>
      </trkpt>
      <trkpt lat="59.386191" lon="13.227343">
        <ele>64.445</ele>
        <time>2011-04-24T15:20:08Z</time>
      </trkpt>
      <trkpt lat="59.386558" lon="13.229888">
        <ele>63.769</ele>
        <time>2011-04-24T15:20:15Z</time>
      </trkpt>
      <trkpt lat="59.386813" lon="13.232492">
        <ele>62.838</ele>
        <time>2011-04-24T15:20:22Z</time>
      </trkpt>
      <trkpt lat="59.387102" lon="13.235839">
        <ele>62.726</ele>
        <time>2011-04-24T15:20:31Z</time>
      </trkpt>
      <trkpt lat="59.387319" lon="13.239597">
        <ele>62.382</ele>
        <time>2011-04-24T15:20:41Z</time>
      </trkpt>
      <trkpt lat="59.387522" lon="13.243736">
        <ele>63.113</ele>
        <time>2011-04-24T15:20:52Z</time>
      </trkpt>
      <trkpt lat="59.387779" lon="13.247868">
        <ele>63.538</ele>
        <time>2011-04-24T15:21:03Z</time>
      </trkpt>
      <trkpt lat="59.388104" lon="13.251982">
        <ele>63.088</ele>
        <time>2011-04-24T15:21:14Z</time>
      </trkpt>
      <trkpt lat="59.388466" lon="13.255707">
        <ele>60.484</ele>
        <time>2011-04-24T15:21:24Z</time>
      </trkpt>
      <trkpt lat="59.388857" lon="13.259032">
        <ele>57.705</ele>
        <time>2011-04-24T15:21:33Z</time>
      </trkpt>
      <trkpt lat="59.389358" lon="13.262295">
        <ele>53.656</ele>
        <time>2011-04-24T15:21:42Z</time>
      </trkpt>
      <trkpt lat="59.389421" lon="13.262653">
        <ele>53.377</ele>
        <time>2011-04-24T15:21:43Z</time>
      </trkpt>
      <trkpt lat="59.390033" lon="13.26582">
        <ele>50.799</ele>
        <time>2011-04-24T15:21:52Z</time>
      </trkpt>
      <trkpt lat="59.390753" lon="13.268918">
        <ele>50.702</ele>
        <time>2011-04-24T15:22:01Z</time>
      </trkpt>
      <trkpt lat="59.391473" lon="13.271558">
        <ele>54.269</ele>
        <time>2011-04-24T15:22:09Z</time>
      </trkpt>
      <trkpt lat="59.391662" lon="13.272215">
        <ele>54.981</ele>
        <time>2011-04-24T15:22:11Z</time>
      </trkpt>
      <trkpt lat="59.392468" lon="13.274814">
        <ele>57.991</ele>
        <time>2011-04-24T15:22:19Z</time>
      </trkpt>
      <trkpt lat="59.392876" lon="13.276094">
        <ele>60.041</ele>
        <time>2011-04-24T15:22:23Z</time>
      </trkpt>
      <trkpt lat="59.393495" lon="13.278027">
        <ele>64.003</ele>
        <time>2011-04-24T15:22:29Z</time>
      </trkpt>
      <trkpt lat="59.394619" lon="13.281566">
        <ele>69.914</ele>
        <time>2011-04-24T15:22:40Z</time>
      </trkpt>
      <trkpt lat="59.395071" lon="13.283259">
        <ele>71.62</ele>
        <time>2011-04-24T15:22:45Z</time>
      </trkpt>
      <trkpt lat="59.39515" lon="13.283607">
        <ele>71.877</ele>
        <time>2011-04-24T15:22:46Z</time>
      </trkpt>
      <trkpt lat="59.395482" lon="13.285359">
        <ele>71.55</ele>
        <time>2011-04-24T15:22:51Z</time>
      </trkpt>
      <trkpt lat="59.395704" lon="13.287108">
        <ele>72.296</ele>
        <time>2011-04-24T15:22:56Z</time>
      </trkpt>
      <trkpt lat="59.395834" lon="13.28891">
        <ele>73.05</ele>
        <time>2011-04-24T15:23:01Z</time>
      </trkpt>
      <trkpt lat="59.395862" lon="13.29078">
        <ele>73.273</ele>
        <time>2011-04-24T15:23:06Z</time>
      </trkpt>
      <trkpt lat="59.39578" lon="13.2931">
        <ele>74.784</ele>
        <time>2011-04-24T15:23:12Z</time>
      </trkpt>
      <trkpt lat="59.395631" lon="13.294608">
        <ele>75.125</ele>
        <time>2011-04-24T15:23:16Z</time>
      </trkpt>
      <trkpt lat="59.395342" lon="13.296451">
        <ele>75.642</ele>
        <time>2011-04-24T15:23:21Z</time>
      </trkpt>
      <trkpt lat="59.394849" lon="13.298936">
        <ele>76.846</ele>
        <time>2011-04-24T15:23:28Z</time>
      </trkpt>
      <trkpt lat="59.394122" lon="13.302516">
        <ele>76.434</ele>
        <time>2011-04-24T15:23:38Z</time>
      </trkpt>
      <trkpt lat="59.393287" lon="13.306641">
        <ele>79.423</ele>
        <time>2011-04-24T15:23:49Z</time>
      </trkpt>
      <trkpt lat="59.392434" lon="13.310886">
        <ele>78.405</ele>
        <time>2011-04-24T15:24:00Z</time>
      </trkpt>
      <trkpt lat="59.391902" lon="13.313198">
        <ele>79.007</ele>
        <time>2011-04-24T15:24:06Z</time>
      </trkpt>
      <trkpt lat="59.39127" lon="13.315407">
        <ele>79.433</ele>
        <time>2011-04-24T15:24:12Z</time>
      </trkpt>
      <trkpt lat="59.390523" lon="13.317522">
        <ele>79.393</ele>
        <time>2011-04-24T15:24:18Z</time>
      </trkpt>
      <trkpt lat="59.389447" lon="13.320226">
        <ele>79.879</ele>
        <time>2011-04-24T15:24:26Z</time>
      </trkpt>
      <trkpt lat="59.388558" lon="13.322579">
        <ele>81.111</ele>
        <time>2011-04-24T15:24:33Z</time>
      </trkpt>
      <trkpt lat="59.38815" lon="13.324016">
        <ele>83.438</ele>
        <time>2011-04-24T15:24:37Z</time>
      </trkpt>
      <trkpt lat="59.387844" lon="13.325531">
        <ele>85.554</ele>
        <time>2011-04-24T15:24:41Z</time>
      </trkpt>
      <trkpt lat="59.387689" lon="13.326685">
        <ele>86.943</ele>
        <time>2011-04-24T15:24:44Z</time>
      </trkpt>
      <trkpt lat="59.38754" lon="13.32865">
        <ele>88.324</ele>
        <time>2011-04-24T15:24:49Z</time>
      </trkpt>
      <trkpt lat="59.387406" lon="13.331891">
        <ele>90.072</ele>
        <time>2011-04-24T15:24:57Z</time>
      </trkpt>
      <trkpt lat="59.387233" lon="13.335958">
        <ele>90.423</ele>
        <time>2011-04-24T15:25:07Z</time>
      </trkpt>
      <trkpt lat="59.387046" lon="13.338312">
        <ele>89.898</ele>
        <time>2011-04-24T15:25:13Z</time>
      </trkpt>
      <trkpt lat="59.386805" lon="13.339873">
        <ele>88.703</ele>
        <time>2011-04-24T15:25:17Z</time>
      </trkpt>
      <trkpt lat="59.386463" lon="13.341414">
        <ele>88.23</ele>
        <time>2011-04-24T15:25:21Z</time>
      </trkpt>
      <trkpt lat="59.385758" lon="13.344062">
        <ele>85.997</ele>
        <time>2011-04-24T15:25:28Z</time>
      </trkpt>
      <trkpt lat="59.385174" lon="13.346307">
        <ele>83.746</ele>
        <time>2011-04-24T15:25:34Z</time>
      </trkpt>
      <trkpt lat="59.384805" lon="13.34826">
        <ele>82.371</ele>
        <time>2011-04-24T15:25:39Z</time>
      </trkpt>
      <trkpt lat="59.384599" lon="13.349852">
        <ele>82.574</ele>
        <time>2011-04-24T15:25:43Z</time>
      </trkpt>
      <trkpt lat="59.384223" lon="13.353435">
        <ele>79.263</ele>
        <time>2011-04-24T15:25:52Z</time>
      </trkpt>
      <trkpt lat="59.383842" lon="13.357074">
        <ele>80.95</ele>
        <time>2011-04-24T15:26:01Z</time>
      </trkpt>
      <trkpt lat="59.3838" lon="13.357479">
        <ele>81.103</ele>
        <time>2011-04-24T15:26:02Z</time>
      </trkpt>
      <trkpt lat="59.383416" lon="13.361173">
        <ele>79.858</ele>
        <time>2011-04-24T15:26:11Z</time>
      </trkpt>
      <trkpt lat="59.383167" lon="13.363547">
        <ele>78.259</ele>
        <time>2011-04-24T15:26:17Z</time>
      </trkpt>
      <trkpt lat="59.382808" lon="13.367036">
        <ele>78.553</ele>
        <time>2011-04-24T15:26:26Z</time>
      </trkpt>
      <trkpt lat="59.382448" lon="13.370574">
        <ele>78.5</ele>
        <time>2011-04-24T15:26:35Z</time>
      </trkpt>
      <trkpt lat="59.382154" lon="13.373396">
        <ele>75.55</ele>
        <time>2011-04-24T15:26:42Z</time>
      </trkpt>
      <trkpt lat="59.381844" lon="13.376379">
        <ele>70.977</ele>
        <time>2011-04-24T15:26:49Z</time>
      </trkpt>
      <trkpt lat="59.381591" lon="13.378865">
        <ele>68.633</ele>
        <time>2011-04-24T15:26:55Z</time>
      </trkpt>
      <trkpt lat="59.381314" lon="13.381579">
        <ele>65.766</ele>
        <time>2011-04-24T15:27:02Z</time>
      </trkpt>
      <trkpt lat="59.381244" lon="13.38236">
        <ele>65.065</ele>
        <time>2011-04-24T15:27:04Z</time>
      </trkpt>
      <trkpt lat="59.381016" lon="13.385513">
        <ele>62.112</ele>
        <time>2011-04-24T15:27:12Z</time>
      </trkpt>
      <trkpt lat="59.380871" lon="13.388633">
        <ele>63.837</ele>
        <time>2011-04-24T15:27:20Z</time>
      </trkpt>
      <trkpt lat="59.380846" lon="13.389385">
        <ele>64.666</ele>
        <time>2011-04-24T15:27:22Z</time>
      </trkpt>
      <trkpt lat="59.380807" lon="13.390889">
        <ele>66.551</ele>
        <time>2011-04-24T15:27:26Z</time>
      </trkpt>
      <trkpt lat="59.380775" lon="13.393923">
        <ele>65.456</ele>
        <time>2011-04-24T15:27:34Z</time>
      </trkpt>
      <trkpt lat="59.380815" lon="13.396932">
        <ele>61.92</ele>
        <time>2011-04-24T15:27:42Z</time>
      </trkpt>
      <trkpt lat="59.380839" lon="13.397705">
        <ele>61.063</ele>
        <time>2011-04-24T15:27:44Z</time>
      </trkpt>
      <trkpt lat="59.38098" lon="13.401096">
        <ele>57.21</ele>
        <time>2011-04-24T15:27:53Z</time>
      </trkpt>
      <trkpt lat="59.381147" lon="13.404815">
        <ele>55.591</ele>
        <time>2011-04-24T15:28:03Z</time>
      </trkpt>
      <trkpt lat="59.381324" lon="13.408993">
        <ele>52.839</ele>
        <time>2011-04-24T15:28:14Z</time>
      </trkpt>
      <trkpt lat="59.381476" lon="13.412425">
        <ele>48.498</ele>
        <time>2011-04-24T15:28:23Z</time>
      </trkpt>
      <trkpt lat="59.381526" lon="13.414658">
        <ele>45.764</ele>
        <time>2011-04-24T15:28:29Z</time>
      </trkpt>
      <trkpt lat="59.381418" lon="13.416131">
        <ele>45.655</ele>
        <time>2011-04-24T15:28:33Z</time>
      </trkpt>
      <trkpt lat="59.381156" lon="13.417917">
        <ele>46.002</ele>
        <time>2011-04-24T15:28:38Z</time>
      </trkpt>
      <trkpt lat="59.38067" lon="13.420791">
        <ele>47.557</ele>
        <time>2011-04-24T15:28:46Z</time>
      </trkpt>
      <trkpt lat="59.379992" lon="13.424787">
        <ele>49.397</ele>
        <time>2011-04-24T15:28:57Z</time>
      </trkpt>
      <trkpt lat="59.379624" lon="13.426561">
        <ele>51.285</ele>
        <time>2011-04-24T15:29:02Z</time>
      </trkpt>
      <trkpt lat="59.37929" lon="13.42782">
        <ele>52.925</ele>
        <time>2011-04-24T15:29:06Z</time>
      </trkpt>
      <trkpt lat="59.378902" lon="13.429201">
        <ele>54.081</ele>
        <time>2011-04-24T15:29:11Z</time>
      </trkpt>
      <trkpt lat="59.378529" lon="13.43065">
        <ele>56.375</ele>
        <time>2011-04-24T15:29:16Z</time>
      </trkpt>
      <trkpt lat="59.378315" lon="13.432004">
        <ele>58.196</ele>
        <time>2011-04-24T15:29:20Z</time>
      </trkpt>
      <trkpt lat="59.378244" lon="13.433128">
        <ele>58.763</ele>
        <time>2011-04-24T15:29:23Z</time>
      </trkpt>
      <trkpt lat="59.37826" lon="13.434725">
        <ele>59.505</ele>
        <time>2011-04-24T15:29:27Z</time>
      </trkpt>
      <trkpt lat="59.378404" lon="13.437191">
        <ele>60.579</ele>
        <time>2011-04-24T15:29:33Z</time>
      </trkpt>
      <trkpt lat="59.378663" lon="13.440876">
        <ele>60.711</ele>
        <time>2011-04-24T15:29:42Z</time>
      </trkpt>
      <trkpt lat="59.378903" lon="13.443303">
        <ele>59.202</ele>
        <time>2011-04-24T15:29:48Z</time>
      </trkpt>
      <trkpt lat="59.379312" lon="13.446491">
        <ele>57.671</ele>
        <time>2011-04-24T15:29:56Z</time>
      </trkpt>
      <trkpt lat="59.380003" lon="13.451671">
        <ele>55.329</ele>
        <time>2011-04-24T15:30:09Z</time>
      </trkpt>
      <trkpt lat="59.380597" lon="13.456049">
        <ele>54.368</ele>
        <time>2011-04-24T15:30:20Z</time>
      </trkpt>
      <trkpt lat="59.381129" lon="13.460042">
        <ele>53.11</ele>
        <time>2011-04-24T15:30:30Z</time>
      </trkpt>
      <trkpt lat="59.381452" lon="13.463285">
        <ele>50.304</ele>
        <time>2011-04-24T15:30:38Z</time>
      </trkpt>
      <trkpt lat="59.381623" lon="13.465268">
        <ele>48.411</ele>
        <time>2011-04-24T15:30:43Z</time>
      </trkpt>
      <trkpt lat="59.381944" lon="13.468884">
        <ele>49.659</ele>
        <time>2011-04-24T15:30:52Z</time>
      </trkpt>
      <trkpt lat="59.382296" lon="13.471695">
        <ele>48.305</ele>
        <time>2011-04-24T15:30:59Z</time>
      </trkpt>
      <trkpt lat="59.382853" lon="13.475993">
        <ele>47.421</ele>
        <time>2011-04-24T15:31:10Z</time>
      </trkpt>
      <trkpt lat="59.383371" lon="13.48008">
        <ele>44.906</ele>
        <time>2011-04-24T15:31:21Z</time>
      </trkpt>
      <trkpt lat="59.383803" lon="13.483385">
        <ele>45.126</ele>
        <time>2011-04-24T15:31:30Z</time>
      </trkpt>
      <trkpt lat="59.384156" lon="13.485694">
        <ele>46.697</ele>
        <time>2011-04-24T15:31:36Z</time>
      </trkpt>
      <trkpt lat="59.384509" lon="13.48719">
        <ele>47.656</ele>
        <time>2011-04-24T15:31:40Z</time>
      </trkpt>
      <trkpt lat="59.384952" lon="13.488579">
        <ele>47.585</ele>
        <time>2011-04-24T15:31:44Z</time>
      </trkpt>
      <trkpt lat="59.385327" lon="13.4895">
        <ele>47.553</ele>
        <time>2011-04-24T15:31:47Z</time>
      </trkpt>
      <trkpt lat="59.385886" lon="13.490654">
        <ele>47.221</ele>
        <time>2011-04-24T15:31:51Z</time>
      </trkpt>
      <trkpt lat="59.386521" lon="13.491666">
        <ele>47.819</ele>
        <time>2011-04-24T15:31:55Z</time>
      </trkpt>
      <trkpt lat="59.387213" lon="13.49252">
        <ele>47.651</ele>
        <time>2011-04-24T15:31:59Z</time>
      </trkpt>
      <trkpt lat="59.387947" lon="13.493199">
        <ele>48.544</ele>
        <time>2011-04-24T15:32:03Z</time>
      </trkpt>
      <trkpt lat="59.388916" lon="13.493837">
        <ele>47.957</ele>
        <time>2011-04-24T15:32:08Z</time>
      </trkpt>
      <trkpt lat="59.391057" lon="13.495128">
        <ele>48.3</ele>
        <time>2011-04-24T15:32:19Z</time>
      </trkpt>
      <trkpt lat="59.393777" lon="13.496764">
        <ele>48.153</ele>
        <time>2011-04-24T15:32:33Z</time>
      </trkpt>
      <trkpt lat="59.395521" lon="13.497926">
        <ele>46.929</ele>
        <time>2011-04-24T15:32:42Z</time>
      </trkpt>
      <trkpt lat="59.396217" lon="13.49873">
        <ele>46.661</ele>
        <time>2011-04-24T15:32:46Z</time>
      </trkpt>
      <trkpt lat="59.396823" lon="13.499758">
        <ele>47.373</ele>
        <time>2011-04-24T15:32:50Z</time>
      </trkpt>
      <trkpt lat="59.397319" lon="13.500984">
        <ele>49.555</ele>
        <time>2011-04-24T15:32:54Z</time>
      </trkpt>
      <trkpt lat="59.397426" lon="13.501317">
        <ele>49.809</ele>
        <time>2011-04-24T15:32:55Z</time>
      </trkpt>
      <trkpt lat="59.397779" lon="13.502742">
        <ele>51.731</ele>
        <time>2011-04-24T15:32:59Z</time>
      </trkpt>
      <trkpt lat="59.397987" lon="13.504279">
        <ele>54.137</ele>
        <time>2011-04-24T15:33:03Z</time>
      </trkpt>
      <trkpt lat="59.398041" lon="13.505885">
        <ele>54.583</ele>
        <time>2011-04-24T15:33:07Z</time>
      </trkpt>
      <trkpt lat="59.397949" lon="13.507469">
        <ele>53.5</ele>
        <time>2011-04-24T15:33:11Z</time>
      </trkpt>
      <trkpt lat="59.397774" lon="13.508615">
        <ele>52.053</ele>
        <time>2011-04-24T15:33:14Z</time>
      </trkpt>
      <trkpt lat="59.397613" lon="13.509346">
        <ele>51.262</ele>
        <time>2011-04-24T15:33:16Z</time>
      </trkpt>
      <trkpt lat="59.397198" lon="13.510716">
        <ele>49.365</ele>
        <time>2011-04-24T15:33:20Z</time>
      </trkpt>
      <trkpt lat="59.397076" lon="13.511035">
        <ele>49.129</ele>
        <time>2011-04-24T15:33:21Z</time>
      </trkpt>
      <trkpt lat="59.39645" lon="13.51259">
        <ele>48.534</ele>
        <time>2011-04-24T15:33:26Z</time>
      </trkpt>
      <trkpt lat="59.395915" lon="13.514282">
        <ele>48.439</ele>
        <time>2011-04-24T15:33:31Z</time>
      </trkpt>
      <trkpt lat="59.395685" lon="13.5154">
        <ele>48.102</ele>
        <time>2011-04-24T15:33:34Z</time>
      </trkpt>
      <trkpt lat="59.395505" lon="13.516959">
        <ele>48.087</ele>
        <time>2011-04-24T15:33:38Z</time>
      </trkpt>
      <trkpt lat="59.39546" lon="13.518159">
        <ele>47.849</ele>
        <time>2011-04-24T15:33:41Z</time>
      </trkpt>
      <trkpt lat="59.395505" lon="13.519348">
        <ele>47.947</ele>
        <time>2011-04-24T15:33:44Z</time>
      </trkpt>
      <trkpt lat="59.395686" lon="13.520906">
        <ele>48.607</ele>
        <time>2011-04-24T15:33:48Z</time>
      </trkpt>
      <trkpt lat="59.395914" lon="13.522016">
        <ele>48.214</ele>
        <time>2011-04-24T15:33:51Z</time>
      </trkpt>
      <trkpt lat="59.396421" lon="13.523743">
        <ele>48.399</ele>
        <time>2011-04-24T15:33:56Z</time>
      </trkpt>
      <trkpt lat="59.397336" lon="13.52682">
        <ele>48.934</ele>
        <time>2011-04-24T15:34:05Z</time>
      </trkpt>
      <trkpt lat="59.397832" lon="13.528924">
        <ele>53.355</ele>
        <time>2011-04-24T15:34:11Z</time>
      </trkpt>
      <trkpt lat="59.398367" lon="13.531481">
        <ele>58.425</ele>
        <time>2011-04-24T15:34:18Z</time>
      </trkpt>
      <trkpt lat="59.399296" lon="13.535907">
        <ele>65.794</ele>
        <time>2011-04-24T15:34:30Z</time>
      </trkpt>
      <trkpt lat="59.400304" lon="13.540714">
        <ele>65.269</ele>
        <time>2011-04-24T15:34:43Z</time>
      </trkpt>
      <trkpt lat="59.401116" lon="13.544758">
        <ele>64.395</ele>
        <time>2011-04-24T15:34:54Z</time>
      </trkpt>
      <trkpt lat="59.401375" lon="13.546673">
        <ele>65.573</ele>
        <time>2011-04-24T15:34:59Z</time>
      </trkpt>
      <trkpt lat="59.401515" lon="13.548649">
        <ele>66.542</ele>
        <time>2011-04-24T15:35:04Z</time>
      </trkpt>
      <trkpt lat="59.401534" lon="13.550638">
        <ele>66.401</ele>
        <time>2011-04-24T15:35:09Z</time>
      </trkpt>
      <trkpt lat="59.401438" lon="13.552619">
        <ele>66.932</ele>
        <time>2011-04-24T15:35:14Z</time>
      </trkpt>
      <trkpt lat="59.401227" lon="13.554556">
        <ele>67.071</ele>
        <time>2011-04-24T15:35:19Z</time>
      </trkpt>
      <trkpt lat="59.400906" lon="13.556447">
        <ele>65.942</ele>
        <time>2011-04-24T15:35:24Z</time>
      </trkpt>
      <trkpt lat="59.400338" lon="13.558994">
        <ele>65.826</ele>
        <time>2011-04-24T15:35:31Z</time>
      </trkpt>
      <trkpt lat="59.399376" lon="13.5633">
        <ele>69.245</ele>
        <time>2011-04-24T15:35:43Z</time>
      </trkpt>
      <trkpt lat="59.398676" lon="13.566569">
        <ele>75.946</ele>
        <time>2011-04-24T15:35:52Z</time>
      </trkpt>
      <trkpt lat="59.398477" lon="13.567697">
        <ele>77.193</ele>
        <time>2011-04-24T15:35:55Z</time>
      </trkpt>
      <trkpt lat="59.39815" lon="13.570003">
        <ele>78.61</ele>
        <time>2011-04-24T15:36:01Z</time>
      </trkpt>
      <trkpt lat="59.397924" lon="13.572354">
        <ele>77.449</ele>
        <time>2011-04-24T15:36:07Z</time>
      </trkpt>
      <trkpt lat="59.397795" lon="13.574735">
        <ele>77.111</ele>
        <time>2011-04-24T15:36:13Z</time>
      </trkpt>
      <trkpt lat="59.397773" lon="13.577136">
        <ele>75.341</ele>
        <time>2011-04-24T15:36:19Z</time>
      </trkpt>
      <trkpt lat="59.397854" lon="13.579519">
        <ele>70.942</ele>
        <time>2011-04-24T15:36:25Z</time>
      </trkpt>
      <trkpt lat="59.398072" lon="13.582199">
        <ele>69.827</ele>
        <time>2011-04-24T15:36:32Z</time>
      </trkpt>
      <trkpt lat="59.39848" lon="13.585597">
        <ele>73.224</ele>
        <time>2011-04-24T15:36:41Z</time>
      </trkpt>
      <trkpt lat="59.398905" lon="13.589076">
        <ele>79.16</ele>
        <time>2011-04-24T15:36:50Z</time>
      </trkpt>
      <trkpt lat="59.399543" lon="13.594113">
        <ele>79.907</ele>
        <time>2011-04-24T15:37:03Z</time>
      </trkpt>
      <trkpt lat="59.400082" lon="13.597948">
        <ele>76.757</ele>
        <time>2011-04-24T15:37:13Z</time>
      </trkpt>
      <trkpt lat="59.400854" lon="13.603755">
        <ele>68.986</ele>
        <time>2011-04-24T15:37:28Z</time>
      </trkpt>
      <trkpt lat="59.401403" lon="13.608381">
        <ele>59.984</ele>
        <time>2011-04-24T15:37:40Z</time>
      </trkpt>
      <trkpt lat="59.401495" lon="13.60914">
        <ele>59.202</ele>
        <time>2011-04-24T15:37:42Z</time>
      </trkpt>
      <trkpt lat="59.402142" lon="13.6145">
        <ele>58.15</ele>
        <time>2011-04-24T15:37:56Z</time>
      </trkpt>
      <trkpt lat="59.402481" lon="13.617181">
        <ele>60.994</ele>
        <time>2011-04-24T15:38:03Z</time>
      </trkpt>
      <trkpt lat="59.40307" lon="13.621789">
        <ele>66.964</ele>
        <time>2011-04-24T15:38:15Z</time>
      </trkpt>
      <trkpt lat="59.40312" lon="13.622177">
        <ele>67.217</ele>
        <time>2011-04-24T15:38:16Z</time>
      </trkpt>
      <trkpt lat="59.403372" lon="13.624117">
        <ele>69.957</ele>
        <time>2011-04-24T15:38:21Z</time>
      </trkpt>
      <trkpt lat="59.404072" lon="13.629567">
        <ele>71.704</ele>
        <time>2011-04-24T15:38:35Z</time>
      </trkpt>
      <trkpt lat="59.404771" lon="13.634599">
        <ele>67.006</ele>
        <time>2011-04-24T15:38:48Z</time>
      </trkpt>
      <trkpt lat="59.405531" lon="13.639531">
        <ele>60.596</ele>
        <time>2011-04-24T15:39:01Z</time>
      </trkpt>
      <trkpt lat="59.406026" lon="13.642127">
        <ele>59.253</ele>
        <time>2011-04-24T15:39:08Z</time>
      </trkpt>
      <trkpt lat="59.406566" lon="13.644266">
        <ele>57.216</ele>
        <time>2011-04-24T15:39:14Z</time>
      </trkpt>
      <trkpt lat="59.407202" lon="13.646318">
        <ele>55.964</ele>
        <time>2011-04-24T15:39:20Z</time>
      </trkpt>
      <trkpt lat="59.407909" lon="13.648256">
        <ele>55.421</ele>
        <time>2011-04-24T15:39:26Z</time>
      </trkpt>
      <trkpt lat="59.408916" lon="13.650735">
        <ele>56.179</ele>
        <time>2011-04-24T15:39:34Z</time>
      </trkpt>
      <trkpt lat="59.409879" lon="13.652798">
        <ele>57.629</ele>
        <time>2011-04-24T15:39:41Z</time>
      </trkpt>
      <trkpt lat="59.411296" lon="13.655663">
        <ele>58.281</ele>
        <time>2011-04-24T15:39:51Z</time>
      </trkpt>
      <trkpt lat="59.413337" lon="13.65952">
        <ele>59.708</ele>
        <time>2011-04-24T15:40:05Z</time>
      </trkpt>
      <trkpt lat="59.415278" lon="13.663042">
        <ele>62.649</ele>
        <time>2011-04-24T15:40:18Z</time>
      </trkpt>
      <trkpt lat="59.417664" lon="13.667376">
        <ele>66.199</ele>
        <time>2011-04-24T15:40:34Z</time>
      </trkpt>
      <trkpt lat="59.419117" lon="13.670147">
        <ele>68.151</ele>
        <time>2011-04-24T15:40:44Z</time>
      </trkpt>
      <trkpt lat="59.419749" lon="13.671709">
        <ele>69.552</ele>
        <time>2011-04-24T15:40:49Z</time>
      </trkpt>
      <trkpt lat="59.420284" lon="13.673403">
        <ele>71.513</ele>
        <time>2011-04-24T15:40:54Z</time>
      </trkpt>
      <trkpt lat="59.420641" lon="13.674843">
        <ele>72.423</ele>
        <time>2011-04-24T15:40:58Z</time>
      </trkpt>
      <trkpt lat="59.420984" lon="13.676723">
        <ele>72.859</ele>
        <time>2011-04-24T15:41:03Z</time>
      </trkpt>
      <trkpt lat="59.421221" lon="13.678677">
        <ele>73.553</ele>
        <time>2011-04-24T15:41:08Z</time>
      </trkpt>
      <trkpt lat="59.421343" lon="13.680669">
        <ele>73.084</ele>
        <time>2011-04-24T15:41:13Z</time>
      </trkpt>
      <trkpt lat="59.42135" lon="13.682672">
        <ele>70.947</ele>
        <time>2011-04-24T15:41:18Z</time>
      </trkpt>
      <trkpt lat="59.421297" lon="13.683869">
        <ele>69.436</ele>
        <time>2011-04-24T15:41:21Z</time>
      </trkpt>
      <trkpt lat="59.421098" lon="13.687867">
        <ele>61.815</ele>
        <time>2011-04-24T15:41:31Z</time>
      </trkpt>
      <trkpt lat="59.420849" lon="13.693001">
        <ele>55.44</ele>
        <time>2011-04-24T15:41:44Z</time>
      </trkpt>
      <trkpt lat="59.4206" lon="13.698109">
        <ele>54.815</ele>
        <time>2011-04-24T15:41:57Z</time>
      </trkpt>
      <trkpt lat="59.420387" lon="13.70124">
        <ele>57.186</ele>
        <time>2011-04-24T15:42:05Z</time>
      </trkpt>
      <trkpt lat="59.420076" lon="13.704343">
        <ele>58.909</ele>
        <time>2011-04-24T15:42:13Z</time>
      </trkpt>
      <trkpt lat="59.419835" lon="13.706278">
        <ele>61.318</ele>
        <time>2011-04-24T15:42:18Z</time>
      </trkpt>
      <trkpt lat="59.419366" lon="13.709346">
        <ele>64.258</ele>
        <time>2011-04-24T15:42:26Z</time>
      </trkpt>
      <trkpt lat="59.418799" lon="13.713182">
        <ele>65.925</ele>
        <time>2011-04-24T15:42:36Z</time>
      </trkpt>
      <trkpt lat="59.418436" lon="13.716307">
        <ele>65.052</ele>
        <time>2011-04-24T15:42:44Z</time>
      </trkpt>
      <trkpt lat="59.418026" lon="13.720597">
        <ele>65.311</ele>
        <time>2011-04-24T15:42:55Z</time>
      </trkpt>
      <trkpt lat="59.417789" lon="13.724156">
        <ele>64.558</ele>
        <time>2011-04-24T15:43:04Z</time>
      </trkpt>
      <trkpt lat="59.417535" lon="13.728518">
        <ele>63.732</ele>
        <time>2011-04-24T15:43:15Z</time>
      </trkpt>
      <trkpt lat="59.417259" lon="13.731671">
        <ele>63.15</ele>
        <time>2011-04-24T15:43:23Z</time>
      </trkpt>
      <trkpt lat="59.417039" lon="13.733647">
        <ele>60.648</ele>
        <time>2011-04-24T15:43:28Z</time>
      </trkpt>
      <trkpt lat="59.416615" lon="13.736741">
        <ele>59.171</ele>
        <time>2011-04-24T15:43:36Z</time>
      </trkpt>
      <trkpt lat="59.4163" lon="13.738637">
        <ele>57.266</ele>
        <time>2011-04-24T15:43:41Z</time>
      </trkpt>
      <trkpt lat="59.41562" lon="13.741973">
        <ele>52.686</ele>
        <time>2011-04-24T15:43:50Z</time>
      </trkpt>
      <trkpt lat="59.415379" lon="13.743052">
        <ele>51.427</ele>
        <time>2011-04-24T15:43:53Z</time>
      </trkpt>
      <trkpt lat="59.414507" lon="13.746616">
        <ele>50.497</ele>
        <time>2011-04-24T15:44:03Z</time>
      </trkpt>
      <trkpt lat="59.413843" lon="13.74907">
        <ele>49.771</ele>
        <time>2011-04-24T15:44:10Z</time>
      </trkpt>
      <trkpt lat="59.41292" lon="13.752193">
        <ele>49.461</ele>
        <time>2011-04-24T15:44:19Z</time>
      </trkpt>
      <trkpt lat="59.411931" lon="13.755208">
        <ele>49.095</ele>
        <time>2011-04-24T15:44:28Z</time>
      </trkpt>
      <trkpt lat="59.410751" lon="13.758451">
        <ele>49.327</ele>
        <time>2011-04-24T15:44:38Z</time>
      </trkpt>
      <trkpt lat="59.408905" lon="13.763181">
        <ele>48.643</ele>
        <time>2011-04-24T15:44:53Z</time>
      </trkpt>
      <trkpt lat="59.407425" lon="13.766984">
        <ele>49.258</ele>
        <time>2011-04-24T15:45:05Z</time>
      </trkpt>
      <trkpt lat="59.406363" lon="13.769922">
        <ele>50.093</ele>
        <time>2011-04-24T15:45:14Z</time>
      </trkpt>
      <trkpt lat="59.405356" lon="13.772927">
        <ele>50.586</ele>
        <time>2011-04-24T15:45:23Z</time>
      </trkpt>
      <trkpt lat="59.40431" lon="13.776335">
        <ele>50.011</ele>
        <time>2011-04-24T15:45:33Z</time>
      </trkpt>
      <trkpt lat="59.403531" lon="13.779123">
        <ele>50.362</ele>
        <time>2011-04-24T15:45:41Z</time>
      </trkpt>
      <trkpt lat="59.40244" lon="13.783387">
        <ele>48.151</ele>
        <time>2011-04-24T15:45:53Z</time>
      </trkpt>
      <trkpt lat="59.401618" lon="13.787033">
        <ele>47.949</ele>
        <time>2011-04-24T15:46:03Z</time>
      </trkpt>
      <trkpt lat="59.400478" lon="13.792514">
        <ele>52.985</ele>
        <time>2011-04-24T15:46:18Z</time>
      </trkpt>
      <trkpt lat="59.400324" lon="13.793247">
        <ele>53.81</ele>
        <time>2011-04-24T15:46:20Z</time>
      </trkpt>
      <trkpt lat="59.399361" lon="13.797687">
        <ele>60.425</ele>
        <time>2011-04-24T15:46:32Z</time>
      </trkpt>
      <trkpt lat="59.398482" lon="13.801306">
        <ele>61.751</ele>
        <time>2011-04-24T15:46:42Z</time>
      </trkpt>
      <trkpt lat="59.397436" lon="13.805223">
        <ele>56.389</ele>
        <time>2011-04-24T15:46:53Z</time>
      </trkpt>
      <trkpt lat="59.396476" lon="13.808717">
        <ele>51.359</ele>
        <time>2011-04-24T15:47:03Z</time>
      </trkpt>
      <trkpt lat="59.395347" lon="13.812905">
        <ele>48.445</ele>
        <time>2011-04-24T15:47:15Z</time>
      </trkpt>
      <trkpt lat="59.394665" lon="13.815797">
        <ele>48.532</ele>
        <time>2011-04-24T15:47:23Z</time>
      </trkpt>
      <trkpt lat="59.394062" lon="13.818717">
        <ele>49.694</ele>
        <time>2011-04-24T15:47:31Z</time>
      </trkpt>
      <trkpt lat="59.39354" lon="13.821712">
        <ele>53.541</ele>
        <time>2011-04-24T15:47:39Z</time>
      </trkpt>
      <trkpt lat="59.393189" lon="13.824009">
        <ele>57.659</ele>
        <time>2011-04-24T15:47:45Z</time>
      </trkpt>
      <trkpt lat="59.392973" lon="13.825554">
        <ele>59.759</ele>
        <time>2011-04-24T15:47:49Z</time>
      </trkpt>
      <trkpt lat="59.392675" lon="13.827874">
        <ele>62.445</ele>
        <time>2011-04-24T15:47:55Z</time>
      </trkpt>
      <trkpt lat="59.392245" lon="13.831782">
        <ele>64.664</ele>
        <time>2011-04-24T15:48:05Z</time>
      </trkpt>
      <trkpt lat="59.391867" lon="13.83611">
        <ele>63.813</ele>
        <time>2011-04-24T15:48:16Z</time>
      </trkpt>
      <trkpt lat="59.39151" lon="13.840835">
        <ele>64.959</ele>
        <time>2011-04-24T15:48:28Z</time>
      </trkpt>
      <trkpt lat="59.391166" lon="13.845178">
        <ele>65.159</ele>
        <time>2011-04-24T15:48:39Z</time>
      </trkpt>
      <trkpt lat="59.390797" lon="13.84869">
        <ele>67.48</ele>
        <time>2011-04-24T15:48:48Z</time>
      </trkpt>
      <trkpt lat="59.39028" lon="13.852561">
        <ele>65.323</ele>
        <time>2011-04-24T15:48:58Z</time>
      </trkpt>
      <trkpt lat="59.389844" lon="13.855224">
        <ele>62.987</ele>
        <time>2011-04-24T15:49:05Z</time>
      </trkpt>
      <trkpt lat="59.389573" lon="13.85673">
        <ele>60.926</ele>
        <time>2011-04-24T15:49:09Z</time>
      </trkpt>
      <trkpt lat="59.388823" lon="13.860409">
        <ele>57.727</ele>
        <time>2011-04-24T15:49:19Z</time>
      </trkpt>
      <trkpt lat="59.388142" lon="13.863294">
        <ele>56.215</ele>
        <time>2011-04-24T15:49:27Z</time>
      </trkpt>
      <trkpt lat="59.387297" lon="13.866457">
        <ele>55.755</ele>
        <time>2011-04-24T15:49:36Z</time>
      </trkpt>
      <trkpt lat="59.386265" lon="13.869884">
        <ele>56.37</ele>
        <time>2011-04-24T15:49:46Z</time>
      </trkpt>
      <trkpt lat="59.38487" lon="13.874268">
        <ele>57.212</ele>
        <time>2011-04-24T15:49:59Z</time>
      </trkpt>
      <trkpt lat="59.383586" lon="13.878321">
        <ele>57.326</ele>
        <time>2011-04-24T15:50:11Z</time>
      </trkpt>
      <trkpt lat="59.382654" lon="13.881387">
        <ele>58.521</ele>
        <time>2011-04-24T15:50:20Z</time>
      </trkpt>
      <trkpt lat="59.382014" lon="13.88388">
        <ele>58.59</ele>
        <time>2011-04-24T15:50:27Z</time>
      </trkpt>
      <trkpt lat="59.381385" lon="13.886809">
        <ele>58.911</ele>
        <time>2011-04-24T15:50:35Z</time>
      </trkpt>
      <trkpt lat="59.380937" lon="13.889456">
        <ele>58.782</ele>
        <time>2011-04-24T15:50:42Z</time>
      </trkpt>
      <trkpt lat="59.380574" lon="13.892147">
        <ele>59.913</ele>
        <time>2011-04-24T15:50:49Z</time>
      </trkpt>
      <trkpt lat="59.380266" lon="13.89527">
        <ele>60.378</ele>
        <time>2011-04-24T15:50:57Z</time>
      </trkpt>
      <trkpt lat="59.379808" lon="13.900366">
        <ele>57.96</ele>
        <time>2011-04-24T15:51:10Z</time>
      </trkpt>
      <trkpt lat="59.37934" lon="13.905445">
        <ele>59.282</ele>
        <time>2011-04-24T15:51:23Z</time>
      </trkpt>
      <trkpt lat="59.378954" lon="13.909759">
        <ele>58.017</ele>
        <time>2011-04-24T15:51:34Z</time>
      </trkpt>
      <trkpt lat="59.37854" lon="13.913636">
        <ele>57.589</ele>
        <time>2011-04-24T15:51:44Z</time>
      </trkpt>
      <trkpt lat="59.378185" lon="13.915924">
        <ele>57.921</ele>
        <time>2011-04-24T15:51:50Z</time>
      </trkpt>
      <trkpt lat="59.377692" lon="13.918541">
        <ele>57.966</ele>
        <time>2011-04-24T15:51:57Z</time>
      </trkpt>
      <trkpt lat="59.376658" lon="13.923739">
        <ele>56.377</ele>
        <time>2011-04-24T15:52:11Z</time>
      </trkpt>
      <trkpt lat="59.37612" lon="13.926705">
        <ele>60.949</ele>
        <time>2011-04-24T15:52:19Z</time>
      </trkpt>
      <trkpt lat="59.375951" lon="13.927859">
        <ele>62.549</ele>
        <time>2011-04-24T15:52:22Z</time>
      </trkpt>
      <trkpt lat="59.375583" lon="13.930976">
        <ele>61.988</ele>
        <time>2011-04-24T15:52:30Z</time>
      </trkpt>
      <trkpt lat="59.375378" lon="13.93292">
        <ele>59.089</ele>
        <time>2011-04-24T15:52:35Z</time>
      </trkpt>
      <trkpt lat="59.374871" lon="13.937988">
        <ele>55.976</ele>
        <time>2011-04-24T15:52:48Z</time>
      </trkpt>
      <trkpt lat="59.374422" lon="13.942677">
        <ele>53.912</ele>
        <time>2011-04-24T15:53:00Z</time>
      </trkpt>
      <trkpt lat="59.374052" lon="13.946569">
        <ele>52.387</ele>
        <time>2011-04-24T15:53:10Z</time>
      </trkpt>
      <trkpt lat="59.373888" lon="13.949334">
        <ele>51.768</ele>
        <time>2011-04-24T15:53:17Z</time>
      </trkpt>
      <trkpt lat="59.373833" lon="13.952114">
        <ele>52.388</ele>
        <time>2011-04-24T15:53:24Z</time>
      </trkpt>
      <trkpt lat="59.373901" lon="13.954902">
        <ele>53.987</ele>
        <time>2011-04-24T15:53:31Z</time>
      </trkpt>
      <trkpt lat="59.374089" lon="13.957678">
        <ele>52.17</ele>
        <time>2011-04-24T15:53:38Z</time>
      </trkpt>
      <trkpt lat="59.374154" lon="13.958471">
        <ele>51.267</ele>
        <time>2011-04-24T15:53:40Z</time>
      </trkpt>
      <trkpt lat="59.374419" lon="13.961561">
        <ele>47.043</ele>
        <time>2011-04-24T15:53:48Z</time>
      </trkpt>
      <trkpt lat="59.374786" lon="13.965858">
        <ele>47.444</ele>
        <time>2011-04-24T15:53:59Z</time>
      </trkpt>
      <trkpt lat="59.375073" lon="13.969784">
        <ele>48.978</ele>
        <time>2011-04-24T15:54:09Z</time>
      </trkpt>
      <trkpt lat="59.375075" lon="13.971363">
        <ele>48.276</ele>
        <time>2011-04-24T15:54:13Z</time>
      </trkpt>
      <trkpt lat="59.374948" lon="13.973729">
        <ele>48.752</ele>
        <time>2011-04-24T15:54:19Z</time>
      </trkpt>
      <trkpt lat="59.374674" lon="13.978459">
        <ele>48.349</ele>
        <time>2011-04-24T15:54:31Z</time>
      </trkpt>
      <trkpt lat="59.374427" lon="13.9828">
        <ele>47.877</ele>
        <time>2011-04-24T15:54:42Z</time>
      </trkpt>
      <trkpt lat="59.37416" lon="13.987537">
        <ele>47.283</ele>
        <time>2011-04-24T15:54:54Z</time>
      </trkpt>
      <trkpt lat="59.373855" lon="13.993079">
        <ele>46.322</ele>
        <time>2011-04-24T15:55:08Z</time>
      </trkpt>
      <trkpt lat="59.373608" lon="13.996607">
        <ele>45.779</ele>
        <time>2011-04-24T15:55:17Z</time>
      </trkpt>
      <trkpt lat="59.373342" lon="13.998936">
        <ele>46.823</ele>
        <time>2011-04-24T15:55:23Z</time>
      </trkpt>
      <trkpt lat="59.372933" lon="14.001593">
        <ele>47.091</ele>
        <time>2011-04-24T15:55:30Z</time>
      </trkpt>
      <trkpt lat="59.372505" lon="14.003784">
        <ele>47.904</ele>
        <time>2011-04-24T15:55:36Z</time>
      </trkpt>
      <trkpt lat="59.372135" lon="14.005386">
        <ele>47.25</ele>
        <time>2011-04-24T15:55:41Z</time>
      </trkpt>
      <trkpt lat="59.371474" lon="14.007808">
        <ele>47.319</ele>
        <time>2011-04-24T15:55:49Z</time>
      </trkpt>
      <trkpt lat="59.370934" lon="14.009506">
        <ele>50.17</ele>
        <time>2011-04-24T15:55:55Z</time>
      </trkpt>
      <trkpt lat="59.370459" lon="14.010843">
        <ele>52.956</ele>
        <time>2011-04-24T15:56:00Z</time>
      </trkpt>
      <trkpt lat="59.369699" lon="14.012921">
        <ele>54.576</ele>
        <time>2011-04-24T15:56:08Z</time>
      </trkpt>
      <trkpt lat="59.369189" lon="14.01431">
        <ele>54.716</ele>
        <time>2011-04-24T15:56:13Z</time>
      </trkpt>
      <trkpt lat="59.368557" lon="14.015786">
        <ele>53.805</ele>
        <time>2011-04-24T15:56:18Z</time>
      </trkpt>
      <trkpt lat="59.367682" lon="14.017535">
        <ele>55.375</ele>
        <time>2011-04-24T15:56:24Z</time>
      </trkpt>
      <trkpt lat="59.3666" lon="14.019414">
        <ele>57.325</ele>
        <time>2011-04-24T15:56:31Z</time>
      </trkpt>
      <trkpt lat="59.366147" lon="14.020202">
        <ele>58.949</ele>
        <time>2011-04-24T15:56:34Z</time>
      </trkpt>
      <trkpt lat="59.364504" lon="14.023135">
        <ele>61.676</ele>
        <time>2011-04-24T15:56:45Z</time>
      </trkpt>
      <trkpt lat="59.363409" lon="14.025342">
        <ele>61.689</ele>
        <time>2011-04-24T15:56:53Z</time>
      </trkpt>
      <trkpt lat="59.36265" lon="14.027154">
        <ele>62.121</ele>
        <time>2011-04-24T15:56:59Z</time>
      </trkpt>
      <trkpt lat="59.361819" lon="14.029463">
        <ele>62.351</ele>
        <time>2011-04-24T15:57:06Z</time>
      </trkpt>
      <trkpt lat="59.361167" lon="14.031603">
        <ele>61.547</ele>
        <time>2011-04-24T15:57:12Z</time>
      </trkpt>
      <trkpt lat="59.360587" lon="14.033838">
        <ele>61.158</ele>
        <time>2011-04-24T15:57:18Z</time>
      </trkpt>
      <trkpt lat="59.36008" lon="14.036173">
        <ele>60.583</ele>
        <time>2011-04-24T15:57:24Z</time>
      </trkpt>
      <trkpt lat="59.359655" lon="14.03862">
        <ele>58.621</ele>
        <time>2011-04-24T15:57:30Z</time>
      </trkpt>
      <trkpt lat="59.359241" lon="14.0416">
        <ele>56.248</ele>
        <time>2011-04-24T15:57:37Z</time>
      </trkpt>
      <trkpt lat="59.358583" lon="14.046385">
        <ele>56.443</ele>
        <time>2011-04-24T15:57:48Z</time>
      </trkpt>
      <trkpt lat="59.358116" lon="14.049746">
        <ele>57.99</ele>
        <time>2011-04-24T15:57:56Z</time>
      </trkpt>
      <trkpt lat="59.357553" lon="14.053865">
        <ele>57.629</ele>
        <time>2011-04-24T15:58:06Z</time>
      </trkpt>
      <trkpt lat="59.357106" lon="14.056627">
        <ele>61.489</ele>
        <time>2011-04-24T15:58:13Z</time>
      </trkpt>
      <trkpt lat="59.356519" lon="14.059573">
        <ele>66.05</ele>
        <time>2011-04-24T15:58:21Z</time>
      </trkpt>
      <trkpt lat="59.356008" lon="14.062112">
        <ele>64.47</ele>
        <time>2011-04-24T15:58:28Z</time>
      </trkpt>
      <trkpt lat="59.355618" lon="14.064071">
        <ele>58.549</ele>
        <time>2011-04-24T15:58:34Z</time>
      </trkpt>
      <trkpt lat="59.355058" lon="14.067025">
        <ele>49.917</ele>
        <time>2011-04-24T15:58:43Z</time>
      </trkpt>
      <trkpt lat="59.354613" lon="14.069077">
        <ele>50.75</ele>
        <time>2011-04-24T15:58:49Z</time>
      </trkpt>
      <trkpt lat="59.354178" lon="14.070757">
        <ele>54.911</ele>
        <time>2011-04-24T15:58:54Z</time>
      </trkpt>
      <trkpt lat="59.353467" lon="14.072988">
        <ele>62.093</ele>
        <time>2011-04-24T15:59:01Z</time>
      </trkpt>
      <trkpt lat="59.352778" lon="14.074782">
        <ele>66.927</ele>
        <time>2011-04-24T15:59:07Z</time>
      </trkpt>
      <trkpt lat="59.352015" lon="14.076445">
        <ele>68.001</ele>
        <time>2011-04-24T15:59:13Z</time>
      </trkpt>
      <trkpt lat="59.351182" lon="14.077958">
        <ele>65.111</ele>
        <time>2011-04-24T15:59:19Z</time>
      </trkpt>
      <trkpt lat="59.350398" lon="14.079063">
        <ele>61.188</ele>
        <time>2011-04-24T15:59:24Z</time>
      </trkpt>
      <trkpt lat="59.34975" lon="14.079955">
        <ele>59.324</ele>
        <time>2011-04-24T15:59:28Z</time>
      </trkpt>
      <trkpt lat="59.34875" lon="14.081168">
        <ele>57.804</ele>
        <time>2011-04-24T15:59:34Z</time>
      </trkpt>
      <trkpt lat="59.346852" lon="14.083266">
        <ele>56.885</ele>
        <time>2011-04-24T15:59:45Z</time>
      </trkpt>
      <trkpt lat="59.345489" lon="14.084773">
        <ele>64.465</ele>
        <time>2011-04-24T15:59:53Z</time>
      </trkpt>
      <trkpt lat="59.343744" lon="14.086702">
        <ele>72.763</ele>
        <time>2011-04-24T16:00:03Z</time>
      </trkpt>
      <trkpt lat="59.34268" lon="14.087787">
        <ele>71.957</ele>
        <time>2011-04-24T16:00:09Z</time>
      </trkpt>
      <trkpt lat="59.341592" lon="14.08868">
        <ele>71.642</ele>
        <time>2011-04-24T16:00:15Z</time>
      </trkpt>
      <trkpt lat="59.33972" lon="14.090044">
        <ele>73.292</ele>
        <time>2011-04-24T16:00:25Z</time>
      </trkpt>
      <trkpt lat="59.336925" lon="14.092078">
        <ele>76.449</ele>
        <time>2011-04-24T16:00:40Z</time>
      </trkpt>
      <trkpt lat="59.335822" lon="14.09301">
        <ele>75.952</ele>
        <time>2011-04-24T16:00:46Z</time>
      </trkpt>
      <trkpt lat="59.334581" lon="14.094293">
        <ele>75.075</ele>
        <time>2011-04-24T16:00:53Z</time>
      </trkpt>
      <trkpt lat="59.332664" lon="14.096339">
        <ele>72.146</ele>
        <time>2011-04-24T16:01:04Z</time>
      </trkpt>
      <trkpt lat="59.330582" lon="14.098555">
        <ele>73.48</ele>
        <time>2011-04-24T16:01:16Z</time>
      </trkpt>
      <trkpt lat="59.329019" lon="14.10024">
        <ele>78.502</ele>
        <time>2011-04-24T16:01:25Z</time>
      </trkpt>
      <trkpt lat="59.328042" lon="14.101591">
        <ele>82.26</ele>
        <time>2011-04-24T16:01:31Z</time>
      </trkpt>
      <trkpt lat="59.327314" lon="14.102932">
        <ele>85.967</ele>
        <time>2011-04-24T16:01:36Z</time>
      </trkpt>
      <trkpt lat="59.326667" lon="14.104436">
        <ele>86.52</ele>
        <time>2011-04-24T16:01:41Z</time>
      </trkpt>
      <trkpt lat="59.32611" lon="14.106069">
        <ele>85.381</ele>
        <time>2011-04-24T16:01:46Z</time>
      </trkpt>
      <trkpt lat="59.325646" lon="14.10781">
        <ele>83.296</ele>
        <time>2011-04-24T16:01:51Z</time>
      </trkpt>
      <trkpt lat="59.325293" lon="14.109648">
        <ele>80.322</ele>
        <time>2011-04-24T16:01:56Z</time>
      </trkpt>
      <trkpt lat="59.325026" lon="14.111528">
        <ele>77.403</ele>
        <time>2011-04-24T16:02:01Z</time>
      </trkpt>
      <trkpt lat="59.324777" lon="14.114234">
        <ele>72.196</ele>
        <time>2011-04-24T16:02:08Z</time>
      </trkpt>
      <trkpt lat="59.324458" lon="14.118485">
        <ele>65.288</ele>
        <time>2011-04-24T16:02:19Z</time>
      </trkpt>
      <trkpt lat="59.324317" lon="14.120424">
        <ele>62.59</ele>
        <time>2011-04-24T16:02:24Z</time>
      </trkpt>
      <trkpt lat="59.32403" lon="14.124256">
        <ele>57.143</ele>
        <time>2011-04-24T16:02:34Z</time>
      </trkpt>
      <trkpt lat="59.323727" lon="14.127286">
        <ele>56.646</ele>
        <time>2011-04-24T16:02:42Z</time>
      </trkpt>
      <trkpt lat="59.323411" lon="14.129099">
        <ele>58.541</ele>
        <time>2011-04-24T16:02:47Z</time>
      </trkpt>
      <trkpt lat="59.323003" lon="14.130822">
        <ele>61.412</ele>
        <time>2011-04-24T16:02:52Z</time>
      </trkpt>
      <trkpt lat="59.322486" lon="14.13246">
        <ele>65.221</ele>
        <time>2011-04-24T16:02:57Z</time>
      </trkpt>
      <trkpt lat="59.321758" lon="14.134315">
        <ele>69.515</ele>
        <time>2011-04-24T16:03:03Z</time>
      </trkpt>
      <trkpt lat="59.320253" lon="14.137907">
        <ele>78.7</ele>
        <time>2011-04-24T16:03:15Z</time>
      </trkpt>
      <trkpt lat="59.319578" lon="14.139828">
        <ele>84.899</ele>
        <time>2011-04-24T16:03:21Z</time>
      </trkpt>
      <trkpt lat="59.318982" lon="14.14185">
        <ele>91.101</ele>
        <time>2011-04-24T16:03:27Z</time>
      </trkpt>
      <trkpt lat="59.318482" lon="14.144002">
        <ele>95.829</ele>
        <time>2011-04-24T16:03:33Z</time>
      </trkpt>
      <trkpt lat="59.317668" lon="14.147574">
        <ele>98.997</ele>
        <time>2011-04-24T16:03:43Z</time>
      </trkpt>
      <trkpt lat="59.316774" lon="14.151065">
        <ele>99.612</ele>
        <time>2011-04-24T16:03:53Z</time>
      </trkpt>
      <trkpt lat="59.315809" lon="14.154521">
        <ele>100.636</ele>
        <time>2011-04-24T16:04:03Z</time>
      </trkpt>
      <trkpt lat="59.314813" lon="14.158">
        <ele>100.753</ele>
        <time>2011-04-24T16:04:13Z</time>
      </trkpt>
      <trkpt lat="59.313926" lon="14.161109">
        <ele>100.521</ele>
        <time>2011-04-24T16:04:22Z</time>
      </trkpt>
      <trkpt lat="59.31333" lon="14.163617">
        <ele>103.031</ele>
        <time>2011-04-24T16:04:29Z</time>
      </trkpt>
      <trkpt lat="59.312987" lon="14.165523">
        <ele>105.08</ele>
        <time>2011-04-24T16:04:34Z</time>
      </trkpt>
      <trkpt lat="59.312681" lon="14.167816">
        <ele>103.386</ele>
        <time>2011-04-24T16:04:40Z</time>
      </trkpt>
      <trkpt lat="59.312501" lon="14.169738">
        <ele>103.558</ele>
        <time>2011-04-24T16:04:45Z</time>
      </trkpt>
      <trkpt lat="59.312304" lon="14.172782">
        <ele>106.444</ele>
        <time>2011-04-24T16:04:53Z</time>
      </trkpt>
      <trkpt lat="59.312099" lon="14.175934">
        <ele>115.308</ele>
        <time>2011-04-24T16:05:01Z</time>
      </trkpt>
      <trkpt lat="59.311789" lon="14.180625">
        <ele>123.879</ele>
        <time>2011-04-24T16:05:13Z</time>
      </trkpt>
      <trkpt lat="59.311529" lon="14.184583">
        <ele>132.666</ele>
        <time>2011-04-24T16:05:23Z</time>
      </trkpt>
      <trkpt lat="59.311244" lon="14.188916">
        <ele>131.032</ele>
        <time>2011-04-24T16:05:34Z</time>
      </trkpt>
      <trkpt lat="59.310962" lon="14.193258">
        <ele>130.819</ele>
        <time>2011-04-24T16:05:45Z</time>
      </trkpt>
      <trkpt lat="59.310772" lon="14.196782">
        <ele>132.821</ele>
        <time>2011-04-24T16:05:54Z</time>
      </trkpt>
      <trkpt lat="59.310693" lon="14.199968">
        <ele>133.16</ele>
        <time>2011-04-24T16:06:02Z</time>
      </trkpt>
      <trkpt lat="59.310722" lon="14.203133">
        <ele>134.237</ele>
        <time>2011-04-24T16:06:10Z</time>
      </trkpt>
      <trkpt lat="59.310844" lon="14.20631">
        <ele>136.49</ele>
        <time>2011-04-24T16:06:18Z</time>
      </trkpt>
      <trkpt lat="59.311037" lon="14.209094">
        <ele>138.736</ele>
        <time>2011-04-24T16:06:25Z</time>
      </trkpt>
      <trkpt lat="59.31138" lon="14.212974">
        <ele>141.982</ele>
        <time>2011-04-24T16:06:35Z</time>
      </trkpt>
      <trkpt lat="59.311756" lon="14.217235">
        <ele>152.204</ele>
        <time>2011-04-24T16:06:46Z</time>
      </trkpt>
      <trkpt lat="59.311916" lon="14.219954">
        <ele>160.22</ele>
        <time>2011-04-24T16:06:53Z</time>
      </trkpt>
      <trkpt lat="59.312002" lon="14.223106">
        <ele>171.748</ele>
        <time>2011-04-24T16:07:01Z</time>
      </trkpt>
      <trkpt lat="59.312002" lon="14.225909">
        <ele>177.854</ele>
        <time>2011-04-24T16:07:08Z</time>
      </trkpt>
      <trkpt lat="59.311909" lon="14.229028">
        <ele>182.912</ele>
        <time>2011-04-24T16:07:16Z</time>
      </trkpt>
      <trkpt lat="59.311898" lon="14.229423">
        <ele>183.158</ele>
        <time>2011-04-24T16:07:17Z</time>
      </trkpt>
      <trkpt lat="59.311846" lon="14.2326">
        <ele>186.751</ele>
        <time>2011-04-24T16:07:25Z</time>
      </trkpt>
      <trkpt lat="59.311851" lon="14.232999">
        <ele>186.987</ele>
        <time>2011-04-24T16:07:26Z</time>
      </trkpt>
      <trkpt lat="59.311948" lon="14.236586">
        <ele>187.978</ele>
        <time>2011-04-24T16:07:35Z</time>
      </trkpt>
      <trkpt lat="59.312092" lon="14.241367">
        <ele>186.291</ele>
        <time>2011-04-24T16:07:47Z</time>
      </trkpt>
      <trkpt lat="59.312236" lon="14.246125">
        <ele>184.394</ele>
        <time>2011-04-24T16:07:59Z</time>
      </trkpt>
      <trkpt lat="59.312315" lon="14.248904">
        <ele>181.458</ele>
        <time>2011-04-24T16:08:06Z</time>
      </trkpt>
      <trkpt lat="59.312436" lon="14.253255">
        <ele>175.246</ele>
        <time>2011-04-24T16:08:17Z</time>
      </trkpt>
      <trkpt lat="59.312453" lon="14.254053">
        <ele>174.242</ele>
        <time>2011-04-24T16:08:19Z</time>
      </trkpt>
      <trkpt lat="59.312488" lon="14.256895">
        <ele>168.132</ele>
        <time>2011-04-24T16:08:26Z</time>
      </trkpt>
      <trkpt lat="59.312414" lon="14.259788">
        <ele>157.78</ele>
        <time>2011-04-24T16:08:33Z</time>
      </trkpt>
      <trkpt lat="59.312355" lon="14.261015">
        <ele>155.146</ele>
        <time>2011-04-24T16:08:36Z</time>
      </trkpt>
      <trkpt lat="59.312233" lon="14.262998">
        <ele>150.224</ele>
        <time>2011-04-24T16:08:41Z</time>
      </trkpt>
      <trkpt lat="59.312054" lon="14.265344">
        <ele>148.838</ele>
        <time>2011-04-24T16:08:47Z</time>
      </trkpt>
      <trkpt lat="59.311763" lon="14.268077">
        <ele>146.661</ele>
        <time>2011-04-24T16:08:54Z</time>
      </trkpt>
      <trkpt lat="59.31167" lon="14.26885">
        <ele>145.87</ele>
        <time>2011-04-24T16:08:56Z</time>
      </trkpt>
      <trkpt lat="59.311296" lon="14.2715">
        <ele>145.952</ele>
        <time>2011-04-24T16:09:03Z</time>
      </trkpt>
      <trkpt lat="59.310745" lon="14.274893">
        <ele>146.721</ele>
        <time>2011-04-24T16:09:12Z</time>
      </trkpt>
      <trkpt lat="59.310304" lon="14.277886">
        <ele>151.907</ele>
        <time>2011-04-24T16:09:20Z</time>
      </trkpt>
      <trkpt lat="59.310079" lon="14.280188">
        <ele>157.628</ele>
        <time>2011-04-24T16:09:26Z</time>
      </trkpt>
      <trkpt lat="59.309963" lon="14.282537">
        <ele>163.563</ele>
        <time>2011-04-24T16:09:32Z</time>
      </trkpt>
      <trkpt lat="59.309951" lon="14.284915">
        <ele>171.887</ele>
        <time>2011-04-24T16:09:38Z</time>
      </trkpt>
      <trkpt lat="59.309951" lon="14.288494">
        <ele>182.13</ele>
        <time>2011-04-24T16:09:47Z</time>
      </trkpt>
      <trkpt lat="59.309858" lon="14.290888">
        <ele>185.122</ele>
        <time>2011-04-24T16:09:53Z</time>
      </trkpt>
      <trkpt lat="59.309642" lon="14.295652">
        <ele>184.19</ele>
        <time>2011-04-24T16:10:05Z</time>
      </trkpt>
      <trkpt lat="59.309614" lon="14.298053">
        <ele>182.34</ele>
        <time>2011-04-24T16:10:11Z</time>
      </trkpt>
      <trkpt lat="59.309708" lon="14.300066">
        <ele>178.671</ele>
        <time>2011-04-24T16:10:16Z</time>
      </trkpt>
      <trkpt lat="59.309913" lon="14.30209">
        <ele>171.114</ele>
        <time>2011-04-24T16:10:21Z</time>
      </trkpt>
      <trkpt lat="59.310225" lon="14.304128">
        <ele>163.649</ele>
        <time>2011-04-24T16:10:26Z</time>
      </trkpt>
      <trkpt lat="59.310745" lon="14.307427">
        <ele>152.063</ele>
        <time>2011-04-24T16:10:34Z</time>
      </trkpt>
      <trkpt lat="59.311055" lon="14.309852">
        <ele>146.748</ele>
        <time>2011-04-24T16:10:40Z</time>
      </trkpt>
      <trkpt lat="59.311416" lon="14.313407">
        <ele>139.681</ele>
        <time>2011-04-24T16:10:49Z</time>
      </trkpt>
      <trkpt lat="59.311736" lon="14.316505">
        <ele>135.113</ele>
        <time>2011-04-24T16:10:57Z</time>
      </trkpt>
      <trkpt lat="59.312026" lon="14.318756">
        <ele>134.79</ele>
        <time>2011-04-24T16:11:03Z</time>
      </trkpt>
      <trkpt lat="59.312355" lon="14.320597">
        <ele>137.05</ele>
        <time>2011-04-24T16:11:08Z</time>
      </trkpt>
      <trkpt lat="59.312853" lon="14.322786">
        <ele>138.4</ele>
        <time>2011-04-24T16:11:14Z</time>
      </trkpt>
      <trkpt lat="59.31344" lon="14.324871">
        <ele>139.645</ele>
        <time>2011-04-24T16:11:20Z</time>
      </trkpt>
      <trkpt lat="59.314447" lon="14.328212">
        <ele>147.254</ele>
        <time>2011-04-24T16:11:30Z</time>
      </trkpt>
      <trkpt lat="59.315279" lon="14.330942">
        <ele>157.636</ele>
        <time>2011-04-24T16:11:38Z</time>
      </trkpt>
      <trkpt lat="59.316208" lon="14.334016">
        <ele>167.859</ele>
        <time>2011-04-24T16:11:47Z</time>
      </trkpt>
      <trkpt lat="59.317033" lon="14.336754">
        <ele>178.261</ele>
        <time>2011-04-24T16:11:55Z</time>
      </trkpt>
      <trkpt lat="59.318273" lon="14.340895">
        <ele>184.44</ele>
        <time>2011-04-24T16:12:07Z</time>
      </trkpt>
      <trkpt lat="59.319307" lon="14.344349">
        <ele>177.81</ele>
        <time>2011-04-24T16:12:17Z</time>
      </trkpt>
      <trkpt lat="59.320224" lon="14.347421">
        <ele>172.668</ele>
        <time>2011-04-24T16:12:26Z</time>
      </trkpt>
      <trkpt lat="59.321297" lon="14.351267">
        <ele>169.932</ele>
        <time>2011-04-24T16:12:37Z</time>
      </trkpt>
      <trkpt lat="59.322118" lon="14.35449">
        <ele>164.695</ele>
        <time>2011-04-24T16:12:46Z</time>
      </trkpt>
      <trkpt lat="59.322835" lon="14.357776">
        <ele>158.989</ele>
        <time>2011-04-24T16:12:55Z</time>
      </trkpt>
      <trkpt lat="59.323273" lon="14.360423">
        <ele>154.298</ele>
        <time>2011-04-24T16:13:02Z</time>
      </trkpt>
      <trkpt lat="59.323606" lon="14.363129">
        <ele>149.585</ele>
        <time>2011-04-24T16:13:09Z</time>
      </trkpt>
      <trkpt lat="59.323708" lon="14.364305">
        <ele>147.827</ele>
        <time>2011-04-24T16:13:12Z</time>
      </trkpt>
      <trkpt lat="59.323906" lon="14.367466">
        <ele>141.679</ele>
        <time>2011-04-24T16:13:20Z</time>
      </trkpt>
      <trkpt lat="59.323968" lon="14.368652">
        <ele>140.018</ele>
        <time>2011-04-24T16:13:23Z</time>
      </trkpt>
      <trkpt lat="59.324054" lon="14.371021">
        <ele>135.995</ele>
        <time>2011-04-24T16:13:29Z</time>
      </trkpt>
      <trkpt lat="59.324149" lon="14.374971">
        <ele>133.078</ele>
        <time>2011-04-24T16:13:39Z</time>
      </trkpt>
      <trkpt lat="59.324147" lon="14.37855">
        <ele>131.73</ele>
        <time>2011-04-24T16:13:48Z</time>
      </trkpt>
      <trkpt lat="59.324036" lon="14.380525">
        <ele>131.277</ele>
        <time>2011-04-24T16:13:53Z</time>
      </trkpt>
      <trkpt lat="59.323807" lon="14.382457">
        <ele>131.478</ele>
        <time>2011-04-24T16:13:58Z</time>
      </trkpt>
      <trkpt lat="59.323466" lon="14.384329">
        <ele>131.892</ele>
        <time>2011-04-24T16:14:03Z</time>
      </trkpt>
      <trkpt lat="59.322346" lon="14.389888">
        <ele>130.18</ele>
        <time>2011-04-24T16:14:18Z</time>
      </trkpt>
      <trkpt lat="59.32155" lon="14.393987">
        <ele>128.89</ele>
        <time>2011-04-24T16:14:29Z</time>
      </trkpt>
      <trkpt lat="59.321317" lon="14.395929">
        <ele>128.112</ele>
        <time>2011-04-24T16:14:34Z</time>
      </trkpt>
      <trkpt lat="59.321235" lon="14.397506">
        <ele>126.991</ele>
        <time>2011-04-24T16:14:38Z</time>
      </trkpt>
      <trkpt lat="59.321231" lon="14.399488">
        <ele>125.748</ele>
        <time>2011-04-24T16:14:43Z</time>
      </trkpt>
      <trkpt lat="59.321243" lon="14.401476">
        <ele>123.852</ele>
        <time>2011-04-24T16:14:48Z</time>
      </trkpt>
      <trkpt lat="59.321301" lon="14.407402">
        <ele>124.066</ele>
        <time>2011-04-24T16:15:03Z</time>
      </trkpt>
      <trkpt lat="59.32133" lon="14.408199">
        <ele>124.88</ele>
        <time>2011-04-24T16:15:05Z</time>
      </trkpt>
      <trkpt lat="59.32146" lon="14.409781">
        <ele>126.1</ele>
        <time>2011-04-24T16:15:09Z</time>
      </trkpt>
      <trkpt lat="59.321689" lon="14.411329">
        <ele>126.916</ele>
        <time>2011-04-24T16:15:13Z</time>
      </trkpt>
      <trkpt lat="59.322082" lon="14.413184">
        <ele>126.745</ele>
        <time>2011-04-24T16:15:18Z</time>
      </trkpt>
      <trkpt lat="59.322585" lon="14.414933">
        <ele>126.535</ele>
        <time>2011-04-24T16:15:23Z</time>
      </trkpt>
      <trkpt lat="59.323832" lon="14.419061">
        <ele>121.717</ele>
        <time>2011-04-24T16:15:35Z</time>
      </trkpt>
      <trkpt lat="59.325464" lon="14.424573">
        <ele>116.819</ele>
        <time>2011-04-24T16:15:51Z</time>
      </trkpt>
      <trkpt lat="59.325879" lon="14.426384">
        <ele>115.73</ele>
        <time>2011-04-24T16:15:56Z</time>
      </trkpt>
      <trkpt lat="59.32621" lon="14.428258">
        <ele>115.097</ele>
        <time>2011-04-24T16:16:01Z</time>
      </trkpt>
      <trkpt lat="59.326452" lon="14.430175">
        <ele>116.263</ele>
        <time>2011-04-24T16:16:06Z</time>
      </trkpt>
      <trkpt lat="59.326604" lon="14.432096">
        <ele>119.233</ele>
        <time>2011-04-24T16:16:11Z</time>
      </trkpt>
      <trkpt lat="59.326622" lon="14.432483">
        <ele>119.525</ele>
        <time>2011-04-24T16:16:12Z</time>
      </trkpt>
      <trkpt lat="59.326665" lon="14.434849">
        <ele>122.265</ele>
        <time>2011-04-24T16:16:18Z</time>
      </trkpt>
      <trkpt lat="59.326589" lon="14.436837">
        <ele>124.568</ele>
        <time>2011-04-24T16:16:23Z</time>
      </trkpt>
      <trkpt lat="59.326564" lon="14.437234">
        <ele>124.803</ele>
        <time>2011-04-24T16:16:24Z</time>
      </trkpt>
      <trkpt lat="59.326344" lon="14.439589">
        <ele>128.857</ele>
        <time>2011-04-24T16:16:30Z</time>
      </trkpt>
      <trkpt lat="59.326073" lon="14.44151">
        <ele>131.951</ele>
        <time>2011-04-24T16:16:35Z</time>
      </trkpt>
      <trkpt lat="59.325697" lon="14.443387">
        <ele>133.12</ele>
        <time>2011-04-24T16:16:40Z</time>
      </trkpt>
      <trkpt lat="59.325232" lon="14.445151">
        <ele>133.711</ele>
        <time>2011-04-24T16:16:45Z</time>
      </trkpt>
      <trkpt lat="59.3243" lon="14.448663">
        <ele>134.581</ele>
        <time>2011-04-24T16:16:55Z</time>
      </trkpt>
      <trkpt lat="59.323405" lon="14.452256">
        <ele>133.611</ele>
        <time>2011-04-24T16:17:05Z</time>
      </trkpt>
      <trkpt lat="59.323068" lon="14.454143">
        <ele>133.312</ele>
        <time>2011-04-24T16:17:10Z</time>
      </trkpt>
      <trkpt lat="59.322843" lon="14.456092">
        <ele>133.798</ele>
        <time>2011-04-24T16:17:15Z</time>
      </trkpt>
      <trkpt lat="59.322738" lon="14.458078">
        <ele>133.515</ele>
        <time>2011-04-24T16:17:20Z</time>
      </trkpt>
      <trkpt lat="59.322742" lon="14.460073">
        <ele>134.206</ele>
        <time>2011-04-24T16:17:25Z</time>
      </trkpt>
      <trkpt lat="59.322863" lon="14.464406">
        <ele>137.495</ele>
        <time>2011-04-24T16:17:36Z</time>
      </trkpt>
      <trkpt lat="59.322969" lon="14.468002">
        <ele>139.445</ele>
        <time>2011-04-24T16:17:45Z</time>
      </trkpt>
      <trkpt lat="59.323068" lon="14.471528">
        <ele>136.365</ele>
        <time>2011-04-24T16:17:54Z</time>
      </trkpt>
      <trkpt lat="59.323146" lon="14.474077">
        <ele>133.61</ele>
        <time>2011-04-24T16:18:01Z</time>
      </trkpt>
      <trkpt lat="59.323229" lon="14.477062">
        <ele>131.462</ele>
        <time>2011-04-24T16:18:09Z</time>
      </trkpt>
      <trkpt lat="59.323311" lon="14.480341">
        <ele>129.424</ele>
        <time>2011-04-24T16:18:18Z</time>
      </trkpt>
      <trkpt lat="59.323368" lon="14.483425">
        <ele>127.588</ele>
        <time>2011-04-24T16:18:27Z</time>
      </trkpt>
      <trkpt lat="59.323442" lon="14.486639">
        <ele>124.305</ele>
        <time>2011-04-24T16:18:36Z</time>
      </trkpt>
      <trkpt lat="59.323514" lon="14.489424">
        <ele>123.155</ele>
        <time>2011-04-24T16:18:44Z</time>
      </trkpt>
      <trkpt lat="59.323575" lon="14.491355">
        <ele>122.151</ele>
        <time>2011-04-24T16:18:50Z</time>
      </trkpt>
      <trkpt lat="59.32374" lon="14.494961">
        <ele>120.342</ele>
        <time>2011-04-24T16:19:02Z</time>
      </trkpt>
      <trkpt lat="59.32385" lon="14.497136">
        <ele>118.725</ele>
        <time>2011-04-24T16:19:10Z</time>
      </trkpt>
      <trkpt lat="59.323958" lon="14.499485">
        <ele>118.3</ele>
        <time>2011-04-24T16:19:19Z</time>
      </trkpt>
      <trkpt lat="59.32411" lon="14.502795">
        <ele>117.769</ele>
        <time>2011-04-24T16:19:31Z</time>
      </trkpt>
      <trkpt lat="59.324164" lon="14.504091">
        <ele>116.138</ele>
        <time>2011-04-24T16:19:36Z</time>
      </trkpt>
      <trkpt lat="59.32417" lon="14.504906">
        <ele>114.766</ele>
        <time>2011-04-24T16:19:40Z</time>
      </trkpt>
      <trkpt lat="59.324163" lon="14.505079">
        <ele>114.59</ele>
        <time>2011-04-24T16:19:41Z</time>
      </trkpt>
      <trkpt lat="59.324059" lon="14.505601">
        <ele>113.445</ele>
        <time>2011-04-24T16:19:45Z</time>
      </trkpt>
      <trkpt lat="59.323957" lon="14.505815">
        <ele>113.384</ele>
        <time>2011-04-24T16:19:47Z</time>
      </trkpt>
      <trkpt lat="59.323827" lon="14.506031">
        <ele>113.535</ele>
        <time>2011-04-24T16:19:49Z</time>
      </trkpt>
      <trkpt lat="59.323628" lon="14.506603">
        <ele>113.589</ele>
        <time>2011-04-24T16:19:53Z</time>
      </trkpt>
      <trkpt lat="59.323603" lon="14.507181">
        <ele>113.327</ele>
        <time>2011-04-24T16:19:56Z</time>
      </trkpt>
      <trkpt lat="59.323719" lon="14.50776">
        <ele>112.618</ele>
        <time>2011-04-24T16:19:59Z</time>
      </trkpt>
      <trkpt lat="59.323953" lon="14.508582">
        <ele>111.863</ele>
        <time>2011-04-24T16:20:03Z</time>
      </trkpt>
      <trkpt lat="59.32407" lon="14.509627">
        <ele>111.806</ele>
        <time>2011-04-24T16:20:07Z</time>
      </trkpt>
      <trkpt lat="59.32407" lon="14.511745">
        <ele>111.864</ele>
        <time>2011-04-24T16:20:14Z</time>
      </trkpt>
      <trkpt lat="59.324081" lon="14.513472">
        <ele>111.57</ele>
        <time>2011-04-24T16:20:20Z</time>
      </trkpt>
      <trkpt lat="59.324122" lon="14.515538">
        <ele>111</ele>
        <time>2011-04-24T16:20:28Z</time>
      </trkpt>
      <trkpt lat="59.324172" lon="14.517167">
        <ele>110.151</ele>
        <time>2011-04-24T16:20:34Z</time>
      </trkpt>
      <trkpt lat="59.324262" lon="14.518809">
        <ele>107.629</ele>
        <time>2011-04-24T16:20:40Z</time>
      </trkpt>
      <trkpt lat="59.324393" lon="14.520933">
        <ele>105.165</ele>
        <time>2011-04-24T16:20:48Z</time>
      </trkpt>
      <trkpt lat="59.324565" lon="14.523841">
        <ele>101.749</ele>
        <time>2011-04-24T16:20:59Z</time>
      </trkpt>
      <trkpt lat="59.324662" lon="14.52582">
        <ele>99.031</ele>
        <time>2011-04-24T16:21:07Z</time>
      </trkpt>
      <trkpt lat="59.324688" lon="14.52665">
        <ele>97.311</ele>
        <time>2011-04-24T16:21:11Z</time>
      </trkpt>
      <trkpt lat="59.324686" lon="14.527031">
        <ele>96.486</ele>
        <time>2011-04-24T16:21:14Z</time>
      </trkpt>
      <trkpt lat="59.324628" lon="14.527339">
        <ele>96.556</ele>
        <time>2011-04-24T16:21:17Z</time>
      </trkpt>
      <trkpt lat="59.324607" lon="14.527748">
        <ele>96.773</ele>
        <time>2011-04-24T16:21:21Z</time>
      </trkpt>
      <trkpt lat="59.324734" lon="14.5279">
        <ele>96.888</ele>
        <time>2011-04-24T16:21:24Z</time>
      </trkpt>
      <trkpt lat="59.324889" lon="14.52778">
        <ele>97.253</ele>
        <time>2011-04-24T16:21:27Z</time>
      </trkpt>
      <trkpt lat="59.325154" lon="14.527434">
        <ele>97.066</ele>
        <time>2011-04-24T16:21:32Z</time>
      </trkpt>
      <trkpt lat="59.325304" lon="14.527336">
        <ele>96.502</ele>
        <time>2011-04-24T16:21:35Z</time>
      </trkpt>
      <trkpt lat="59.325405" lon="14.527082">
        <ele>96.749</ele>
        <time>2011-04-24T16:21:39Z</time>
      </trkpt>
      <trkpt lat="59.325395" lon="14.526876">
        <ele>97.198</ele>
        <time>2011-04-24T16:21:41Z</time>
      </trkpt>
      <trkpt lat="59.325248" lon="14.525889">
        <ele>98.292</ele>
        <time>2011-04-24T16:21:51Z</time>
      </trkpt>
      <trkpt lat="59.325157" lon="14.52544">
        <ele>98.722</ele>
        <time>2011-04-24T16:21:57Z</time>
      </trkpt>
      <trkpt lat="59.325066" lon="14.524947">
        <ele>99.424</ele>
        <time>2011-04-24T16:22:02Z</time>
      </trkpt>
      <trkpt lat="59.324967" lon="14.524348">
        <ele>99.762</ele>
        <time>2011-04-24T16:22:08Z</time>
      </trkpt>
      <trkpt lat="59.324916" lon="14.524103">
        <ele>99.861</ele>
        <time>2011-04-24T16:22:13Z</time>
      </trkpt>
      <trkpt lat="59.324814" lon="14.524108">
        <ele>99.809</ele>
        <time>2011-04-24T16:22:18Z</time>
      </trkpt>
      <trkpt lat="59.324794" lon="14.524268">
        <ele>99.267</ele>
        <time>2011-04-24T16:22:22Z</time>
      </trkpt>
      <trkpt lat="59.324794" lon="14.524303">
        <ele>99.248</ele>
        <time>2011-04-24T16:22:25Z</time>
      </trkpt>
      <trkpt lat="59.324804" lon="14.52443">
        <ele>101.072</ele>
        <time>2011-04-24T16:48:12Z</time>
      </trkpt>
      <trkpt lat="59.32482" lon="14.52479">
        <ele>100.837</ele>
        <time>2011-04-24T16:48:17Z</time>
      </trkpt>
      <trkpt lat="59.324851" lon="14.525459">
        <ele>100.575</ele>
        <time>2011-04-24T16:48:26Z</time>
      </trkpt>
      <trkpt lat="59.32489" lon="14.525725">
        <ele>100.035</ele>
        <time>2011-04-24T16:48:31Z</time>
      </trkpt>
      <trkpt lat="59.325006" lon="14.525792">
        <ele>99.824</ele>
        <time>2011-04-24T16:48:35Z</time>
      </trkpt>
      <trkpt lat="59.32516" lon="14.525845">
        <ele>100.031</ele>
        <time>2011-04-24T16:48:41Z</time>
      </trkpt>
      <trkpt lat="59.325219" lon="14.526159">
        <ele>99.94</ele>
        <time>2011-04-24T16:48:45Z</time>
      </trkpt>
      <trkpt lat="59.325318" lon="14.526788">
        <ele>99.277</ele>
        <time>2011-04-24T16:48:52Z</time>
      </trkpt>
      <trkpt lat="59.3253" lon="14.527094">
        <ele>98.783</ele>
        <time>2011-04-24T16:48:57Z</time>
      </trkpt>
      <trkpt lat="59.325274" lon="14.527144">
        <ele>98.793</ele>
        <time>2011-04-24T16:48:58Z</time>
      </trkpt>
      <trkpt lat="59.32505" lon="14.527321">
        <ele>98.586</ele>
        <time>2011-04-24T16:49:04Z</time>
      </trkpt>
      <trkpt lat="59.324939" lon="14.527342">
        <ele>98.755</ele>
        <time>2011-04-24T16:49:09Z</time>
      </trkpt>
      <trkpt lat="59.324905" lon="14.527325">
        <ele>98.847</ele>
        <time>2011-04-24T16:49:10Z</time>
      </trkpt>
      <trkpt lat="59.324827" lon="14.527263">
        <ele>99.094</ele>
        <time>2011-04-24T16:49:12Z</time>
      </trkpt>
      <trkpt lat="59.324649" lon="14.527283">
        <ele>99.248</ele>
        <time>2011-04-24T16:49:16Z</time>
      </trkpt>
      <trkpt lat="59.324579" lon="14.527528">
        <ele>99.092</ele>
        <time>2011-04-24T16:49:19Z</time>
      </trkpt>
      <trkpt lat="59.324621" lon="14.527858">
        <ele>99.295</ele>
        <time>2011-04-24T16:49:22Z</time>
      </trkpt>
      <trkpt lat="59.324677" lon="14.528111">
        <ele>99.522</ele>
        <time>2011-04-24T16:49:24Z</time>
      </trkpt>
      <trkpt lat="59.324737" lon="14.528933">
        <ele>100.065</ele>
        <time>2011-04-24T16:49:29Z</time>
      </trkpt>
      <trkpt lat="59.324784" lon="14.530199">
        <ele>101.239</ele>
        <time>2011-04-24T16:49:35Z</time>
      </trkpt>
      <trkpt lat="59.324844" lon="14.531825">
        <ele>103.394</ele>
        <time>2011-04-24T16:49:42Z</time>
      </trkpt>
      <trkpt lat="59.32495" lon="14.533299">
        <ele>106.74</ele>
        <time>2011-04-24T16:49:48Z</time>
      </trkpt>
      <trkpt lat="59.325017" lon="14.533806">
        <ele>107.685</ele>
        <time>2011-04-24T16:49:50Z</time>
      </trkpt>
      <trkpt lat="59.325255" lon="14.535074">
        <ele>110.768</ele>
        <time>2011-04-24T16:49:55Z</time>
      </trkpt>
      <trkpt lat="59.325597" lon="14.536306">
        <ele>113.341</ele>
        <time>2011-04-24T16:50:00Z</time>
      </trkpt>
      <trkpt lat="59.325675" lon="14.53655">
        <ele>113.614</ele>
        <time>2011-04-24T16:50:01Z</time>
      </trkpt>
      <trkpt lat="59.326128" lon="14.5377">
        <ele>114.702</ele>
        <time>2011-04-24T16:50:06Z</time>
      </trkpt>
      <trkpt lat="59.326662" lon="14.538644">
        <ele>115.32</ele>
        <time>2011-04-24T16:50:11Z</time>
      </trkpt>
      <trkpt lat="59.32723" lon="14.539388">
        <ele>114.84</ele>
        <time>2011-04-24T16:50:16Z</time>
      </trkpt>
      <trkpt lat="59.327871" lon="14.540005">
        <ele>113.909</ele>
        <time>2011-04-24T16:50:21Z</time>
      </trkpt>
      <trkpt lat="59.328849" lon="14.540897">
        <ele>112.681</ele>
        <time>2011-04-24T16:50:28Z</time>
      </trkpt>
      <trkpt lat="59.329486" lon="14.541519">
        <ele>110.887</ele>
        <time>2011-04-24T16:50:33Z</time>
      </trkpt>
      <trkpt lat="59.32988" lon="14.542099">
        <ele>110.095</ele>
        <time>2011-04-24T16:50:37Z</time>
      </trkpt>
      <trkpt lat="59.330071" lon="14.542474">
        <ele>109.342</ele>
        <time>2011-04-24T16:50:40Z</time>
      </trkpt>
      <trkpt lat="59.330159" lon="14.542696">
        <ele>107.951</ele>
        <time>2011-04-24T16:50:43Z</time>
      </trkpt>
      <trkpt lat="59.33016" lon="14.542714">
        <ele>107.603</ele>
        <time>2011-04-24T16:50:46Z</time>
      </trkpt>
      <trkpt lat="59.330224" lon="14.542909">
        <ele>107.245</ele>
        <time>2011-04-24T16:50:54Z</time>
      </trkpt>
      <trkpt lat="59.330322" lon="14.543225">
        <ele>107.158</ele>
        <time>2011-04-24T16:50:57Z</time>
      </trkpt>
      <trkpt lat="59.330477" lon="14.543858">
        <ele>107.264</ele>
        <time>2011-04-24T16:51:01Z</time>
      </trkpt>
      <trkpt lat="59.33064" lon="14.544864">
        <ele>107.322</ele>
        <time>2011-04-24T16:51:06Z</time>
      </trkpt>
      <trkpt lat="59.33078" lon="14.546269">
        <ele>108.07</ele>
        <time>2011-04-24T16:51:12Z</time>
      </trkpt>
      <trkpt lat="59.330821" lon="14.547832">
        <ele>109.655</ele>
        <time>2011-04-24T16:51:18Z</time>
      </trkpt>
      <trkpt lat="59.330768" lon="14.549537">
        <ele>110.676</ele>
        <time>2011-04-24T16:51:24Z</time>
      </trkpt>
      <trkpt lat="59.330622" lon="14.552202">
        <ele>108.936</ele>
        <time>2011-04-24T16:51:33Z</time>
      </trkpt>
      <trkpt lat="59.330476" lon="14.554329">
        <ele>109.411</ele>
        <time>2011-04-24T16:51:40Z</time>
      </trkpt>
      <trkpt lat="59.330315" lon="14.555823">
        <ele>110.962</ele>
        <time>2011-04-24T16:51:45Z</time>
      </trkpt>
      <trkpt lat="59.330067" lon="14.557179">
        <ele>110.524</ele>
        <time>2011-04-24T16:51:50Z</time>
      </trkpt>
      <trkpt lat="59.329496" lon="14.560007">
        <ele>109.442</ele>
        <time>2011-04-24T16:52:01Z</time>
      </trkpt>
      <trkpt lat="59.32913" lon="14.562121">
        <ele>107.981</ele>
        <time>2011-04-24T16:52:09Z</time>
      </trkpt>
      <trkpt lat="59.328898" lon="14.563945">
        <ele>107.86</ele>
        <time>2011-04-24T16:52:16Z</time>
      </trkpt>
      <trkpt lat="59.328708" lon="14.565916">
        <ele>107.577</ele>
        <time>2011-04-24T16:52:24Z</time>
      </trkpt>
      <trkpt lat="59.328458" lon="14.568685">
        <ele>106.048</ele>
        <time>2011-04-24T16:52:35Z</time>
      </trkpt>
      <trkpt lat="59.328156" lon="14.571636">
        <ele>101.725</ele>
        <time>2011-04-24T16:52:47Z</time>
      </trkpt>
      <trkpt lat="59.327906" lon="14.573239">
        <ele>99.859</ele>
        <time>2011-04-24T16:52:53Z</time>
      </trkpt>
      <trkpt lat="59.327565" lon="14.574829">
        <ele>98.585</ele>
        <time>2011-04-24T16:52:59Z</time>
      </trkpt>
      <trkpt lat="59.327067" lon="14.576577">
        <ele>97.17</ele>
        <time>2011-04-24T16:53:06Z</time>
      </trkpt>
      <trkpt lat="59.326378" lon="14.57872">
        <ele>95.471</ele>
        <time>2011-04-24T16:53:15Z</time>
      </trkpt>
      <trkpt lat="59.325681" lon="14.580872">
        <ele>94.186</ele>
        <time>2011-04-24T16:53:24Z</time>
      </trkpt>
      <trkpt lat="59.325016" lon="14.582956">
        <ele>93.843</ele>
        <time>2011-04-24T16:53:32Z</time>
      </trkpt>
      <trkpt lat="59.324137" lon="14.585635">
        <ele>94.86</ele>
        <time>2011-04-24T16:53:42Z</time>
      </trkpt>
      <trkpt lat="59.323297" lon="14.588025">
        <ele>96.536</ele>
        <time>2011-04-24T16:53:51Z</time>
      </trkpt>
      <trkpt lat="59.322588" lon="14.589808">
        <ele>98.101</ele>
        <time>2011-04-24T16:53:58Z</time>
      </trkpt>
      <trkpt lat="59.321885" lon="14.591183">
        <ele>101.704</ele>
        <time>2011-04-24T16:54:04Z</time>
      </trkpt>
      <trkpt lat="59.321214" lon="14.592142">
        <ele>105.635</ele>
        <time>2011-04-24T16:54:09Z</time>
      </trkpt>
      <trkpt lat="59.320437" lon="14.593014">
        <ele>110.139</ele>
        <time>2011-04-24T16:54:14Z</time>
      </trkpt>
      <trkpt lat="59.319092" lon="14.594254">
        <ele>119.192</ele>
        <time>2011-04-24T16:54:22Z</time>
      </trkpt>
      <trkpt lat="59.31807" lon="14.595259">
        <ele>125.902</ele>
        <time>2011-04-24T16:54:28Z</time>
      </trkpt>
      <trkpt lat="59.317091" lon="14.596476">
        <ele>132.667</ele>
        <time>2011-04-24T16:54:34Z</time>
      </trkpt>
      <trkpt lat="59.316358" lon="14.597628">
        <ele>136.323</ele>
        <time>2011-04-24T16:54:39Z</time>
      </trkpt>
      <trkpt lat="59.31568" lon="14.598903">
        <ele>140.202</ele>
        <time>2011-04-24T16:54:44Z</time>
      </trkpt>
      <trkpt lat="59.315205" lon="14.600075">
        <ele>141.918</ele>
        <time>2011-04-24T16:54:48Z</time>
      </trkpt>
      <trkpt lat="59.314709" lon="14.601655">
        <ele>144.667</ele>
        <time>2011-04-24T16:54:53Z</time>
      </trkpt>
      <trkpt lat="59.314621" lon="14.601987">
        <ele>144.911</ele>
        <time>2011-04-24T16:54:54Z</time>
      </trkpt>
      <trkpt lat="59.314229" lon="14.603752">
        <ele>147.484</ele>
        <time>2011-04-24T16:54:59Z</time>
      </trkpt>
      <trkpt lat="59.313621" lon="14.606552">
        <ele>148.273</ele>
        <time>2011-04-24T16:55:07Z</time>
      </trkpt>
      <trkpt lat="59.312887" lon="14.610082">
        <ele>145.249</ele>
        <time>2011-04-24T16:55:17Z</time>
      </trkpt>
      <trkpt lat="59.312257" lon="14.612872">
        <ele>144.345</ele>
        <time>2011-04-24T16:55:25Z</time>
      </trkpt>
      <trkpt lat="59.31124" lon="14.617339">
        <ele>147.147</ele>
        <time>2011-04-24T16:55:38Z</time>
      </trkpt>
      <trkpt lat="59.310614" lon="14.620113">
        <ele>151.358</ele>
        <time>2011-04-24T16:55:46Z</time>
      </trkpt>
      <trkpt lat="59.309832" lon="14.623598">
        <ele>158.082</ele>
        <time>2011-04-24T16:55:56Z</time>
      </trkpt>
      <trkpt lat="59.309025" lon="14.627071">
        <ele>160.505</ele>
        <time>2011-04-24T16:56:06Z</time>
      </trkpt>
      <trkpt lat="59.308519" lon="14.628686">
        <ele>160.8</ele>
        <time>2011-04-24T16:56:11Z</time>
      </trkpt>
      <trkpt lat="59.307912" lon="14.630193">
        <ele>160.87</ele>
        <time>2011-04-24T16:56:16Z</time>
      </trkpt>
      <trkpt lat="59.307233" lon="14.631549">
        <ele>162.302</ele>
        <time>2011-04-24T16:56:21Z</time>
      </trkpt>
      <trkpt lat="59.306495" lon="14.63275">
        <ele>163.305</ele>
        <time>2011-04-24T16:56:26Z</time>
      </trkpt>
      <trkpt lat="59.305699" lon="14.633773">
        <ele>165.967</ele>
        <time>2011-04-24T16:56:31Z</time>
      </trkpt>
      <trkpt lat="59.304498" lon="14.635063">
        <ele>170.108</ele>
        <time>2011-04-24T16:56:38Z</time>
      </trkpt>
      <trkpt lat="59.301886" lon="14.637746">
        <ele>166.948</ele>
        <time>2011-04-24T16:56:53Z</time>
      </trkpt>
      <trkpt lat="59.29988" lon="14.639924">
        <ele>161.951</ele>
        <time>2011-04-24T16:57:05Z</time>
      </trkpt>
      <trkpt lat="59.299263" lon="14.640782">
        <ele>162.843</ele>
        <time>2011-04-24T16:57:09Z</time>
      </trkpt>
      <trkpt lat="59.298698" lon="14.641809">
        <ele>164.581</ele>
        <time>2011-04-24T16:57:13Z</time>
      </trkpt>
      <trkpt lat="59.298436" lon="14.642376">
        <ele>165.418</ele>
        <time>2011-04-24T16:57:15Z</time>
      </trkpt>
      <trkpt lat="59.297849" lon="14.643924">
        <ele>166.869</ele>
        <time>2011-04-24T16:57:20Z</time>
      </trkpt>
      <trkpt lat="59.297378" lon="14.645595">
        <ele>167.875</ele>
        <time>2011-04-24T16:57:25Z</time>
      </trkpt>
      <trkpt lat="59.297094" lon="14.647025">
        <ele>166.887</ele>
        <time>2011-04-24T16:57:29Z</time>
      </trkpt>
      <trkpt lat="59.296893" lon="14.648518">
        <ele>164.762</ele>
        <time>2011-04-24T16:57:33Z</time>
      </trkpt>
      <trkpt lat="59.296655" lon="14.651207">
        <ele>156.928</ele>
        <time>2011-04-24T16:57:40Z</time>
      </trkpt>
      <trkpt lat="59.296395" lon="14.65459">
        <ele>152.544</ele>
        <time>2011-04-24T16:57:49Z</time>
      </trkpt>
      <trkpt lat="59.296306" lon="14.655712">
        <ele>151.156</ele>
        <time>2011-04-24T16:57:52Z</time>
      </trkpt>
      <trkpt lat="59.295995" lon="14.659476">
        <ele>151.118</ele>
        <time>2011-04-24T16:58:02Z</time>
      </trkpt>
      <trkpt lat="59.295624" lon="14.663989">
        <ele>150.38</ele>
        <time>2011-04-24T16:58:14Z</time>
      </trkpt>
      <trkpt lat="59.295255" lon="14.668495">
        <ele>150.065</ele>
        <time>2011-04-24T16:58:26Z</time>
      </trkpt>
      <trkpt lat="59.294939" lon="14.671849">
        <ele>152.326</ele>
        <time>2011-04-24T16:58:35Z</time>
      </trkpt>
      <trkpt lat="59.294699" lon="14.673292">
        <ele>152.621</ele>
        <time>2011-04-24T16:58:39Z</time>
      </trkpt>
      <trkpt lat="59.294347" lon="14.674646">
        <ele>150.608</ele>
        <time>2011-04-24T16:58:43Z</time>
      </trkpt>
      <trkpt lat="59.293903" lon="14.67587">
        <ele>149.492</ele>
        <time>2011-04-24T16:58:47Z</time>
      </trkpt>
      <trkpt lat="59.29338" lon="14.676945">
        <ele>150.258</ele>
        <time>2011-04-24T16:58:51Z</time>
      </trkpt>
      <trkpt lat="59.292785" lon="14.677863">
        <ele>152.51</ele>
        <time>2011-04-24T16:58:55Z</time>
      </trkpt>
      <trkpt lat="59.292118" lon="14.678617">
        <ele>155.191</ele>
        <time>2011-04-24T16:58:59Z</time>
      </trkpt>
      <trkpt lat="59.291394" lon="14.679192">
        <ele>156.565</ele>
        <time>2011-04-24T16:59:03Z</time>
      </trkpt>
      <trkpt lat="59.289715" lon="14.68019">
        <ele>154.421</ele>
        <time>2011-04-24T16:59:12Z</time>
      </trkpt>
      <trkpt lat="59.28952" lon="14.680297">
        <ele>154.192</ele>
        <time>2011-04-24T16:59:13Z</time>
      </trkpt>
      <trkpt lat="59.287653" lon="14.681449">
        <ele>151.94</ele>
        <time>2011-04-24T16:59:23Z</time>
      </trkpt>
      <trkpt lat="59.285458" lon="14.682871">
        <ele>156.78</ele>
        <time>2011-04-24T16:59:35Z</time>
      </trkpt>
      <trkpt lat="59.284575" lon="14.683639">
        <ele>161.134</ele>
        <time>2011-04-24T16:59:40Z</time>
      </trkpt>
      <trkpt lat="59.284245" lon="14.684031">
        <ele>162.088</ele>
        <time>2011-04-24T16:59:42Z</time>
      </trkpt>
      <trkpt lat="59.283449" lon="14.685148">
        <ele>163.213</ele>
        <time>2011-04-24T16:59:47Z</time>
      </trkpt>
      <trkpt lat="59.28287" lon="14.686184">
        <ele>162.077</ele>
        <time>2011-04-24T16:59:51Z</time>
      </trkpt>
      <trkpt lat="59.282224" lon="14.687626">
        <ele>160.375</ele>
        <time>2011-04-24T16:59:56Z</time>
      </trkpt>
      <trkpt lat="59.281784" lon="14.688886">
        <ele>157.297</ele>
        <time>2011-04-24T17:00:00Z</time>
      </trkpt>
      <trkpt lat="59.28134" lon="14.690555">
        <ele>153.454</ele>
        <time>2011-04-24T17:00:05Z</time>
      </trkpt>
      <trkpt lat="59.281198" lon="14.691246">
        <ele>152.691</ele>
        <time>2011-04-24T17:00:07Z</time>
      </trkpt>
      <trkpt lat="59.28092" lon="14.693014">
        <ele>153.165</ele>
        <time>2011-04-24T17:00:12Z</time>
      </trkpt>
      <trkpt lat="59.280609" lon="14.695575">
        <ele>155.677</ele>
        <time>2011-04-24T17:00:19Z</time>
      </trkpt>
      <trkpt lat="59.280516" lon="14.696317">
        <ele>156.464</ele>
        <time>2011-04-24T17:00:21Z</time>
      </trkpt>
      <trkpt lat="59.280194" lon="14.698527">
        <ele>156.998</ele>
        <time>2011-04-24T17:00:27Z</time>
      </trkpt>
      <trkpt lat="59.279523" lon="14.702094">
        <ele>154.083</ele>
        <time>2011-04-24T17:00:37Z</time>
      </trkpt>
      <trkpt lat="59.278678" lon="14.706718">
        <ele>156.04</ele>
        <time>2011-04-24T17:00:50Z</time>
      </trkpt>
      <trkpt lat="59.278488" lon="14.708202">
        <ele>157.02</ele>
        <time>2011-04-24T17:00:54Z</time>
      </trkpt>
      <trkpt lat="59.278402" lon="14.709715">
        <ele>157.024</ele>
        <time>2011-04-24T17:00:58Z</time>
      </trkpt>
      <trkpt lat="59.278405" lon="14.711615">
        <ele>157.504</ele>
        <time>2011-04-24T17:01:03Z</time>
      </trkpt>
      <trkpt lat="59.278437" lon="14.714654">
        <ele>157.103</ele>
        <time>2011-04-24T17:01:11Z</time>
      </trkpt>
      <trkpt lat="59.278328" lon="14.71655">
        <ele>156.814</ele>
        <time>2011-04-24T17:01:16Z</time>
      </trkpt>
      <trkpt lat="59.278087" lon="14.71953">
        <ele>156.773</ele>
        <time>2011-04-24T17:01:24Z</time>
      </trkpt>
      <trkpt lat="59.277833" lon="14.722531">
        <ele>155.271</ele>
        <time>2011-04-24T17:01:32Z</time>
      </trkpt>
      <trkpt lat="59.27748" lon="14.726555">
        <ele>159.574</ele>
        <time>2011-04-24T17:01:43Z</time>
      </trkpt>
      <trkpt lat="59.27715" lon="14.730295">
        <ele>166.55</ele>
        <time>2011-04-24T17:01:53Z</time>
      </trkpt>
      <trkpt lat="59.276733" lon="14.734831">
        <ele>170.102</ele>
        <time>2011-04-24T17:02:05Z</time>
      </trkpt>
      <trkpt lat="59.276352" lon="14.739331">
        <ele>165.933</ele>
        <time>2011-04-24T17:02:17Z</time>
      </trkpt>
      <trkpt lat="59.276207" lon="14.741969">
        <ele>163.575</ele>
        <time>2011-04-24T17:02:24Z</time>
      </trkpt>
      <trkpt lat="59.275996" lon="14.746483">
        <ele>162.492</ele>
        <time>2011-04-24T17:02:36Z</time>
      </trkpt>
      <trkpt lat="59.275785" lon="14.751381">
        <ele>169.594</ele>
        <time>2011-04-24T17:02:49Z</time>
      </trkpt>
      <trkpt lat="59.275608" lon="14.754024">
        <ele>172.84</ele>
        <time>2011-04-24T17:02:56Z</time>
      </trkpt>
      <trkpt lat="59.275335" lon="14.756616">
        <ele>175.026</ele>
        <time>2011-04-24T17:03:03Z</time>
      </trkpt>
      <trkpt lat="59.275011" lon="14.758827">
        <ele>175.613</ele>
        <time>2011-04-24T17:03:09Z</time>
      </trkpt>
      <trkpt lat="59.274557" lon="14.761322">
        <ele>175.309</ele>
        <time>2011-04-24T17:03:16Z</time>
      </trkpt>
      <trkpt lat="59.274023" lon="14.763679">
        <ele>177.798</ele>
        <time>2011-04-24T17:03:23Z</time>
      </trkpt>
      <trkpt lat="59.273264" lon="14.766694">
        <ele>184.656</ele>
        <time>2011-04-24T17:03:32Z</time>
      </trkpt>
      <trkpt lat="59.272499" lon="14.769763">
        <ele>186.915</ele>
        <time>2011-04-24T17:03:41Z</time>
      </trkpt>
      <trkpt lat="59.271299" lon="14.77452">
        <ele>188.696</ele>
        <time>2011-04-24T17:03:55Z</time>
      </trkpt>
      <trkpt lat="59.270349" lon="14.778261">
        <ele>192.159</ele>
        <time>2011-04-24T17:04:06Z</time>
      </trkpt>
      <trkpt lat="59.26938" lon="14.782461">
        <ele>186.585</ele>
        <time>2011-04-24T17:04:18Z</time>
      </trkpt>
      <trkpt lat="59.268583" lon="14.785991">
        <ele>176.327</ele>
        <time>2011-04-24T17:04:28Z</time>
      </trkpt>
      <trkpt lat="59.268107" lon="14.788052">
        <ele>172.736</ele>
        <time>2011-04-24T17:04:34Z</time>
      </trkpt>
      <trkpt lat="59.26725" lon="14.791401">
        <ele>170.591</ele>
        <time>2011-04-24T17:04:44Z</time>
      </trkpt>
      <trkpt lat="59.266269" lon="14.795169">
        <ele>168.767</ele>
        <time>2011-04-24T17:04:55Z</time>
      </trkpt>
      <trkpt lat="59.265641" lon="14.797548">
        <ele>165.451</ele>
        <time>2011-04-24T17:05:02Z</time>
      </trkpt>
      <trkpt lat="59.264788" lon="14.800506">
        <ele>162.276</ele>
        <time>2011-04-24T17:05:11Z</time>
      </trkpt>
      <trkpt lat="59.264227" lon="14.802033">
        <ele>162.083</ele>
        <time>2011-04-24T17:05:16Z</time>
      </trkpt>
      <trkpt lat="59.263133" lon="14.804705">
        <ele>162.304</ele>
        <time>2011-04-24T17:05:25Z</time>
      </trkpt>
      <trkpt lat="59.261887" lon="14.807643">
        <ele>161.551</ele>
        <time>2011-04-24T17:05:35Z</time>
      </trkpt>
      <trkpt lat="59.261316" lon="14.808658">
        <ele>159.049</ele>
        <time>2011-04-24T17:05:39Z</time>
      </trkpt>
      <trkpt lat="59.261165" lon="14.808892">
        <ele>158.799</ele>
        <time>2011-04-24T17:05:40Z</time>
      </trkpt>
      <trkpt lat="59.260371" lon="14.809955">
        <ele>158.669</ele>
        <time>2011-04-24T17:05:45Z</time>
      </trkpt>
      <trkpt lat="59.259499" lon="14.810801">
        <ele>158.666</ele>
        <time>2011-04-24T17:05:50Z</time>
      </trkpt>
      <trkpt lat="59.25787" lon="14.812101">
        <ele>157.834</ele>
        <time>2011-04-24T17:05:59Z</time>
      </trkpt>
      <trkpt lat="59.25702" lon="14.813037">
        <ele>156.451</ele>
        <time>2011-04-24T17:06:04Z</time>
      </trkpt>
      <trkpt lat="59.25624" lon="14.814158">
        <ele>154.551</ele>
        <time>2011-04-24T17:06:09Z</time>
      </trkpt>
      <trkpt lat="59.255538" lon="14.815477">
        <ele>151.817</ele>
        <time>2011-04-24T17:06:14Z</time>
      </trkpt>
      <trkpt lat="59.25492" lon="14.816963">
        <ele>149.716</ele>
        <time>2011-04-24T17:06:19Z</time>
      </trkpt>
      <trkpt lat="59.2539" lon="14.819763">
        <ele>142.797</ele>
        <time>2011-04-24T17:06:28Z</time>
      </trkpt>
      <trkpt lat="59.253264" lon="14.821698">
        <ele>136.798</ele>
        <time>2011-04-24T17:06:34Z</time>
      </trkpt>
      <trkpt lat="59.252848" lon="14.823433">
        <ele>132.115</ele>
        <time>2011-04-24T17:06:39Z</time>
      </trkpt>
      <trkpt lat="59.252542" lon="14.825252">
        <ele>125.332</ele>
        <time>2011-04-24T17:06:44Z</time>
      </trkpt>
      <trkpt lat="59.252227" lon="14.827834">
        <ele>118.901</ele>
        <time>2011-04-24T17:06:51Z</time>
      </trkpt>
      <trkpt lat="59.252101" lon="14.828936">
        <ele>117.326</ele>
        <time>2011-04-24T17:06:54Z</time>
      </trkpt>
      <trkpt lat="59.25189" lon="14.831165">
        <ele>114.738</ele>
        <time>2011-04-24T17:07:00Z</time>
      </trkpt>
      <trkpt lat="59.251677" lon="14.834575">
        <ele>110.93</ele>
        <time>2011-04-24T17:07:09Z</time>
      </trkpt>
      <trkpt lat="59.25156" lon="14.837973">
        <ele>109.749</ele>
        <time>2011-04-24T17:07:18Z</time>
      </trkpt>
      <trkpt lat="59.251543" lon="14.841378">
        <ele>110.016</ele>
        <time>2011-04-24T17:07:27Z</time>
      </trkpt>
      <trkpt lat="59.251616" lon="14.844795">
        <ele>108.853</ele>
        <time>2011-04-24T17:07:36Z</time>
      </trkpt>
      <trkpt lat="59.25179" lon="14.84822">
        <ele>107.044</ele>
        <time>2011-04-24T17:07:45Z</time>
      </trkpt>
      <trkpt lat="59.252053" lon="14.851586">
        <ele>107.059</ele>
        <time>2011-04-24T17:07:54Z</time>
      </trkpt>
      <trkpt lat="59.252433" lon="14.855691">
        <ele>106.041</ele>
        <time>2011-04-24T17:08:05Z</time>
      </trkpt>
      <trkpt lat="59.252938" lon="14.861305">
        <ele>106.583</ele>
        <time>2011-04-24T17:08:20Z</time>
      </trkpt>
      <trkpt lat="59.253381" lon="14.866171">
        <ele>107.293</ele>
        <time>2011-04-24T17:08:33Z</time>
      </trkpt>
      <trkpt lat="59.2538" lon="14.871057">
        <ele>107.811</ele>
        <time>2011-04-24T17:08:46Z</time>
      </trkpt>
      <trkpt lat="59.254084" lon="14.875602">
        <ele>106.916</ele>
        <time>2011-04-24T17:08:58Z</time>
      </trkpt>
      <trkpt lat="59.254245" lon="14.879791">
        <ele>105.276</ele>
        <time>2011-04-24T17:09:09Z</time>
      </trkpt>
      <trkpt lat="59.254312" lon="14.883995">
        <ele>100.606</ele>
        <time>2011-04-24T17:09:20Z</time>
      </trkpt>
      <trkpt lat="59.254298" lon="14.88858">
        <ele>90.92</ele>
        <time>2011-04-24T17:09:32Z</time>
      </trkpt>
      <trkpt lat="59.254173" lon="14.892793">
        <ele>80.477</ele>
        <time>2011-04-24T17:09:43Z</time>
      </trkpt>
      <trkpt lat="59.253975" lon="14.896899">
        <ele>76.532</ele>
        <time>2011-04-24T17:09:54Z</time>
      </trkpt>
      <trkpt lat="59.253722" lon="14.900629">
        <ele>77.045</ele>
        <time>2011-04-24T17:10:04Z</time>
      </trkpt>
      <trkpt lat="59.253374" lon="14.904735">
        <ele>79.459</ele>
        <time>2011-04-24T17:10:15Z</time>
      </trkpt>
      <trkpt lat="59.252985" lon="14.908385">
        <ele>85.617</ele>
        <time>2011-04-24T17:10:25Z</time>
      </trkpt>
      <trkpt lat="59.252609" lon="14.911335">
        <ele>90.839</ele>
        <time>2011-04-24T17:10:33Z</time>
      </trkpt>
      <trkpt lat="59.252506" lon="14.91207">
        <ele>91.83</ele>
        <time>2011-04-24T17:10:35Z</time>
      </trkpt>
      <trkpt lat="59.252096" lon="14.914582">
        <ele>94.714</ele>
        <time>2011-04-24T17:10:42Z</time>
      </trkpt>
      <trkpt lat="59.251891" lon="14.91565">
        <ele>95.959</ele>
        <time>2011-04-24T17:10:45Z</time>
      </trkpt>
      <trkpt lat="59.251278" lon="14.918455">
        <ele>97.076</ele>
        <time>2011-04-24T17:10:53Z</time>
      </trkpt>
      <trkpt lat="59.25067" lon="14.920822">
        <ele>99.296</ele>
        <time>2011-04-24T17:11:00Z</time>
      </trkpt>
      <trkpt lat="59.249326" lon="14.925469">
        <ele>101.476</ele>
        <time>2011-04-24T17:11:14Z</time>
      </trkpt>
      <trkpt lat="59.248488" lon="14.928502">
        <ele>101.926</ele>
        <time>2011-04-24T17:11:23Z</time>
      </trkpt>
      <trkpt lat="59.247922" lon="14.930917">
        <ele>101.251</ele>
        <time>2011-04-24T17:11:30Z</time>
      </trkpt>
      <trkpt lat="59.247353" lon="14.933773">
        <ele>97.075</ele>
        <time>2011-04-24T17:11:38Z</time>
      </trkpt>
      <trkpt lat="59.246922" lon="14.936349">
        <ele>91.104</ele>
        <time>2011-04-24T17:11:45Z</time>
      </trkpt>
      <trkpt lat="59.246487" lon="14.939667">
        <ele>85.077</ele>
        <time>2011-04-24T17:11:54Z</time>
      </trkpt>
      <trkpt lat="59.246169" lon="14.943045">
        <ele>75.893</ele>
        <time>2011-04-24T17:12:03Z</time>
      </trkpt>
      <trkpt lat="59.245999" lon="14.946039">
        <ele>70.549</ele>
        <time>2011-04-24T17:12:11Z</time>
      </trkpt>
      <trkpt lat="59.245831" lon="14.949792">
        <ele>67.561</ele>
        <time>2011-04-24T17:12:21Z</time>
      </trkpt>
      <trkpt lat="59.245589" lon="14.95511">
        <ele>63.681</ele>
        <time>2011-04-24T17:12:35Z</time>
      </trkpt>
      <trkpt lat="59.245467" lon="14.959268">
        <ele>60.265</ele>
        <time>2011-04-24T17:12:46Z</time>
      </trkpt>
      <trkpt lat="59.245409" lon="14.963836">
        <ele>57.059</ele>
        <time>2011-04-24T17:12:58Z</time>
      </trkpt>
      <trkpt lat="59.245457" lon="14.96796">
        <ele>57.5</ele>
        <time>2011-04-24T17:13:09Z</time>
      </trkpt>
      <trkpt lat="59.245529" lon="14.971374">
        <ele>61.184</ele>
        <time>2011-04-24T17:13:18Z</time>
      </trkpt>
      <trkpt lat="59.245612" lon="14.975211">
        <ele>62.386</ele>
        <time>2011-04-24T17:13:28Z</time>
      </trkpt>
      <trkpt lat="59.245656" lon="14.979416">
        <ele>60.781</ele>
        <time>2011-04-24T17:13:39Z</time>
      </trkpt>
      <trkpt lat="59.245662" lon="14.980562">
        <ele>59.555</ele>
        <time>2011-04-24T17:13:42Z</time>
      </trkpt>
      <trkpt lat="59.245653" lon="14.984712">
        <ele>56.004</ele>
        <time>2011-04-24T17:13:53Z</time>
      </trkpt>
      <trkpt lat="59.245581" lon="14.988092">
        <ele>56.307</ele>
        <time>2011-04-24T17:14:02Z</time>
      </trkpt>
      <trkpt lat="59.245438" lon="14.991494">
        <ele>57.685</ele>
        <time>2011-04-24T17:14:11Z</time>
      </trkpt>
      <trkpt lat="59.245178" lon="14.99527">
        <ele>57.819</ele>
        <time>2011-04-24T17:14:21Z</time>
      </trkpt>
      <trkpt lat="59.24485" lon="14.998645">
        <ele>56.181</ele>
        <time>2011-04-24T17:14:30Z</time>
      </trkpt>
      <trkpt lat="59.24444" lon="15.001959">
        <ele>54.802</ele>
        <time>2011-04-24T17:14:39Z</time>
      </trkpt>
      <trkpt lat="59.243714" lon="15.007435">
        <ele>52.834</ele>
        <time>2011-04-24T17:14:54Z</time>
      </trkpt>
      <trkpt lat="59.243287" lon="15.011145">
        <ele>51.941</ele>
        <time>2011-04-24T17:15:04Z</time>
      </trkpt>
      <trkpt lat="59.243064" lon="15.013772">
        <ele>51.749</ele>
        <time>2011-04-24T17:15:11Z</time>
      </trkpt>
      <trkpt lat="59.24288" lon="15.017183">
        <ele>50.691</ele>
        <time>2011-04-24T17:15:20Z</time>
      </trkpt>
      <trkpt lat="59.24282" lon="15.020209">
        <ele>50.012</ele>
        <time>2011-04-24T17:15:28Z</time>
      </trkpt>
      <trkpt lat="59.242855" lon="15.023606">
        <ele>51.695</ele>
        <time>2011-04-24T17:15:37Z</time>
      </trkpt>
      <trkpt lat="59.242961" lon="15.026228">
        <ele>54.068</ele>
        <time>2011-04-24T17:15:44Z</time>
      </trkpt>
      <trkpt lat="59.243192" lon="15.029622">
        <ele>55.505</ele>
        <time>2011-04-24T17:15:53Z</time>
      </trkpt>
      <trkpt lat="59.243536" lon="15.032972">
        <ele>56.838</ele>
        <time>2011-04-24T17:16:02Z</time>
      </trkpt>
      <trkpt lat="59.243887" lon="15.035548">
        <ele>57.181</ele>
        <time>2011-04-24T17:16:09Z</time>
      </trkpt>
      <trkpt lat="59.24443" lon="15.038805">
        <ele>56.043</ele>
        <time>2011-04-24T17:16:18Z</time>
      </trkpt>
      <trkpt lat="59.245232" lon="15.04308">
        <ele>53.891</ele>
        <time>2011-04-24T17:16:30Z</time>
      </trkpt>
      <trkpt lat="59.246009" lon="15.047382">
        <ele>52.094</ele>
        <time>2011-04-24T17:16:42Z</time>
      </trkpt>
      <trkpt lat="59.246559" lon="15.051014">
        <ele>50.798</ele>
        <time>2011-04-24T17:16:52Z</time>
      </trkpt>
      <trkpt lat="59.246969" lon="15.054322">
        <ele>50.324</ele>
        <time>2011-04-24T17:17:01Z</time>
      </trkpt>
      <trkpt lat="59.247257" lon="15.057297">
        <ele>50.119</ele>
        <time>2011-04-24T17:17:09Z</time>
      </trkpt>
      <trkpt lat="59.247503" lon="15.060682">
        <ele>50.431</ele>
        <time>2011-04-24T17:17:18Z</time>
      </trkpt>
      <trkpt lat="59.247663" lon="15.064078">
        <ele>51.239</ele>
        <time>2011-04-24T17:17:27Z</time>
      </trkpt>
      <trkpt lat="59.24774" lon="15.067853">
        <ele>53.235</ele>
        <time>2011-04-24T17:17:37Z</time>
      </trkpt>
      <trkpt lat="59.247714" lon="15.070523">
        <ele>55.006</ele>
        <time>2011-04-24T17:17:44Z</time>
      </trkpt>
      <trkpt lat="59.247593" lon="15.073545">
        <ele>55.523</ele>
        <time>2011-04-24T17:17:52Z</time>
      </trkpt>
      <trkpt lat="59.247349" lon="15.076931">
        <ele>56.107</ele>
        <time>2011-04-24T17:18:01Z</time>
      </trkpt>
      <trkpt lat="59.247039" lon="15.0799">
        <ele>57.535</ele>
        <time>2011-04-24T17:18:09Z</time>
      </trkpt>
      <trkpt lat="59.246584" lon="15.083202">
        <ele>58.756</ele>
        <time>2011-04-24T17:18:18Z</time>
      </trkpt>
      <trkpt lat="59.246086" lon="15.086075">
        <ele>59.781</ele>
        <time>2011-04-24T17:18:26Z</time>
      </trkpt>
      <trkpt lat="59.245425" lon="15.089233">
        <ele>60.824</ele>
        <time>2011-04-24T17:18:35Z</time>
      </trkpt>
      <trkpt lat="59.244753" lon="15.091974">
        <ele>61.717</ele>
        <time>2011-04-24T17:18:43Z</time>
      </trkpt>
      <trkpt lat="59.243898" lon="15.094946">
        <ele>63.691</ele>
        <time>2011-04-24T17:18:52Z</time>
      </trkpt>
      <trkpt lat="59.242519" lon="15.09954">
        <ele>63.3</ele>
        <time>2011-04-24T17:19:06Z</time>
      </trkpt>
      <trkpt lat="59.241139" lon="15.104116">
        <ele>61.289</ele>
        <time>2011-04-24T17:19:20Z</time>
      </trkpt>
      <trkpt lat="59.239987" lon="15.10806">
        <ele>61.467</ele>
        <time>2011-04-24T17:19:32Z</time>
      </trkpt>
      <trkpt lat="59.23971" lon="15.109482">
        <ele>62.297</ele>
        <time>2011-04-24T17:19:36Z</time>
      </trkpt>
      <trkpt lat="59.239533" lon="15.11096">
        <ele>63.478</ele>
        <time>2011-04-24T17:19:40Z</time>
      </trkpt>
      <trkpt lat="59.23943" lon="15.112842">
        <ele>64.781</ele>
        <time>2011-04-24T17:19:45Z</time>
      </trkpt>
      <trkpt lat="59.239398" lon="15.115501">
        <ele>65.948</ele>
        <time>2011-04-24T17:19:52Z</time>
      </trkpt>
      <trkpt lat="59.239405" lon="15.119669">
        <ele>69.574</ele>
        <time>2011-04-24T17:20:03Z</time>
      </trkpt>
      <trkpt lat="59.239404" lon="15.124999">
        <ele>70.508</ele>
        <time>2011-04-24T17:20:17Z</time>
      </trkpt>
      <trkpt lat="59.239409" lon="15.129935">
        <ele>68.687</ele>
        <time>2011-04-24T17:20:30Z</time>
      </trkpt>
      <trkpt lat="59.239481" lon="15.131826">
        <ele>68.566</ele>
        <time>2011-04-24T17:20:35Z</time>
      </trkpt>
      <trkpt lat="59.23966" lon="15.133693">
        <ele>67.981</ele>
        <time>2011-04-24T17:20:40Z</time>
      </trkpt>
      <trkpt lat="59.23994" lon="15.135508">
        <ele>67.483</ele>
        <time>2011-04-24T17:20:45Z</time>
      </trkpt>
      <trkpt lat="59.24032" lon="15.137253">
        <ele>68.571</ele>
        <time>2011-04-24T17:20:50Z</time>
      </trkpt>
      <trkpt lat="59.24079" lon="15.138937">
        <ele>67.147</ele>
        <time>2011-04-24T17:20:55Z</time>
      </trkpt>
      <trkpt lat="59.24133" lon="15.140529">
        <ele>64.407</ele>
        <time>2011-04-24T17:21:00Z</time>
      </trkpt>
      <trkpt lat="59.242372" lon="15.143263">
        <ele>61.031</ele>
        <time>2011-04-24T17:21:09Z</time>
      </trkpt>
      <trkpt lat="59.242901" lon="15.144662">
        <ele>61.007</ele>
        <time>2011-04-24T17:21:14Z</time>
      </trkpt>
      <trkpt lat="59.243555" lon="15.146401">
        <ele>61.904</ele>
        <time>2011-04-24T17:21:21Z</time>
      </trkpt>
      <trkpt lat="59.244075" lon="15.147675">
        <ele>60.968</ele>
        <time>2011-04-24T17:21:27Z</time>
      </trkpt>
      <trkpt lat="59.244182" lon="15.147862">
        <ele>61.001</ele>
        <time>2011-04-24T17:21:28Z</time>
      </trkpt>
      <trkpt lat="59.244709" lon="15.148418">
        <ele>60.525</ele>
        <time>2011-04-24T17:21:32Z</time>
      </trkpt>
      <trkpt lat="59.24518" lon="15.148592">
        <ele>59.732</ele>
        <time>2011-04-24T17:21:35Z</time>
      </trkpt>
      <trkpt lat="59.245697" lon="15.148542">
        <ele>58.77</ele>
        <time>2011-04-24T17:21:38Z</time>
      </trkpt>
      <trkpt lat="59.246773" lon="15.148344">
        <ele>57.146</ele>
        <time>2011-04-24T17:21:44Z</time>
      </trkpt>
      <trkpt lat="59.247338" lon="15.148517">
        <ele>57.394</ele>
        <time>2011-04-24T17:21:47Z</time>
      </trkpt>
      <trkpt lat="59.247907" lon="15.148915">
        <ele>57.174</ele>
        <time>2011-04-24T17:21:50Z</time>
      </trkpt>
      <trkpt lat="59.248663" lon="15.149657">
        <ele>56.392</ele>
        <time>2011-04-24T17:21:54Z</time>
      </trkpt>
      <trkpt lat="59.249579" lon="15.150753">
        <ele>53.322</ele>
        <time>2011-04-24T17:21:59Z</time>
      </trkpt>
      <trkpt lat="59.25043" lon="15.151911">
        <ele>50.197</ele>
        <time>2011-04-24T17:22:04Z</time>
      </trkpt>
      <trkpt lat="59.251387" lon="15.153479">
        <ele>47.628</ele>
        <time>2011-04-24T17:22:10Z</time>
      </trkpt>
      <trkpt lat="59.25243" lon="15.155372">
        <ele>43.471</ele>
        <time>2011-04-24T17:22:17Z</time>
      </trkpt>
      <trkpt lat="59.253463" lon="15.157382">
        <ele>41.852</ele>
        <time>2011-04-24T17:22:24Z</time>
      </trkpt>
      <trkpt lat="59.254914" lon="15.160235">
        <ele>40.123</ele>
        <time>2011-04-24T17:22:34Z</time>
      </trkpt>
      <trkpt lat="59.256002" lon="15.162248">
        <ele>41.642</ele>
        <time>2011-04-24T17:22:41Z</time>
      </trkpt>
      <trkpt lat="59.257152" lon="15.164162">
        <ele>41.157</ele>
        <time>2011-04-24T17:22:48Z</time>
      </trkpt>
      <trkpt lat="59.2587" lon="15.166425">
        <ele>42.515</ele>
        <time>2011-04-24T17:22:57Z</time>
      </trkpt>
      <trkpt lat="59.259934" lon="15.168035">
        <ele>44.073</ele>
        <time>2011-04-24T17:23:04Z</time>
      </trkpt>
      <trkpt lat="59.261153" lon="15.169457">
        <ele>44.106</ele>
        <time>2011-04-24T17:23:11Z</time>
      </trkpt>
      <trkpt lat="59.262585" lon="15.170971">
        <ele>42.575</ele>
        <time>2011-04-24T17:23:19Z</time>
      </trkpt>
      <trkpt lat="59.263782" lon="15.172098">
        <ele>41.388</ele>
        <time>2011-04-24T17:23:25Z</time>
      </trkpt>
      <trkpt lat="59.265049" lon="15.173186">
        <ele>38.095</ele>
        <time>2011-04-24T17:23:31Z</time>
      </trkpt>
      <trkpt lat="59.266959" lon="15.174689">
        <ele>37.187</ele>
        <time>2011-04-24T17:23:40Z</time>
      </trkpt>
      <trkpt lat="59.268579" lon="15.175811">
        <ele>35.899</ele>
        <time>2011-04-24T17:23:48Z</time>
      </trkpt>
      <trkpt lat="59.270229" lon="15.176835">
        <ele>34.98</ele>
        <time>2011-04-24T17:23:56Z</time>
      </trkpt>
      <trkpt lat="59.272081" lon="15.177842">
        <ele>36.859</ele>
        <time>2011-04-24T17:24:05Z</time>
      </trkpt>
      <trkpt lat="59.274143" lon="15.178783">
        <ele>36.948</ele>
        <time>2011-04-24T17:24:15Z</time>
      </trkpt>
      <trkpt lat="59.27603" lon="15.179498">
        <ele>37.17</ele>
        <time>2011-04-24T17:24:24Z</time>
      </trkpt>
      <trkpt lat="59.277071" lon="15.179819">
        <ele>36.448</ele>
        <time>2011-04-24T17:24:29Z</time>
      </trkpt>
      <trkpt lat="59.27866" lon="15.180293">
        <ele>36.096</ele>
        <time>2011-04-24T17:24:37Z</time>
      </trkpt>
      <trkpt lat="59.280433" lon="15.180951">
        <ele>35.974</ele>
        <time>2011-04-24T17:24:46Z</time>
      </trkpt>
      <trkpt lat="59.282002" lon="15.181725">
        <ele>36.38</ele>
        <time>2011-04-24T17:24:54Z</time>
      </trkpt>
      <trkpt lat="59.283816" lon="15.182814">
        <ele>37.124</ele>
        <time>2011-04-24T17:25:03Z</time>
      </trkpt>
      <trkpt lat="59.285412" lon="15.183999">
        <ele>35.95</ele>
        <time>2011-04-24T17:25:11Z</time>
      </trkpt>
      <trkpt lat="59.286585" lon="15.184982">
        <ele>35.959</ele>
        <time>2011-04-24T17:25:17Z</time>
      </trkpt>
      <trkpt lat="59.288313" lon="15.186524">
        <ele>36.574</ele>
        <time>2011-04-24T17:25:26Z</time>
      </trkpt>
      <trkpt lat="59.289408" lon="15.187737">
        <ele>36.797</ele>
        <time>2011-04-24T17:25:32Z</time>
      </trkpt>
      <trkpt lat="59.290239" lon="15.188928">
        <ele>36.458</ele>
        <time>2011-04-24T17:25:37Z</time>
      </trkpt>
      <trkpt lat="59.29098" lon="15.190304">
        <ele>36.336</ele>
        <time>2011-04-24T17:25:42Z</time>
      </trkpt>
      <trkpt lat="59.291621" lon="15.19182">
        <ele>35.984</ele>
        <time>2011-04-24T17:25:47Z</time>
      </trkpt>
      <trkpt lat="59.292165" lon="15.193441">
        <ele>35.479</ele>
        <time>2011-04-24T17:25:52Z</time>
      </trkpt>
      <trkpt lat="59.292629" lon="15.195152">
        <ele>35.372</ele>
        <time>2011-04-24T17:25:57Z</time>
      </trkpt>
      <trkpt lat="59.293085" lon="15.197158">
        <ele>34.171</ele>
        <time>2011-04-24T17:26:03Z</time>
      </trkpt>
      <trkpt lat="59.293346" lon="15.198738">
        <ele>33.908</ele>
        <time>2011-04-24T17:26:08Z</time>
      </trkpt>
      <trkpt lat="59.293438" lon="15.199953">
        <ele>33.058</ele>
        <time>2011-04-24T17:26:12Z</time>
      </trkpt>
      <trkpt lat="59.293406" lon="15.200822">
        <ele>32.979</ele>
        <time>2011-04-24T17:26:15Z</time>
      </trkpt>
      <trkpt lat="59.293247" lon="15.20183">
        <ele>32.679</ele>
        <time>2011-04-24T17:26:19Z</time>
      </trkpt>
      <trkpt lat="59.293055" lon="15.20261">
        <ele>32.711</ele>
        <time>2011-04-24T17:26:23Z</time>
      </trkpt>
      <trkpt lat="59.292916" lon="15.203208">
        <ele>32.707</ele>
        <time>2011-04-24T17:26:27Z</time>
      </trkpt>
      <trkpt lat="59.29287" lon="15.203472">
        <ele>32.347</ele>
        <time>2011-04-24T17:26:30Z</time>
      </trkpt>
      <trkpt lat="59.29284" lon="15.203592">
        <ele>31.961</ele>
        <time>2011-04-24T17:26:35Z</time>
      </trkpt>
      <trkpt lat="59.29284" lon="15.203589">
        <ele>31.913</ele>
        <time>2011-04-24T17:26:36Z</time>
      </trkpt>
      <trkpt lat="59.2928" lon="15.203672">
        <ele>31.872</ele>
        <time>2011-04-24T17:26:41Z</time>
      </trkpt>
      <trkpt lat="59.292573" lon="15.203807">
        <ele>32.252</ele>
        <time>2011-04-24T17:26:45Z</time>
      </trkpt>
      <trkpt lat="59.291912" lon="15.203943">
        <ele>31.96</ele>
        <time>2011-04-24T17:26:52Z</time>
      </trkpt>
      <trkpt lat="59.290965" lon="15.203966">
        <ele>30.934</ele>
        <time>2011-04-24T17:27:01Z</time>
      </trkpt>
      <trkpt lat="59.290674" lon="15.203992">
        <ele>29.888</ele>
        <time>2011-04-24T17:27:05Z</time>
      </trkpt>
      <trkpt lat="59.290512" lon="15.204013">
        <ele>29.258</ele>
        <time>2011-04-24T17:27:09Z</time>
      </trkpt>
      <trkpt lat="59.290323" lon="15.204037">
        <ele>29.111</ele>
        <time>2011-04-24T17:27:15Z</time>
      </trkpt>
      <trkpt lat="59.290025" lon="15.204073">
        <ele>29.745</ele>
        <time>2011-04-24T17:27:19Z</time>
      </trkpt>
      <trkpt lat="59.289433" lon="15.204145">
        <ele>30.414</ele>
        <time>2011-04-24T17:27:25Z</time>
      </trkpt>
      <trkpt lat="59.28856" lon="15.20425">
        <ele>29.724</ele>
        <time>2011-04-24T17:27:34Z</time>
      </trkpt>
      <trkpt lat="59.288174" lon="15.204292">
        <ele>28.758</ele>
        <time>2011-04-24T17:27:39Z</time>
      </trkpt>
      <trkpt lat="59.28756" lon="15.204326">
        <ele>28.377</ele>
        <time>2011-04-24T17:27:48Z</time>
      </trkpt>
      <trkpt lat="59.287406" lon="15.204281">
        <ele>28.093</ele>
        <time>2011-04-24T17:27:52Z</time>
      </trkpt>
      <trkpt lat="59.287384" lon="15.204273">
        <ele>28.076</ele>
        <time>2011-04-24T17:27:55Z</time>
      </trkpt>
      <trkpt lat="59.287359" lon="15.204269">
        <ele>27.901</ele>
        <time>2011-04-24T17:28:04Z</time>
      </trkpt>
      <trkpt lat="59.287332" lon="15.204292">
        <ele>27.851</ele>
        <time>2011-04-24T17:28:06Z</time>
      </trkpt>
      <trkpt lat="59.287341" lon="15.20443">
        <ele>27.919</ele>
        <time>2011-04-24T17:28:11Z</time>
      </trkpt>
      <trkpt lat="59.287405" lon="15.204462">
        <ele>27.849</ele>
        <time>2011-04-24T17:28:13Z</time>
      </trkpt>
      <trkpt lat="59.287686" lon="15.204513">
        <ele>28.227</ele>
        <time>2011-04-24T17:28:18Z</time>
      </trkpt>
      <trkpt lat="59.288047" lon="15.204514">
        <ele>28.277</ele>
        <time>2011-04-24T17:28:24Z</time>
      </trkpt>
      <trkpt lat="59.288183" lon="15.204471">
        <ele>28.065</ele>
        <time>2011-04-24T17:28:28Z</time>
      </trkpt>
      <trkpt lat="59.2883" lon="15.204366">
        <ele>28.169</ele>
        <time>2011-04-24T17:28:34Z</time>
      </trkpt>
      <trkpt lat="59.288319" lon="15.204304">
        <ele>28.271</ele>
        <time>2011-04-24T17:28:35Z</time>
      </trkpt>
      <trkpt lat="59.288321" lon="15.20376">
        <ele>28.74</ele>
        <time>2011-04-24T17:28:41Z</time>
      </trkpt>
      <trkpt lat="59.288296" lon="15.203405">
        <ele>28.9</ele>
        <time>2011-04-24T17:28:46Z</time>
      </trkpt>
      <trkpt lat="59.288229" lon="15.203315">
        <ele>28.768</ele>
        <time>2011-04-24T17:28:50Z</time>
      </trkpt>
      <trkpt lat="59.288098" lon="15.203346">
        <ele>28.719</ele>
        <time>2011-04-24T17:28:56Z</time>
      </trkpt>
      <trkpt lat="59.288066" lon="15.203381">
        <ele>28.68</ele>
        <time>2011-04-24T17:28:57Z</time>
      </trkpt>
      <trkpt lat="59.287917" lon="15.203683">
        <ele>28.264</ele>
        <time>2011-04-24T17:29:03Z</time>
      </trkpt>
      <trkpt lat="59.287815" lon="15.203849">
        <ele>28.152</ele>
        <time>2011-04-24T17:29:11Z</time>
      </trkpt>
      <trkpt lat="59.287712" lon="15.203861">
        <ele>28.27</ele>
        <time>2011-04-24T17:29:18Z</time>
      </trkpt>
      <trkpt lat="59.287704" lon="15.203861">
        <ele>28.344</ele>
        <time>2011-04-24T17:29:20Z</time>
      </trkpt>
      <trkpt lat="59.287668" lon="15.203863">
        <ele>28.369</ele>
        <time>2011-04-24T17:33:11Z</time>
      </trkpt>
      <trkpt lat="59.287547" lon="15.203811">
        <ele>28.464</ele>
        <time>2011-04-24T17:33:16Z</time>
      </trkpt>
      <trkpt lat="59.287478" lon="15.203685">
        <ele>28.536</ele>
        <time>2011-04-24T17:33:20Z</time>
      </trkpt>
      <trkpt lat="59.287481" lon="15.203454">
        <ele>28.456</ele>
        <time>2011-04-24T17:33:25Z</time>
      </trkpt>
      <trkpt lat="59.287566" lon="15.203331">
        <ele>28.531</ele>
        <time>2011-04-24T17:33:30Z</time>
      </trkpt>
      <trkpt lat="59.287736" lon="15.203386">
        <ele>28.675</ele>
        <time>2011-04-24T17:33:36Z</time>
      </trkpt>
      <trkpt lat="59.287995" lon="15.203456">
        <ele>28.341</ele>
        <time>2011-04-24T17:33:44Z</time>
      </trkpt>
      <trkpt lat="59.288131" lon="15.20335">
        <ele>28.41</ele>
        <time>2011-04-24T17:33:49Z</time>
      </trkpt>
      <trkpt lat="59.288234" lon="15.20343">
        <ele>28.362</ele>
        <time>2011-04-24T17:33:55Z</time>
      </trkpt>
      <trkpt lat="59.288261" lon="15.20375">
        <ele>28.401</ele>
        <time>2011-04-24T17:34:00Z</time>
      </trkpt>
      <trkpt lat="59.288269" lon="15.204097">
        <ele>28.113</ele>
        <time>2011-04-24T17:34:06Z</time>
      </trkpt>
      <trkpt lat="59.288269" lon="15.204123">
        <ele>27.991</ele>
        <time>2011-04-24T17:34:09Z</time>
      </trkpt>
      <trkpt lat="59.288272" lon="15.204201">
        <ele>27.836</ele>
        <time>2011-04-24T17:34:14Z</time>
      </trkpt>
      <trkpt lat="59.288323" lon="15.204422">
        <ele>27.747</ele>
        <time>2011-04-24T17:34:18Z</time>
      </trkpt>
      <trkpt lat="59.28851" lon="15.204537">
        <ele>28.121</ele>
        <time>2011-04-24T17:34:22Z</time>
      </trkpt>
      <trkpt lat="59.28899" lon="15.204488">
        <ele>28.559</ele>
        <time>2011-04-24T17:34:28Z</time>
      </trkpt>
      <trkpt lat="59.2898" lon="15.204377">
        <ele>29.425</ele>
        <time>2011-04-24T17:34:37Z</time>
      </trkpt>
      <trkpt lat="59.290244" lon="15.20432">
        <ele>29.149</ele>
        <time>2011-04-24T17:34:42Z</time>
      </trkpt>
      <trkpt lat="59.290404" lon="15.204304">
        <ele>29.035</ele>
        <time>2011-04-24T17:34:45Z</time>
      </trkpt>
      <trkpt lat="59.290759" lon="15.204268">
        <ele>29.271</ele>
        <time>2011-04-24T17:34:52Z</time>
      </trkpt>
      <trkpt lat="59.291074" lon="15.204232">
        <ele>29.81</ele>
        <time>2011-04-24T17:34:56Z</time>
      </trkpt>
      <trkpt lat="59.291576" lon="15.204169">
        <ele>30.79</ele>
        <time>2011-04-24T17:35:01Z</time>
      </trkpt>
      <trkpt lat="59.292861" lon="15.203985">
        <ele>33.131</ele>
        <time>2011-04-24T17:35:13Z</time>
      </trkpt>
      <trkpt lat="59.29343" lon="15.203907">
        <ele>33.825</ele>
        <time>2011-04-24T17:35:19Z</time>
      </trkpt>
      <trkpt lat="59.29379" lon="15.204079">
        <ele>32.433</ele>
        <time>2011-04-24T17:35:23Z</time>
      </trkpt>
      <trkpt lat="59.293988" lon="15.204414">
        <ele>30.672</ele>
        <time>2011-04-24T17:35:26Z</time>
      </trkpt>
      <trkpt lat="59.294079" lon="15.204693">
        <ele>30.005</ele>
        <time>2011-04-24T17:35:28Z</time>
      </trkpt>
      <trkpt lat="59.294144" lon="15.205029">
        <ele>29.872</ele>
        <time>2011-04-24T17:35:30Z</time>
      </trkpt>
      <trkpt lat="59.29427" lon="15.206131">
        <ele>31.02</ele>
        <time>2011-04-24T17:35:35Z</time>
      </trkpt>
      <trkpt lat="59.294384" lon="15.207228">
        <ele>31.655</ele>
        <time>2011-04-24T17:35:39Z</time>
      </trkpt>
      <trkpt lat="59.29455" lon="15.209105">
        <ele>31.55</ele>
        <time>2011-04-24T17:35:45Z</time>
      </trkpt>
      <trkpt lat="59.294732" lon="15.211153">
        <ele>31.394</ele>
        <time>2011-04-24T17:35:51Z</time>
      </trkpt>
      <trkpt lat="59.294884" lon="15.213296">
        <ele>30.501</ele>
        <time>2011-04-24T17:35:57Z</time>
      </trkpt>
      <trkpt lat="59.295097" lon="15.21666">
        <ele>34.512</ele>
        <time>2011-04-24T17:36:07Z</time>
      </trkpt>
      <trkpt lat="59.295239" lon="15.219433">
        <ele>39.425</ele>
        <time>2011-04-24T17:36:15Z</time>
      </trkpt>
      <trkpt lat="59.295292" lon="15.220526">
        <ele>40.909</ele>
        <time>2011-04-24T17:36:18Z</time>
      </trkpt>
      <trkpt lat="59.29543" lon="15.223931">
        <ele>43.334</ele>
        <time>2011-04-24T17:36:27Z</time>
      </trkpt>
      <trkpt lat="59.29552" lon="15.226926">
        <ele>42.01</ele>
        <time>2011-04-24T17:36:35Z</time>
      </trkpt>
      <trkpt lat="59.295553" lon="15.228247">
        <ele>40.284</ele>
        <time>2011-04-24T17:36:39Z</time>
      </trkpt>
      <trkpt lat="59.29556" lon="15.228566">
        <ele>40.019</ele>
        <time>2011-04-24T17:36:40Z</time>
      </trkpt>
      <trkpt lat="59.2956" lon="15.230585">
        <ele>40.035</ele>
        <time>2011-04-24T17:36:46Z</time>
      </trkpt>
      <trkpt lat="59.29567" lon="15.232812">
        <ele>40.122</ele>
        <time>2011-04-24T17:36:52Z</time>
      </trkpt>
      <trkpt lat="59.295841" lon="15.235517">
        <ele>40.382</ele>
        <time>2011-04-24T17:36:59Z</time>
      </trkpt>
      <trkpt lat="59.296085" lon="15.237717">
        <ele>39.951</ele>
        <time>2011-04-24T17:37:05Z</time>
      </trkpt>
      <trkpt lat="59.29648" lon="15.240205">
        <ele>39.727</ele>
        <time>2011-04-24T17:37:12Z</time>
      </trkpt>
      <trkpt lat="59.296996" lon="15.242606">
        <ele>39.844</ele>
        <time>2011-04-24T17:37:19Z</time>
      </trkpt>
      <trkpt lat="59.297615" lon="15.244892">
        <ele>40.346</ele>
        <time>2011-04-24T17:37:26Z</time>
      </trkpt>
      <trkpt lat="59.298237" lon="15.246762">
        <ele>39.114</ele>
        <time>2011-04-24T17:37:32Z</time>
      </trkpt>
      <trkpt lat="59.298945" lon="15.248575">
        <ele>40.994</ele>
        <time>2011-04-24T17:37:38Z</time>
      </trkpt>
      <trkpt lat="59.299726" lon="15.250277">
        <ele>39.02</ele>
        <time>2011-04-24T17:37:44Z</time>
      </trkpt>
      <trkpt lat="59.30084" lon="15.25241">
        <ele>37.02</ele>
        <time>2011-04-24T17:37:52Z</time>
      </trkpt>
      <trkpt lat="59.30112" lon="15.252936">
        <ele>36.252</ele>
        <time>2011-04-24T17:37:54Z</time>
      </trkpt>
      <trkpt lat="59.302918" lon="15.256383">
        <ele>32.995</ele>
        <time>2011-04-24T17:38:07Z</time>
      </trkpt>
      <trkpt lat="59.303803" lon="15.258376">
        <ele>32.277</ele>
        <time>2011-04-24T17:38:14Z</time>
      </trkpt>
      <trkpt lat="59.304504" lon="15.260192">
        <ele>32.018</ele>
        <time>2011-04-24T17:38:20Z</time>
      </trkpt>
      <trkpt lat="59.305232" lon="15.262426">
        <ele>31.982</ele>
        <time>2011-04-24T17:38:27Z</time>
      </trkpt>
      <trkpt lat="59.305963" lon="15.265101">
        <ele>31.783</ele>
        <time>2011-04-24T17:38:35Z</time>
      </trkpt>
      <trkpt lat="59.306499" lon="15.267531">
        <ele>31.985</ele>
        <time>2011-04-24T17:38:42Z</time>
      </trkpt>
      <trkpt lat="59.306937" lon="15.270034">
        <ele>33.007</ele>
        <time>2011-04-24T17:38:49Z</time>
      </trkpt>
      <trkpt lat="59.307276" lon="15.272597">
        <ele>32.934</ele>
        <time>2011-04-24T17:38:56Z</time>
      </trkpt>
      <trkpt lat="59.307514" lon="15.275214">
        <ele>32.59</ele>
        <time>2011-04-24T17:39:03Z</time>
      </trkpt>
      <trkpt lat="59.307652" lon="15.277848">
        <ele>32.149</ele>
        <time>2011-04-24T17:39:10Z</time>
      </trkpt>
      <trkpt lat="59.307682" lon="15.280121">
        <ele>31.604</ele>
        <time>2011-04-24T17:39:16Z</time>
      </trkpt>
      <trkpt lat="59.307617" lon="15.283139">
        <ele>31.664</ele>
        <time>2011-04-24T17:39:24Z</time>
      </trkpt>
      <trkpt lat="59.307413" lon="15.288793">
        <ele>34.656</ele>
        <time>2011-04-24T17:39:39Z</time>
      </trkpt>
      <trkpt lat="59.307246" lon="15.293341">
        <ele>34.656</ele>
        <time>2011-04-24T17:39:51Z</time>
      </trkpt>
      <trkpt lat="59.307052" lon="15.299021">
        <ele>34.381</ele>
        <time>2011-04-24T17:40:06Z</time>
      </trkpt>
      <trkpt lat="59.306863" lon="15.30431">
        <ele>31.999</ele>
        <time>2011-04-24T17:40:20Z</time>
      </trkpt>
      <trkpt lat="59.306707" lon="15.308839">
        <ele>31.848</ele>
        <time>2011-04-24T17:40:32Z</time>
      </trkpt>
      <trkpt lat="59.30651" lon="15.314498">
        <ele>31.256</ele>
        <time>2011-04-24T17:40:47Z</time>
      </trkpt>
      <trkpt lat="59.306426" lon="15.318276">
        <ele>33.215</ele>
        <time>2011-04-24T17:40:57Z</time>
      </trkpt>
      <trkpt lat="59.306464" lon="15.321676">
        <ele>34.819</ele>
        <time>2011-04-24T17:41:06Z</time>
      </trkpt>
      <trkpt lat="59.306617" lon="15.325087">
        <ele>35.15</ele>
        <time>2011-04-24T17:41:15Z</time>
      </trkpt>
      <trkpt lat="59.306843" lon="15.329604">
        <ele>33.627</ele>
        <time>2011-04-24T17:41:27Z</time>
      </trkpt>
      <trkpt lat="59.307023" lon="15.333745">
        <ele>32.52</ele>
        <time>2011-04-24T17:41:38Z</time>
      </trkpt>
      <trkpt lat="59.307113" lon="15.33791">
        <ele>32.222</ele>
        <time>2011-04-24T17:41:49Z</time>
      </trkpt>
      <trkpt lat="59.30713" lon="15.340934">
        <ele>31.954</ele>
        <time>2011-04-24T17:41:57Z</time>
      </trkpt>
      <trkpt lat="59.307106" lon="15.34547">
        <ele>33.694</ele>
        <time>2011-04-24T17:42:09Z</time>
      </trkpt>
      <trkpt lat="59.307027" lon="15.350771">
        <ele>35.906</ele>
        <time>2011-04-24T17:42:23Z</time>
      </trkpt>
      <trkpt lat="59.306909" lon="15.355309">
        <ele>35.287</ele>
        <time>2011-04-24T17:42:35Z</time>
      </trkpt>
      <trkpt lat="59.306714" lon="15.360603">
        <ele>34.371</ele>
        <time>2011-04-24T17:42:49Z</time>
      </trkpt>
      <trkpt lat="59.306457" lon="15.366628">
        <ele>32.763</ele>
        <time>2011-04-24T17:43:05Z</time>
      </trkpt>
      <trkpt lat="59.306398" lon="15.370033">
        <ele>33.071</ele>
        <time>2011-04-24T17:43:14Z</time>
      </trkpt>
      <trkpt lat="59.30644" lon="15.372683">
        <ele>33.505</ele>
        <time>2011-04-24T17:43:21Z</time>
      </trkpt>
      <trkpt lat="59.30657" lon="15.375706">
        <ele>33.42</ele>
        <time>2011-04-24T17:43:29Z</time>
      </trkpt>
      <trkpt lat="59.306907" lon="15.381357">
        <ele>31.997</ele>
        <time>2011-04-24T17:43:44Z</time>
      </trkpt>
      <trkpt lat="59.307229" lon="15.386614">
        <ele>31.38</ele>
        <time>2011-04-24T17:43:58Z</time>
      </trkpt>
      <trkpt lat="59.307505" lon="15.391111">
        <ele>32.232</ele>
        <time>2011-04-24T17:44:10Z</time>
      </trkpt>
      <trkpt lat="59.307779" lon="15.395614">
        <ele>34.854</ele>
        <time>2011-04-24T17:44:22Z</time>
      </trkpt>
      <trkpt lat="59.308105" lon="15.400896">
        <ele>36.69</ele>
        <time>2011-04-24T17:44:36Z</time>
      </trkpt>
      <trkpt lat="59.308449" lon="15.406532">
        <ele>35.416</ele>
        <time>2011-04-24T17:44:51Z</time>
      </trkpt>
      <trkpt lat="59.308718" lon="15.409899">
        <ele>34.001</ele>
        <time>2011-04-24T17:45:00Z</time>
      </trkpt>
      <trkpt lat="59.309033" lon="15.41247">
        <ele>33.504</ele>
        <time>2011-04-24T17:45:07Z</time>
      </trkpt>
      <trkpt lat="59.309502" lon="15.415361">
        <ele>32.874</ele>
        <time>2011-04-24T17:45:15Z</time>
      </trkpt>
      <trkpt lat="59.309998" lon="15.417818">
        <ele>33.702</ele>
        <time>2011-04-24T17:45:22Z</time>
      </trkpt>
      <trkpt lat="59.310743" lon="15.420901">
        <ele>35.387</ele>
        <time>2011-04-24T17:45:31Z</time>
      </trkpt>
      <trkpt lat="59.31209" lon="15.426351">
        <ele>38.064</ele>
        <time>2011-04-24T17:45:47Z</time>
      </trkpt>
      <trkpt lat="59.313357" lon="15.431473">
        <ele>40.525</ele>
        <time>2011-04-24T17:46:02Z</time>
      </trkpt>
      <trkpt lat="59.314113" lon="15.434545">
        <ele>42.202</ele>
        <time>2011-04-24T17:46:11Z</time>
      </trkpt>
      <trkpt lat="59.314576" lon="15.436638">
        <ele>42.905</ele>
        <time>2011-04-24T17:46:17Z</time>
      </trkpt>
      <trkpt lat="59.315169" lon="15.439853">
        <ele>41.55</ele>
        <time>2011-04-24T17:46:26Z</time>
      </trkpt>
      <trkpt lat="59.315579" lon="15.442775">
        <ele>40.189</ele>
        <time>2011-04-24T17:46:34Z</time>
      </trkpt>
      <trkpt lat="59.315885" lon="15.445726">
        <ele>39.59</ele>
        <time>2011-04-24T17:46:42Z</time>
      </trkpt>
      <trkpt lat="59.316093" lon="15.448732">
        <ele>39.836</ele>
        <time>2011-04-24T17:46:50Z</time>
      </trkpt>
      <trkpt lat="59.31636" lon="15.453319">
        <ele>39.736</ele>
        <time>2011-04-24T17:47:02Z</time>
      </trkpt>
      <trkpt lat="59.316654" lon="15.458264">
        <ele>37.063</ele>
        <time>2011-04-24T17:47:15Z</time>
      </trkpt>
      <trkpt lat="59.316891" lon="15.461682">
        <ele>38.262</ele>
        <time>2011-04-24T17:47:24Z</time>
      </trkpt>
      <trkpt lat="59.317097" lon="15.463586">
        <ele>39.077</ele>
        <time>2011-04-24T17:47:29Z</time>
      </trkpt>
      <trkpt lat="59.317444" lon="15.465805">
        <ele>40.4</ele>
        <time>2011-04-24T17:47:35Z</time>
      </trkpt>
      <trkpt lat="59.317968" lon="15.468305">
        <ele>41.816</ele>
        <time>2011-04-24T17:47:42Z</time>
      </trkpt>
      <trkpt lat="59.318515" lon="15.470368">
        <ele>42.785</ele>
        <time>2011-04-24T17:47:48Z</time>
      </trkpt>
      <trkpt lat="59.319164" lon="15.472337">
        <ele>43.455</ele>
        <time>2011-04-24T17:47:54Z</time>
      </trkpt>
      <trkpt lat="59.320119" lon="15.47483">
        <ele>42.457</ele>
        <time>2011-04-24T17:48:02Z</time>
      </trkpt>
      <trkpt lat="59.321422" lon="15.478263">
        <ele>38.209</ele>
        <time>2011-04-24T17:48:13Z</time>
      </trkpt>
      <trkpt lat="59.322167" lon="15.480536">
        <ele>36.583</ele>
        <time>2011-04-24T17:48:20Z</time>
      </trkpt>
      <trkpt lat="59.323038" lon="15.483553">
        <ele>35.669</ele>
        <time>2011-04-24T17:48:29Z</time>
      </trkpt>
      <trkpt lat="59.323795" lon="15.486677">
        <ele>35.701</ele>
        <time>2011-04-24T17:48:38Z</time>
      </trkpt>
      <trkpt lat="59.324628" lon="15.490619">
        <ele>33.781</ele>
        <time>2011-04-24T17:48:49Z</time>
      </trkpt>
      <trkpt lat="59.325602" lon="15.495248">
        <ele>34.855</ele>
        <time>2011-04-24T17:49:02Z</time>
      </trkpt>
      <trkpt lat="59.326603" lon="15.499908">
        <ele>36.225</ele>
        <time>2011-04-24T17:49:15Z</time>
      </trkpt>
      <trkpt lat="59.327094" lon="15.502034">
        <ele>36.249</ele>
        <time>2011-04-24T17:49:21Z</time>
      </trkpt>
      <trkpt lat="59.328249" lon="15.50699">
        <ele>34.123</ele>
        <time>2011-04-24T17:49:35Z</time>
      </trkpt>
      <trkpt lat="59.329011" lon="15.510558">
        <ele>32.356</ele>
        <time>2011-04-24T17:49:45Z</time>
      </trkpt>
      <trkpt lat="59.329611" lon="15.513822">
        <ele>31.534</ele>
        <time>2011-04-24T17:49:54Z</time>
      </trkpt>
      <trkpt lat="59.330191" lon="15.5175">
        <ele>30.666</ele>
        <time>2011-04-24T17:50:04Z</time>
      </trkpt>
      <trkpt lat="59.330776" lon="15.52078">
        <ele>32.31</ele>
        <time>2011-04-24T17:50:13Z</time>
      </trkpt>
      <trkpt lat="59.331265" lon="15.522923">
        <ele>32.77</ele>
        <time>2011-04-24T17:50:19Z</time>
      </trkpt>
      <trkpt lat="59.331926" lon="15.525317">
        <ele>32.387</ele>
        <time>2011-04-24T17:50:26Z</time>
      </trkpt>
      <trkpt lat="59.332778" lon="15.527925">
        <ele>32.134</ele>
        <time>2011-04-24T17:50:34Z</time>
      </trkpt>
      <trkpt lat="59.333624" lon="15.530072">
        <ele>31.709</ele>
        <time>2011-04-24T17:50:41Z</time>
      </trkpt>
      <trkpt lat="59.334553" lon="15.532102">
        <ele>30.756</ele>
        <time>2011-04-24T17:50:48Z</time>
      </trkpt>
      <trkpt lat="59.335537" lon="15.533994">
        <ele>29.982</ele>
        <time>2011-04-24T17:50:55Z</time>
      </trkpt>
      <trkpt lat="59.336126" lon="15.535039">
        <ele>30.601</ele>
        <time>2011-04-24T17:50:59Z</time>
      </trkpt>
      <trkpt lat="59.337896" lon="15.538091">
        <ele>35.111</ele>
        <time>2011-04-24T17:51:11Z</time>
      </trkpt>
      <trkpt lat="59.339257" lon="15.540357">
        <ele>39.346</ele>
        <time>2011-04-24T17:51:20Z</time>
      </trkpt>
      <trkpt lat="59.341093" lon="15.543368">
        <ele>42.99</ele>
        <time>2011-04-24T17:51:32Z</time>
      </trkpt>
      <trkpt lat="59.342936" lon="15.546297">
        <ele>44.249</ele>
        <time>2011-04-24T17:51:44Z</time>
      </trkpt>
      <trkpt lat="59.344957" lon="15.549386">
        <ele>45.364</ele>
        <time>2011-04-24T17:51:57Z</time>
      </trkpt>
      <trkpt lat="59.34669" lon="15.551986">
        <ele>45.958</ele>
        <time>2011-04-24T17:52:08Z</time>
      </trkpt>
      <trkpt lat="59.349396" lon="15.555874">
        <ele>48.226</ele>
        <time>2011-04-24T17:52:25Z</time>
      </trkpt>
      <trkpt lat="59.351493" lon="15.558776">
        <ele>49.118</ele>
        <time>2011-04-24T17:52:38Z</time>
      </trkpt>
      <trkpt lat="59.353618" lon="15.561634">
        <ele>50.986</ele>
        <time>2011-04-24T17:52:51Z</time>
      </trkpt>
      <trkpt lat="59.355936" lon="15.564638">
        <ele>50.439</ele>
        <time>2011-04-24T17:53:05Z</time>
      </trkpt>
      <trkpt lat="59.358112" lon="15.567357">
        <ele>49.832</ele>
        <time>2011-04-24T17:53:18Z</time>
      </trkpt>
      <trkpt lat="59.360141" lon="15.569805">
        <ele>47.262</ele>
        <time>2011-04-24T17:53:30Z</time>
      </trkpt>
      <trkpt lat="59.362508" lon="15.572589">
        <ele>46.11</ele>
        <time>2011-04-24T17:53:44Z</time>
      </trkpt>
      <trkpt lat="59.364533" lon="15.574973">
        <ele>45.224</ele>
        <time>2011-04-24T17:53:56Z</time>
      </trkpt>
      <trkpt lat="59.365837" lon="15.576682">
        <ele>46.881</ele>
        <time>2011-04-24T17:54:04Z</time>
      </trkpt>
      <trkpt lat="59.367102" lon="15.578568">
        <ele>48.906</ele>
        <time>2011-04-24T17:54:12Z</time>
      </trkpt>
      <trkpt lat="59.3683" lon="15.580599">
        <ele>49.794</ele>
        <time>2011-04-24T17:54:20Z</time>
      </trkpt>
      <trkpt lat="59.369708" lon="15.583339">
        <ele>50.038</ele>
        <time>2011-04-24T17:54:30Z</time>
      </trkpt>
      <trkpt lat="59.370744" lon="15.585702">
        <ele>48.678</ele>
        <time>2011-04-24T17:54:38Z</time>
      </trkpt>
      <trkpt lat="59.371816" lon="15.588485">
        <ele>47.844</ele>
        <time>2011-04-24T17:54:47Z</time>
      </trkpt>
      <trkpt lat="59.372675" lon="15.591091">
        <ele>46.643</ele>
        <time>2011-04-24T17:54:55Z</time>
      </trkpt>
      <trkpt lat="59.373359" lon="15.593432">
        <ele>46.877</ele>
        <time>2011-04-24T17:55:02Z</time>
      </trkpt>
      <trkpt lat="59.374053" lon="15.596184">
        <ele>48.983</ele>
        <time>2011-04-24T17:55:10Z</time>
      </trkpt>
      <trkpt lat="59.374519" lon="15.598314">
        <ele>51.622</ele>
        <time>2011-04-24T17:55:16Z</time>
      </trkpt>
      <trkpt lat="59.375062" lon="15.601219">
        <ele>55.297</ele>
        <time>2011-04-24T17:55:24Z</time>
      </trkpt>
      <trkpt lat="59.375507" lon="15.604207">
        <ele>58.264</ele>
        <time>2011-04-24T17:55:32Z</time>
      </trkpt>
      <trkpt lat="59.375852" lon="15.607231">
        <ele>61.703</ele>
        <time>2011-04-24T17:55:40Z</time>
      </trkpt>
      <trkpt lat="59.376103" lon="15.610313">
        <ele>63.834</ele>
        <time>2011-04-24T17:55:48Z</time>
      </trkpt>
      <trkpt lat="59.376257" lon="15.613416">
        <ele>63.83</ele>
        <time>2011-04-24T17:55:56Z</time>
      </trkpt>
      <trkpt lat="59.376373" lon="15.618098">
        <ele>61.204</ele>
        <time>2011-04-24T17:56:08Z</time>
      </trkpt>
      <trkpt lat="59.376484" lon="15.622769">
        <ele>55.997</ele>
        <time>2011-04-24T17:56:20Z</time>
      </trkpt>
      <trkpt lat="59.376619" lon="15.626246">
        <ele>52.21</ele>
        <time>2011-04-24T17:56:29Z</time>
      </trkpt>
      <trkpt lat="59.376844" lon="15.630487">
        <ele>48.832</ele>
        <time>2011-04-24T17:56:40Z</time>
      </trkpt>
      <trkpt lat="59.377136" lon="15.63429">
        <ele>48.092</ele>
        <time>2011-04-24T17:56:50Z</time>
      </trkpt>
      <trkpt lat="59.377538" lon="15.63808">
        <ele>47.92</ele>
        <time>2011-04-24T17:57:00Z</time>
      </trkpt>
      <trkpt lat="59.377993" lon="15.641466">
        <ele>48.39</ele>
        <time>2011-04-24T17:57:09Z</time>
      </trkpt>
      <trkpt lat="59.378597" lon="15.645171">
        <ele>47.413</ele>
        <time>2011-04-24T17:57:19Z</time>
      </trkpt>
      <trkpt lat="59.379302" lon="15.648798">
        <ele>46.219</ele>
        <time>2011-04-24T17:57:29Z</time>
      </trkpt>
      <trkpt lat="59.380101" lon="15.652363">
        <ele>45.048</ele>
        <time>2011-04-24T17:57:39Z</time>
      </trkpt>
      <trkpt lat="59.381162" lon="15.656522">
        <ele>43.851</ele>
        <time>2011-04-24T17:57:51Z</time>
      </trkpt>
      <trkpt lat="59.381873" lon="15.659251">
        <ele>45.999</ele>
        <time>2011-04-24T17:57:59Z</time>
      </trkpt>
      <trkpt lat="59.383213" lon="15.664371">
        <ele>54.003</ele>
        <time>2011-04-24T17:58:14Z</time>
      </trkpt>
      <trkpt lat="59.38435" lon="15.668467">
        <ele>63.139</ele>
        <time>2011-04-24T17:58:26Z</time>
      </trkpt>
      <trkpt lat="59.384544" lon="15.669153">
        <ele>63.98</ele>
        <time>2011-04-24T17:58:28Z</time>
      </trkpt>
      <trkpt lat="59.385723" lon="15.67323">
        <ele>68.267</ele>
        <time>2011-04-24T17:58:40Z</time>
      </trkpt>
      <trkpt lat="59.387014" lon="15.6776">
        <ele>71.143</ele>
        <time>2011-04-24T17:58:53Z</time>
      </trkpt>
      <trkpt lat="59.388345" lon="15.681942">
        <ele>71.958</ele>
        <time>2011-04-24T17:59:06Z</time>
      </trkpt>
      <trkpt lat="59.389924" lon="15.686904">
        <ele>70.552</ele>
        <time>2011-04-24T17:59:21Z</time>
      </trkpt>
      <trkpt lat="59.391649" lon="15.69215">
        <ele>66.811</ele>
        <time>2011-04-24T17:59:37Z</time>
      </trkpt>
      <trkpt lat="59.393197" lon="15.696674">
        <ele>62.63</ele>
        <time>2011-04-24T17:59:51Z</time>
      </trkpt>
      <trkpt lat="59.393984" lon="15.698919">
        <ele>60.698</ele>
        <time>2011-04-24T17:59:58Z</time>
      </trkpt>
      <trkpt lat="59.395335" lon="15.702762">
        <ele>56.812</ele>
        <time>2011-04-24T18:00:10Z</time>
      </trkpt>
      <trkpt lat="59.396873" lon="15.707252">
        <ele>52.986</ele>
        <time>2011-04-24T18:00:24Z</time>
      </trkpt>
      <trkpt lat="59.397785" lon="15.710238">
        <ele>50.311</ele>
        <time>2011-04-24T18:00:33Z</time>
      </trkpt>
      <trkpt lat="59.398599" lon="15.713305">
        <ele>49.453</ele>
        <time>2011-04-24T18:00:42Z</time>
      </trkpt>
      <trkpt lat="59.399154" lon="15.715763">
        <ele>50.683</ele>
        <time>2011-04-24T18:00:49Z</time>
      </trkpt>
      <trkpt lat="59.399572" lon="15.717913">
        <ele>53.228</ele>
        <time>2011-04-24T18:00:55Z</time>
      </trkpt>
      <trkpt lat="59.40007" lon="15.720866">
        <ele>56.257</ele>
        <time>2011-04-24T18:01:03Z</time>
      </trkpt>
      <trkpt lat="59.400467" lon="15.723868">
        <ele>58.688</ele>
        <time>2011-04-24T18:01:11Z</time>
      </trkpt>
      <trkpt lat="59.400874" lon="15.727681">
        <ele>58.457</ele>
        <time>2011-04-24T18:01:21Z</time>
      </trkpt>
      <trkpt lat="59.401252" lon="15.731895">
        <ele>56.256</ele>
        <time>2011-04-24T18:01:32Z</time>
      </trkpt>
      <trkpt lat="59.401325" lon="15.732658">
        <ele>55.546</ele>
        <time>2011-04-24T18:01:34Z</time>
      </trkpt>
      <trkpt lat="59.4018" lon="15.737614">
        <ele>51.921</ele>
        <time>2011-04-24T18:01:47Z</time>
      </trkpt>
      <trkpt lat="59.402302" lon="15.741769">
        <ele>47.432</ele>
        <time>2011-04-24T18:01:58Z</time>
      </trkpt>
      <trkpt lat="59.402869" lon="15.74549">
        <ele>43.38</ele>
        <time>2011-04-24T18:02:08Z</time>
      </trkpt>
      <trkpt lat="59.403466" lon="15.748788">
        <ele>39.908</ele>
        <time>2011-04-24T18:02:17Z</time>
      </trkpt>
      <trkpt lat="59.403538" lon="15.74915">
        <ele>39.644</ele>
        <time>2011-04-24T18:02:18Z</time>
      </trkpt>
      <trkpt lat="59.404241" lon="15.75236">
        <ele>34.811</ele>
        <time>2011-04-24T18:02:27Z</time>
      </trkpt>
      <trkpt lat="59.404412" lon="15.753061">
        <ele>34.077</ele>
        <time>2011-04-24T18:02:29Z</time>
      </trkpt>
      <trkpt lat="59.405063" lon="15.755457">
        <ele>31.252</ele>
        <time>2011-04-24T18:02:36Z</time>
      </trkpt>
      <trkpt lat="59.40559" lon="15.7571">
        <ele>28.493</ele>
        <time>2011-04-24T18:02:41Z</time>
      </trkpt>
      <trkpt lat="59.40652" lon="15.759615">
        <ele>24.345</ele>
        <time>2011-04-24T18:02:49Z</time>
      </trkpt>
      <trkpt lat="59.406898" lon="15.760518">
        <ele>22.582</ele>
        <time>2011-04-24T18:02:52Z</time>
      </trkpt>
      <trkpt lat="59.407705" lon="15.76224">
        <ele>19.078</ele>
        <time>2011-04-24T18:02:58Z</time>
      </trkpt>
      <trkpt lat="59.408706" lon="15.764104">
        <ele>17.2</ele>
        <time>2011-04-24T18:03:05Z</time>
      </trkpt>
      <trkpt lat="59.409783" lon="15.76581">
        <ele>14.592</ele>
        <time>2011-04-24T18:03:12Z</time>
      </trkpt>
      <trkpt lat="59.410914" lon="15.76736">
        <ele>13.245</ele>
        <time>2011-04-24T18:03:19Z</time>
      </trkpt>
      <trkpt lat="59.411939" lon="15.768544">
        <ele>13.274</ele>
        <time>2011-04-24T18:03:25Z</time>
      </trkpt>
      <trkpt lat="59.412985" lon="15.769585">
        <ele>15.082</ele>
        <time>2011-04-24T18:03:31Z</time>
      </trkpt>
      <trkpt lat="59.413164" lon="15.769745">
        <ele>15.318</ele>
        <time>2011-04-24T18:03:32Z</time>
      </trkpt>
      <trkpt lat="59.414623" lon="15.770958">
        <ele>17.952</ele>
        <time>2011-04-24T18:03:40Z</time>
      </trkpt>
      <trkpt lat="59.415911" lon="15.772108">
        <ele>20.987</ele>
        <time>2011-04-24T18:03:47Z</time>
      </trkpt>
      <trkpt lat="59.416866" lon="15.773187">
        <ele>22.022</ele>
        <time>2011-04-24T18:03:52Z</time>
      </trkpt>
      <trkpt lat="59.417766" lon="15.774417">
        <ele>21.722</ele>
        <time>2011-04-24T18:03:57Z</time>
      </trkpt>
      <trkpt lat="59.418749" lon="15.776061">
        <ele>21.576</ele>
        <time>2011-04-24T18:04:03Z</time>
      </trkpt>
      <trkpt lat="59.419494" lon="15.777593">
        <ele>20.832</ele>
        <time>2011-04-24T18:04:08Z</time>
      </trkpt>
      <trkpt lat="59.420161" lon="15.779255">
        <ele>20.64</ele>
        <time>2011-04-24T18:04:13Z</time>
      </trkpt>
      <trkpt lat="59.420747" lon="15.781029">
        <ele>20.834</ele>
        <time>2011-04-24T18:04:18Z</time>
      </trkpt>
      <trkpt lat="59.421371" lon="15.783263">
        <ele>20.232</ele>
        <time>2011-04-24T18:04:24Z</time>
      </trkpt>
      <trkpt lat="59.421792" lon="15.785206">
        <ele>20.329</ele>
        <time>2011-04-24T18:04:29Z</time>
      </trkpt>
      <trkpt lat="59.42219" lon="15.787626">
        <ele>19.912</ele>
        <time>2011-04-24T18:04:35Z</time>
      </trkpt>
      <trkpt lat="59.42241" lon="15.789695">
        <ele>19.732</ele>
        <time>2011-04-24T18:04:40Z</time>
      </trkpt>
      <trkpt lat="59.422564" lon="15.792222">
        <ele>19.6</ele>
        <time>2011-04-24T18:04:46Z</time>
      </trkpt>
      <trkpt lat="59.422589" lon="15.794332">
        <ele>20.207</ele>
        <time>2011-04-24T18:04:51Z</time>
      </trkpt>
      <trkpt lat="59.422519" lon="15.797303">
        <ele>20.595</ele>
        <time>2011-04-24T18:04:58Z</time>
      </trkpt>
      <trkpt lat="59.42248" lon="15.801111">
        <ele>21.161</ele>
        <time>2011-04-24T18:05:07Z</time>
      </trkpt>
      <trkpt lat="59.422546" lon="15.804507">
        <ele>21.535</ele>
        <time>2011-04-24T18:05:15Z</time>
      </trkpt>
      <trkpt lat="59.422706" lon="15.807883">
        <ele>22.008</ele>
        <time>2011-04-24T18:05:23Z</time>
      </trkpt>
      <trkpt lat="59.423" lon="15.811656">
        <ele>21.892</ele>
        <time>2011-04-24T18:05:32Z</time>
      </trkpt>
      <trkpt lat="59.42341" lon="15.81538">
        <ele>23.027</ele>
        <time>2011-04-24T18:05:41Z</time>
      </trkpt>
      <trkpt lat="59.424006" lon="15.819897">
        <ele>23.148</ele>
        <time>2011-04-24T18:05:52Z</time>
      </trkpt>
      <trkpt lat="59.424521" lon="15.82445">
        <ele>22.411</ele>
        <time>2011-04-24T18:06:03Z</time>
      </trkpt>
      <trkpt lat="59.4248" lon="15.827352">
        <ele>21.678</ele>
        <time>2011-04-24T18:06:10Z</time>
      </trkpt>
      <trkpt lat="59.425063" lon="15.83071">
        <ele>20.849</ele>
        <time>2011-04-24T18:06:18Z</time>
      </trkpt>
      <trkpt lat="59.425332" lon="15.835346">
        <ele>19.973</ele>
        <time>2011-04-24T18:06:29Z</time>
      </trkpt>
      <trkpt lat="59.425482" lon="15.839571">
        <ele>20.123</ele>
        <time>2011-04-24T18:06:39Z</time>
      </trkpt>
      <trkpt lat="59.425555" lon="15.844656">
        <ele>19.132</ele>
        <time>2011-04-24T18:06:51Z</time>
      </trkpt>
      <trkpt lat="59.425531" lon="15.848033">
        <ele>19.458</ele>
        <time>2011-04-24T18:06:59Z</time>
      </trkpt>
      <trkpt lat="59.425434" lon="15.85311">
        <ele>20.173</ele>
        <time>2011-04-24T18:07:11Z</time>
      </trkpt>
      <trkpt lat="59.425388" lon="15.855649">
        <ele>22.379</ele>
        <time>2011-04-24T18:07:17Z</time>
      </trkpt>
      <trkpt lat="59.425348" lon="15.859891">
        <ele>21.977</ele>
        <time>2011-04-24T18:07:27Z</time>
      </trkpt>
      <trkpt lat="59.42539" lon="15.864132">
        <ele>20.984</ele>
        <time>2011-04-24T18:07:37Z</time>
      </trkpt>
      <trkpt lat="59.425522" lon="15.867094">
        <ele>20.078</ele>
        <time>2011-04-24T18:07:44Z</time>
      </trkpt>
      <trkpt lat="59.425769" lon="15.870453">
        <ele>18.217</ele>
        <time>2011-04-24T18:07:52Z</time>
      </trkpt>
      <trkpt lat="59.426079" lon="15.873361">
        <ele>15.783</ele>
        <time>2011-04-24T18:07:59Z</time>
      </trkpt>
      <trkpt lat="59.426129" lon="15.873774">
        <ele>15.493</ele>
        <time>2011-04-24T18:08:00Z</time>
      </trkpt>
      <trkpt lat="59.426528" lon="15.876625">
        <ele>14.568</ele>
        <time>2011-04-24T18:08:07Z</time>
      </trkpt>
      <trkpt lat="59.427085" lon="15.879839">
        <ele>13.208</ele>
        <time>2011-04-24T18:08:15Z</time>
      </trkpt>
      <trkpt lat="59.42767" lon="15.882566">
        <ele>13.223</ele>
        <time>2011-04-24T18:08:22Z</time>
      </trkpt>
      <trkpt lat="59.428274" lon="15.884823">
        <ele>12.379</ele>
        <time>2011-04-24T18:08:28Z</time>
      </trkpt>
      <trkpt lat="59.428971" lon="15.88697">
        <ele>11.868</ele>
        <time>2011-04-24T18:08:34Z</time>
      </trkpt>
      <trkpt lat="59.429882" lon="15.889341">
        <ele>11.4</ele>
        <time>2011-04-24T18:08:41Z</time>
      </trkpt>
      <trkpt lat="59.430608" lon="15.890921">
        <ele>11.185</ele>
        <time>2011-04-24T18:08:46Z</time>
      </trkpt>
      <trkpt lat="59.431543" lon="15.892687">
        <ele>10.82</ele>
        <time>2011-04-24T18:08:52Z</time>
      </trkpt>
      <trkpt lat="59.432548" lon="15.8943">
        <ele>10.441</ele>
        <time>2011-04-24T18:08:58Z</time>
      </trkpt>
      <trkpt lat="59.433613" lon="15.895751">
        <ele>9.739</ele>
        <time>2011-04-24T18:09:04Z</time>
      </trkpt>
      <trkpt lat="59.434919" lon="15.897227">
        <ele>10.759</ele>
        <time>2011-04-24T18:09:11Z</time>
      </trkpt>
      <trkpt lat="59.436096" lon="15.8983">
        <ele>12.293</ele>
        <time>2011-04-24T18:09:17Z</time>
      </trkpt>
      <trkpt lat="59.437316" lon="15.899186">
        <ele>13.293</ele>
        <time>2011-04-24T18:09:23Z</time>
      </trkpt>
      <trkpt lat="59.438565" lon="15.899875">
        <ele>13.625</ele>
        <time>2011-04-24T18:09:29Z</time>
      </trkpt>
      <trkpt lat="59.440051" lon="15.90044">
        <ele>14.909</ele>
        <time>2011-04-24T18:09:36Z</time>
      </trkpt>
      <trkpt lat="59.441342" lon="15.9007">
        <ele>16.084</ele>
        <time>2011-04-24T18:09:42Z</time>
      </trkpt>
      <trkpt lat="59.442637" lon="15.900757">
        <ele>17.058</ele>
        <time>2011-04-24T18:09:48Z</time>
      </trkpt>
      <trkpt lat="59.443936" lon="15.900622">
        <ele>17.82</ele>
        <time>2011-04-24T18:09:54Z</time>
      </trkpt>
      <trkpt lat="59.445227" lon="15.900288">
        <ele>17.769</ele>
        <time>2011-04-24T18:10:00Z</time>
      </trkpt>
      <trkpt lat="59.448002" lon="15.899442">
        <ele>18.232</ele>
        <time>2011-04-24T18:10:13Z</time>
      </trkpt>
      <trkpt lat="59.45078" lon="15.898604">
        <ele>18.836</ele>
        <time>2011-04-24T18:10:26Z</time>
      </trkpt>
      <trkpt lat="59.452929" lon="15.898133">
        <ele>19.09</ele>
        <time>2011-04-24T18:10:36Z</time>
      </trkpt>
      <trkpt lat="59.455079" lon="15.897865">
        <ele>19.272</ele>
        <time>2011-04-24T18:10:46Z</time>
      </trkpt>
      <trkpt lat="59.457237" lon="15.897825">
        <ele>18.741</ele>
        <time>2011-04-24T18:10:56Z</time>
      </trkpt>
      <trkpt lat="59.459391" lon="15.897989">
        <ele>18.06</ele>
        <time>2011-04-24T18:11:06Z</time>
      </trkpt>
      <trkpt lat="59.461316" lon="15.898329">
        <ele>22.361</ele>
        <time>2011-04-24T18:11:15Z</time>
      </trkpt>
      <trkpt lat="59.462389" lon="15.898587">
        <ele>25.36</ele>
        <time>2011-04-24T18:11:20Z</time>
      </trkpt>
      <trkpt lat="59.464524" lon="15.899275">
        <ele>27.622</ele>
        <time>2011-04-24T18:11:30Z</time>
      </trkpt>
      <trkpt lat="59.466639" lon="15.900172">
        <ele>26.884</ele>
        <time>2011-04-24T18:11:40Z</time>
      </trkpt>
      <trkpt lat="59.468512" lon="15.901171">
        <ele>25.515</ele>
        <time>2011-04-24T18:11:49Z</time>
      </trkpt>
      <trkpt lat="59.470569" lon="15.902463">
        <ele>24.852</ele>
        <time>2011-04-24T18:11:59Z</time>
      </trkpt>
      <trkpt lat="59.473001" lon="15.904212">
        <ele>25.21</ele>
        <time>2011-04-24T18:12:11Z</time>
      </trkpt>
      <trkpt lat="59.476244" lon="15.906545">
        <ele>25.675</ele>
        <time>2011-04-24T18:12:27Z</time>
      </trkpt>
      <trkpt lat="59.479885" lon="15.909173">
        <ele>29.653</ele>
        <time>2011-04-24T18:12:45Z</time>
      </trkpt>
      <trkpt lat="59.480697" lon="15.909758">
        <ele>31.443</ele>
        <time>2011-04-24T18:12:49Z</time>
      </trkpt>
      <trkpt lat="59.483123" lon="15.911577">
        <ele>31.327</ele>
        <time>2011-04-24T18:13:01Z</time>
      </trkpt>
      <trkpt lat="59.485311" lon="15.91338">
        <ele>27.794</ele>
        <time>2011-04-24T18:13:12Z</time>
      </trkpt>
      <trkpt lat="59.487655" lon="15.915499">
        <ele>25.223</ele>
        <time>2011-04-24T18:13:24Z</time>
      </trkpt>
      <trkpt lat="59.489765" lon="15.917615">
        <ele>25.478</ele>
        <time>2011-04-24T18:13:35Z</time>
      </trkpt>
      <trkpt lat="59.491436" lon="15.919543">
        <ele>27.233</ele>
        <time>2011-04-24T18:13:44Z</time>
      </trkpt>
      <trkpt lat="59.493057" lon="15.921661">
        <ele>28.696</ele>
        <time>2011-04-24T18:13:53Z</time>
      </trkpt>
      <trkpt lat="59.494618" lon="15.923951">
        <ele>26.885</ele>
        <time>2011-04-24T18:14:02Z</time>
      </trkpt>
      <trkpt lat="59.496467" lon="15.926896">
        <ele>22.425</ele>
        <time>2011-04-24T18:14:13Z</time>
      </trkpt>
      <trkpt lat="59.498817" lon="15.930612">
        <ele>18.586</ele>
        <time>2011-04-24T18:14:27Z</time>
      </trkpt>
      <trkpt lat="59.500839" lon="15.933757">
        <ele>20.655</ele>
        <time>2011-04-24T18:14:39Z</time>
      </trkpt>
      <trkpt lat="59.502099" lon="15.935412">
        <ele>22.731</ele>
        <time>2011-04-24T18:14:46Z</time>
      </trkpt>
      <trkpt lat="59.50323" lon="15.936674">
        <ele>24.023</ele>
        <time>2011-04-24T18:14:52Z</time>
      </trkpt>
      <trkpt lat="59.504407" lon="15.93776">
        <ele>23.614</ele>
        <time>2011-04-24T18:14:58Z</time>
      </trkpt>
      <trkpt lat="59.506009" lon="15.939036">
        <ele>22.468</ele>
        <time>2011-04-24T18:15:06Z</time>
      </trkpt>
      <trkpt lat="59.508807" lon="15.941235">
        <ele>23.517</ele>
        <time>2011-04-24T18:15:20Z</time>
      </trkpt>
      <trkpt lat="59.509774" lon="15.942167">
        <ele>23.929</ele>
        <time>2011-04-24T18:15:25Z</time>
      </trkpt>
      <trkpt lat="59.510874" lon="15.943493">
        <ele>25.238</ele>
        <time>2011-04-24T18:15:31Z</time>
      </trkpt>
      <trkpt lat="59.511727" lon="15.94478">
        <ele>27.995</ele>
        <time>2011-04-24T18:15:36Z</time>
      </trkpt>
      <trkpt lat="59.512521" lon="15.946225">
        <ele>29.775</ele>
        <time>2011-04-24T18:15:41Z</time>
      </trkpt>
      <trkpt lat="59.513238" lon="15.947826">
        <ele>30.41</ele>
        <time>2011-04-24T18:15:46Z</time>
      </trkpt>
      <trkpt lat="59.513879" lon="15.949541">
        <ele>29.651</ele>
        <time>2011-04-24T18:15:51Z</time>
      </trkpt>
      <trkpt lat="59.514435" lon="15.951378">
        <ele>27.053</ele>
        <time>2011-04-24T18:15:56Z</time>
      </trkpt>
      <trkpt lat="59.514956" lon="15.953237">
        <ele>24.271</ele>
        <time>2011-04-24T18:16:01Z</time>
      </trkpt>
      <trkpt lat="59.516102" lon="15.957325">
        <ele>18.508</ele>
        <time>2011-04-24T18:16:12Z</time>
      </trkpt>
      <trkpt lat="59.517467" lon="15.962136">
        <ele>14.92</ele>
        <time>2011-04-24T18:16:25Z</time>
      </trkpt>
      <trkpt lat="59.51807" lon="15.963908">
        <ele>13.748</ele>
        <time>2011-04-24T18:16:30Z</time>
      </trkpt>
      <trkpt lat="59.518762" lon="15.965544">
        <ele>12.089</ele>
        <time>2011-04-24T18:16:35Z</time>
      </trkpt>
      <trkpt lat="59.519529" lon="15.967045">
        <ele>11</ele>
        <time>2011-04-24T18:16:40Z</time>
      </trkpt>
      <trkpt lat="59.520362" lon="15.9684">
        <ele>9.828</ele>
        <time>2011-04-24T18:16:45Z</time>
      </trkpt>
      <trkpt lat="59.521235" lon="15.96963">
        <ele>9.099</ele>
        <time>2011-04-24T18:16:50Z</time>
      </trkpt>
      <trkpt lat="59.523526" lon="15.972829">
        <ele>9.677</ele>
        <time>2011-04-24T18:17:03Z</time>
      </trkpt>
      <trkpt lat="59.525815" lon="15.976021">
        <ele>10.141</ele>
        <time>2011-04-24T18:17:16Z</time>
      </trkpt>
      <trkpt lat="59.527752" lon="15.978735">
        <ele>10.75</ele>
        <time>2011-04-24T18:17:27Z</time>
      </trkpt>
      <trkpt lat="59.529505" lon="15.981173">
        <ele>12.719</ele>
        <time>2011-04-24T18:17:37Z</time>
      </trkpt>
      <trkpt lat="59.531235" lon="15.983697">
        <ele>16.492</ele>
        <time>2011-04-24T18:17:47Z</time>
      </trkpt>
      <trkpt lat="59.532379" lon="15.985641">
        <ele>19.991</ele>
        <time>2011-04-24T18:17:54Z</time>
      </trkpt>
      <trkpt lat="59.533461" lon="15.987742">
        <ele>20.854</ele>
        <time>2011-04-24T18:18:01Z</time>
      </trkpt>
      <trkpt lat="59.534469" lon="15.989969">
        <ele>18.062</ele>
        <time>2011-04-24T18:18:08Z</time>
      </trkpt>
      <trkpt lat="59.536021" lon="15.993432">
        <ele>18.097</ele>
        <time>2011-04-24T18:18:19Z</time>
      </trkpt>
      <trkpt lat="59.537304" lon="15.99629">
        <ele>17.416</ele>
        <time>2011-04-24T18:18:28Z</time>
      </trkpt>
      <trkpt lat="59.539155" lon="16.000367">
        <ele>24.137</ele>
        <time>2011-04-24T18:18:41Z</time>
      </trkpt>
      <trkpt lat="59.540481" lon="16.003121">
        <ele>33.063</ele>
        <time>2011-04-24T18:18:50Z</time>
      </trkpt>
      <trkpt lat="59.541732" lon="16.005493">
        <ele>38.499</ele>
        <time>2011-04-24T18:18:58Z</time>
      </trkpt>
      <trkpt lat="59.541892" lon="16.00578">
        <ele>38.726</ele>
        <time>2011-04-24T18:18:59Z</time>
      </trkpt>
      <trkpt lat="59.543522" lon="16.008603">
        <ele>37.897</ele>
        <time>2011-04-24T18:19:09Z</time>
      </trkpt>
      <trkpt lat="59.544022" lon="16.009414">
        <ele>36.116</ele>
        <time>2011-04-24T18:19:12Z</time>
      </trkpt>
      <trkpt lat="59.546212" lon="16.012872">
        <ele>30.544</ele>
        <time>2011-04-24T18:19:25Z</time>
      </trkpt>
      <trkpt lat="59.547875" lon="16.015561">
        <ele>26.797</ele>
        <time>2011-04-24T18:19:35Z</time>
      </trkpt>
      <trkpt lat="59.548627" lon="16.017018">
        <ele>27.196</ele>
        <time>2011-04-24T18:19:40Z</time>
      </trkpt>
      <trkpt lat="59.549473" lon="16.018946">
        <ele>28.848</ele>
        <time>2011-04-24T18:19:46Z</time>
      </trkpt>
      <trkpt lat="59.550097" lon="16.020688">
        <ele>29.024</ele>
        <time>2011-04-24T18:19:51Z</time>
      </trkpt>
      <trkpt lat="59.550751" lon="16.022897">
        <ele>27.721</ele>
        <time>2011-04-24T18:19:57Z</time>
      </trkpt>
      <trkpt lat="59.55121" lon="16.024821">
        <ele>25.731</ele>
        <time>2011-04-24T18:20:02Z</time>
      </trkpt>
      <trkpt lat="59.551576" lon="16.026794">
        <ele>25.031</ele>
        <time>2011-04-24T18:20:07Z</time>
      </trkpt>
      <trkpt lat="59.552331" lon="16.03163">
        <ele>28.88</ele>
        <time>2011-04-24T18:20:19Z</time>
      </trkpt>
      <trkpt lat="59.553015" lon="16.036133">
        <ele>30.509</ele>
        <time>2011-04-24T18:20:30Z</time>
      </trkpt>
      <trkpt lat="59.553077" lon="16.036543">
        <ele>30.234</ele>
        <time>2011-04-24T18:20:31Z</time>
      </trkpt>
      <trkpt lat="59.55339" lon="16.038578">
        <ele>27.579</ele>
        <time>2011-04-24T18:20:36Z</time>
      </trkpt>
      <trkpt lat="59.55394" lon="16.041803">
        <ele>24.795</ele>
        <time>2011-04-24T18:20:44Z</time>
      </trkpt>
      <trkpt lat="59.554264" lon="16.043378">
        <ele>22.841</ele>
        <time>2011-04-24T18:20:48Z</time>
      </trkpt>
      <trkpt lat="59.554532" lon="16.044523">
        <ele>21.438</ele>
        <time>2011-04-24T18:20:51Z</time>
      </trkpt>
      <trkpt lat="59.555135" lon="16.046766">
        <ele>21.032</ele>
        <time>2011-04-24T18:20:57Z</time>
      </trkpt>
      <trkpt lat="59.555826" lon="16.048935">
        <ele>19.265</ele>
        <time>2011-04-24T18:21:03Z</time>
      </trkpt>
      <trkpt lat="59.556725" lon="16.051349">
        <ele>19.026</ele>
        <time>2011-04-24T18:21:10Z</time>
      </trkpt>
      <trkpt lat="59.558034" lon="16.054735">
        <ele>20.028</ele>
        <time>2011-04-24T18:21:20Z</time>
      </trkpt>
      <trkpt lat="59.559724" lon="16.059104">
        <ele>23.579</ele>
        <time>2011-04-24T18:21:33Z</time>
      </trkpt>
      <trkpt lat="59.561294" lon="16.063182">
        <ele>25.797</ele>
        <time>2011-04-24T18:21:45Z</time>
      </trkpt>
      <trkpt lat="59.562814" lon="16.067309">
        <ele>25.987</ele>
        <time>2011-04-24T18:21:57Z</time>
      </trkpt>
      <trkpt lat="59.564035" lon="16.070818">
        <ele>26.102</ele>
        <time>2011-04-24T18:22:07Z</time>
      </trkpt>
      <trkpt lat="59.565214" lon="16.074391">
        <ele>25.335</ele>
        <time>2011-04-24T18:22:17Z</time>
      </trkpt>
      <trkpt lat="59.56668" lon="16.07909">
        <ele>25.725</ele>
        <time>2011-04-24T18:22:30Z</time>
      </trkpt>
      <trkpt lat="59.567864" lon="16.083149">
        <ele>26.955</ele>
        <time>2011-04-24T18:22:41Z</time>
      </trkpt>
      <trkpt lat="59.569246" lon="16.087955">
        <ele>28.17</ele>
        <time>2011-04-24T18:22:54Z</time>
      </trkpt>
      <trkpt lat="59.570414" lon="16.09202">
        <ele>29.254</ele>
        <time>2011-04-24T18:23:05Z</time>
      </trkpt>
      <trkpt lat="59.571278" lon="16.094966">
        <ele>29.358</ele>
        <time>2011-04-24T18:23:13Z</time>
      </trkpt>
      <trkpt lat="59.571839" lon="16.097267">
        <ele>30.237</ele>
        <time>2011-04-24T18:23:19Z</time>
      </trkpt>
      <trkpt lat="59.572611" lon="16.100764">
        <ele>31.168</ele>
        <time>2011-04-24T18:23:28Z</time>
      </trkpt>
      <trkpt lat="59.573188" lon="16.103959">
        <ele>33.553</ele>
        <time>2011-04-24T18:23:36Z</time>
      </trkpt>
      <trkpt lat="59.573658" lon="16.107237">
        <ele>35.751</ele>
        <time>2011-04-24T18:23:44Z</time>
      </trkpt>
      <trkpt lat="59.574182" lon="16.111821">
        <ele>37.008</ele>
        <time>2011-04-24T18:23:55Z</time>
      </trkpt>
      <trkpt lat="59.574789" lon="16.117188">
        <ele>35.123</ele>
        <time>2011-04-24T18:24:08Z</time>
      </trkpt>
      <trkpt lat="59.575202" lon="16.120881">
        <ele>39.308</ele>
        <time>2011-04-24T18:24:17Z</time>
      </trkpt>
      <trkpt lat="59.5758" lon="16.125876">
        <ele>39.8</ele>
        <time>2011-04-24T18:24:29Z</time>
      </trkpt>
      <trkpt lat="59.576398" lon="16.129946">
        <ele>37.256</ele>
        <time>2011-04-24T18:24:39Z</time>
      </trkpt>
      <trkpt lat="59.577095" lon="16.133974">
        <ele>38.376</ele>
        <time>2011-04-24T18:24:49Z</time>
      </trkpt>
      <trkpt lat="59.577806" lon="16.137532">
        <ele>39.475</ele>
        <time>2011-04-24T18:24:58Z</time>
      </trkpt>
      <trkpt lat="59.578794" lon="16.142256">
        <ele>40.129</ele>
        <time>2011-04-24T18:25:10Z</time>
      </trkpt>
      <trkpt lat="59.579946" lon="16.147783">
        <ele>36.945</ele>
        <time>2011-04-24T18:25:24Z</time>
      </trkpt>
      <trkpt lat="59.581005" lon="16.152871">
        <ele>34.825</ele>
        <time>2011-04-24T18:25:37Z</time>
      </trkpt>
      <trkpt lat="59.581605" lon="16.15606">
        <ele>38.014</ele>
        <time>2011-04-24T18:25:45Z</time>
      </trkpt>
      <trkpt lat="59.582323" lon="16.160541">
        <ele>38.963</ele>
        <time>2011-04-24T18:25:56Z</time>
      </trkpt>
      <trkpt lat="59.582801" lon="16.164254">
        <ele>35.789</ele>
        <time>2011-04-24T18:26:05Z</time>
      </trkpt>
      <trkpt lat="59.583231" lon="16.168402">
        <ele>34.793</ele>
        <time>2011-04-24T18:26:15Z</time>
      </trkpt>
      <trkpt lat="59.583527" lon="16.172202">
        <ele>36.069</ele>
        <time>2011-04-24T18:26:24Z</time>
      </trkpt>
      <trkpt lat="59.58397" lon="16.178121">
        <ele>29.161</ele>
        <time>2011-04-24T18:26:38Z</time>
      </trkpt>
      <trkpt lat="59.584128" lon="16.180208">
        <ele>26.587</ele>
        <time>2011-04-24T18:26:43Z</time>
      </trkpt>
      <trkpt lat="59.584538" lon="16.185683">
        <ele>23.626</ele>
        <time>2011-04-24T18:26:56Z</time>
      </trkpt>
      <trkpt lat="59.584882" lon="16.189455">
        <ele>22.597</ele>
        <time>2011-04-24T18:27:05Z</time>
      </trkpt>
      <trkpt lat="59.585362" lon="16.193608">
        <ele>21.316</ele>
        <time>2011-04-24T18:27:15Z</time>
      </trkpt>
      <trkpt lat="59.585997" lon="16.198122">
        <ele>19.824</ele>
        <time>2011-04-24T18:27:26Z</time>
      </trkpt>
      <trkpt lat="59.586654" lon="16.202167">
        <ele>19.173</ele>
        <time>2011-04-24T18:27:36Z</time>
      </trkpt>
      <trkpt lat="59.587455" lon="16.207037">
        <ele>18.88</ele>
        <time>2011-04-24T18:27:48Z</time>
      </trkpt>
      <trkpt lat="59.588263" lon="16.211903">
        <ele>18.934</ele>
        <time>2011-04-24T18:28:00Z</time>
      </trkpt>
      <trkpt lat="59.588924" lon="16.215952">
        <ele>19.224</ele>
        <time>2011-04-24T18:28:10Z</time>
      </trkpt>
      <trkpt lat="59.589841" lon="16.221605">
        <ele>22.374</ele>
        <time>2011-04-24T18:28:24Z</time>
      </trkpt>
      <trkpt lat="59.590645" lon="16.22649">
        <ele>23.091</ele>
        <time>2011-04-24T18:28:36Z</time>
      </trkpt>
      <trkpt lat="59.591513" lon="16.231773">
        <ele>21.645</ele>
        <time>2011-04-24T18:28:49Z</time>
      </trkpt>
      <trkpt lat="59.592239" lon="16.236249">
        <ele>18.403</ele>
        <time>2011-04-24T18:29:00Z</time>
      </trkpt>
      <trkpt lat="59.592543" lon="16.238692">
        <ele>18.955</ele>
        <time>2011-04-24T18:29:06Z</time>
      </trkpt>
      <trkpt lat="59.592685" lon="16.24034">
        <ele>20.697</ele>
        <time>2011-04-24T18:29:10Z</time>
      </trkpt>
      <trkpt lat="59.592778" lon="16.24245">
        <ele>24.4</ele>
        <time>2011-04-24T18:29:15Z</time>
      </trkpt>
      <trkpt lat="59.59281" lon="16.244589">
        <ele>26.622</ele>
        <time>2011-04-24T18:29:20Z</time>
      </trkpt>
      <trkpt lat="59.592759" lon="16.246314">
        <ele>28.357</ele>
        <time>2011-04-24T18:29:24Z</time>
      </trkpt>
      <trkpt lat="59.592559" lon="16.248889">
        <ele>28.849</ele>
        <time>2011-04-24T18:29:30Z</time>
      </trkpt>
      <trkpt lat="59.592295" lon="16.25098">
        <ele>27.848</ele>
        <time>2011-04-24T18:29:35Z</time>
      </trkpt>
      <trkpt lat="59.591784" lon="16.253786">
        <ele>25.358</ele>
        <time>2011-04-24T18:29:42Z</time>
      </trkpt>
      <trkpt lat="59.591337" lon="16.255711">
        <ele>24.246</ele>
        <time>2011-04-24T18:29:47Z</time>
      </trkpt>
      <trkpt lat="59.590703" lon="16.257921">
        <ele>24.61</ele>
        <time>2011-04-24T18:29:53Z</time>
      </trkpt>
      <trkpt lat="59.590088" lon="16.260178">
        <ele>24.076</ele>
        <time>2011-04-24T18:29:59Z</time>
      </trkpt>
      <trkpt lat="59.588946" lon="16.264285">
        <ele>24.092</ele>
        <time>2011-04-24T18:30:10Z</time>
      </trkpt>
      <trkpt lat="59.587911" lon="16.268012">
        <ele>25.973</ele>
        <time>2011-04-24T18:30:20Z</time>
      </trkpt>
      <trkpt lat="59.586763" lon="16.272117">
        <ele>25.631</ele>
        <time>2011-04-24T18:30:31Z</time>
      </trkpt>
      <trkpt lat="59.585211" lon="16.277718">
        <ele>27.592</ele>
        <time>2011-04-24T18:30:46Z</time>
      </trkpt>
      <trkpt lat="59.583339" lon="16.284441">
        <ele>27.907</ele>
        <time>2011-04-24T18:31:04Z</time>
      </trkpt>
      <trkpt lat="59.581689" lon="16.290421">
        <ele>26.062</ele>
        <time>2011-04-24T18:31:20Z</time>
      </trkpt>
      <trkpt lat="59.580945" lon="16.293494">
        <ele>25.495</ele>
        <time>2011-04-24T18:31:28Z</time>
      </trkpt>
      <trkpt lat="59.580384" lon="16.296252">
        <ele>24.843</ele>
        <time>2011-04-24T18:31:35Z</time>
      </trkpt>
      <trkpt lat="59.579837" lon="16.299469">
        <ele>25.15</ele>
        <time>2011-04-24T18:31:43Z</time>
      </trkpt>
      <trkpt lat="59.579443" lon="16.302355">
        <ele>26.891</ele>
        <time>2011-04-24T18:31:50Z</time>
      </trkpt>
      <trkpt lat="59.579129" lon="16.305276">
        <ele>25.932</ele>
        <time>2011-04-24T18:31:57Z</time>
      </trkpt>
      <trkpt lat="59.578877" lon="16.308652">
        <ele>23.483</ele>
        <time>2011-04-24T18:32:05Z</time>
      </trkpt>
      <trkpt lat="59.57881" lon="16.309926">
        <ele>22.205</ele>
        <time>2011-04-24T18:32:08Z</time>
      </trkpt>
      <trkpt lat="59.578722" lon="16.312898">
        <ele>20.917</ele>
        <time>2011-04-24T18:32:15Z</time>
      </trkpt>
      <trkpt lat="59.578717" lon="16.316293">
        <ele>21.553</ele>
        <time>2011-04-24T18:32:23Z</time>
      </trkpt>
      <trkpt lat="59.578822" lon="16.319691">
        <ele>22.743</ele>
        <time>2011-04-24T18:32:31Z</time>
      </trkpt>
      <trkpt lat="59.579007" lon="16.324364">
        <ele>23.288</ele>
        <time>2011-04-24T18:32:42Z</time>
      </trkpt>
      <trkpt lat="59.579246" lon="16.330312">
        <ele>20.983</ele>
        <time>2011-04-24T18:32:56Z</time>
      </trkpt>
      <trkpt lat="59.579469" lon="16.335809">
        <ele>21.162</ele>
        <time>2011-04-24T18:33:09Z</time>
      </trkpt>
      <trkpt lat="59.579691" lon="16.341322">
        <ele>23.238</ele>
        <time>2011-04-24T18:33:22Z</time>
      </trkpt>
      <trkpt lat="59.579944" lon="16.347683">
        <ele>26.247</ele>
        <time>2011-04-24T18:33:37Z</time>
      </trkpt>
      <trkpt lat="59.580132" lon="16.350658">
        <ele>26.834</ele>
        <time>2011-04-24T18:33:44Z</time>
      </trkpt>
      <trkpt lat="59.580454" lon="16.353992">
        <ele>23.676</ele>
        <time>2011-04-24T18:33:52Z</time>
      </trkpt>
      <trkpt lat="59.580503" lon="16.354403">
        <ele>23.392</ele>
        <time>2011-04-24T18:33:53Z</time>
      </trkpt>
      <trkpt lat="59.580908" lon="16.357272">
        <ele>23.466</ele>
        <time>2011-04-24T18:34:00Z</time>
      </trkpt>
      <trkpt lat="59.581334" lon="16.35968">
        <ele>22.68</ele>
        <time>2011-04-24T18:34:06Z</time>
      </trkpt>
      <trkpt lat="59.582004" lon="16.36282">
        <ele>21.404</ele>
        <time>2011-04-24T18:34:14Z</time>
      </trkpt>
      <trkpt lat="59.582747" lon="16.365889">
        <ele>19.182</ele>
        <time>2011-04-24T18:34:22Z</time>
      </trkpt>
      <trkpt lat="59.583938" lon="16.37089">
        <ele>20.131</ele>
        <time>2011-04-24T18:34:35Z</time>
      </trkpt>
      <trkpt lat="59.584926" lon="16.37514">
        <ele>21.652</ele>
        <time>2011-04-24T18:34:46Z</time>
      </trkpt>
      <trkpt lat="59.585777" lon="16.379038">
        <ele>23.524</ele>
        <time>2011-04-24T18:34:56Z</time>
      </trkpt>
      <trkpt lat="59.586377" lon="16.382234">
        <ele>23.986</ele>
        <time>2011-04-24T18:35:04Z</time>
      </trkpt>
      <trkpt lat="59.58705" lon="16.386284">
        <ele>23.114</ele>
        <time>2011-04-24T18:35:14Z</time>
      </trkpt>
      <trkpt lat="59.587633" lon="16.390381">
        <ele>20.472</ele>
        <time>2011-04-24T18:35:24Z</time>
      </trkpt>
      <trkpt lat="59.588252" lon="16.394895">
        <ele>20.334</ele>
        <time>2011-04-24T18:35:35Z</time>
      </trkpt>
      <trkpt lat="59.588916" lon="16.399823">
        <ele>19.83</ele>
        <time>2011-04-24T18:35:47Z</time>
      </trkpt>
      <trkpt lat="59.589642" lon="16.405166">
        <ele>22.154</ele>
        <time>2011-04-24T18:36:00Z</time>
      </trkpt>
      <trkpt lat="59.590304" lon="16.410125">
        <ele>21.683</ele>
        <time>2011-04-24T18:36:12Z</time>
      </trkpt>
      <trkpt lat="59.590587" lon="16.412189">
        <ele>18.55</ele>
        <time>2011-04-24T18:36:17Z</time>
      </trkpt>
      <trkpt lat="59.591137" lon="16.416225">
        <ele>17.367</ele>
        <time>2011-04-24T18:36:27Z</time>
      </trkpt>
      <trkpt lat="59.5916" lon="16.419009">
        <ele>20.667</ele>
        <time>2011-04-24T18:36:34Z</time>
      </trkpt>
      <trkpt lat="59.592037" lon="16.42097">
        <ele>23.521</ele>
        <time>2011-04-24T18:36:39Z</time>
      </trkpt>
      <trkpt lat="59.592655" lon="16.423229">
        <ele>22.873</ele>
        <time>2011-04-24T18:36:45Z</time>
      </trkpt>
      <trkpt lat="59.593248" lon="16.425012">
        <ele>21.581</ele>
        <time>2011-04-24T18:36:50Z</time>
      </trkpt>
      <trkpt lat="59.594044" lon="16.426974">
        <ele>21.611</ele>
        <time>2011-04-24T18:36:56Z</time>
      </trkpt>
      <trkpt lat="59.594927" lon="16.428766">
        <ele>24.133</ele>
        <time>2011-04-24T18:37:02Z</time>
      </trkpt>
      <trkpt lat="59.596203" lon="16.431046">
        <ele>30.317</ele>
        <time>2011-04-24T18:37:10Z</time>
      </trkpt>
      <trkpt lat="59.598457" lon="16.435059">
        <ele>33.586</ele>
        <time>2011-04-24T18:37:24Z</time>
      </trkpt>
      <trkpt lat="59.600219" lon="16.438185">
        <ele>33.298</ele>
        <time>2011-04-24T18:37:35Z</time>
      </trkpt>
      <trkpt lat="59.601623" lon="16.440847">
        <ele>33.818</ele>
        <time>2011-04-24T18:37:44Z</time>
      </trkpt>
      <trkpt lat="59.602487" lon="16.442799">
        <ele>33.996</ele>
        <time>2011-04-24T18:37:50Z</time>
      </trkpt>
      <trkpt lat="59.603278" lon="16.444888">
        <ele>31.341</ele>
        <time>2011-04-24T18:37:56Z</time>
      </trkpt>
      <trkpt lat="59.603523" lon="16.445608">
        <ele>30.598</ele>
        <time>2011-04-24T18:37:58Z</time>
      </trkpt>
      <trkpt lat="59.604185" lon="16.447812">
        <ele>26.52</ele>
        <time>2011-04-24T18:38:04Z</time>
      </trkpt>
      <trkpt lat="59.604845" lon="16.45046">
        <ele>23.087</ele>
        <time>2011-04-24T18:38:11Z</time>
      </trkpt>
      <trkpt lat="59.60546" lon="16.453143">
        <ele>22.972</ele>
        <time>2011-04-24T18:38:18Z</time>
      </trkpt>
      <trkpt lat="59.606251" lon="16.456622">
        <ele>26.912</ele>
        <time>2011-04-24T18:38:27Z</time>
      </trkpt>
      <trkpt lat="59.607305" lon="16.461306">
        <ele>27.799</ele>
        <time>2011-04-24T18:38:39Z</time>
      </trkpt>
      <trkpt lat="59.608245" lon="16.465143">
        <ele>26.221</ele>
        <time>2011-04-24T18:38:49Z</time>
      </trkpt>
      <trkpt lat="59.609284" lon="16.46888">
        <ele>24.224</ele>
        <time>2011-04-24T18:38:59Z</time>
      </trkpt>
      <trkpt lat="59.610158" lon="16.471803">
        <ele>23.614</ele>
        <time>2011-04-24T18:39:07Z</time>
      </trkpt>
      <trkpt lat="59.611607" lon="16.476558">
        <ele>24.03</ele>
        <time>2011-04-24T18:39:20Z</time>
      </trkpt>
      <trkpt lat="59.612218" lon="16.478822">
        <ele>23.414</ele>
        <time>2011-04-24T18:39:26Z</time>
      </trkpt>
      <trkpt lat="59.612524" lon="16.480402">
        <ele>21.953</ele>
        <time>2011-04-24T18:39:30Z</time>
      </trkpt>
      <trkpt lat="59.612649" lon="16.481206">
        <ele>21.146</ele>
        <time>2011-04-24T18:39:32Z</time>
      </trkpt>
      <trkpt lat="59.612957" lon="16.483673">
        <ele>21.403</ele>
        <time>2011-04-24T18:39:38Z</time>
      </trkpt>
      <trkpt lat="59.613523" lon="16.488243">
        <ele>21.211</ele>
        <time>2011-04-24T18:39:49Z</time>
      </trkpt>
      <trkpt lat="59.613935" lon="16.490663">
        <ele>21.385</ele>
        <time>2011-04-24T18:39:55Z</time>
      </trkpt>
      <trkpt lat="59.614437" lon="16.492994">
        <ele>23.457</ele>
        <time>2011-04-24T18:40:01Z</time>
      </trkpt>
      <trkpt lat="59.615305" lon="16.496898">
        <ele>25.921</ele>
        <time>2011-04-24T18:40:11Z</time>
      </trkpt>
      <trkpt lat="59.61604" lon="16.500442">
        <ele>27.097</ele>
        <time>2011-04-24T18:40:20Z</time>
      </trkpt>
      <trkpt lat="59.616314" lon="16.502496">
        <ele>27.102</ele>
        <time>2011-04-24T18:40:25Z</time>
      </trkpt>
      <trkpt lat="59.616469" lon="16.504609">
        <ele>28.23</ele>
        <time>2011-04-24T18:40:30Z</time>
      </trkpt>
      <trkpt lat="59.616705" lon="16.508392">
        <ele>30.247</ele>
        <time>2011-04-24T18:40:39Z</time>
      </trkpt>
      <trkpt lat="59.616932" lon="16.510034">
        <ele>32.4</ele>
        <time>2011-04-24T18:40:43Z</time>
      </trkpt>
      <trkpt lat="59.617261" lon="16.511617">
        <ele>35.103</ele>
        <time>2011-04-24T18:40:47Z</time>
      </trkpt>
      <trkpt lat="59.617688" lon="16.513124">
        <ele>36.552</ele>
        <time>2011-04-24T18:40:51Z</time>
      </trkpt>
      <trkpt lat="59.618209" lon="16.514529">
        <ele>36.903</ele>
        <time>2011-04-24T18:40:55Z</time>
      </trkpt>
      <trkpt lat="59.619333" lon="16.517242">
        <ele>33.121</ele>
        <time>2011-04-24T18:41:03Z</time>
      </trkpt>
      <trkpt lat="59.620274" lon="16.519496">
        <ele>28.722</ele>
        <time>2011-04-24T18:41:10Z</time>
      </trkpt>
      <trkpt lat="59.62114" lon="16.521583">
        <ele>28.191</ele>
        <time>2011-04-24T18:41:17Z</time>
      </trkpt>
      <trkpt lat="59.622072" lon="16.523814">
        <ele>28.866</ele>
        <time>2011-04-24T18:41:25Z</time>
      </trkpt>
      <trkpt lat="59.622945" lon="16.525979">
        <ele>27.618</ele>
        <time>2011-04-24T18:41:33Z</time>
      </trkpt>
      <trkpt lat="59.62331" lon="16.527149">
        <ele>26.747</ele>
        <time>2011-04-24T18:41:37Z</time>
      </trkpt>
      <trkpt lat="59.623588" lon="16.528385">
        <ele>25.858</ele>
        <time>2011-04-24T18:41:41Z</time>
      </trkpt>
      <trkpt lat="59.623783" lon="16.529707">
        <ele>24.979</ele>
        <time>2011-04-24T18:41:45Z</time>
      </trkpt>
      <trkpt lat="59.623978" lon="16.531814">
        <ele>23.008</ele>
        <time>2011-04-24T18:41:51Z</time>
      </trkpt>
      <trkpt lat="59.624087" lon="16.533269">
        <ele>21.062</ele>
        <time>2011-04-24T18:41:55Z</time>
      </trkpt>
      <trkpt lat="59.624237" lon="16.53619">
        <ele>17.709</ele>
        <time>2011-04-24T18:42:03Z</time>
      </trkpt>
      <trkpt lat="59.624429" lon="16.539406">
        <ele>19.426</ele>
        <time>2011-04-24T18:42:12Z</time>
      </trkpt>
      <trkpt lat="59.624573" lon="16.542573">
        <ele>22.82</ele>
        <time>2011-04-24T18:42:21Z</time>
      </trkpt>
      <trkpt lat="59.624583" lon="16.543274">
        <ele>23.572</ele>
        <time>2011-04-24T18:42:23Z</time>
      </trkpt>
      <trkpt lat="59.624553" lon="16.545051">
        <ele>24.287</ele>
        <time>2011-04-24T18:42:28Z</time>
      </trkpt>
      <trkpt lat="59.624428" lon="16.546483">
        <ele>23.653</ele>
        <time>2011-04-24T18:42:32Z</time>
      </trkpt>
      <trkpt lat="59.624166" lon="16.547903">
        <ele>22.176</ele>
        <time>2011-04-24T18:42:36Z</time>
      </trkpt>
      <trkpt lat="59.623778" lon="16.549173">
        <ele>20.495</ele>
        <time>2011-04-24T18:42:40Z</time>
      </trkpt>
      <trkpt lat="59.623417" lon="16.549998">
        <ele>19.718</ele>
        <time>2011-04-24T18:42:43Z</time>
      </trkpt>
      <trkpt lat="59.622839" lon="16.550944">
        <ele>19.288</ele>
        <time>2011-04-24T18:42:47Z</time>
      </trkpt>
      <trkpt lat="59.62221" lon="16.55164">
        <ele>18.453</ele>
        <time>2011-04-24T18:42:51Z</time>
      </trkpt>
      <trkpt lat="59.621528" lon="16.552137">
        <ele>17.628</ele>
        <time>2011-04-24T18:42:55Z</time>
      </trkpt>
      <trkpt lat="59.620484" lon="16.552933">
        <ele>15.078</ele>
        <time>2011-04-24T18:43:01Z</time>
      </trkpt>
      <trkpt lat="59.620002" lon="16.553523">
        <ele>13.71</ele>
        <time>2011-04-24T18:43:04Z</time>
      </trkpt>
      <trkpt lat="59.619579" lon="16.554277">
        <ele>11.625</ele>
        <time>2011-04-24T18:43:07Z</time>
      </trkpt>
      <trkpt lat="59.619227" lon="16.555193">
        <ele>9.518</ele>
        <time>2011-04-24T18:43:10Z</time>
      </trkpt>
      <trkpt lat="59.618957" lon="16.556237">
        <ele>8.505</ele>
        <time>2011-04-24T18:43:13Z</time>
      </trkpt>
      <trkpt lat="59.618702" lon="16.557719">
        <ele>7.956</ele>
        <time>2011-04-24T18:43:17Z</time>
      </trkpt>
      <trkpt lat="59.618418" lon="16.560024">
        <ele>8.608</ele>
        <time>2011-04-24T18:43:23Z</time>
      </trkpt>
      <trkpt lat="59.617919" lon="16.564256">
        <ele>6.27</ele>
        <time>2011-04-24T18:43:34Z</time>
      </trkpt>
      <trkpt lat="59.61762" lon="16.566124">
        <ele>6.067</ele>
        <time>2011-04-24T18:43:39Z</time>
      </trkpt>
      <trkpt lat="59.617346" lon="16.567143">
        <ele>6.185</ele>
        <time>2011-04-24T18:43:42Z</time>
      </trkpt>
      <trkpt lat="59.616993" lon="16.568069">
        <ele>7.391</ele>
        <time>2011-04-24T18:43:45Z</time>
      </trkpt>
      <trkpt lat="59.616418" lon="16.569125">
        <ele>8.49</ele>
        <time>2011-04-24T18:43:49Z</time>
      </trkpt>
      <trkpt lat="59.615766" lon="16.57">
        <ele>8.868</ele>
        <time>2011-04-24T18:43:53Z</time>
      </trkpt>
      <trkpt lat="59.614604" lon="16.571476">
        <ele>8.626</ele>
        <time>2011-04-24T18:44:00Z</time>
      </trkpt>
      <trkpt lat="59.613995" lon="16.572525">
        <ele>8.89</ele>
        <time>2011-04-24T18:44:04Z</time>
      </trkpt>
      <trkpt lat="59.613466" lon="16.573774">
        <ele>9.334</ele>
        <time>2011-04-24T18:44:08Z</time>
      </trkpt>
      <trkpt lat="59.612889" lon="16.575476">
        <ele>11.128</ele>
        <time>2011-04-24T18:44:13Z</time>
      </trkpt>
      <trkpt lat="59.612166" lon="16.577955">
        <ele>14.615</ele>
        <time>2011-04-24T18:44:20Z</time>
      </trkpt>
      <trkpt lat="59.611634" lon="16.580178">
        <ele>16.206</ele>
        <time>2011-04-24T18:44:26Z</time>
      </trkpt>
      <trkpt lat="59.611107" lon="16.582818">
        <ele>16.065</ele>
        <time>2011-04-24T18:44:33Z</time>
      </trkpt>
      <trkpt lat="59.610597" lon="16.585929">
        <ele>15.933</ele>
        <time>2011-04-24T18:44:41Z</time>
      </trkpt>
      <trkpt lat="59.610225" lon="16.588771">
        <ele>16.042</ele>
        <time>2011-04-24T18:44:48Z</time>
      </trkpt>
      <trkpt lat="59.609922" lon="16.591675">
        <ele>18.412</ele>
        <time>2011-04-24T18:44:55Z</time>
      </trkpt>
      <trkpt lat="59.609726" lon="16.594102">
        <ele>21.016</ele>
        <time>2011-04-24T18:45:01Z</time>
      </trkpt>
      <trkpt lat="59.609411" lon="16.59735">
        <ele>22.625</ele>
        <time>2011-04-24T18:45:09Z</time>
      </trkpt>
      <trkpt lat="59.609126" lon="16.599402">
        <ele>22.14</ele>
        <time>2011-04-24T18:45:14Z</time>
      </trkpt>
      <trkpt lat="59.608756" lon="16.601423">
        <ele>22.096</ele>
        <time>2011-04-24T18:45:19Z</time>
      </trkpt>
      <trkpt lat="59.608216" lon="16.603759">
        <ele>22.456</ele>
        <time>2011-04-24T18:45:25Z</time>
      </trkpt>
      <trkpt lat="59.607407" lon="16.60714">
        <ele>22.855</ele>
        <time>2011-04-24T18:45:34Z</time>
      </trkpt>
      <trkpt lat="59.607047" lon="16.609064">
        <ele>22.208</ele>
        <time>2011-04-24T18:45:39Z</time>
      </trkpt>
      <trkpt lat="59.606798" lon="16.611077">
        <ele>20.667</ele>
        <time>2011-04-24T18:45:44Z</time>
      </trkpt>
      <trkpt lat="59.606665" lon="16.613185">
        <ele>19.406</ele>
        <time>2011-04-24T18:45:49Z</time>
      </trkpt>
      <trkpt lat="59.606649" lon="16.615745">
        <ele>17.73</ele>
        <time>2011-04-24T18:45:55Z</time>
      </trkpt>
      <trkpt lat="59.606757" lon="16.618278">
        <ele>16.972</ele>
        <time>2011-04-24T18:46:01Z</time>
      </trkpt>
      <trkpt lat="59.606953" lon="16.62035">
        <ele>16.427</ele>
        <time>2011-04-24T18:46:06Z</time>
      </trkpt>
      <trkpt lat="59.607278" lon="16.622801">
        <ele>16.072</ele>
        <time>2011-04-24T18:46:12Z</time>
      </trkpt>
      <trkpt lat="59.60771" lon="16.625251">
        <ele>15.795</ele>
        <time>2011-04-24T18:46:18Z</time>
      </trkpt>
      <trkpt lat="59.608243" lon="16.627701">
        <ele>15.96</ele>
        <time>2011-04-24T18:46:24Z</time>
      </trkpt>
      <trkpt lat="59.608875" lon="16.630121">
        <ele>15.841</ele>
        <time>2011-04-24T18:46:30Z</time>
      </trkpt>
      <trkpt lat="59.609484" lon="16.632066">
        <ele>15.573</ele>
        <time>2011-04-24T18:46:35Z</time>
      </trkpt>
      <trkpt lat="59.610272" lon="16.634253">
        <ele>14.453</ele>
        <time>2011-04-24T18:46:41Z</time>
      </trkpt>
      <trkpt lat="59.61114" lon="16.636315">
        <ele>13.833</ele>
        <time>2011-04-24T18:46:47Z</time>
      </trkpt>
      <trkpt lat="59.612499" lon="16.639426">
        <ele>12.855</ele>
        <time>2011-04-24T18:46:56Z</time>
      </trkpt>
      <trkpt lat="59.613956" lon="16.643048">
        <ele>11.576</ele>
        <time>2011-04-24T18:47:06Z</time>
      </trkpt>
      <trkpt lat="59.615043" lon="16.645862">
        <ele>10.973</ele>
        <time>2011-04-24T18:47:14Z</time>
      </trkpt>
      <trkpt lat="59.616729" lon="16.650578">
        <ele>12.065</ele>
        <time>2011-04-24T18:47:27Z</time>
      </trkpt>
      <trkpt lat="59.618083" lon="16.65464">
        <ele>13.759</ele>
        <time>2011-04-24T18:47:38Z</time>
      </trkpt>
      <trkpt lat="59.619484" lon="16.659178">
        <ele>15.625</ele>
        <time>2011-04-24T18:47:50Z</time>
      </trkpt>
      <trkpt lat="59.620145" lon="16.661473">
        <ele>18.446</ele>
        <time>2011-04-24T18:47:56Z</time>
      </trkpt>
      <trkpt lat="59.620685" lon="16.663416">
        <ele>20.92</ele>
        <time>2011-04-24T18:48:01Z</time>
      </trkpt>
      <trkpt lat="59.621601" lon="16.66698">
        <ele>26.249</ele>
        <time>2011-04-24T18:48:10Z</time>
      </trkpt>
      <trkpt lat="59.62189" lon="16.668179">
        <ele>27.597</ele>
        <time>2011-04-24T18:48:13Z</time>
      </trkpt>
      <trkpt lat="59.622716" lon="16.671837">
        <ele>30.555</ele>
        <time>2011-04-24T18:48:22Z</time>
      </trkpt>
      <trkpt lat="59.623272" lon="16.674741">
        <ele>31.682</ele>
        <time>2011-04-24T18:48:29Z</time>
      </trkpt>
      <trkpt lat="59.623625" lon="16.677316">
        <ele>32.293</ele>
        <time>2011-04-24T18:48:35Z</time>
      </trkpt>
      <trkpt lat="59.623811" lon="16.679507">
        <ele>32.393</ele>
        <time>2011-04-24T18:48:40Z</time>
      </trkpt>
      <trkpt lat="59.623989" lon="16.683032">
        <ele>33.274</ele>
        <time>2011-04-24T18:48:48Z</time>
      </trkpt>
      <trkpt lat="59.624125" lon="16.687436">
        <ele>34.172</ele>
        <time>2011-04-24T18:48:58Z</time>
      </trkpt>
      <trkpt lat="59.624141" lon="16.690078">
        <ele>36.286</ele>
        <time>2011-04-24T18:49:04Z</time>
      </trkpt>
      <trkpt lat="59.6241" lon="16.694085">
        <ele>38.569</ele>
        <time>2011-04-24T18:49:13Z</time>
      </trkpt>
      <trkpt lat="59.623947" lon="16.698973">
        <ele>37.431</ele>
        <time>2011-04-24T18:49:24Z</time>
      </trkpt>
      <trkpt lat="59.623898" lon="16.702522">
        <ele>36.155</ele>
        <time>2011-04-24T18:49:32Z</time>
      </trkpt>
      <trkpt lat="59.623976" lon="16.705615">
        <ele>35.176</ele>
        <time>2011-04-24T18:49:39Z</time>
      </trkpt>
      <trkpt lat="59.624154" lon="16.708688">
        <ele>34.836</ele>
        <time>2011-04-24T18:49:46Z</time>
      </trkpt>
      <trkpt lat="59.624389" lon="16.712634">
        <ele>36.279</ele>
        <time>2011-04-24T18:49:55Z</time>
      </trkpt>
      <trkpt lat="59.624512" lon="16.716185">
        <ele>36.262</ele>
        <time>2011-04-24T18:50:03Z</time>
      </trkpt>
      <trkpt lat="59.624534" lon="16.719722">
        <ele>33.374</ele>
        <time>2011-04-24T18:50:11Z</time>
      </trkpt>
      <trkpt lat="59.624489" lon="16.724143">
        <ele>30.811</ele>
        <time>2011-04-24T18:50:21Z</time>
      </trkpt>
      <trkpt lat="59.624472" lon="16.729006">
        <ele>30.204</ele>
        <time>2011-04-24T18:50:32Z</time>
      </trkpt>
      <trkpt lat="59.62445" lon="16.735645">
        <ele>29.754</ele>
        <time>2011-04-24T18:50:47Z</time>
      </trkpt>
      <trkpt lat="59.624459" lon="16.7414">
        <ele>30.667</ele>
        <time>2011-04-24T18:51:00Z</time>
      </trkpt>
      <trkpt lat="59.624497" lon="16.746272">
        <ele>30.211</ele>
        <time>2011-04-24T18:51:11Z</time>
      </trkpt>
      <trkpt lat="59.62457" lon="16.752466">
        <ele>30.693</ele>
        <time>2011-04-24T18:51:25Z</time>
      </trkpt>
      <trkpt lat="59.624654" lon="16.757765">
        <ele>32.745</ele>
        <time>2011-04-24T18:51:37Z</time>
      </trkpt>
      <trkpt lat="59.624689" lon="16.762186">
        <ele>33.647</ele>
        <time>2011-04-24T18:51:47Z</time>
      </trkpt>
      <trkpt lat="59.62461" lon="16.765288">
        <ele>33.658</ele>
        <time>2011-04-24T18:51:54Z</time>
      </trkpt>
      <trkpt lat="59.624446" lon="16.768371">
        <ele>32.904</ele>
        <time>2011-04-24T18:52:01Z</time>
      </trkpt>
      <trkpt lat="59.624182" lon="16.771424">
        <ele>32.256</ele>
        <time>2011-04-24T18:52:08Z</time>
      </trkpt>
      <trkpt lat="59.623725" lon="16.775301">
        <ele>31.444</ele>
        <time>2011-04-24T18:52:17Z</time>
      </trkpt>
      <trkpt lat="59.623111" lon="16.780474">
        <ele>30.605</ele>
        <time>2011-04-24T18:52:29Z</time>
      </trkpt>
      <trkpt lat="59.622695" lon="16.784823">
        <ele>30.535</ele>
        <time>2011-04-24T18:52:39Z</time>
      </trkpt>
      <trkpt lat="59.622369" lon="16.789192">
        <ele>31.061</ele>
        <time>2011-04-24T18:52:49Z</time>
      </trkpt>
      <trkpt lat="59.622178" lon="16.792716">
        <ele>30.891</ele>
        <time>2011-04-24T18:52:57Z</time>
      </trkpt>
      <trkpt lat="59.622031" lon="16.796688">
        <ele>31.877</ele>
        <time>2011-04-24T18:53:06Z</time>
      </trkpt>
      <trkpt lat="59.621964" lon="16.80112">
        <ele>29.605</ele>
        <time>2011-04-24T18:53:16Z</time>
      </trkpt>
      <trkpt lat="59.621988" lon="16.805114">
        <ele>26.75</ele>
        <time>2011-04-24T18:53:25Z</time>
      </trkpt>
      <trkpt lat="59.622072" lon="16.807752">
        <ele>26.174</ele>
        <time>2011-04-24T18:53:31Z</time>
      </trkpt>
      <trkpt lat="59.622272" lon="16.810808">
        <ele>28.478</ele>
        <time>2011-04-24T18:53:38Z</time>
      </trkpt>
      <trkpt lat="59.622569" lon="16.813841">
        <ele>31.448</ele>
        <time>2011-04-24T18:53:45Z</time>
      </trkpt>
      <trkpt lat="59.622824" lon="16.815999">
        <ele>34.535</ele>
        <time>2011-04-24T18:53:50Z</time>
      </trkpt>
      <trkpt lat="59.623394" lon="16.820292">
        <ele>37.756</ele>
        <time>2011-04-24T18:54:00Z</time>
      </trkpt>
      <trkpt lat="59.623818" lon="16.822825">
        <ele>37.48</ele>
        <time>2011-04-24T18:54:06Z</time>
      </trkpt>
      <trkpt lat="59.624344" lon="16.825274">
        <ele>36.63</ele>
        <time>2011-04-24T18:54:12Z</time>
      </trkpt>
      <trkpt lat="59.62495" lon="16.827644">
        <ele>36.146</ele>
        <time>2011-04-24T18:54:18Z</time>
      </trkpt>
      <trkpt lat="59.62553" lon="16.829542">
        <ele>35.935</ele>
        <time>2011-04-24T18:54:23Z</time>
      </trkpt>
      <trkpt lat="59.626563" lon="16.832449">
        <ele>34.695</ele>
        <time>2011-04-24T18:54:31Z</time>
      </trkpt>
      <trkpt lat="59.6284" lon="16.8375">
        <ele>30.824</ele>
        <time>2011-04-24T18:54:45Z</time>
      </trkpt>
      <trkpt lat="59.630371" lon="16.84291">
        <ele>20.717</ele>
        <time>2011-04-24T18:55:00Z</time>
      </trkpt>
      <trkpt lat="59.630759" lon="16.843985">
        <ele>19.114</ele>
        <time>2011-04-24T18:55:03Z</time>
      </trkpt>
      <trkpt lat="59.631613" lon="16.846565">
        <ele>17.263</ele>
        <time>2011-04-24T18:55:10Z</time>
      </trkpt>
      <trkpt lat="59.632491" lon="16.849637">
        <ele>17.977</ele>
        <time>2011-04-24T18:55:18Z</time>
      </trkpt>
      <trkpt lat="59.633278" lon="16.852842">
        <ele>17.908</ele>
        <time>2011-04-24T18:55:26Z</time>
      </trkpt>
      <trkpt lat="59.634045" lon="16.856547">
        <ele>17.474</ele>
        <time>2011-04-24T18:55:35Z</time>
      </trkpt>
      <trkpt lat="59.635382" lon="16.86316">
        <ele>15.755</ele>
        <time>2011-04-24T18:55:51Z</time>
      </trkpt>
      <trkpt lat="59.636806" lon="16.870175">
        <ele>14.038</ele>
        <time>2011-04-24T18:56:08Z</time>
      </trkpt>
      <trkpt lat="59.638758" lon="16.879933">
        <ele>27.552</ele>
        <time>2011-04-24T18:56:32Z</time>
      </trkpt>
      <trkpt lat="59.639069" lon="16.88146">
        <ele>30.28</ele>
        <time>2011-04-24T18:56:36Z</time>
      </trkpt>
      <trkpt lat="59.639309" lon="16.882716">
        <ele>31.31</ele>
        <time>2011-04-24T18:56:40Z</time>
      </trkpt>
      <trkpt lat="59.639618" lon="16.884482">
        <ele>33.51</ele>
        <time>2011-04-24T18:56:46Z</time>
      </trkpt>
      <trkpt lat="59.639946" lon="16.886644">
        <ele>35.325</ele>
        <time>2011-04-24T18:56:53Z</time>
      </trkpt>
      <trkpt lat="59.640233" lon="16.888862">
        <ele>36.508</ele>
        <time>2011-04-24T18:57:00Z</time>
      </trkpt>
      <trkpt lat="59.640504" lon="16.891529">
        <ele>37.651</ele>
        <time>2011-04-24T18:57:08Z</time>
      </trkpt>
      <trkpt lat="59.640733" lon="16.894589">
        <ele>37.802</ele>
        <time>2011-04-24T18:57:17Z</time>
      </trkpt>
      <trkpt lat="59.640849" lon="16.897132">
        <ele>37.201</ele>
        <time>2011-04-24T18:57:24Z</time>
      </trkpt>
      <trkpt lat="59.64091" lon="16.899383">
        <ele>36.11</ele>
        <time>2011-04-24T18:57:30Z</time>
      </trkpt>
      <trkpt lat="59.640939" lon="16.901131">
        <ele>36.697</ele>
        <time>2011-04-24T18:57:34Z</time>
      </trkpt>
      <trkpt lat="59.640899" lon="16.903406">
        <ele>36.54</ele>
        <time>2011-04-24T18:57:39Z</time>
      </trkpt>
      <trkpt lat="59.640834" lon="16.904758">
        <ele>35.021</ele>
        <time>2011-04-24T18:57:42Z</time>
      </trkpt>
      <trkpt lat="59.640491" lon="16.910593">
        <ele>36.256</ele>
        <time>2011-04-24T18:57:55Z</time>
      </trkpt>
      <trkpt lat="59.64006" lon="16.917358">
        <ele>37.906</ele>
        <time>2011-04-24T18:58:10Z</time>
      </trkpt>
      <trkpt lat="59.639693" lon="16.923217">
        <ele>36.99</ele>
        <time>2011-04-24T18:58:23Z</time>
      </trkpt>
      <trkpt lat="59.639268" lon="16.929964">
        <ele>34.601</ele>
        <time>2011-04-24T18:58:38Z</time>
      </trkpt>
      <trkpt lat="59.63889" lon="16.936245">
        <ele>35.932</ele>
        <time>2011-04-24T18:58:52Z</time>
      </trkpt>
      <trkpt lat="59.63881" lon="16.938962">
        <ele>37.469</ele>
        <time>2011-04-24T18:58:58Z</time>
      </trkpt>
      <trkpt lat="59.638846" lon="16.941684">
        <ele>38.765</ele>
        <time>2011-04-24T18:59:04Z</time>
      </trkpt>
      <trkpt lat="59.638983" lon="16.944399">
        <ele>38.338</ele>
        <time>2011-04-24T18:59:10Z</time>
      </trkpt>
      <trkpt lat="59.639223" lon="16.947082">
        <ele>37.172</ele>
        <time>2011-04-24T18:59:16Z</time>
      </trkpt>
      <trkpt lat="59.639573" lon="16.94972">
        <ele>34.763</ele>
        <time>2011-04-24T18:59:22Z</time>
      </trkpt>
      <trkpt lat="59.640024" lon="16.952293">
        <ele>33.355</ele>
        <time>2011-04-24T18:59:28Z</time>
      </trkpt>
      <trkpt lat="59.640576" lon="16.954788">
        <ele>31.033</ele>
        <time>2011-04-24T18:59:34Z</time>
      </trkpt>
      <trkpt lat="59.641222" lon="16.957198">
        <ele>28.968</ele>
        <time>2011-04-24T18:59:40Z</time>
      </trkpt>
      <trkpt lat="59.641952" lon="16.959511">
        <ele>26.793</ele>
        <time>2011-04-24T18:59:46Z</time>
      </trkpt>
      <trkpt lat="59.643853" lon="16.965179">
        <ele>22.509</ele>
        <time>2011-04-24T19:00:01Z</time>
      </trkpt>
      <trkpt lat="59.645499" lon="16.970095">
        <ele>20.354</ele>
        <time>2011-04-24T19:00:14Z</time>
      </trkpt>
      <trkpt lat="59.6475" lon="16.97618">
        <ele>20.449</ele>
        <time>2011-04-24T19:00:30Z</time>
      </trkpt>
      <trkpt lat="59.648013" lon="16.978206">
        <ele>19.577</ele>
        <time>2011-04-24T19:00:35Z</time>
      </trkpt>
      <trkpt lat="59.648427" lon="16.980315">
        <ele>20.119</ele>
        <time>2011-04-24T19:00:40Z</time>
      </trkpt>
      <trkpt lat="59.64868" lon="16.982047">
        <ele>20.99</ele>
        <time>2011-04-24T19:00:44Z</time>
      </trkpt>
      <trkpt lat="59.648892" lon="16.984266">
        <ele>21.039</ele>
        <time>2011-04-24T19:00:49Z</time>
      </trkpt>
      <trkpt lat="59.648995" lon="16.986523">
        <ele>21.341</ele>
        <time>2011-04-24T19:00:54Z</time>
      </trkpt>
      <trkpt lat="59.648985" lon="16.988779">
        <ele>22.842</ele>
        <time>2011-04-24T19:00:59Z</time>
      </trkpt>
      <trkpt lat="59.648864" lon="16.991031">
        <ele>24.318</ele>
        <time>2011-04-24T19:01:04Z</time>
      </trkpt>
      <trkpt lat="59.648479" lon="16.99551">
        <ele>26.089</ele>
        <time>2011-04-24T19:01:14Z</time>
      </trkpt>
      <trkpt lat="59.64781" lon="17.002665">
        <ele>24.845</ele>
        <time>2011-04-24T19:01:30Z</time>
      </trkpt>
      <trkpt lat="59.647224" lon="17.008909">
        <ele>20.148</ele>
        <time>2011-04-24T19:01:44Z</time>
      </trkpt>
      <trkpt lat="59.646639" lon="17.015155">
        <ele>16.617</ele>
        <time>2011-04-24T19:01:58Z</time>
      </trkpt>
      <trkpt lat="59.645591" lon="17.025369">
        <ele>15.928</ele>
        <time>2011-04-24T19:02:21Z</time>
      </trkpt>
      <trkpt lat="59.645012" lon="17.029748">
        <ele>17.308</ele>
        <time>2011-04-24T19:02:31Z</time>
      </trkpt>
      <trkpt lat="59.644215" lon="17.035879">
        <ele>15.945</ele>
        <time>2011-04-24T19:02:45Z</time>
      </trkpt>
      <trkpt lat="59.64367" lon="17.040268">
        <ele>17.758</ele>
        <time>2011-04-24T19:02:55Z</time>
      </trkpt>
      <trkpt lat="59.643545" lon="17.04207">
        <ele>18.765</ele>
        <time>2011-04-24T19:02:59Z</time>
      </trkpt>
      <trkpt lat="59.643519" lon="17.044332">
        <ele>20.373</ele>
        <time>2011-04-24T19:03:04Z</time>
      </trkpt>
      <trkpt lat="59.643604" lon="17.046138">
        <ele>20.698</ele>
        <time>2011-04-24T19:03:08Z</time>
      </trkpt>
      <trkpt lat="59.643786" lon="17.047922">
        <ele>21.635</ele>
        <time>2011-04-24T19:03:12Z</time>
      </trkpt>
      <trkpt lat="59.644137" lon="17.050092">
        <ele>21.732</ele>
        <time>2011-04-24T19:03:17Z</time>
      </trkpt>
      <trkpt lat="59.644519" lon="17.051753">
        <ele>20.908</ele>
        <time>2011-04-24T19:03:21Z</time>
      </trkpt>
      <trkpt lat="59.645105" lon="17.053709">
        <ele>20.642</ele>
        <time>2011-04-24T19:03:26Z</time>
      </trkpt>
      <trkpt lat="59.645808" lon="17.055517">
        <ele>18.671</ele>
        <time>2011-04-24T19:03:31Z</time>
      </trkpt>
      <trkpt lat="59.646529" lon="17.057291">
        <ele>16.369</ele>
        <time>2011-04-24T19:03:36Z</time>
      </trkpt>
      <trkpt lat="59.647586" lon="17.05966">
        <ele>15.847</ele>
        <time>2011-04-24T19:03:43Z</time>
      </trkpt>
      <trkpt lat="59.648584" lon="17.06153">
        <ele>17.023</ele>
        <time>2011-04-24T19:03:49Z</time>
      </trkpt>
      <trkpt lat="59.649294" lon="17.062669">
        <ele>17.87</ele>
        <time>2011-04-24T19:03:53Z</time>
      </trkpt>
      <trkpt lat="59.65075" lon="17.064882">
        <ele>22.208</ele>
        <time>2011-04-24T19:04:01Z</time>
      </trkpt>
      <trkpt lat="59.651593" lon="17.066429">
        <ele>24.508</ele>
        <time>2011-04-24T19:04:06Z</time>
      </trkpt>
      <trkpt lat="59.652358" lon="17.068122">
        <ele>26.822</ele>
        <time>2011-04-24T19:04:11Z</time>
      </trkpt>
      <trkpt lat="59.653041" lon="17.069944">
        <ele>28.385</ele>
        <time>2011-04-24T19:04:16Z</time>
      </trkpt>
      <trkpt lat="59.653625" lon="17.071906">
        <ele>28.039</ele>
        <time>2011-04-24T19:04:21Z</time>
      </trkpt>
      <trkpt lat="59.654118" lon="17.073957">
        <ele>27.568</ele>
        <time>2011-04-24T19:04:26Z</time>
      </trkpt>
      <trkpt lat="59.654507" lon="17.076091">
        <ele>27.045</ele>
        <time>2011-04-24T19:04:31Z</time>
      </trkpt>
      <trkpt lat="59.654782" lon="17.078294">
        <ele>26.06</ele>
        <time>2011-04-24T19:04:36Z</time>
      </trkpt>
      <trkpt lat="59.654981" lon="17.080982">
        <ele>23.302</ele>
        <time>2011-04-24T19:04:42Z</time>
      </trkpt>
      <trkpt lat="59.655025" lon="17.083203">
        <ele>22.213</ele>
        <time>2011-04-24T19:04:47Z</time>
      </trkpt>
      <trkpt lat="59.654965" lon="17.085309">
        <ele>21.45</ele>
        <time>2011-04-24T19:04:52Z</time>
      </trkpt>
      <trkpt lat="59.654808" lon="17.087407">
        <ele>21.552</ele>
        <time>2011-04-24T19:04:57Z</time>
      </trkpt>
      <trkpt lat="59.654559" lon="17.089472">
        <ele>21.713</ele>
        <time>2011-04-24T19:05:02Z</time>
      </trkpt>
      <trkpt lat="59.654147" lon="17.091878">
        <ele>21.725</ele>
        <time>2011-04-24T19:05:08Z</time>
      </trkpt>
      <trkpt lat="59.653368" lon="17.095818">
        <ele>21.785</ele>
        <time>2011-04-24T19:05:18Z</time>
      </trkpt>
      <trkpt lat="59.652679" lon="17.099851">
        <ele>20.779</ele>
        <time>2011-04-24T19:05:28Z</time>
      </trkpt>
      <trkpt lat="59.652229" lon="17.10312">
        <ele>21.09</ele>
        <time>2011-04-24T19:05:36Z</time>
      </trkpt>
      <trkpt lat="59.651838" lon="17.106427">
        <ele>22.698</ele>
        <time>2011-04-24T19:05:44Z</time>
      </trkpt>
      <trkpt lat="59.651328" lon="17.111419">
        <ele>24.506</ele>
        <time>2011-04-24T19:05:56Z</time>
      </trkpt>
      <trkpt lat="59.65107" lon="17.114329">
        <ele>25.371</ele>
        <time>2011-04-24T19:06:03Z</time>
      </trkpt>
      <trkpt lat="59.650792" lon="17.118108">
        <ele>26.642</ele>
        <time>2011-04-24T19:06:12Z</time>
      </trkpt>
      <trkpt lat="59.650502" lon="17.123163">
        <ele>29.103</ele>
        <time>2011-04-24T19:06:24Z</time>
      </trkpt>
      <trkpt lat="59.650242" lon="17.127389">
        <ele>30.051</ele>
        <time>2011-04-24T19:06:34Z</time>
      </trkpt>
      <trkpt lat="59.649907" lon="17.131164">
        <ele>27.896</ele>
        <time>2011-04-24T19:06:43Z</time>
      </trkpt>
      <trkpt lat="59.649521" lon="17.134464">
        <ele>26.482</ele>
        <time>2011-04-24T19:06:51Z</time>
      </trkpt>
      <trkpt lat="59.649136" lon="17.136874">
        <ele>25.878</ele>
        <time>2011-04-24T19:06:57Z</time>
      </trkpt>
      <trkpt lat="59.648606" lon="17.139629">
        <ele>25.74</ele>
        <time>2011-04-24T19:07:04Z</time>
      </trkpt>
      <trkpt lat="59.64763" lon="17.144315">
        <ele>27.228</ele>
        <time>2011-04-24T19:07:16Z</time>
      </trkpt>
      <trkpt lat="59.647206" lon="17.146725">
        <ele>27.771</ele>
        <time>2011-04-24T19:07:22Z</time>
      </trkpt>
      <trkpt lat="59.646733" lon="17.149991">
        <ele>28.826</ele>
        <time>2011-04-24T19:07:30Z</time>
      </trkpt>
      <trkpt lat="59.646409" lon="17.152893">
        <ele>29.258</ele>
        <time>2011-04-24T19:07:37Z</time>
      </trkpt>
      <trkpt lat="59.646135" lon="17.156253">
        <ele>29.475</ele>
        <time>2011-04-24T19:07:45Z</time>
      </trkpt>
      <trkpt lat="59.645947" lon="17.159629">
        <ele>30.006</ele>
        <time>2011-04-24T19:07:53Z</time>
      </trkpt>
      <trkpt lat="59.645705" lon="17.165556">
        <ele>30.011</ele>
        <time>2011-04-24T19:08:07Z</time>
      </trkpt>
      <trkpt lat="59.645552" lon="17.1698">
        <ele>28.565</ele>
        <time>2011-04-24T19:08:17Z</time>
      </trkpt>
      <trkpt lat="59.645437" lon="17.175314">
        <ele>26.525</ele>
        <time>2011-04-24T19:08:30Z</time>
      </trkpt>
      <trkpt lat="59.645289" lon="17.180359">
        <ele>26.352</ele>
        <time>2011-04-24T19:08:42Z</time>
      </trkpt>
      <trkpt lat="59.645059" lon="17.184979">
        <ele>28.257</ele>
        <time>2011-04-24T19:08:53Z</time>
      </trkpt>
      <trkpt lat="59.644799" lon="17.188768">
        <ele>30.733</ele>
        <time>2011-04-24T19:09:02Z</time>
      </trkpt>
      <trkpt lat="59.644404" lon="17.19338">
        <ele>32.285</ele>
        <time>2011-04-24T19:09:13Z</time>
      </trkpt>
      <trkpt lat="59.643961" lon="17.197533">
        <ele>33.733</ele>
        <time>2011-04-24T19:09:23Z</time>
      </trkpt>
      <trkpt lat="59.643516" lon="17.200819">
        <ele>34.221</ele>
        <time>2011-04-24T19:09:31Z</time>
      </trkpt>
      <trkpt lat="59.642918" lon="17.204462">
        <ele>32.745</ele>
        <time>2011-04-24T19:09:40Z</time>
      </trkpt>
      <trkpt lat="59.642096" lon="17.208837">
        <ele>30.491</ele>
        <time>2011-04-24T19:09:51Z</time>
      </trkpt>
      <trkpt lat="59.64139" lon="17.212843">
        <ele>29.712</ele>
        <time>2011-04-24T19:10:01Z</time>
      </trkpt>
      <trkpt lat="59.640904" lon="17.216106">
        <ele>27.785</ele>
        <time>2011-04-24T19:10:09Z</time>
      </trkpt>
      <trkpt lat="59.640494" lon="17.219405">
        <ele>26.637</ele>
        <time>2011-04-24T19:10:17Z</time>
      </trkpt>
      <trkpt lat="59.640136" lon="17.22315">
        <ele>24.998</ele>
        <time>2011-04-24T19:10:26Z</time>
      </trkpt>
      <trkpt lat="59.639904" lon="17.226513">
        <ele>23.42</ele>
        <time>2011-04-24T19:10:34Z</time>
      </trkpt>
      <trkpt lat="59.639735" lon="17.230293">
        <ele>24.215</ele>
        <time>2011-04-24T19:10:43Z</time>
      </trkpt>
      <trkpt lat="59.639676" lon="17.233663">
        <ele>24.488</ele>
        <time>2011-04-24T19:10:51Z</time>
      </trkpt>
      <trkpt lat="59.639703" lon="17.237494">
        <ele>23.633</ele>
        <time>2011-04-24T19:11:00Z</time>
      </trkpt>
      <trkpt lat="59.639716" lon="17.240883">
        <ele>23.03</ele>
        <time>2011-04-24T19:11:08Z</time>
      </trkpt>
      <trkpt lat="59.63966" lon="17.244695">
        <ele>23.733</ele>
        <time>2011-04-24T19:11:17Z</time>
      </trkpt>
      <trkpt lat="59.639505" lon="17.248505">
        <ele>23.741</ele>
        <time>2011-04-24T19:11:26Z</time>
      </trkpt>
      <trkpt lat="59.639288" lon="17.251867">
        <ele>24.824</ele>
        <time>2011-04-24T19:11:34Z</time>
      </trkpt>
      <trkpt lat="59.63891" lon="17.256034">
        <ele>25.382</ele>
        <time>2011-04-24T19:11:44Z</time>
      </trkpt>
      <trkpt lat="59.63847" lon="17.259749">
        <ele>26.225</ele>
        <time>2011-04-24T19:11:53Z</time>
      </trkpt>
      <trkpt lat="59.637938" lon="17.263431">
        <ele>27.068</ele>
        <time>2011-04-24T19:12:02Z</time>
      </trkpt>
      <trkpt lat="59.637303" lon="17.267064">
        <ele>25.585</ele>
        <time>2011-04-24T19:12:11Z</time>
      </trkpt>
      <trkpt lat="59.636517" lon="17.271015">
        <ele>21.212</ele>
        <time>2011-04-24T19:12:21Z</time>
      </trkpt>
      <trkpt lat="59.636116" lon="17.27297">
        <ele>18.397</ele>
        <time>2011-04-24T19:12:26Z</time>
      </trkpt>
      <trkpt lat="59.635197" lon="17.277708">
        <ele>11.977</ele>
        <time>2011-04-24T19:12:38Z</time>
      </trkpt>
      <trkpt lat="59.634849" lon="17.279703">
        <ele>9.34</ele>
        <time>2011-04-24T19:12:43Z</time>
      </trkpt>
      <trkpt lat="59.634215" lon="17.283724">
        <ele>5.848</ele>
        <time>2011-04-24T19:12:53Z</time>
      </trkpt>
      <trkpt lat="59.633773" lon="17.286997">
        <ele>5.479</ele>
        <time>2011-04-24T19:13:01Z</time>
      </trkpt>
      <trkpt lat="59.633376" lon="17.290247">
        <ele>6.264</ele>
        <time>2011-04-24T19:13:09Z</time>
      </trkpt>
      <trkpt lat="59.632988" lon="17.293985">
        <ele>6.783</ele>
        <time>2011-04-24T19:13:18Z</time>
      </trkpt>
      <trkpt lat="59.632646" lon="17.298107">
        <ele>9.143</ele>
        <time>2011-04-24T19:13:28Z</time>
      </trkpt>
      <trkpt lat="59.632482" lon="17.300616">
        <ele>12.037</ele>
        <time>2011-04-24T19:13:34Z</time>
      </trkpt>
      <trkpt lat="59.632234" lon="17.305245">
        <ele>18.26</ele>
        <time>2011-04-24T19:13:45Z</time>
      </trkpt>
      <trkpt lat="59.6321" lon="17.307778">
        <ele>21.117</ele>
        <time>2011-04-24T19:13:51Z</time>
      </trkpt>
      <trkpt lat="59.631767" lon="17.314089">
        <ele>30.775</ele>
        <time>2011-04-24T19:14:06Z</time>
      </trkpt>
      <trkpt lat="59.631606" lon="17.317042">
        <ele>34.922</ele>
        <time>2011-04-24T19:14:13Z</time>
      </trkpt>
      <trkpt lat="59.631272" lon="17.321652">
        <ele>41.516</ele>
        <time>2011-04-24T19:14:24Z</time>
      </trkpt>
      <trkpt lat="59.630913" lon="17.325421">
        <ele>44.478</ele>
        <time>2011-04-24T19:14:33Z</time>
      </trkpt>
      <trkpt lat="59.630281" lon="17.331232">
        <ele>45.07</ele>
        <time>2011-04-24T19:14:47Z</time>
      </trkpt>
      <trkpt lat="59.629871" lon="17.334955">
        <ele>44.812</ele>
        <time>2011-04-24T19:14:56Z</time>
      </trkpt>
      <trkpt lat="59.629278" lon="17.340353">
        <ele>44.414</ele>
        <time>2011-04-24T19:15:09Z</time>
      </trkpt>
      <trkpt lat="59.628643" lon="17.346151">
        <ele>44.989</ele>
        <time>2011-04-24T19:15:23Z</time>
      </trkpt>
      <trkpt lat="59.628144" lon="17.350713">
        <ele>43.911</ele>
        <time>2011-04-24T19:15:34Z</time>
      </trkpt>
      <trkpt lat="59.627512" lon="17.356498">
        <ele>43.998</ele>
        <time>2011-04-24T19:15:48Z</time>
      </trkpt>
      <trkpt lat="59.626921" lon="17.361891">
        <ele>42.927</ele>
        <time>2011-04-24T19:16:01Z</time>
      </trkpt>
      <trkpt lat="59.626498" lon="17.365179">
        <ele>42.271</ele>
        <time>2011-04-24T19:16:09Z</time>
      </trkpt>
      <trkpt lat="59.625942" lon="17.368853">
        <ele>39.173</ele>
        <time>2011-04-24T19:16:18Z</time>
      </trkpt>
      <trkpt lat="59.625665" lon="17.370466">
        <ele>36.935</ele>
        <time>2011-04-24T19:16:22Z</time>
      </trkpt>
      <trkpt lat="59.624986" lon="17.374061">
        <ele>29.729</ele>
        <time>2011-04-24T19:16:31Z</time>
      </trkpt>
      <trkpt lat="59.624142" lon="17.377965">
        <ele>20.045</ele>
        <time>2011-04-24T19:16:41Z</time>
      </trkpt>
      <trkpt lat="59.623273" lon="17.381376">
        <ele>11.837</ele>
        <time>2011-04-24T19:16:50Z</time>
      </trkpt>
      <trkpt lat="59.622235" lon="17.385027">
        <ele>7.821</ele>
        <time>2011-04-24T19:17:00Z</time>
      </trkpt>
      <trkpt lat="59.621224" lon="17.388222">
        <ele>6.24</ele>
        <time>2011-04-24T19:17:09Z</time>
      </trkpt>
      <trkpt lat="59.62026" lon="17.390991">
        <ele>8.723</ele>
        <time>2011-04-24T19:17:17Z</time>
      </trkpt>
      <trkpt lat="59.619238" lon="17.393668">
        <ele>13.883</ele>
        <time>2011-04-24T19:17:25Z</time>
      </trkpt>
      <trkpt lat="59.618022" lon="17.396621">
        <ele>21.42</ele>
        <time>2011-04-24T19:17:34Z</time>
      </trkpt>
      <trkpt lat="59.617338" lon="17.398257">
        <ele>23.998</ele>
        <time>2011-04-24T19:17:39Z</time>
      </trkpt>
      <trkpt lat="59.615144" lon="17.403489">
        <ele>27.011</ele>
        <time>2011-04-24T19:17:55Z</time>
      </trkpt>
      <trkpt lat="59.613371" lon="17.40772">
        <ele>26.21</ele>
        <time>2011-04-24T19:18:08Z</time>
      </trkpt>
      <trkpt lat="59.611902" lon="17.411372">
        <ele>24.797</ele>
        <time>2011-04-24T19:18:19Z</time>
      </trkpt>
      <trkpt lat="59.610371" lon="17.41545">
        <ele>23.951</ele>
        <time>2011-04-24T19:18:31Z</time>
      </trkpt>
      <trkpt lat="59.609149" lon="17.418927">
        <ele>23.56</ele>
        <time>2011-04-24T19:18:41Z</time>
      </trkpt>
      <trkpt lat="59.607634" lon="17.42353">
        <ele>23.815</ele>
        <time>2011-04-24T19:18:54Z</time>
      </trkpt>
      <trkpt lat="59.606669" lon="17.426321">
        <ele>23.285</ele>
        <time>2011-04-24T19:19:02Z</time>
      </trkpt>
      <trkpt lat="59.605498" lon="17.429343">
        <ele>22.677</ele>
        <time>2011-04-24T19:19:11Z</time>
      </trkpt>
      <trkpt lat="59.604099" lon="17.432544">
        <ele>23.206</ele>
        <time>2011-04-24T19:19:21Z</time>
      </trkpt>
      <trkpt lat="59.602637" lon="17.435627">
        <ele>23.74</ele>
        <time>2011-04-24T19:19:31Z</time>
      </trkpt>
      <trkpt lat="59.600901" lon="17.439356">
        <ele>24.551</ele>
        <time>2011-04-24T19:19:43Z</time>
      </trkpt>
      <trkpt lat="59.599822" lon="17.441984">
        <ele>25.855</ele>
        <time>2011-04-24T19:19:51Z</time>
      </trkpt>
      <trkpt lat="59.598685" lon="17.445054">
        <ele>27.844</ele>
        <time>2011-04-24T19:20:00Z</time>
      </trkpt>
      <trkpt lat="59.597642" lon="17.448254">
        <ele>29.733</ele>
        <time>2011-04-24T19:20:09Z</time>
      </trkpt>
      <trkpt lat="59.596683" lon="17.451562">
        <ele>29.034</ele>
        <time>2011-04-24T19:20:18Z</time>
      </trkpt>
      <trkpt lat="59.595913" lon="17.454578">
        <ele>28.614</ele>
        <time>2011-04-24T19:20:26Z</time>
      </trkpt>
      <trkpt lat="59.595132" lon="17.458042">
        <ele>28.922</ele>
        <time>2011-04-24T19:20:35Z</time>
      </trkpt>
      <trkpt lat="59.594453" lon="17.461589">
        <ele>30.464</ele>
        <time>2011-04-24T19:20:44Z</time>
      </trkpt>
      <trkpt lat="59.593924" lon="17.464802">
        <ele>32.313</ele>
        <time>2011-04-24T19:20:52Z</time>
      </trkpt>
      <trkpt lat="59.593481" lon="17.468081">
        <ele>32.267</ele>
        <time>2011-04-24T19:21:00Z</time>
      </trkpt>
      <trkpt lat="59.593123" lon="17.47138">
        <ele>33.754</ele>
        <time>2011-04-24T19:21:08Z</time>
      </trkpt>
      <trkpt lat="59.592781" lon="17.475559">
        <ele>35.492</ele>
        <time>2011-04-24T19:21:18Z</time>
      </trkpt>
      <trkpt lat="59.592538" lon="17.480184">
        <ele>37.238</ele>
        <time>2011-04-24T19:21:29Z</time>
      </trkpt>
      <trkpt lat="59.592299" lon="17.484389">
        <ele>38.01</ele>
        <time>2011-04-24T19:21:39Z</time>
      </trkpt>
      <trkpt lat="59.592051" lon="17.48688">
        <ele>37.687</ele>
        <time>2011-04-24T19:21:45Z</time>
      </trkpt>
      <trkpt lat="59.591645" lon="17.489743">
        <ele>35.681</ele>
        <time>2011-04-24T19:21:52Z</time>
      </trkpt>
      <trkpt lat="59.591106" lon="17.492519">
        <ele>31.253</ele>
        <time>2011-04-24T19:21:59Z</time>
      </trkpt>
      <trkpt lat="59.590557" lon="17.494821">
        <ele>27.003</ele>
        <time>2011-04-24T19:22:05Z</time>
      </trkpt>
      <trkpt lat="59.590456" lon="17.495193">
        <ele>26.72</ele>
        <time>2011-04-24T19:22:06Z</time>
      </trkpt>
      <trkpt lat="59.589698" lon="17.497735">
        <ele>23.053</ele>
        <time>2011-04-24T19:22:13Z</time>
      </trkpt>
      <trkpt lat="59.588846" lon="17.500161">
        <ele>20.707</ele>
        <time>2011-04-24T19:22:20Z</time>
      </trkpt>
      <trkpt lat="59.588585" lon="17.500832">
        <ele>19.989</ele>
        <time>2011-04-24T19:22:22Z</time>
      </trkpt>
      <trkpt lat="59.587181" lon="17.504557">
        <ele>17.656</ele>
        <time>2011-04-24T19:22:33Z</time>
      </trkpt>
      <trkpt lat="59.586134" lon="17.507749">
        <ele>16.829</ele>
        <time>2011-04-24T19:22:42Z</time>
      </trkpt>
      <trkpt lat="59.585047" lon="17.511394">
        <ele>15.277</ele>
        <time>2011-04-24T19:22:52Z</time>
      </trkpt>
      <trkpt lat="59.58406" lon="17.515121">
        <ele>17.96</ele>
        <time>2011-04-24T19:23:02Z</time>
      </trkpt>
      <trkpt lat="59.583161" lon="17.51893">
        <ele>24.389</ele>
        <time>2011-04-24T19:23:12Z</time>
      </trkpt>
      <trkpt lat="59.582364" lon="17.522388">
        <ele>30.472</ele>
        <time>2011-04-24T19:23:21Z</time>
      </trkpt>
      <trkpt lat="59.581485" lon="17.525781">
        <ele>36.505</ele>
        <time>2011-04-24T19:23:30Z</time>
      </trkpt>
      <trkpt lat="59.581384" lon="17.526155">
        <ele>36.696</ele>
        <time>2011-04-24T19:23:31Z</time>
      </trkpt>
      <trkpt lat="59.580432" lon="17.529466">
        <ele>41.349</ele>
        <time>2011-04-24T19:23:40Z</time>
      </trkpt>
      <trkpt lat="59.58021" lon="17.530191">
        <ele>42.193</ele>
        <time>2011-04-24T19:23:42Z</time>
      </trkpt>
      <trkpt lat="59.579163" lon="17.533406">
        <ele>43.983</ele>
        <time>2011-04-24T19:23:51Z</time>
      </trkpt>
      <trkpt lat="59.578177" lon="17.536184">
        <ele>42.653</ele>
        <time>2011-04-24T19:23:59Z</time>
      </trkpt>
      <trkpt lat="59.577245" lon="17.538528">
        <ele>38.926</ele>
        <time>2011-04-24T19:24:06Z</time>
      </trkpt>
      <trkpt lat="59.576234" lon="17.540724">
        <ele>33.162</ele>
        <time>2011-04-24T19:24:13Z</time>
      </trkpt>
      <trkpt lat="59.575293" lon="17.542459">
        <ele>27.867</ele>
        <time>2011-04-24T19:24:19Z</time>
      </trkpt>
      <trkpt lat="59.573958" lon="17.544592">
        <ele>22.166</ele>
        <time>2011-04-24T19:24:27Z</time>
      </trkpt>
      <trkpt lat="59.572152" lon="17.547568">
        <ele>14.585</ele>
        <time>2011-04-24T19:24:38Z</time>
      </trkpt>
      <trkpt lat="59.571992" lon="17.547845">
        <ele>14.337</ele>
        <time>2011-04-24T19:24:39Z</time>
      </trkpt>
      <trkpt lat="59.570436" lon="17.550709">
        <ele>11.651</ele>
        <time>2011-04-24T19:24:49Z</time>
      </trkpt>
      <trkpt lat="59.569101" lon="17.553416">
        <ele>12.483</ele>
        <time>2011-04-24T19:24:58Z</time>
      </trkpt>
      <trkpt lat="59.56782" lon="17.556231">
        <ele>15.726</ele>
        <time>2011-04-24T19:25:07Z</time>
      </trkpt>
      <trkpt lat="59.567031" lon="17.558111">
        <ele>18.577</ele>
        <time>2011-04-24T19:25:13Z</time>
      </trkpt>
      <trkpt lat="59.566339" lon="17.559798">
        <ele>20.211</ele>
        <time>2011-04-24T19:25:19Z</time>
      </trkpt>
      <trkpt lat="59.566051" lon="17.560462">
        <ele>20.245</ele>
        <time>2011-04-24T19:25:22Z</time>
      </trkpt>
      <trkpt lat="59.56576" lon="17.561097">
        <ele>20.49</ele>
        <time>2011-04-24T19:25:26Z</time>
      </trkpt>
      <trkpt lat="59.565495" lon="17.561323">
        <ele>21.382</ele>
        <time>2011-04-24T19:25:30Z</time>
      </trkpt>
      <trkpt lat="59.565332" lon="17.561133">
        <ele>21.621</ele>
        <time>2011-04-24T19:25:33Z</time>
      </trkpt>
      <trkpt lat="59.565283" lon="17.560802">
        <ele>21.956</ele>
        <time>2011-04-24T19:25:36Z</time>
      </trkpt>
      <trkpt lat="59.565283" lon="17.560707">
        <ele>21.931</ele>
        <time>2011-04-24T19:25:37Z</time>
      </trkpt>
      <trkpt lat="59.56529" lon="17.560472">
        <ele>21.411</ele>
        <time>2011-04-24T19:25:42Z</time>
      </trkpt>
      <trkpt lat="59.565263" lon="17.56031">
        <ele>21.482</ele>
        <time>2011-04-24T19:25:45Z</time>
      </trkpt>
      <trkpt lat="59.565072" lon="17.560141">
        <ele>21.615</ele>
        <time>2011-04-24T19:25:49Z</time>
      </trkpt>
      <trkpt lat="59.564991" lon="17.56013">
        <ele>21.546</ele>
        <time>2011-04-24T19:25:50Z</time>
      </trkpt>
      <trkpt lat="59.56444" lon="17.560139">
        <ele>20.126</ele>
        <time>2011-04-24T19:25:55Z</time>
      </trkpt>
      <trkpt lat="59.564178" lon="17.56015">
        <ele>19.273</ele>
        <time>2011-04-24T19:25:57Z</time>
      </trkpt>
      <trkpt lat="59.563488" lon="17.560073">
        <ele>15.659</ele>
        <time>2011-04-24T19:26:02Z</time>
      </trkpt>
      <trkpt lat="59.562931" lon="17.559772">
        <ele>12.769</ele>
        <time>2011-04-24T19:26:06Z</time>
      </trkpt>
      <trkpt lat="59.562417" lon="17.559217">
        <ele>10.236</ele>
        <time>2011-04-24T19:26:10Z</time>
      </trkpt>
      <trkpt lat="59.561955" lon="17.558444">
        <ele>9.02</ele>
        <time>2011-04-24T19:26:14Z</time>
      </trkpt>
      <trkpt lat="59.561588" lon="17.557493">
        <ele>7.458</ele>
        <time>2011-04-24T19:26:18Z</time>
      </trkpt>
      <trkpt lat="59.561339" lon="17.55643">
        <ele>5.871</ele>
        <time>2011-04-24T19:26:22Z</time>
      </trkpt>
      <trkpt lat="59.561244" lon="17.55569">
        <ele>4.658</ele>
        <time>2011-04-24T19:26:25Z</time>
      </trkpt>
      <trkpt lat="59.56119" lon="17.554918">
        <ele>2.66</ele>
        <time>2011-04-24T19:26:29Z</time>
      </trkpt>
      <trkpt lat="59.561246" lon="17.554234">
        <ele>1.179</ele>
        <time>2011-04-24T19:26:34Z</time>
      </trkpt>
      <trkpt lat="59.561237" lon="17.554092">
        <ele>1.161</ele>
        <time>2011-04-24T19:26:35Z</time>
      </trkpt>
      <trkpt lat="59.561147" lon="17.553233">
        <ele>2.035</ele>
        <time>2011-04-24T19:26:40Z</time>
      </trkpt>
      <trkpt lat="59.56108" lon="17.552107">
        <ele>3.539</ele>
        <time>2011-04-24T19:26:45Z</time>
      </trkpt>
      <trkpt lat="59.56095" lon="17.550305">
        <ele>4.74</ele>
        <time>2011-04-24T19:26:52Z</time>
      </trkpt>
      <trkpt lat="59.560769" lon="17.548995">
        <ele>5.272</ele>
        <time>2011-04-24T19:26:57Z</time>
      </trkpt>
      <trkpt lat="59.560477" lon="17.547726">
        <ele>5.958</ele>
        <time>2011-04-24T19:27:02Z</time>
      </trkpt>
      <trkpt lat="59.560134" lon="17.546598">
        <ele>5.404</ele>
        <time>2011-04-24T19:27:07Z</time>
      </trkpt>
      <trkpt lat="59.559776" lon="17.54562">
        <ele>4.994</ele>
        <time>2011-04-24T19:27:12Z</time>
      </trkpt>
      <trkpt lat="59.559615" lon="17.545204">
        <ele>4.49</ele>
        <time>2011-04-24T19:27:15Z</time>
      </trkpt>
      <trkpt lat="59.559543" lon="17.545024">
        <ele>4.073</ele>
        <time>2011-04-24T19:27:17Z</time>
      </trkpt>
      <trkpt lat="59.559467" lon="17.544554">
        <ele>3.862</ele>
        <time>2011-04-24T19:27:22Z</time>
      </trkpt>
      <trkpt lat="59.559373" lon="17.5442">
        <ele>4.228</ele>
        <time>2011-04-24T19:27:25Z</time>
      </trkpt>
      <trkpt lat="59.559315" lon="17.544088">
        <ele>4.403</ele>
        <time>2011-04-24T19:27:26Z</time>
      </trkpt>
      <trkpt lat="59.558861" lon="17.543163">
        <ele>4.041</ele>
        <time>2011-04-24T19:27:33Z</time>
      </trkpt>
      <trkpt lat="59.558573" lon="17.542415">
        <ele>2.696</ele>
        <time>2011-04-24T19:27:37Z</time>
      </trkpt>
      <trkpt lat="59.55806" lon="17.540941">
        <ele>1.071</ele>
        <time>2011-04-24T19:27:44Z</time>
      </trkpt>
      <trkpt lat="59.55761" lon="17.53936">
        <ele>0.153</ele>
        <time>2011-04-24T19:27:51Z</time>
      </trkpt>
      <trkpt lat="59.557156" lon="17.537251">
        <ele>0</ele>
        <time>2011-04-24T19:28:00Z</time>
      </trkpt>
      <trkpt lat="59.556953" lon="17.535936">
        <ele>0</ele>
        <time>2011-04-24T19:28:06Z</time>
      </trkpt>
      <trkpt lat="59.556889" lon="17.53542">
        <ele>0</ele>
        <time>2011-04-24T19:28:09Z</time>
      </trkpt>
      <trkpt lat="59.556896" lon="17.534893">
        <ele>0</ele>
        <time>2011-04-24T19:28:13Z</time>
      </trkpt>
      <trkpt lat="59.556827" lon="17.534577">
        <ele>0</ele>
        <time>2011-04-24T19:28:17Z</time>
      </trkpt>
      <trkpt lat="59.556677" lon="17.534663">
        <ele>0</ele>
        <time>2011-04-24T19:28:20Z</time>
      </trkpt>
      <trkpt lat="59.556627" lon="17.534755">
        <ele>0</ele>
        <time>2011-04-24T19:28:21Z</time>
      </trkpt>
      <trkpt lat="59.556314" lon="17.535165">
        <ele>0</ele>
        <time>2011-04-24T19:28:26Z</time>
      </trkpt>
      <trkpt lat="59.55586" lon="17.535486">
        <ele>0</ele>
        <time>2011-04-24T19:28:33Z</time>
      </trkpt>
      <trkpt lat="59.555732" lon="17.535644">
        <ele>0</ele>
        <time>2011-04-24T19:28:37Z</time>
      </trkpt>
      <trkpt lat="59.555733" lon="17.535897">
        <ele>0</ele>
        <time>2011-04-24T19:28:41Z</time>
      </trkpt>
      <trkpt lat="59.555723" lon="17.536157">
        <ele>0</ele>
        <time>2011-04-24T19:28:45Z</time>
      </trkpt>
      <trkpt lat="59.555495" lon="17.536776">
        <ele>0</ele>
        <time>2011-04-24T19:28:53Z</time>
      </trkpt>
      <trkpt lat="59.555122" lon="17.537795">
        <ele>0</ele>
        <time>2011-04-24T19:29:05Z</time>
      </trkpt>
      <trkpt lat="59.554967" lon="17.53825">
        <ele>0</ele>
        <time>2011-04-24T19:29:11Z</time>
      </trkpt>
      <trkpt lat="59.554941" lon="17.538489">
        <ele>0</ele>
        <time>2011-04-24T19:29:15Z</time>
      </trkpt>
      <trkpt lat="59.55503" lon="17.538863">
        <ele>0</ele>
        <time>2011-04-24T19:29:21Z</time>
      </trkpt>
      <trkpt lat="59.555102" lon="17.539174">
        <ele>0</ele>
        <time>2011-04-24T19:29:27Z</time>
      </trkpt>
      <trkpt lat="59.555121" lon="17.539247">
        <ele>0</ele>
        <time>2011-04-24T19:29:31Z</time>
      </trkpt>
      <trkpt lat="59.555127" lon="17.539266">
        <ele>0</ele>
        <time>2011-04-24T19:29:39Z</time>
      </trkpt>
      <trkpt lat="59.55513" lon="17.539278">
        <ele>0</ele>
        <time>2011-04-24T19:29:41Z</time>
      </trkpt>
    </trkseg>
  </trk>
</gpx>